<?xml version="1.0" encoding="UTF-8" standalone="no" ?>
<gpx xmlns="http://www.topografix.com/GPX/1/1" xmlns:xsi="http://www.w3.org/2001/XMLSchema-instance" xsi:schemaLocation="http://www.topografix.com/GPX/1/1 http://www.topografix.com/GPX/1/1/gpx.xsd" version="1.1" creator="VisuGPX - https://www.visugpx.com">
  <metadata>
    <name>Tour des Merveilles (20/07/2019)</name>
    <desc><![CDATA[Depuis le relais des Merveilles, montée au Pas de Trem puis à la Cime du Diable. Descente vers la Baisse Cavaline et remontée au Pas du Diable pour rejoindre le refuge des Merveilles un peu plus bas. Ascension du Mont Bégo et descente vers le Pas de Valmasque, Partie un peu plus roulante le long des lacs Basto et Noir avant l'ascension du Pas de La Fous et la descente vers le Refuge de Nice. Retour par le Pont du Countet.]]></desc>
  </metadata>
  <trk>
    <name><![CDATA[Move]]></name>
    <trkseg>
      <trkpt lat="44.06341" lon="7.39118">
        <ele>1584.5</ele>
        <time>2019-07-20T04:13:53.115Z</time>
      </trkpt>
      <trkpt lat="44.0634" lon="7.39128">
        <ele>1620</ele>
        <time>2019-07-20T04:14:02.115Z</time>
      </trkpt>
      <trkpt lat="44.06333" lon="7.39138">
        <ele>1620</ele>
        <time>2019-07-20T04:14:07.115Z</time>
      </trkpt>
      <trkpt lat="44.06327" lon="7.39151">
        <ele>1618</ele>
        <time>2019-07-20T04:14:14.115Z</time>
      </trkpt>
      <trkpt lat="44.06326" lon="7.39167">
        <ele>1616</ele>
        <time>2019-07-20T04:14:22.115Z</time>
      </trkpt>
      <trkpt lat="44.06324" lon="7.39182">
        <ele>1616</ele>
        <time>2019-07-20T04:14:29.115Z</time>
      </trkpt>
      <trkpt lat="44.06322" lon="7.39195">
        <ele>1615</ele>
        <time>2019-07-20T04:14:38.115Z</time>
      </trkpt>
      <trkpt lat="44.06313" lon="7.39204">
        <ele>1614</ele>
        <time>2019-07-20T04:14:47.115Z</time>
      </trkpt>
      <trkpt lat="44.06304" lon="7.39201">
        <ele>1611</ele>
        <time>2019-07-20T04:14:52.115Z</time>
      </trkpt>
      <trkpt lat="44.06294" lon="7.39194">
        <ele>1610</ele>
        <time>2019-07-20T04:14:57.115Z</time>
      </trkpt>
      <trkpt lat="44.06284" lon="7.39193">
        <ele>1610</ele>
        <time>2019-07-20T04:15:03.115Z</time>
      </trkpt>
      <trkpt lat="44.06275" lon="7.392">
        <ele>1610</ele>
        <time>2019-07-20T04:15:12.115Z</time>
      </trkpt>
      <trkpt lat="44.0627" lon="7.39212">
        <ele>1611</ele>
        <time>2019-07-20T04:15:21.115Z</time>
      </trkpt>
      <trkpt lat="44.06259" lon="7.39214">
        <ele>1613</ele>
        <time>2019-07-20T04:15:45.115Z</time>
      </trkpt>
      <trkpt lat="44.06251" lon="7.39205">
        <ele>1614</ele>
        <time>2019-07-20T04:15:54.115Z</time>
      </trkpt>
      <trkpt lat="44.06243" lon="7.39196">
        <ele>1616</ele>
        <time>2019-07-20T04:16:03.115Z</time>
      </trkpt>
      <trkpt lat="44.06237" lon="7.39207">
        <ele>1618</ele>
        <time>2019-07-20T04:16:12.115Z</time>
      </trkpt>
      <trkpt lat="44.06228" lon="7.39216">
        <ele>1620</ele>
        <time>2019-07-20T04:16:35.115Z</time>
      </trkpt>
      <trkpt lat="44.06219" lon="7.39223">
        <ele>1623</ele>
        <time>2019-07-20T04:16:53.115Z</time>
      </trkpt>
      <trkpt lat="44.06213" lon="7.39235">
        <ele>1623</ele>
        <time>2019-07-20T04:17:04.115Z</time>
      </trkpt>
      <trkpt lat="44.06208" lon="7.39248">
        <ele>1625</ele>
        <time>2019-07-20T04:17:16.115Z</time>
      </trkpt>
      <trkpt lat="44.06212" lon="7.39262">
        <ele>1629</ele>
        <time>2019-07-20T04:17:29.115Z</time>
      </trkpt>
      <trkpt lat="44.0622" lon="7.39271">
        <ele>1629</ele>
        <time>2019-07-20T04:17:36.115Z</time>
      </trkpt>
      <trkpt lat="44.06213" lon="7.39281">
        <ele>1629</ele>
        <time>2019-07-20T04:17:45.115Z</time>
      </trkpt>
      <trkpt lat="44.06203" lon="7.39281">
        <ele>1631</ele>
        <time>2019-07-20T04:17:54.115Z</time>
      </trkpt>
      <trkpt lat="44.06193" lon="7.39276">
        <ele>1636</ele>
        <time>2019-07-20T04:18:08.115Z</time>
      </trkpt>
      <trkpt lat="44.06191" lon="7.39291">
        <ele>1638.5949952</ele>
        <time>2019-07-20T04:18:20.115Z</time>
      </trkpt>
      <trkpt lat="44.06185" lon="7.39303">
        <ele>1644</ele>
        <time>2019-07-20T04:18:42.115Z</time>
      </trkpt>
      <trkpt lat="44.06175" lon="7.39305">
        <ele>1648</ele>
        <time>2019-07-20T04:18:56.115Z</time>
      </trkpt>
      <trkpt lat="44.06165" lon="7.39305">
        <ele>1650</ele>
        <time>2019-07-20T04:19:07.115Z</time>
      </trkpt>
      <trkpt lat="44.06157" lon="7.39315">
        <ele>1654</ele>
        <time>2019-07-20T04:19:25.115Z</time>
      </trkpt>
      <trkpt lat="44.06158" lon="7.39329">
        <ele>1656</ele>
        <time>2019-07-20T04:19:37.115Z</time>
      </trkpt>
      <trkpt lat="44.06148" lon="7.39322">
        <ele>1663</ele>
        <time>2019-07-20T04:20:07.115Z</time>
      </trkpt>
      <trkpt lat="44.06138" lon="7.39323">
        <ele>1665</ele>
        <time>2019-07-20T04:20:16.115Z</time>
      </trkpt>
      <trkpt lat="44.06128" lon="7.39319">
        <ele>1667</ele>
        <time>2019-07-20T04:20:28.115Z</time>
      </trkpt>
      <trkpt lat="44.06119" lon="7.39326">
        <ele>1676</ele>
        <time>2019-07-20T04:21:01.115Z</time>
      </trkpt>
      <trkpt lat="44.0611" lon="7.39318">
        <ele>1677</ele>
        <time>2019-07-20T04:21:16.115Z</time>
      </trkpt>
      <trkpt lat="44.06101" lon="7.39324">
        <ele>1682</ele>
        <time>2019-07-20T04:21:34.115Z</time>
      </trkpt>
      <trkpt lat="44.06106" lon="7.39337">
        <ele>1685.5949952</ele>
        <time>2019-07-20T04:21:45.115Z</time>
      </trkpt>
      <trkpt lat="44.06097" lon="7.39342">
        <ele>1687</ele>
        <time>2019-07-20T04:21:59.115Z</time>
      </trkpt>
      <trkpt lat="44.06088" lon="7.39348">
        <ele>1693</ele>
        <time>2019-07-20T04:22:14.115Z</time>
      </trkpt>
      <trkpt lat="44.06079" lon="7.39352">
        <ele>1694</ele>
        <time>2019-07-20T04:22:27.115Z</time>
      </trkpt>
      <trkpt lat="44.0607" lon="7.39359">
        <ele>1696</ele>
        <time>2019-07-20T04:22:37.115Z</time>
      </trkpt>
      <trkpt lat="44.0606" lon="7.39358">
        <ele>1698</ele>
        <time>2019-07-20T04:22:45.115Z</time>
      </trkpt>
      <trkpt lat="44.06049" lon="7.39358">
        <ele>1700</ele>
        <time>2019-07-20T04:22:54.115Z</time>
      </trkpt>
      <trkpt lat="44.06047" lon="7.39372">
        <ele>1705</ele>
        <time>2019-07-20T04:23:12.115Z</time>
      </trkpt>
      <trkpt lat="44.06053" lon="7.39383">
        <ele>1711.5949952</ele>
        <time>2019-07-20T04:23:45.115Z</time>
      </trkpt>
      <trkpt lat="44.06062" lon="7.39388">
        <ele>1715</ele>
        <time>2019-07-20T04:24:01.115Z</time>
      </trkpt>
      <trkpt lat="44.06066" lon="7.394">
        <ele>1717</ele>
        <time>2019-07-20T04:24:19.115Z</time>
      </trkpt>
      <trkpt lat="44.06067" lon="7.39415">
        <ele>1721</ele>
        <time>2019-07-20T04:24:34.115Z</time>
      </trkpt>
      <trkpt lat="44.06074" lon="7.39427">
        <ele>1724.5949952</ele>
        <time>2019-07-20T04:24:45.115Z</time>
      </trkpt>
      <trkpt lat="44.06076" lon="7.3944">
        <ele>1726</ele>
        <time>2019-07-20T04:24:57.115Z</time>
      </trkpt>
      <trkpt lat="44.06075" lon="7.39456">
        <ele>1734</ele>
        <time>2019-07-20T04:25:21.115Z</time>
      </trkpt>
      <trkpt lat="44.06067" lon="7.39466">
        <ele>1739</ele>
        <time>2019-07-20T04:25:41.115Z</time>
      </trkpt>
      <trkpt lat="44.06057" lon="7.39471">
        <ele>1746</ele>
        <time>2019-07-20T04:26:15.115Z</time>
      </trkpt>
      <trkpt lat="44.06048" lon="7.39477">
        <ele>1753.1899904</ele>
        <time>2019-07-20T04:26:50.115Z</time>
      </trkpt>
      <trkpt lat="44.06037" lon="7.39477">
        <ele>1756</ele>
        <time>2019-07-20T04:27:01.115Z</time>
      </trkpt>
      <trkpt lat="44.06027" lon="7.39474">
        <ele>1758</ele>
        <time>2019-07-20T04:27:13.115Z</time>
      </trkpt>
      <trkpt lat="44.06021" lon="7.39486">
        <ele>1764</ele>
        <time>2019-07-20T04:27:34.115Z</time>
      </trkpt>
      <trkpt lat="44.06011" lon="7.39488">
        <ele>1768</ele>
        <time>2019-07-20T04:27:58.115Z</time>
      </trkpt>
      <trkpt lat="44.06001" lon="7.39491">
        <ele>1774</ele>
        <time>2019-07-20T04:28:22.115Z</time>
      </trkpt>
      <trkpt lat="44.05991" lon="7.39493">
        <ele>1779</ele>
        <time>2019-07-20T04:28:38.115Z</time>
      </trkpt>
      <trkpt lat="44.05982" lon="7.39485">
        <ele>1782</ele>
        <time>2019-07-20T04:28:59.115Z</time>
      </trkpt>
      <trkpt lat="44.05972" lon="7.39484">
        <ele>1787</ele>
        <time>2019-07-20T04:29:13.115Z</time>
      </trkpt>
      <trkpt lat="44.05967" lon="7.39496">
        <ele>1792</ele>
        <time>2019-07-20T04:29:36.115Z</time>
      </trkpt>
      <trkpt lat="44.05957" lon="7.39497">
        <ele>1797</ele>
        <time>2019-07-20T04:29:53.115Z</time>
      </trkpt>
      <trkpt lat="44.05947" lon="7.39499">
        <ele>1803.1899904</ele>
        <time>2019-07-20T04:30:20.115Z</time>
      </trkpt>
      <trkpt lat="44.0594" lon="7.39509">
        <ele>1809</ele>
        <time>2019-07-20T04:30:38.115Z</time>
      </trkpt>
      <trkpt lat="44.05929" lon="7.39507">
        <ele>1812</ele>
        <time>2019-07-20T04:30:55.115Z</time>
      </trkpt>
      <trkpt lat="44.0592" lon="7.39503">
        <ele>1816</ele>
        <time>2019-07-20T04:31:08.115Z</time>
      </trkpt>
      <trkpt lat="44.0591" lon="7.39503">
        <ele>1818</ele>
        <time>2019-07-20T04:31:27.115Z</time>
      </trkpt>
      <trkpt lat="44.05899" lon="7.39501">
        <ele>1826</ele>
        <time>2019-07-20T04:31:53.115Z</time>
      </trkpt>
      <trkpt lat="44.05889" lon="7.39495">
        <ele>1826</ele>
        <time>2019-07-20T04:32:02.115Z</time>
      </trkpt>
      <trkpt lat="44.05881" lon="7.39486">
        <ele>1828</ele>
        <time>2019-07-20T04:32:12.115Z</time>
      </trkpt>
      <trkpt lat="44.05873" lon="7.39477">
        <ele>1831</ele>
        <time>2019-07-20T04:32:21.115Z</time>
      </trkpt>
      <trkpt lat="44.05873" lon="7.39491">
        <ele>1831</ele>
        <time>2019-07-20T04:32:56.115Z</time>
      </trkpt>
      <trkpt lat="44.05871" lon="7.39505">
        <ele>1835.1899904</ele>
        <time>2019-07-20T04:33:10.115Z</time>
      </trkpt>
      <trkpt lat="44.0588" lon="7.39513">
        <ele>1838</ele>
        <time>2019-07-20T04:33:23.115Z</time>
      </trkpt>
      <trkpt lat="44.05881" lon="7.39527">
        <ele>1839</ele>
        <time>2019-07-20T04:33:39.115Z</time>
      </trkpt>
      <trkpt lat="44.05887" lon="7.39539">
        <ele>1846</ele>
        <time>2019-07-20T04:33:57.115Z</time>
      </trkpt>
      <trkpt lat="44.0589" lon="7.39552">
        <ele>1848</ele>
        <time>2019-07-20T04:34:08.115Z</time>
      </trkpt>
      <trkpt lat="44.05893" lon="7.39566">
        <ele>1852</ele>
        <time>2019-07-20T04:34:23.115Z</time>
      </trkpt>
      <trkpt lat="44.05902" lon="7.39573">
        <ele>1854</ele>
        <time>2019-07-20T04:34:34.115Z</time>
      </trkpt>
      <trkpt lat="44.05907" lon="7.39586">
        <ele>1855</ele>
        <time>2019-07-20T04:34:46.115Z</time>
      </trkpt>
      <trkpt lat="44.05916" lon="7.39593">
        <ele>1857</ele>
        <time>2019-07-20T04:34:57.115Z</time>
      </trkpt>
      <trkpt lat="44.05917" lon="7.39607">
        <ele>1859.1899904</ele>
        <time>2019-07-20T04:35:10.115Z</time>
      </trkpt>
      <trkpt lat="44.05926" lon="7.39615">
        <ele>1862</ele>
        <time>2019-07-20T04:35:25.115Z</time>
      </trkpt>
      <trkpt lat="44.0593" lon="7.39629">
        <ele>1864</ele>
        <time>2019-07-20T04:35:32.115Z</time>
      </trkpt>
      <trkpt lat="44.05935" lon="7.39641">
        <ele>1864</ele>
        <time>2019-07-20T04:35:37.115Z</time>
      </trkpt>
      <trkpt lat="44.05941" lon="7.3965">
        <ele>1866</ele>
        <time>2019-07-20T04:35:44.115Z</time>
      </trkpt>
      <trkpt lat="44.05948" lon="7.39663">
        <ele>1867</ele>
        <time>2019-07-20T04:35:55.115Z</time>
      </trkpt>
      <trkpt lat="44.05955" lon="7.39674">
        <ele>1867</ele>
        <time>2019-07-20T04:36:04.115Z</time>
      </trkpt>
      <trkpt lat="44.05963" lon="7.39683">
        <ele>1872</ele>
        <time>2019-07-20T04:36:19.115Z</time>
      </trkpt>
      <trkpt lat="44.05973" lon="7.39683">
        <ele>1873</ele>
        <time>2019-07-20T04:36:28.115Z</time>
      </trkpt>
      <trkpt lat="44.05982" lon="7.39689">
        <ele>1875.1899904</ele>
        <time>2019-07-20T04:36:40.115Z</time>
      </trkpt>
      <trkpt lat="44.05992" lon="7.39693">
        <ele>1878</ele>
        <time>2019-07-20T04:36:52.115Z</time>
      </trkpt>
      <trkpt lat="44.06001" lon="7.397">
        <ele>1878</ele>
        <time>2019-07-20T04:36:59.115Z</time>
      </trkpt>
      <trkpt lat="44.06011" lon="7.39703">
        <ele>1882</ele>
        <time>2019-07-20T04:37:09.115Z</time>
      </trkpt>
      <trkpt lat="44.06019" lon="7.39712">
        <ele>1882</ele>
        <time>2019-07-20T04:37:15.115Z</time>
      </trkpt>
      <trkpt lat="44.06026" lon="7.39722">
        <ele>1883</ele>
        <time>2019-07-20T04:37:22.115Z</time>
      </trkpt>
      <trkpt lat="44.06037" lon="7.39727">
        <ele>1884</ele>
        <time>2019-07-20T04:37:31.115Z</time>
      </trkpt>
      <trkpt lat="44.06046" lon="7.39734">
        <ele>1886</ele>
        <time>2019-07-20T04:37:41.115Z</time>
      </trkpt>
      <trkpt lat="44.06054" lon="7.39744">
        <ele>1887.1899904</ele>
        <time>2019-07-20T04:37:50.115Z</time>
      </trkpt>
      <trkpt lat="44.06062" lon="7.39754">
        <ele>1888</ele>
        <time>2019-07-20T04:37:55.115Z</time>
      </trkpt>
      <trkpt lat="44.06072" lon="7.39759">
        <ele>1890</ele>
        <time>2019-07-20T04:38:02.115Z</time>
      </trkpt>
      <trkpt lat="44.06078" lon="7.3977">
        <ele>1892</ele>
        <time>2019-07-20T04:38:11.115Z</time>
      </trkpt>
      <trkpt lat="44.06082" lon="7.39784">
        <ele>1893.7849856</ele>
        <time>2019-07-20T04:38:20.115Z</time>
      </trkpt>
      <trkpt lat="44.06086" lon="7.39796">
        <ele>1895</ele>
        <time>2019-07-20T04:38:27.115Z</time>
      </trkpt>
      <trkpt lat="44.06086" lon="7.39812">
        <ele>1895</ele>
        <time>2019-07-20T04:38:34.115Z</time>
      </trkpt>
      <trkpt lat="44.061" lon="7.39819">
        <ele>1895</ele>
        <time>2019-07-20T04:38:44.115Z</time>
      </trkpt>
      <trkpt lat="44.0611" lon="7.39823">
        <ele>1895</ele>
        <time>2019-07-20T04:38:51.115Z</time>
      </trkpt>
      <trkpt lat="44.06118" lon="7.39836">
        <ele>1895</ele>
        <time>2019-07-20T04:38:58.115Z</time>
      </trkpt>
      <trkpt lat="44.06127" lon="7.39841">
        <ele>1893</ele>
        <time>2019-07-20T04:39:07.115Z</time>
      </trkpt>
      <trkpt lat="44.06133" lon="7.39852">
        <ele>1893</ele>
        <time>2019-07-20T04:39:18.115Z</time>
      </trkpt>
      <trkpt lat="44.06137" lon="7.39869">
        <ele>1894</ele>
        <time>2019-07-20T04:39:27.115Z</time>
      </trkpt>
      <trkpt lat="44.0614" lon="7.3988">
        <ele>1895</ele>
        <time>2019-07-20T04:39:32.115Z</time>
      </trkpt>
      <trkpt lat="44.0614" lon="7.39893">
        <ele>1895</ele>
        <time>2019-07-20T04:39:39.115Z</time>
      </trkpt>
      <trkpt lat="44.06143" lon="7.39908">
        <ele>1896</ele>
        <time>2019-07-20T04:39:49.115Z</time>
      </trkpt>
      <trkpt lat="44.06141" lon="7.39923">
        <ele>1896</ele>
        <time>2019-07-20T04:39:59.115Z</time>
      </trkpt>
      <trkpt lat="44.06133" lon="7.39933">
        <ele>1898</ele>
        <time>2019-07-20T04:40:05.115Z</time>
      </trkpt>
      <trkpt lat="44.06123" lon="7.3995">
        <ele>1898</ele>
        <time>2019-07-20T04:40:18.115Z</time>
      </trkpt>
      <trkpt lat="44.06122" lon="7.39967">
        <ele>1900</ele>
        <time>2019-07-20T04:40:25.115Z</time>
      </trkpt>
      <trkpt lat="44.06122" lon="7.39983">
        <ele>1901</ele>
        <time>2019-07-20T04:40:33.115Z</time>
      </trkpt>
      <trkpt lat="44.06126" lon="7.39996">
        <ele>1903</ele>
        <time>2019-07-20T04:40:43.115Z</time>
      </trkpt>
      <trkpt lat="44.06134" lon="7.40004">
        <ele>1905</ele>
        <time>2019-07-20T04:40:53.115Z</time>
      </trkpt>
      <trkpt lat="44.06137" lon="7.40018">
        <ele>1911</ele>
        <time>2019-07-20T04:41:11.115Z</time>
      </trkpt>
      <trkpt lat="44.06147" lon="7.40015">
        <ele>1912</ele>
        <time>2019-07-20T04:41:23.115Z</time>
      </trkpt>
      <trkpt lat="44.06163" lon="7.40023">
        <ele>1913</ele>
        <time>2019-07-20T04:41:39.115Z</time>
      </trkpt>
      <trkpt lat="44.06166" lon="7.40037">
        <ele>1915</ele>
        <time>2019-07-20T04:41:49.115Z</time>
      </trkpt>
      <trkpt lat="44.06165" lon="7.40052">
        <ele>1918</ele>
        <time>2019-07-20T04:42:01.115Z</time>
      </trkpt>
      <trkpt lat="44.06172" lon="7.40063">
        <ele>1918</ele>
        <time>2019-07-20T04:42:09.115Z</time>
      </trkpt>
      <trkpt lat="44.06182" lon="7.40069">
        <ele>1922</ele>
        <time>2019-07-20T04:42:28.115Z</time>
      </trkpt>
      <trkpt lat="44.06191" lon="7.40075">
        <ele>1924</ele>
        <time>2019-07-20T04:42:39.115Z</time>
      </trkpt>
      <trkpt lat="44.06035" lon="7.40044">
        <ele>1938</ele>
        <time>2019-07-20T04:44:26.115Z</time>
      </trkpt>
      <trkpt lat="44.06037" lon="7.4006">
        <ele>1940</ele>
        <time>2019-07-20T04:44:34.115Z</time>
      </trkpt>
      <trkpt lat="44.06041" lon="7.40074">
        <ele>1942</ele>
        <time>2019-07-20T04:44:42.115Z</time>
      </trkpt>
      <trkpt lat="44.06044" lon="7.40087">
        <ele>1944</ele>
        <time>2019-07-20T04:44:54.115Z</time>
      </trkpt>
      <trkpt lat="44.06039" lon="7.40102">
        <ele>1949</ele>
        <time>2019-07-20T04:45:16.115Z</time>
      </trkpt>
      <trkpt lat="44.0603" lon="7.40109">
        <ele>1951</ele>
        <time>2019-07-20T04:45:27.115Z</time>
      </trkpt>
      <trkpt lat="44.06028" lon="7.40123">
        <ele>1956</ele>
        <time>2019-07-20T04:45:43.115Z</time>
      </trkpt>
      <trkpt lat="44.06019" lon="7.4013">
        <ele>1958</ele>
        <time>2019-07-20T04:45:57.115Z</time>
      </trkpt>
      <trkpt lat="44.05896" lon="7.40085">
        <ele>1969</ele>
        <time>2019-07-20T04:46:47.115Z</time>
      </trkpt>
      <trkpt lat="44.05874" lon="7.40067">
        <ele>1971</ele>
        <time>2019-07-20T04:46:53.115Z</time>
      </trkpt>
      <trkpt lat="44.05854" lon="7.40056">
        <ele>1971</ele>
        <time>2019-07-20T04:46:59.115Z</time>
      </trkpt>
      <trkpt lat="44.05832" lon="7.40046">
        <ele>1975</ele>
        <time>2019-07-20T04:47:07.115Z</time>
      </trkpt>
      <trkpt lat="44.05822" lon="7.40052">
        <ele>1977.1899904</ele>
        <time>2019-07-20T04:47:20.115Z</time>
      </trkpt>
      <trkpt lat="44.05812" lon="7.40056">
        <ele>1980</ele>
        <time>2019-07-20T04:47:35.115Z</time>
      </trkpt>
      <trkpt lat="44.05802" lon="7.40054">
        <ele>1982</ele>
        <time>2019-07-20T04:47:46.115Z</time>
      </trkpt>
      <trkpt lat="44.05796" lon="7.40065">
        <ele>1987</ele>
        <time>2019-07-20T04:48:03.115Z</time>
      </trkpt>
      <trkpt lat="44.05786" lon="7.40065">
        <ele>1991</ele>
        <time>2019-07-20T04:48:12.115Z</time>
      </trkpt>
      <trkpt lat="44.05765" lon="7.40057">
        <ele>1992</ele>
        <time>2019-07-20T04:48:22.115Z</time>
      </trkpt>
      <trkpt lat="44.05753" lon="7.40055">
        <ele>1992</ele>
        <time>2019-07-20T04:48:28.115Z</time>
      </trkpt>
      <trkpt lat="44.05742" lon="7.40058">
        <ele>1994</ele>
        <time>2019-07-20T04:48:38.115Z</time>
      </trkpt>
      <trkpt lat="44.05741" lon="7.40072">
        <ele>1995</ele>
        <time>2019-07-20T04:48:47.115Z</time>
      </trkpt>
      <trkpt lat="44.05745" lon="7.4009">
        <ele>1997</ele>
        <time>2019-07-20T04:48:53.115Z</time>
      </trkpt>
      <trkpt lat="44.05742" lon="7.40103">
        <ele>1997</ele>
        <time>2019-07-20T04:49:03.115Z</time>
      </trkpt>
      <trkpt lat="44.0574" lon="7.40117">
        <ele>1999</ele>
        <time>2019-07-20T04:49:18.115Z</time>
      </trkpt>
      <trkpt lat="44.05739" lon="7.40131">
        <ele>2002</ele>
        <time>2019-07-20T04:49:31.115Z</time>
      </trkpt>
      <trkpt lat="44.05752" lon="7.40156">
        <ele>2002</ele>
        <time>2019-07-20T04:49:39.115Z</time>
      </trkpt>
      <trkpt lat="44.05757" lon="7.40167">
        <ele>2004</ele>
        <time>2019-07-20T04:49:44.115Z</time>
      </trkpt>
      <trkpt lat="44.05762" lon="7.40193">
        <ele>2008</ele>
        <time>2019-07-20T04:50:02.115Z</time>
      </trkpt>
      <trkpt lat="44.05767" lon="7.40209">
        <ele>2008</ele>
        <time>2019-07-20T04:50:08.115Z</time>
      </trkpt>
      <trkpt lat="44.05787" lon="7.40232">
        <ele>2010</ele>
        <time>2019-07-20T04:50:13.115Z</time>
      </trkpt>
      <trkpt lat="44.05815" lon="7.40258">
        <ele>2012</ele>
        <time>2019-07-20T04:50:27.115Z</time>
      </trkpt>
      <trkpt lat="44.05819" lon="7.40273">
        <ele>2013</ele>
        <time>2019-07-20T04:50:38.115Z</time>
      </trkpt>
      <trkpt lat="44.0582" lon="7.40287">
        <ele>2014</ele>
        <time>2019-07-20T04:50:48.115Z</time>
      </trkpt>
      <trkpt lat="44.05842" lon="7.40327">
        <ele>2018</ele>
        <time>2019-07-20T04:51:03.115Z</time>
      </trkpt>
      <trkpt lat="44.05859" lon="7.40351">
        <ele>2020</ele>
        <time>2019-07-20T04:51:12.115Z</time>
      </trkpt>
      <trkpt lat="44.05882" lon="7.40375">
        <ele>2020</ele>
        <time>2019-07-20T04:51:19.115Z</time>
      </trkpt>
      <trkpt lat="44.05896" lon="7.40393">
        <ele>2023.577663448</ele>
        <time>2019-07-20T04:51:25.115Z</time>
      </trkpt>
      <trkpt lat="44.05898" lon="7.40411">
        <ele>2025</ele>
        <time>2019-07-20T04:51:33.115Z</time>
      </trkpt>
      <trkpt lat="44.05898" lon="7.40428">
        <ele>2030</ele>
        <time>2019-07-20T04:51:51.115Z</time>
      </trkpt>
      <trkpt lat="44.05885" lon="7.4042">
        <ele>2031</ele>
        <time>2019-07-20T04:51:59.115Z</time>
      </trkpt>
      <trkpt lat="44.0589" lon="7.40433">
        <ele>2033.5949952</ele>
        <time>2019-07-20T04:52:05.115Z</time>
      </trkpt>
      <trkpt lat="44.05893" lon="7.40448">
        <ele>2036</ele>
        <time>2019-07-20T04:52:27.115Z</time>
      </trkpt>
      <trkpt lat="44.05897" lon="7.40463">
        <ele>2038</ele>
        <time>2019-07-20T04:52:35.115Z</time>
      </trkpt>
      <trkpt lat="44.05906" lon="7.40484">
        <ele>2039</ele>
        <time>2019-07-20T04:52:41.115Z</time>
      </trkpt>
      <trkpt lat="44.05907" lon="7.40498">
        <ele>2041</ele>
        <time>2019-07-20T04:52:51.115Z</time>
      </trkpt>
      <trkpt lat="44.05903" lon="7.40506">
        <ele>2045</ele>
        <time>2019-07-20T04:53:07.115Z</time>
      </trkpt>
      <trkpt lat="44.05894" lon="7.40522">
        <ele>2051</ele>
        <time>2019-07-20T04:53:27.115Z</time>
      </trkpt>
      <trkpt lat="44.05884" lon="7.40519">
        <ele>2052</ele>
        <time>2019-07-20T04:53:32.115Z</time>
      </trkpt>
      <trkpt lat="44.05874" lon="7.40517">
        <ele>2053</ele>
        <time>2019-07-20T04:53:39.115Z</time>
      </trkpt>
      <trkpt lat="44.05891" lon="7.40544">
        <ele>2056.5869952</ele>
        <time>2019-07-20T04:53:50.107Z</time>
      </trkpt>
      <trkpt lat="44.0591" lon="7.40559">
        <ele>2057</ele>
        <time>2019-07-20T04:53:58.110Z</time>
      </trkpt>
      <trkpt lat="44.05902" lon="7.40549">
        <ele>2059</ele>
        <time>2019-07-20T04:54:03.115Z</time>
      </trkpt>
      <trkpt lat="44.05913" lon="7.40549">
        <ele>2059</ele>
        <time>2019-07-20T04:54:09.119Z</time>
      </trkpt>
      <trkpt lat="44.0592" lon="7.40537">
        <ele>2062</ele>
        <time>2019-07-20T04:54:22.118Z</time>
      </trkpt>
      <trkpt lat="44.0593" lon="7.40539">
        <ele>2062</ele>
        <time>2019-07-20T04:54:27.115Z</time>
      </trkpt>
      <trkpt lat="44.05944" lon="7.40542">
        <ele>2064</ele>
        <time>2019-07-20T04:54:33.116Z</time>
      </trkpt>
      <trkpt lat="44.05975" lon="7.40583">
        <ele>2067</ele>
        <time>2019-07-20T04:54:49.113Z</time>
      </trkpt>
      <trkpt lat="44.0596" lon="7.40581">
        <ele>2068</ele>
        <time>2019-07-20T04:54:56.115Z</time>
      </trkpt>
      <trkpt lat="44.05949" lon="7.40577">
        <ele>2074</ele>
        <time>2019-07-20T04:55:18.115Z</time>
      </trkpt>
      <trkpt lat="44.0594" lon="7.40584">
        <ele>2077</ele>
        <time>2019-07-20T04:55:28.113Z</time>
      </trkpt>
      <trkpt lat="44.05936" lon="7.40597">
        <ele>2079</ele>
        <time>2019-07-20T04:55:39.110Z</time>
      </trkpt>
      <trkpt lat="44.05925" lon="7.40601">
        <ele>2081</ele>
        <time>2019-07-20T04:55:53.115Z</time>
      </trkpt>
      <trkpt lat="44.05934" lon="7.4061">
        <ele>2084</ele>
        <time>2019-07-20T04:56:02.113Z</time>
      </trkpt>
      <trkpt lat="44.05938" lon="7.40624">
        <ele>2085.1859968</ele>
        <time>2019-07-20T04:56:10.113Z</time>
      </trkpt>
      <trkpt lat="44.05928" lon="7.4063">
        <ele>2087</ele>
        <time>2019-07-20T04:56:27.115Z</time>
      </trkpt>
      <trkpt lat="44.05927" lon="7.40648">
        <ele>2096</ele>
        <time>2019-07-20T04:57:03.115Z</time>
      </trkpt>
      <trkpt lat="44.05934" lon="7.40664">
        <ele>2099</ele>
        <time>2019-07-20T04:57:22.115Z</time>
      </trkpt>
      <trkpt lat="44.05924" lon="7.4066">
        <ele>2104</ele>
        <time>2019-07-20T04:57:34.109Z</time>
      </trkpt>
      <trkpt lat="44.05918" lon="7.40671">
        <ele>2107</ele>
        <time>2019-07-20T04:57:48.112Z</time>
      </trkpt>
      <trkpt lat="44.05915" lon="7.40684">
        <ele>2110</ele>
        <time>2019-07-20T04:58:01.113Z</time>
      </trkpt>
      <trkpt lat="44.05915" lon="7.407">
        <ele>2110</ele>
        <time>2019-07-20T04:58:09.111Z</time>
      </trkpt>
      <trkpt lat="44.05913" lon="7.40715">
        <ele>2113</ele>
        <time>2019-07-20T04:58:24.112Z</time>
      </trkpt>
      <trkpt lat="44.05907" lon="7.40726">
        <ele>2117.5890048</ele>
        <time>2019-07-20T04:58:40.109Z</time>
      </trkpt>
      <trkpt lat="44.05904" lon="7.4074">
        <ele>2118</ele>
        <time>2019-07-20T04:58:53.211Z</time>
      </trkpt>
      <trkpt lat="44.05907" lon="7.40754">
        <ele>2122</ele>
        <time>2019-07-20T04:59:01.109Z</time>
      </trkpt>
      <trkpt lat="44.05903" lon="7.40767">
        <ele>2123.5949952</ele>
        <time>2019-07-20T04:59:10.115Z</time>
      </trkpt>
      <trkpt lat="44.05901" lon="7.40781">
        <ele>2125</ele>
        <time>2019-07-20T04:59:22.115Z</time>
      </trkpt>
      <trkpt lat="44.0591" lon="7.40788">
        <ele>2129</ele>
        <time>2019-07-20T04:59:40.113Z</time>
      </trkpt>
      <trkpt lat="44.05918" lon="7.40779">
        <ele>2133</ele>
        <time>2019-07-20T04:59:57.116Z</time>
      </trkpt>
      <trkpt lat="44.05928" lon="7.40779">
        <ele>2137</ele>
        <time>2019-07-20T05:00:06.114Z</time>
      </trkpt>
      <trkpt lat="44.05935" lon="7.40769">
        <ele>2137.5949952</ele>
        <time>2019-07-20T05:00:15.115Z</time>
      </trkpt>
      <trkpt lat="44.05943" lon="7.40782">
        <ele>2141</ele>
        <time>2019-07-20T05:00:31.115Z</time>
      </trkpt>
      <trkpt lat="44.05933" lon="7.4078">
        <ele>2146</ele>
        <time>2019-07-20T05:01:05.117Z</time>
      </trkpt>
      <trkpt lat="44.05932" lon="7.40797">
        <ele>2148</ele>
        <time>2019-07-20T05:01:12.107Z</time>
      </trkpt>
      <trkpt lat="44.05925" lon="7.40807">
        <ele>2149</ele>
        <time>2019-07-20T05:01:19.120Z</time>
      </trkpt>
      <trkpt lat="44.05917" lon="7.40817">
        <ele>2150</ele>
        <time>2019-07-20T05:01:29.113Z</time>
      </trkpt>
      <trkpt lat="44.05913" lon="7.40831">
        <ele>2150</ele>
        <time>2019-07-20T05:01:37.108Z</time>
      </trkpt>
      <trkpt lat="44.05915" lon="7.40845">
        <ele>2151</ele>
        <time>2019-07-20T05:01:46.111Z</time>
      </trkpt>
      <trkpt lat="44.05913" lon="7.4086">
        <ele>2153</ele>
        <time>2019-07-20T05:01:57.116Z</time>
      </trkpt>
      <trkpt lat="44.05906" lon="7.40871">
        <ele>2152</ele>
        <time>2019-07-20T05:02:05.112Z</time>
      </trkpt>
      <trkpt lat="44.05906" lon="7.40887">
        <ele>2153</ele>
        <time>2019-07-20T05:02:14.108Z</time>
      </trkpt>
      <trkpt lat="44.05905" lon="7.40901">
        <ele>2154.1719936</ele>
        <time>2019-07-20T05:02:20.106Z</time>
      </trkpt>
      <trkpt lat="44.05902" lon="7.40916">
        <ele>2156</ele>
        <time>2019-07-20T05:02:33.114Z</time>
      </trkpt>
      <trkpt lat="44.05901" lon="7.40934">
        <ele>2158.592</ele>
        <time>2019-07-20T05:02:45.112Z</time>
      </trkpt>
      <trkpt lat="44.0591" lon="7.40952">
        <ele>2160</ele>
        <time>2019-07-20T05:02:53.113Z</time>
      </trkpt>
      <trkpt lat="44.05928" lon="7.40993">
        <ele>2162</ele>
        <time>2019-07-20T05:03:05.109Z</time>
      </trkpt>
      <trkpt lat="44.05889" lon="7.4098">
        <ele>2163</ele>
        <time>2019-07-20T05:03:17.114Z</time>
      </trkpt>
      <trkpt lat="44.05892" lon="7.40999">
        <ele>2164</ele>
        <time>2019-07-20T05:03:29.115Z</time>
      </trkpt>
      <trkpt lat="44.05889" lon="7.41015">
        <ele>2170</ele>
        <time>2019-07-20T05:03:51.116Z</time>
      </trkpt>
      <trkpt lat="44.05899" lon="7.41026">
        <ele>2172</ele>
        <time>2019-07-20T05:04:02.116Z</time>
      </trkpt>
      <trkpt lat="44.05917" lon="7.41046">
        <ele>2174</ele>
        <time>2019-07-20T05:04:08.113Z</time>
      </trkpt>
      <trkpt lat="44.05906" lon="7.41042">
        <ele>2177</ele>
        <time>2019-07-20T05:04:21.114Z</time>
      </trkpt>
      <trkpt lat="44.05891" lon="7.41037">
        <ele>2177</ele>
        <time>2019-07-20T05:04:27.115Z</time>
      </trkpt>
      <trkpt lat="44.05881" lon="7.41033">
        <ele>2179</ele>
        <time>2019-07-20T05:04:33.115Z</time>
      </trkpt>
      <trkpt lat="44.05859" lon="7.41024">
        <ele>2178</ele>
        <time>2019-07-20T05:04:42.112Z</time>
      </trkpt>
      <trkpt lat="44.05861" lon="7.4104">
        <ele>2178</ele>
        <time>2019-07-20T05:04:48.115Z</time>
      </trkpt>
      <trkpt lat="44.05876" lon="7.41065">
        <ele>2177</ele>
        <time>2019-07-20T05:04:56.111Z</time>
      </trkpt>
      <trkpt lat="44.05879" lon="7.41093">
        <ele>2176</ele>
        <time>2019-07-20T05:05:12.110Z</time>
      </trkpt>
      <trkpt lat="44.0587" lon="7.41099">
        <ele>2176</ele>
        <time>2019-07-20T05:05:17.222Z</time>
      </trkpt>
      <trkpt lat="44.0586" lon="7.41104">
        <ele>2175</ele>
        <time>2019-07-20T05:05:29.113Z</time>
      </trkpt>
      <trkpt lat="44.05851" lon="7.41093">
        <ele>2175</ele>
        <time>2019-07-20T05:05:34.114Z</time>
      </trkpt>
      <trkpt lat="44.05859" lon="7.41103">
        <ele>2175</ele>
        <time>2019-07-20T05:05:45.114Z</time>
      </trkpt>
      <trkpt lat="44.05859" lon="7.41103">
        <ele>2176</ele>
        <time>2019-07-20T05:05:52.112Z</time>
      </trkpt>
      <trkpt lat="44.05857" lon="7.41119">
        <ele>2175.577663448</ele>
        <time>2019-07-20T05:06:10.115Z</time>
      </trkpt>
      <trkpt lat="44.05846" lon="7.41129">
        <ele>2178</ele>
        <time>2019-07-20T05:06:26.115Z</time>
      </trkpt>
      <trkpt lat="44.05835" lon="7.41136">
        <ele>2183</ele>
        <time>2019-07-20T05:06:40.115Z</time>
      </trkpt>
      <trkpt lat="44.05825" lon="7.41133">
        <ele>2186</ele>
        <time>2019-07-20T05:06:57.119Z</time>
      </trkpt>
      <trkpt lat="44.05816" lon="7.4114">
        <ele>2190</ele>
        <time>2019-07-20T05:07:07.115Z</time>
      </trkpt>
      <trkpt lat="44.05825" lon="7.41166">
        <ele>2191</ele>
        <time>2019-07-20T05:07:22.120Z</time>
      </trkpt>
      <trkpt lat="44.05815" lon="7.4117">
        <ele>2193</ele>
        <time>2019-07-20T05:07:32.120Z</time>
      </trkpt>
      <trkpt lat="44.0583" lon="7.41201">
        <ele>2194</ele>
        <time>2019-07-20T05:07:43.114Z</time>
      </trkpt>
      <trkpt lat="44.05826" lon="7.41212">
        <ele>2195</ele>
        <time>2019-07-20T05:07:54.111Z</time>
      </trkpt>
      <trkpt lat="44.05823" lon="7.41226">
        <ele>2197</ele>
        <time>2019-07-20T05:08:02.106Z</time>
      </trkpt>
      <trkpt lat="44.05803" lon="7.41231">
        <ele>2196</ele>
        <time>2019-07-20T05:08:14.115Z</time>
      </trkpt>
      <trkpt lat="44.05811" lon="7.41245">
        <ele>2199</ele>
        <time>2019-07-20T05:08:34.115Z</time>
      </trkpt>
      <trkpt lat="44.05824" lon="7.41256">
        <ele>2198</ele>
        <time>2019-07-20T05:08:42.116Z</time>
      </trkpt>
      <trkpt lat="44.05804" lon="7.41265">
        <ele>2202</ele>
        <time>2019-07-20T05:09:00.115Z</time>
      </trkpt>
      <trkpt lat="44.05802" lon="7.41282">
        <ele>2202</ele>
        <time>2019-07-20T05:09:12.115Z</time>
      </trkpt>
      <trkpt lat="44.05817" lon="7.41307">
        <ele>2203</ele>
        <time>2019-07-20T05:09:22.112Z</time>
      </trkpt>
      <trkpt lat="44.05824" lon="7.41322">
        <ele>2203</ele>
        <time>2019-07-20T05:09:28.112Z</time>
      </trkpt>
      <trkpt lat="44.05817" lon="7.41332">
        <ele>2207</ele>
        <time>2019-07-20T05:09:36.116Z</time>
      </trkpt>
      <trkpt lat="44.05825" lon="7.41345">
        <ele>2207</ele>
        <time>2019-07-20T05:09:43.114Z</time>
      </trkpt>
      <trkpt lat="44.05829" lon="7.41358">
        <ele>2209</ele>
        <time>2019-07-20T05:09:53.112Z</time>
      </trkpt>
      <trkpt lat="44.05834" lon="7.41375">
        <ele>2210</ele>
        <time>2019-07-20T05:09:59.113Z</time>
      </trkpt>
      <trkpt lat="44.05841" lon="7.41384">
        <ele>2211</ele>
        <time>2019-07-20T05:10:06.113Z</time>
      </trkpt>
      <trkpt lat="44.0583" lon="7.41381">
        <ele>2211</ele>
        <time>2019-07-20T05:10:13.114Z</time>
      </trkpt>
      <trkpt lat="44.05831" lon="7.41395">
        <ele>2212</ele>
        <time>2019-07-20T05:10:22.114Z</time>
      </trkpt>
      <trkpt lat="44.05835" lon="7.41409">
        <ele>2212</ele>
        <time>2019-07-20T05:10:28.106Z</time>
      </trkpt>
      <trkpt lat="44.05851" lon="7.41429">
        <ele>2215.5970048</ele>
        <time>2019-07-20T05:10:35.117Z</time>
      </trkpt>
      <trkpt lat="44.0584" lon="7.41424">
        <ele>2216.577663448</ele>
        <time>2019-07-20T05:10:40.115Z</time>
      </trkpt>
      <trkpt lat="44.05826" lon="7.41433">
        <ele>2217</ele>
        <time>2019-07-20T05:10:52.111Z</time>
      </trkpt>
      <trkpt lat="44.05823" lon="7.41448">
        <ele>2217</ele>
        <time>2019-07-20T05:10:59.109Z</time>
      </trkpt>
      <trkpt lat="44.05821" lon="7.41466">
        <ele>2220</ele>
        <time>2019-07-20T05:11:12.115Z</time>
      </trkpt>
      <trkpt lat="44.05822" lon="7.41481">
        <ele>2224</ele>
        <time>2019-07-20T05:11:27.115Z</time>
      </trkpt>
      <trkpt lat="44.0583" lon="7.41494">
        <ele>2227</ele>
        <time>2019-07-20T05:11:36.115Z</time>
      </trkpt>
      <trkpt lat="44.05828" lon="7.4151">
        <ele>2229</ele>
        <time>2019-07-20T05:11:55.115Z</time>
      </trkpt>
      <trkpt lat="44.05814" lon="7.4152">
        <ele>2233</ele>
        <time>2019-07-20T05:12:06.115Z</time>
      </trkpt>
      <trkpt lat="44.05812" lon="7.41534">
        <ele>2233</ele>
        <time>2019-07-20T05:12:17.115Z</time>
      </trkpt>
      <trkpt lat="44.05811" lon="7.41548">
        <ele>2238.1899904</ele>
        <time>2019-07-20T05:12:30.115Z</time>
      </trkpt>
      <trkpt lat="44.05808" lon="7.41562">
        <ele>2242</ele>
        <time>2019-07-20T05:12:42.115Z</time>
      </trkpt>
      <trkpt lat="44.05803" lon="7.41574">
        <ele>2243</ele>
        <time>2019-07-20T05:12:54.115Z</time>
      </trkpt>
      <trkpt lat="44.05803" lon="7.41589">
        <ele>2247</ele>
        <time>2019-07-20T05:13:07.115Z</time>
      </trkpt>
      <trkpt lat="44.05807" lon="7.41601">
        <ele>2251</ele>
        <time>2019-07-20T05:13:23.115Z</time>
      </trkpt>
      <trkpt lat="44.05808" lon="7.41615">
        <ele>2255</ele>
        <time>2019-07-20T05:13:39.115Z</time>
      </trkpt>
      <trkpt lat="44.05806" lon="7.41629">
        <ele>2259</ele>
        <time>2019-07-20T05:13:53.115Z</time>
      </trkpt>
      <trkpt lat="44.05803" lon="7.41641">
        <ele>2260</ele>
        <time>2019-07-20T05:14:05.115Z</time>
      </trkpt>
      <trkpt lat="44.05804" lon="7.41652">
        <ele>2264</ele>
        <time>2019-07-20T05:14:23.115Z</time>
      </trkpt>
      <trkpt lat="44.05797" lon="7.41657">
        <ele>2266</ele>
        <time>2019-07-20T05:14:31.115Z</time>
      </trkpt>
      <trkpt lat="44.0579" lon="7.41663">
        <ele>2267.5949952</ele>
        <time>2019-07-20T05:14:40.115Z</time>
      </trkpt>
      <trkpt lat="44.05786" lon="7.41673">
        <ele>2269</ele>
        <time>2019-07-20T05:14:48.115Z</time>
      </trkpt>
      <trkpt lat="44.05782" lon="7.41684">
        <ele>2271</ele>
        <time>2019-07-20T05:14:56.115Z</time>
      </trkpt>
      <trkpt lat="44.0578" lon="7.41698">
        <ele>2272</ele>
        <time>2019-07-20T05:15:07.115Z</time>
      </trkpt>
      <trkpt lat="44.0578" lon="7.41707">
        <ele>2272</ele>
        <time>2019-07-20T05:15:13.115Z</time>
      </trkpt>
      <trkpt lat="44.05776" lon="7.41722">
        <ele>2273</ele>
        <time>2019-07-20T05:15:23.115Z</time>
      </trkpt>
      <trkpt lat="44.05771" lon="7.41733">
        <ele>2274</ele>
        <time>2019-07-20T05:15:33.115Z</time>
      </trkpt>
      <trkpt lat="44.05771" lon="7.41741">
        <ele>2276</ele>
        <time>2019-07-20T05:15:41.115Z</time>
      </trkpt>
      <trkpt lat="44.05772" lon="7.41751">
        <ele>2276</ele>
        <time>2019-07-20T05:15:49.115Z</time>
      </trkpt>
      <trkpt lat="44.05773" lon="7.4176">
        <ele>2277</ele>
        <time>2019-07-20T05:15:55.115Z</time>
      </trkpt>
      <trkpt lat="44.05767" lon="7.41765">
        <ele>2278</ele>
        <time>2019-07-20T05:16:04.118Z</time>
      </trkpt>
      <trkpt lat="44.05756" lon="7.41772">
        <ele>2279</ele>
        <time>2019-07-20T05:16:15.114Z</time>
      </trkpt>
      <trkpt lat="44.05749" lon="7.41788">
        <ele>2281</ele>
        <time>2019-07-20T05:16:27.120Z</time>
      </trkpt>
      <trkpt lat="44.05749" lon="7.41804">
        <ele>2281</ele>
        <time>2019-07-20T05:16:39.116Z</time>
      </trkpt>
      <trkpt lat="44.05742" lon="7.41818">
        <ele>2285</ele>
        <time>2019-07-20T05:16:51.112Z</time>
      </trkpt>
      <trkpt lat="44.05739" lon="7.41831">
        <ele>2285</ele>
        <time>2019-07-20T05:17:03.122Z</time>
      </trkpt>
      <trkpt lat="44.05731" lon="7.41853">
        <ele>2286</ele>
        <time>2019-07-20T05:17:15.111Z</time>
      </trkpt>
      <trkpt lat="44.05723" lon="7.41867">
        <ele>2287</ele>
        <time>2019-07-20T05:17:27.107Z</time>
      </trkpt>
      <trkpt lat="44.05714" lon="7.41876">
        <ele>2288</ele>
        <time>2019-07-20T05:17:38.115Z</time>
      </trkpt>
      <trkpt lat="44.05706" lon="7.41873">
        <ele>2291</ele>
        <time>2019-07-20T05:17:52.115Z</time>
      </trkpt>
      <trkpt lat="44.057" lon="7.41861">
        <ele>2297</ele>
        <time>2019-07-20T05:18:13.115Z</time>
      </trkpt>
      <trkpt lat="44.05691" lon="7.41855">
        <ele>2303</ele>
        <time>2019-07-20T05:18:36.118Z</time>
      </trkpt>
      <trkpt lat="44.0569" lon="7.41869">
        <ele>2303</ele>
        <time>2019-07-20T05:18:46.117Z</time>
      </trkpt>
      <trkpt lat="44.05682" lon="7.4188">
        <ele>2307</ele>
        <time>2019-07-20T05:18:57.115Z</time>
      </trkpt>
      <trkpt lat="44.05681" lon="7.41895">
        <ele>2311</ele>
        <time>2019-07-20T05:19:06.114Z</time>
      </trkpt>
      <trkpt lat="44.05678" lon="7.41908">
        <ele>2312</ele>
        <time>2019-07-20T05:19:18.115Z</time>
      </trkpt>
      <trkpt lat="44.05674" lon="7.41922">
        <ele>2313</ele>
        <time>2019-07-20T05:19:29.123Z</time>
      </trkpt>
      <trkpt lat="44.05675" lon="7.41937">
        <ele>2313</ele>
        <time>2019-07-20T05:19:38.115Z</time>
      </trkpt>
      <trkpt lat="44.05679" lon="7.4195">
        <ele>2316</ele>
        <time>2019-07-20T05:19:46.121Z</time>
      </trkpt>
      <trkpt lat="44.05681" lon="7.41965">
        <ele>2317</ele>
        <time>2019-07-20T05:19:56.115Z</time>
      </trkpt>
      <trkpt lat="44.05678" lon="7.4198">
        <ele>2318</ele>
        <time>2019-07-20T05:20:07.109Z</time>
      </trkpt>
      <trkpt lat="44.0567" lon="7.41989">
        <ele>2319</ele>
        <time>2019-07-20T05:20:18.115Z</time>
      </trkpt>
      <trkpt lat="44.05662" lon="7.41988">
        <ele>2321.570704524</ele>
        <time>2019-07-20T05:20:25.115Z</time>
      </trkpt>
      <trkpt lat="44.05655" lon="7.41999">
        <ele>2323</ele>
        <time>2019-07-20T05:20:33.119Z</time>
      </trkpt>
      <trkpt lat="44.0565" lon="7.42011">
        <ele>2325</ele>
        <time>2019-07-20T05:20:44.115Z</time>
      </trkpt>
      <trkpt lat="44.05654" lon="7.42025">
        <ele>2327</ele>
        <time>2019-07-20T05:20:50.118Z</time>
      </trkpt>
      <trkpt lat="44.05659" lon="7.42038">
        <ele>2327</ele>
        <time>2019-07-20T05:21:04.120Z</time>
      </trkpt>
      <trkpt lat="44.05658" lon="7.42051">
        <ele>2328</ele>
        <time>2019-07-20T05:21:11.115Z</time>
      </trkpt>
      <trkpt lat="44.05649" lon="7.42057">
        <ele>2328</ele>
        <time>2019-07-20T05:21:17.115Z</time>
      </trkpt>
      <trkpt lat="44.05638" lon="7.42064">
        <ele>2328</ele>
        <time>2019-07-20T05:21:29.115Z</time>
      </trkpt>
      <trkpt lat="44.05641" lon="7.42079">
        <ele>2332</ele>
        <time>2019-07-20T05:21:39.115Z</time>
      </trkpt>
      <trkpt lat="44.05641" lon="7.42095">
        <ele>2334</ele>
        <time>2019-07-20T05:21:50.115Z</time>
      </trkpt>
      <trkpt lat="44.05633" lon="7.42104">
        <ele>2337</ele>
        <time>2019-07-20T05:22:04.115Z</time>
      </trkpt>
      <trkpt lat="44.05628" lon="7.42118">
        <ele>2338</ele>
        <time>2019-07-20T05:22:17.120Z</time>
      </trkpt>
      <trkpt lat="44.05625" lon="7.42132">
        <ele>2340.5949952</ele>
        <time>2019-07-20T05:22:25.115Z</time>
      </trkpt>
      <trkpt lat="44.05625" lon="7.42147">
        <ele>2341</ele>
        <time>2019-07-20T05:22:30.119Z</time>
      </trkpt>
      <trkpt lat="44.0562" lon="7.42159">
        <ele>2341</ele>
        <time>2019-07-20T05:22:42.115Z</time>
      </trkpt>
      <trkpt lat="44.05617" lon="7.42168">
        <ele>2341</ele>
        <time>2019-07-20T05:22:49.115Z</time>
      </trkpt>
      <trkpt lat="44.05615" lon="7.42178">
        <ele>2341</ele>
        <time>2019-07-20T05:22:56.115Z</time>
      </trkpt>
      <trkpt lat="44.05611" lon="7.42184">
        <ele>2342</ele>
        <time>2019-07-20T05:23:04.115Z</time>
      </trkpt>
      <trkpt lat="44.05606" lon="7.42193">
        <ele>2344</ele>
        <time>2019-07-20T05:23:13.115Z</time>
      </trkpt>
      <trkpt lat="44.05599" lon="7.42199">
        <ele>2346</ele>
        <time>2019-07-20T05:23:21.115Z</time>
      </trkpt>
      <trkpt lat="44.05591" lon="7.42207">
        <ele>2348</ele>
        <time>2019-07-20T05:23:31.115Z</time>
      </trkpt>
      <trkpt lat="44.05586" lon="7.42215">
        <ele>2349.5949952</ele>
        <time>2019-07-20T05:23:40.115Z</time>
      </trkpt>
      <trkpt lat="44.05581" lon="7.42221">
        <ele>2351</ele>
        <time>2019-07-20T05:23:49.115Z</time>
      </trkpt>
      <trkpt lat="44.05576" lon="7.42233">
        <ele>2354</ele>
        <time>2019-07-20T05:24:03.115Z</time>
      </trkpt>
      <trkpt lat="44.0557" lon="7.42225">
        <ele>2356</ele>
        <time>2019-07-20T05:24:26.115Z</time>
      </trkpt>
      <trkpt lat="44.05563" lon="7.42222">
        <ele>2361</ele>
        <time>2019-07-20T05:24:43.115Z</time>
      </trkpt>
      <trkpt lat="44.05556" lon="7.42226">
        <ele>2363</ele>
        <time>2019-07-20T05:24:53.115Z</time>
      </trkpt>
      <trkpt lat="44.0555" lon="7.42227">
        <ele>2366</ele>
        <time>2019-07-20T05:25:01.115Z</time>
      </trkpt>
      <trkpt lat="44.05543" lon="7.4223">
        <ele>2368.1899904</ele>
        <time>2019-07-20T05:25:10.115Z</time>
      </trkpt>
      <trkpt lat="44.05538" lon="7.42236">
        <ele>2369</ele>
        <time>2019-07-20T05:25:18.115Z</time>
      </trkpt>
      <trkpt lat="44.05533" lon="7.42241">
        <ele>2370</ele>
        <time>2019-07-20T05:25:28.115Z</time>
      </trkpt>
      <trkpt lat="44.05529" lon="7.42252">
        <ele>2373</ele>
        <time>2019-07-20T05:25:37.115Z</time>
      </trkpt>
      <trkpt lat="44.05525" lon="7.42262">
        <ele>2376</ele>
        <time>2019-07-20T05:25:46.115Z</time>
      </trkpt>
      <trkpt lat="44.05518" lon="7.42265">
        <ele>2378</ele>
        <time>2019-07-20T05:25:58.115Z</time>
      </trkpt>
      <trkpt lat="44.05512" lon="7.42265">
        <ele>2379</ele>
        <time>2019-07-20T05:26:19.115Z</time>
      </trkpt>
      <trkpt lat="44.05504" lon="7.42258">
        <ele>2381</ele>
        <time>2019-07-20T05:26:32.115Z</time>
      </trkpt>
      <trkpt lat="44.05494" lon="7.42269">
        <ele>2380.4050048</ele>
        <time>2019-07-20T05:27:20.115Z</time>
      </trkpt>
      <trkpt lat="44.05485" lon="7.42275">
        <ele>2380</ele>
        <time>2019-07-20T05:27:28.115Z</time>
      </trkpt>
      <trkpt lat="44.05476" lon="7.42279">
        <ele>2382.1899904</ele>
        <time>2019-07-20T05:27:40.115Z</time>
      </trkpt>
      <trkpt lat="44.05466" lon="7.42281">
        <ele>2387</ele>
        <time>2019-07-20T05:27:52.115Z</time>
      </trkpt>
      <trkpt lat="44.05459" lon="7.42284">
        <ele>2389</ele>
        <time>2019-07-20T05:28:00.115Z</time>
      </trkpt>
      <trkpt lat="44.05451" lon="7.42276">
        <ele>2395</ele>
        <time>2019-07-20T05:28:16.115Z</time>
      </trkpt>
      <trkpt lat="44.05443" lon="7.4228">
        <ele>2395</ele>
        <time>2019-07-20T05:28:24.115Z</time>
      </trkpt>
      <trkpt lat="44.05434" lon="7.4228">
        <ele>2396</ele>
        <time>2019-07-20T05:28:36.115Z</time>
      </trkpt>
      <trkpt lat="44.05425" lon="7.42277">
        <ele>2396</ele>
        <time>2019-07-20T05:28:44.115Z</time>
      </trkpt>
      <trkpt lat="44.05416" lon="7.42277">
        <ele>2395.4050048</ele>
        <time>2019-07-20T05:29:00.115Z</time>
      </trkpt>
      <trkpt lat="44.05406" lon="7.42284">
        <ele>2397</ele>
        <time>2019-07-20T05:29:28.115Z</time>
      </trkpt>
      <trkpt lat="44.05395" lon="7.42288">
        <ele>2396</ele>
        <time>2019-07-20T05:29:44.115Z</time>
      </trkpt>
      <trkpt lat="44.05391" lon="7.4229">
        <ele>2398</ele>
        <time>2019-07-20T05:30:00.115Z</time>
      </trkpt>
      <trkpt lat="44.05386" lon="7.42291">
        <ele>2398</ele>
        <time>2019-07-20T05:30:08.115Z</time>
      </trkpt>
      <trkpt lat="44.0538" lon="7.42294">
        <ele>2400.5949952</ele>
        <time>2019-07-20T05:30:16.115Z</time>
      </trkpt>
      <trkpt lat="44.05375" lon="7.42299">
        <ele>2403</ele>
        <time>2019-07-20T05:30:24.115Z</time>
      </trkpt>
      <trkpt lat="44.05367" lon="7.42305">
        <ele>2407.1899904</ele>
        <time>2019-07-20T05:30:36.115Z</time>
      </trkpt>
      <trkpt lat="44.05361" lon="7.4231">
        <ele>2408</ele>
        <time>2019-07-20T05:30:44.115Z</time>
      </trkpt>
      <trkpt lat="44.05355" lon="7.42314">
        <ele>2411</ele>
        <time>2019-07-20T05:30:53.115Z</time>
      </trkpt>
      <trkpt lat="44.05349" lon="7.42313">
        <ele>2411</ele>
        <time>2019-07-20T05:31:00.115Z</time>
      </trkpt>
      <trkpt lat="44.05343" lon="7.42309">
        <ele>2411</ele>
        <time>2019-07-20T05:31:08.115Z</time>
      </trkpt>
      <trkpt lat="44.05338" lon="7.42303">
        <ele>2413.5949952</ele>
        <time>2019-07-20T05:31:16.115Z</time>
      </trkpt>
      <trkpt lat="44.05331" lon="7.42297">
        <ele>2414</ele>
        <time>2019-07-20T05:31:24.115Z</time>
      </trkpt>
      <trkpt lat="44.05325" lon="7.42299">
        <ele>2412</ele>
        <time>2019-07-20T05:31:32.115Z</time>
      </trkpt>
      <trkpt lat="44.05321" lon="7.42304">
        <ele>2411</ele>
        <time>2019-07-20T05:31:40.115Z</time>
      </trkpt>
      <trkpt lat="44.05318" lon="7.42309">
        <ele>2410</ele>
        <time>2019-07-20T05:31:52.115Z</time>
      </trkpt>
      <trkpt lat="44.05314" lon="7.42307">
        <ele>2410</ele>
        <time>2019-07-20T05:31:57.115Z</time>
      </trkpt>
      <trkpt lat="44.05306" lon="7.42302">
        <ele>2409</ele>
        <time>2019-07-20T05:32:05.115Z</time>
      </trkpt>
      <trkpt lat="44.05295" lon="7.42303">
        <ele>2410</ele>
        <time>2019-07-20T05:32:21.115Z</time>
      </trkpt>
      <trkpt lat="44.05291" lon="7.42311">
        <ele>2410</ele>
        <time>2019-07-20T05:32:29.115Z</time>
      </trkpt>
      <trkpt lat="44.05283" lon="7.4232">
        <ele>2409</ele>
        <time>2019-07-20T05:32:38.115Z</time>
      </trkpt>
      <trkpt lat="44.05278" lon="7.42327">
        <ele>2408</ele>
        <time>2019-07-20T05:32:46.115Z</time>
      </trkpt>
      <trkpt lat="44.0527" lon="7.42335">
        <ele>2408</ele>
        <time>2019-07-20T05:32:57.115Z</time>
      </trkpt>
      <trkpt lat="44.05264" lon="7.42339">
        <ele>2410</ele>
        <time>2019-07-20T05:33:08.115Z</time>
      </trkpt>
      <trkpt lat="44.05253" lon="7.42335">
        <ele>2411</ele>
        <time>2019-07-20T05:33:24.115Z</time>
      </trkpt>
      <trkpt lat="44.05248" lon="7.42335">
        <ele>2412.1899904</ele>
        <time>2019-07-20T05:33:31.115Z</time>
      </trkpt>
      <trkpt lat="44.05242" lon="7.42336">
        <ele>2417</ele>
        <time>2019-07-20T05:33:43.115Z</time>
      </trkpt>
      <trkpt lat="44.05235" lon="7.42333">
        <ele>2418</ele>
        <time>2019-07-20T05:33:55.117Z</time>
      </trkpt>
      <trkpt lat="44.05231" lon="7.42343">
        <ele>2420</ele>
        <time>2019-07-20T05:34:05.115Z</time>
      </trkpt>
      <trkpt lat="44.05224" lon="7.4235">
        <ele>2424</ele>
        <time>2019-07-20T05:34:19.112Z</time>
      </trkpt>
      <trkpt lat="44.05211" lon="7.4235">
        <ele>2429</ele>
        <time>2019-07-20T05:34:37.115Z</time>
      </trkpt>
      <trkpt lat="44.05201" lon="7.42355">
        <ele>2433.1899904</ele>
        <time>2019-07-20T05:34:51.115Z</time>
      </trkpt>
      <trkpt lat="44.05197" lon="7.42362">
        <ele>2434</ele>
        <time>2019-07-20T05:35:08.115Z</time>
      </trkpt>
      <trkpt lat="44.05187" lon="7.42369">
        <ele>2439</ele>
        <time>2019-07-20T05:35:22.109Z</time>
      </trkpt>
      <trkpt lat="44.05183" lon="7.42374">
        <ele>2440</ele>
        <time>2019-07-20T05:35:37.115Z</time>
      </trkpt>
      <trkpt lat="44.05178" lon="7.42377">
        <ele>2441</ele>
        <time>2019-07-20T05:35:43.115Z</time>
      </trkpt>
      <trkpt lat="44.05166" lon="7.4238">
        <ele>2441</ele>
        <time>2019-07-20T05:35:58.115Z</time>
      </trkpt>
      <trkpt lat="44.05163" lon="7.42387">
        <ele>2439.5949952</ele>
        <time>2019-07-20T05:36:06.115Z</time>
      </trkpt>
      <trkpt lat="44.0516" lon="7.42396">
        <ele>2440</ele>
        <time>2019-07-20T05:36:15.117Z</time>
      </trkpt>
      <trkpt lat="44.05156" lon="7.42409">
        <ele>2442</ele>
        <time>2019-07-20T05:36:23.112Z</time>
      </trkpt>
      <trkpt lat="44.05149" lon="7.42419">
        <ele>2442</ele>
        <time>2019-07-20T05:36:38.114Z</time>
      </trkpt>
      <trkpt lat="44.05138" lon="7.42422">
        <ele>2443</ele>
        <time>2019-07-20T05:36:47.117Z</time>
      </trkpt>
      <trkpt lat="44.05132" lon="7.42428">
        <ele>2443</ele>
        <time>2019-07-20T05:37:04.115Z</time>
      </trkpt>
      <trkpt lat="44.05125" lon="7.42428">
        <ele>2444</ele>
        <time>2019-07-20T05:37:15.111Z</time>
      </trkpt>
      <trkpt lat="44.0512" lon="7.4244">
        <ele>2444</ele>
        <time>2019-07-20T05:37:33.115Z</time>
      </trkpt>
      <trkpt lat="44.05116" lon="7.42446">
        <ele>2445</ele>
        <time>2019-07-20T05:37:42.115Z</time>
      </trkpt>
      <trkpt lat="44.05108" lon="7.42454">
        <ele>2445</ele>
        <time>2019-07-20T05:37:55.116Z</time>
      </trkpt>
      <trkpt lat="44.05108" lon="7.42466">
        <ele>2446</ele>
        <time>2019-07-20T05:38:10.115Z</time>
      </trkpt>
      <trkpt lat="44.05105" lon="7.42478">
        <ele>2448</ele>
        <time>2019-07-20T05:38:25.117Z</time>
      </trkpt>
      <trkpt lat="44.05102" lon="7.42492">
        <ele>2446.4050048</ele>
        <time>2019-07-20T05:38:31.115Z</time>
      </trkpt>
      <trkpt lat="44.05101" lon="7.42517">
        <ele>2446</ele>
        <time>2019-07-20T05:38:48.116Z</time>
      </trkpt>
      <trkpt lat="44.05093" lon="7.42528">
        <ele>2446</ele>
        <time>2019-07-20T05:39:00.115Z</time>
      </trkpt>
      <trkpt lat="44.05092" lon="7.42546">
        <ele>2444</ele>
        <time>2019-07-20T05:39:12.115Z</time>
      </trkpt>
      <trkpt lat="44.05089" lon="7.4256">
        <ele>2444</ele>
        <time>2019-07-20T05:39:24.113Z</time>
      </trkpt>
      <trkpt lat="44.05089" lon="7.42571">
        <ele>2445</ele>
        <time>2019-07-20T05:39:34.115Z</time>
      </trkpt>
      <trkpt lat="44.05083" lon="7.42571">
        <ele>2445</ele>
        <time>2019-07-20T05:39:40.115Z</time>
      </trkpt>
      <trkpt lat="44.0508" lon="7.42585">
        <ele>2450.5949952</ele>
        <time>2019-07-20T05:40:01.115Z</time>
      </trkpt>
      <trkpt lat="44.05079" lon="7.42597">
        <ele>2452</ele>
        <time>2019-07-20T05:40:15.110Z</time>
      </trkpt>
      <trkpt lat="44.05074" lon="7.4261">
        <ele>2454</ele>
        <time>2019-07-20T05:40:24.115Z</time>
      </trkpt>
      <trkpt lat="44.0507" lon="7.42622">
        <ele>2455</ele>
        <time>2019-07-20T05:40:35.115Z</time>
      </trkpt>
      <trkpt lat="44.05069" lon="7.42628">
        <ele>2456.1899904</ele>
        <time>2019-07-20T05:40:41.115Z</time>
      </trkpt>
      <trkpt lat="44.05066" lon="7.42639">
        <ele>2459</ele>
        <time>2019-07-20T05:40:55.116Z</time>
      </trkpt>
      <trkpt lat="44.05063" lon="7.42648">
        <ele>2459</ele>
        <time>2019-07-20T05:41:10.115Z</time>
      </trkpt>
      <trkpt lat="44.05066" lon="7.42662">
        <ele>2464</ele>
        <time>2019-07-20T05:41:24.116Z</time>
      </trkpt>
      <trkpt lat="44.05061" lon="7.42673">
        <ele>2467</ele>
        <time>2019-07-20T05:41:38.115Z</time>
      </trkpt>
      <trkpt lat="44.05057" lon="7.42681">
        <ele>2468</ele>
        <time>2019-07-20T05:41:50.113Z</time>
      </trkpt>
      <trkpt lat="44.05053" lon="7.42689">
        <ele>2474.1899904</ele>
        <time>2019-07-20T05:42:06.115Z</time>
      </trkpt>
      <trkpt lat="44.05053" lon="7.42703">
        <ele>2477</ele>
        <time>2019-07-20T05:42:25.115Z</time>
      </trkpt>
      <trkpt lat="44.05047" lon="7.42702">
        <ele>2478</ele>
        <time>2019-07-20T05:42:40.115Z</time>
      </trkpt>
      <trkpt lat="44.05037" lon="7.42697">
        <ele>2479</ele>
        <time>2019-07-20T05:43:34.115Z</time>
      </trkpt>
      <trkpt lat="44.05033" lon="7.42686">
        <ele>2482.7849856</ele>
        <time>2019-07-20T05:43:46.115Z</time>
      </trkpt>
      <trkpt lat="44.0503" lon="7.42678">
        <ele>2484</ele>
        <time>2019-07-20T05:43:55.112Z</time>
      </trkpt>
      <trkpt lat="44.05024" lon="7.4268">
        <ele>2486.5949952</ele>
        <time>2019-07-20T05:44:06.115Z</time>
      </trkpt>
      <trkpt lat="44.05016" lon="7.42677">
        <ele>2489</ele>
        <time>2019-07-20T05:44:27.115Z</time>
      </trkpt>
      <trkpt lat="44.05011" lon="7.42679">
        <ele>2490</ele>
        <time>2019-07-20T05:44:35.115Z</time>
      </trkpt>
      <trkpt lat="44.05004" lon="7.42682">
        <ele>2492</ele>
        <time>2019-07-20T05:44:43.115Z</time>
      </trkpt>
      <trkpt lat="44.04997" lon="7.4268">
        <ele>2495</ele>
        <time>2019-07-20T05:45:05.115Z</time>
      </trkpt>
      <trkpt lat="44.04993" lon="7.42682">
        <ele>2496</ele>
        <time>2019-07-20T05:45:13.115Z</time>
      </trkpt>
      <trkpt lat="44.04987" lon="7.42669">
        <ele>2503</ele>
        <time>2019-07-20T05:45:53.109Z</time>
      </trkpt>
      <trkpt lat="44.04983" lon="7.42657">
        <ele>2506</ele>
        <time>2019-07-20T05:46:09.119Z</time>
      </trkpt>
      <trkpt lat="44.04983" lon="7.42641">
        <ele>2510.5970048</ele>
        <time>2019-07-20T05:46:21.117Z</time>
      </trkpt>
      <trkpt lat="44.04983" lon="7.42655">
        <ele>2513.2</ele>
        <time>2019-07-20T05:46:41.120Z</time>
      </trkpt>
      <trkpt lat="44.0499" lon="7.42642">
        <ele>2519</ele>
        <time>2019-07-20T05:47:05.106Z</time>
      </trkpt>
      <trkpt lat="44.04983" lon="7.42627">
        <ele>2522</ele>
        <time>2019-07-20T05:47:17.113Z</time>
      </trkpt>
      <trkpt lat="44.04973" lon="7.42627">
        <ele>2522</ele>
        <time>2019-07-20T05:47:29.111Z</time>
      </trkpt>
      <trkpt lat="44.04962" lon="7.42624">
        <ele>2528</ele>
        <time>2019-07-20T05:47:53.115Z</time>
      </trkpt>
      <trkpt lat="44.04956" lon="7.4261">
        <ele>2538</ele>
        <time>2019-07-20T05:48:32.022Z</time>
      </trkpt>
      <trkpt lat="44.04946" lon="7.42605">
        <ele>2544</ele>
        <time>2019-07-20T05:48:57.117Z</time>
      </trkpt>
      <trkpt lat="44.04945" lon="7.42594">
        <ele>2546.5960064</ele>
        <time>2019-07-20T05:49:11.116Z</time>
      </trkpt>
      <trkpt lat="44.04939" lon="7.42602">
        <ele>2551</ele>
        <time>2019-07-20T05:49:33.215Z</time>
      </trkpt>
      <trkpt lat="44.0494" lon="7.42587">
        <ele>2561.9860096</ele>
        <time>2019-07-20T05:50:26.013Z</time>
      </trkpt>
      <trkpt lat="44.04937" lon="7.42574">
        <ele>2566</ele>
        <time>2019-07-20T05:50:47.018Z</time>
      </trkpt>
      <trkpt lat="44.04927" lon="7.42577">
        <ele>2571</ele>
        <time>2019-07-20T05:50:59.013Z</time>
      </trkpt>
      <trkpt lat="44.04921" lon="7.42571">
        <ele>2574</ele>
        <time>2019-07-20T05:51:14.011Z</time>
      </trkpt>
      <trkpt lat="44.04914" lon="7.42555">
        <ele>2576</ele>
        <time>2019-07-20T05:51:41.019Z</time>
      </trkpt>
      <trkpt lat="44.04913" lon="7.42537">
        <ele>2576</ele>
        <time>2019-07-20T05:51:53.014Z</time>
      </trkpt>
      <trkpt lat="44.04911" lon="7.4252">
        <ele>2576</ele>
        <time>2019-07-20T05:51:59.009Z</time>
      </trkpt>
      <trkpt lat="44.04909" lon="7.42506">
        <ele>2576.496</ele>
        <time>2019-07-20T05:52:11.016Z</time>
      </trkpt>
      <trkpt lat="44.04904" lon="7.42492">
        <ele>2577</ele>
        <time>2019-07-20T05:52:20.013Z</time>
      </trkpt>
      <trkpt lat="44.049" lon="7.4248">
        <ele>2579</ele>
        <time>2019-07-20T05:52:30.219Z</time>
      </trkpt>
      <trkpt lat="44.04902" lon="7.42466">
        <ele>2580</ele>
        <time>2019-07-20T05:52:38.020Z</time>
      </trkpt>
      <trkpt lat="44.04902" lon="7.42452">
        <ele>2581</ele>
        <time>2019-07-20T05:52:44.012Z</time>
      </trkpt>
      <trkpt lat="44.04901" lon="7.42437">
        <ele>2587</ele>
        <time>2019-07-20T05:53:04.020Z</time>
      </trkpt>
      <trkpt lat="44.0491" lon="7.4243">
        <ele>2595</ele>
        <time>2019-07-20T05:53:37.115Z</time>
      </trkpt>
      <trkpt lat="44.04906" lon="7.42416">
        <ele>2598</ele>
        <time>2019-07-20T05:53:50.212Z</time>
      </trkpt>
      <trkpt lat="44.04906" lon="7.42404">
        <ele>2604</ele>
        <time>2019-07-20T05:54:27.219Z</time>
      </trkpt>
      <trkpt lat="44.04901" lon="7.42391">
        <ele>2609</ele>
        <time>2019-07-20T05:54:41.018Z</time>
      </trkpt>
      <trkpt lat="44.04912" lon="7.42394">
        <ele>2613</ele>
        <time>2019-07-20T05:54:59.115Z</time>
      </trkpt>
      <trkpt lat="44.04902" lon="7.42387">
        <ele>2620</ele>
        <time>2019-07-20T05:55:29.109Z</time>
      </trkpt>
      <trkpt lat="44.0491" lon="7.42377">
        <ele>2628</ele>
        <time>2019-07-20T05:56:09.115Z</time>
      </trkpt>
      <trkpt lat="44.04905" lon="7.42367">
        <ele>2631</ele>
        <time>2019-07-20T05:56:22.019Z</time>
      </trkpt>
      <trkpt lat="44.04914" lon="7.42359">
        <ele>2637</ele>
        <time>2019-07-20T05:56:54.115Z</time>
      </trkpt>
      <trkpt lat="44.04908" lon="7.42346">
        <ele>2639</ele>
        <time>2019-07-20T05:57:08.018Z</time>
      </trkpt>
      <trkpt lat="44.049" lon="7.42337">
        <ele>2648</ele>
        <time>2019-07-20T05:57:43.112Z</time>
      </trkpt>
      <trkpt lat="44.0491" lon="7.42334">
        <ele>2652</ele>
        <time>2019-07-20T05:57:57.115Z</time>
      </trkpt>
      <trkpt lat="44.04901" lon="7.42328">
        <ele>2656</ele>
        <time>2019-07-20T05:58:12.112Z</time>
      </trkpt>
      <trkpt lat="44.04906" lon="7.42318">
        <ele>2660</ele>
        <time>2019-07-20T05:58:32.121Z</time>
      </trkpt>
      <trkpt lat="44.04908" lon="7.42304">
        <ele>2664</ele>
        <time>2019-07-20T05:58:47.018Z</time>
      </trkpt>
      <trkpt lat="44.04905" lon="7.42291">
        <ele>2671</ele>
        <time>2019-07-20T05:59:20.214Z</time>
      </trkpt>
      <trkpt lat="44.04911" lon="7.42289">
        <ele>2671</ele>
        <time>2019-07-20T05:59:28.017Z</time>
      </trkpt>
      <trkpt lat="44.04912" lon="7.42277">
        <ele>2677</ele>
        <time>2019-07-20T05:59:47.217Z</time>
      </trkpt>
      <trkpt lat="44.04905" lon="7.42278">
        <ele>2677</ele>
        <time>2019-07-20T06:01:32.115Z</time>
      </trkpt>
      <trkpt lat="44.04916" lon="7.42283">
        <ele>2677</ele>
        <time>2019-07-20T06:02:00.012Z</time>
      </trkpt>
      <trkpt lat="44.04907" lon="7.42279">
        <ele>2677</ele>
        <time>2019-07-20T06:02:19.214Z</time>
      </trkpt>
      <trkpt lat="44.04916" lon="7.42275">
        <ele>2677</ele>
        <time>2019-07-20T06:02:39.009Z</time>
      </trkpt>
      <trkpt lat="44.04908" lon="7.42278">
        <ele>2677</ele>
        <time>2019-07-20T06:03:43.215Z</time>
      </trkpt>
      <trkpt lat="44.04898" lon="7.42284">
        <ele>2675</ele>
        <time>2019-07-20T06:04:16.218Z</time>
      </trkpt>
      <trkpt lat="44.04902" lon="7.42297">
        <ele>2670.5110016</ele>
        <time>2019-07-20T06:04:36.009Z</time>
      </trkpt>
      <trkpt lat="44.04908" lon="7.42311">
        <ele>2661</ele>
        <time>2019-07-20T06:04:57.014Z</time>
      </trkpt>
      <trkpt lat="44.04898" lon="7.42318">
        <ele>2656</ele>
        <time>2019-07-20T06:05:12.021Z</time>
      </trkpt>
      <trkpt lat="44.04906" lon="7.42327">
        <ele>2655</ele>
        <time>2019-07-20T06:05:18.115Z</time>
      </trkpt>
      <trkpt lat="44.04902" lon="7.42338">
        <ele>2655</ele>
        <time>2019-07-20T06:05:25.118Z</time>
      </trkpt>
      <trkpt lat="44.04897" lon="7.42352">
        <ele>2646.4175320991</ele>
        <time>2019-07-20T06:05:46.115Z</time>
      </trkpt>
      <trkpt lat="44.04904" lon="7.42365">
        <ele>2640</ele>
        <time>2019-07-20T06:06:00.115Z</time>
      </trkpt>
      <trkpt lat="44.04895" lon="7.42373">
        <ele>2637</ele>
        <time>2019-07-20T06:06:37.412Z</time>
      </trkpt>
      <trkpt lat="44.04893" lon="7.42391">
        <ele>2620</ele>
        <time>2019-07-20T06:07:18.022Z</time>
      </trkpt>
      <trkpt lat="44.04888" lon="7.42407">
        <ele>2616</ele>
        <time>2019-07-20T06:07:29.115Z</time>
      </trkpt>
      <trkpt lat="44.04882" lon="7.42428">
        <ele>2608</ele>
        <time>2019-07-20T06:07:49.115Z</time>
      </trkpt>
      <trkpt lat="44.04871" lon="7.42427">
        <ele>2604</ele>
        <time>2019-07-20T06:07:59.119Z</time>
      </trkpt>
      <trkpt lat="44.04873" lon="7.42442">
        <ele>2600</ele>
        <time>2019-07-20T06:08:05.115Z</time>
      </trkpt>
      <trkpt lat="44.04883" lon="7.42449">
        <ele>2597</ele>
        <time>2019-07-20T06:08:14.115Z</time>
      </trkpt>
      <trkpt lat="44.04881" lon="7.42463">
        <ele>2592</ele>
        <time>2019-07-20T06:08:24.015Z</time>
      </trkpt>
      <trkpt lat="44.04883" lon="7.42476">
        <ele>2587.3030016</ele>
        <time>2019-07-20T06:08:36.217Z</time>
      </trkpt>
      <trkpt lat="44.04891" lon="7.42483">
        <ele>2581</ele>
        <time>2019-07-20T06:08:48.018Z</time>
      </trkpt>
      <trkpt lat="44.04897" lon="7.42495">
        <ele>2579</ele>
        <time>2019-07-20T06:08:55.220Z</time>
      </trkpt>
      <trkpt lat="44.04904" lon="7.42506">
        <ele>2577</ele>
        <time>2019-07-20T06:09:03.014Z</time>
      </trkpt>
      <trkpt lat="44.0491" lon="7.42495">
        <ele>2576</ele>
        <time>2019-07-20T06:09:16.212Z</time>
      </trkpt>
      <trkpt lat="44.04903" lon="7.42479">
        <ele>2577</ele>
        <time>2019-07-20T06:09:27.017Z</time>
      </trkpt>
      <trkpt lat="44.04902" lon="7.42463">
        <ele>2578</ele>
        <time>2019-07-20T06:09:36.016Z</time>
      </trkpt>
      <trkpt lat="44.04901" lon="7.42449">
        <ele>2578</ele>
        <time>2019-07-20T06:09:45.013Z</time>
      </trkpt>
      <trkpt lat="44.04896" lon="7.42437">
        <ele>2586.5949952</ele>
        <time>2019-07-20T06:10:11.115Z</time>
      </trkpt>
      <trkpt lat="44.04905" lon="7.42431">
        <ele>2591.577663448</ele>
        <time>2019-07-20T06:10:36.115Z</time>
      </trkpt>
      <trkpt lat="44.04902" lon="7.42418">
        <ele>2597</ele>
        <time>2019-07-20T06:11:00.111Z</time>
      </trkpt>
      <trkpt lat="44.04894" lon="7.42408">
        <ele>2599</ele>
        <time>2019-07-20T06:11:17.115Z</time>
      </trkpt>
      <trkpt lat="44.04902" lon="7.42402">
        <ele>2604</ele>
        <time>2019-07-20T06:11:39.119Z</time>
      </trkpt>
      <trkpt lat="44.04907" lon="7.4239">
        <ele>2613</ele>
        <time>2019-07-20T06:12:28.119Z</time>
      </trkpt>
      <trkpt lat="44.04916" lon="7.42383">
        <ele>2615</ele>
        <time>2019-07-20T06:12:43.122Z</time>
      </trkpt>
      <trkpt lat="44.04908" lon="7.42374">
        <ele>2623</ele>
        <time>2019-07-20T06:13:24.117Z</time>
      </trkpt>
      <trkpt lat="44.04914" lon="7.42358">
        <ele>2629</ele>
        <time>2019-07-20T06:14:07.010Z</time>
      </trkpt>
      <trkpt lat="44.04921" lon="7.42347">
        <ele>2636</ele>
        <time>2019-07-20T06:14:54.115Z</time>
      </trkpt>
      <trkpt lat="44.04913" lon="7.42339">
        <ele>2639</ele>
        <time>2019-07-20T06:15:13.117Z</time>
      </trkpt>
      <trkpt lat="44.04913" lon="7.42329">
        <ele>2641</ele>
        <time>2019-07-20T06:15:40.012Z</time>
      </trkpt>
      <trkpt lat="44.04906" lon="7.42329">
        <ele>2649</ele>
        <time>2019-07-20T06:16:23.115Z</time>
      </trkpt>
      <trkpt lat="44.04906" lon="7.42323">
        <ele>2658</ele>
        <time>2019-07-20T06:17:07.115Z</time>
      </trkpt>
      <trkpt lat="44.04906" lon="7.42315">
        <ele>2659</ele>
        <time>2019-07-20T06:17:27.115Z</time>
      </trkpt>
      <trkpt lat="44.04908" lon="7.4231">
        <ele>2662</ele>
        <time>2019-07-20T06:17:49.115Z</time>
      </trkpt>
      <trkpt lat="44.04907" lon="7.42305">
        <ele>2663</ele>
        <time>2019-07-20T06:18:02.115Z</time>
      </trkpt>
      <trkpt lat="44.04906" lon="7.42298">
        <ele>2666</ele>
        <time>2019-07-20T06:18:22.115Z</time>
      </trkpt>
      <trkpt lat="44.04908" lon="7.42307">
        <ele>2666.2150144</ele>
        <time>2019-07-20T06:18:51.115Z</time>
      </trkpt>
      <trkpt lat="44.04906" lon="7.42312">
        <ele>2663.4050048</ele>
        <time>2019-07-20T06:19:01.115Z</time>
      </trkpt>
      <trkpt lat="44.04904" lon="7.42316">
        <ele>2662</ele>
        <time>2019-07-20T06:19:08.115Z</time>
      </trkpt>
      <trkpt lat="44.04907" lon="7.42324">
        <ele>2658</ele>
        <time>2019-07-20T06:19:44.115Z</time>
      </trkpt>
      <trkpt lat="44.04902" lon="7.42327">
        <ele>2657</ele>
        <time>2019-07-20T06:19:57.115Z</time>
      </trkpt>
      <trkpt lat="44.04904" lon="7.42341">
        <ele>2653</ele>
        <time>2019-07-20T06:20:25.121Z</time>
      </trkpt>
      <trkpt lat="44.04901" lon="7.42356">
        <ele>2642</ele>
        <time>2019-07-20T06:22:06.115Z</time>
      </trkpt>
      <trkpt lat="44.04908" lon="7.42365">
        <ele>2639</ele>
        <time>2019-07-20T06:22:34.115Z</time>
      </trkpt>
      <trkpt lat="44.04917" lon="7.42359">
        <ele>2638</ele>
        <time>2019-07-20T06:22:45.110Z</time>
      </trkpt>
      <trkpt lat="44.04911" lon="7.42373">
        <ele>2637</ele>
        <time>2019-07-20T06:23:11.115Z</time>
      </trkpt>
      <trkpt lat="44.04903" lon="7.42365">
        <ele>2634</ele>
        <time>2019-07-20T06:24:03.114Z</time>
      </trkpt>
      <trkpt lat="44.04902" lon="7.42381">
        <ele>2630.422336552</ele>
        <time>2019-07-20T06:24:31.115Z</time>
      </trkpt>
      <trkpt lat="44.04892" lon="7.42387">
        <ele>2627</ele>
        <time>2019-07-20T06:25:16.111Z</time>
      </trkpt>
      <trkpt lat="44.04899" lon="7.424">
        <ele>2625.4108939751</ele>
        <time>2019-07-20T06:25:41.115Z</time>
      </trkpt>
      <trkpt lat="44.04892" lon="7.42409">
        <ele>2617</ele>
        <time>2019-07-20T06:26:33.115Z</time>
      </trkpt>
      <trkpt lat="44.04885" lon="7.42419">
        <ele>2612</ele>
        <time>2019-07-20T06:27:09.115Z</time>
      </trkpt>
      <trkpt lat="44.04885" lon="7.42433">
        <ele>2607</ele>
        <time>2019-07-20T06:27:57.115Z</time>
      </trkpt>
      <trkpt lat="44.04884" lon="7.42447">
        <ele>2598.8217879502</ele>
        <time>2019-07-20T06:29:01.115Z</time>
      </trkpt>
      <trkpt lat="44.04889" lon="7.4246">
        <ele>2599</ele>
        <time>2019-07-20T06:29:20.115Z</time>
      </trkpt>
      <trkpt lat="44.04879" lon="7.42461">
        <ele>2592</ele>
        <time>2019-07-20T06:29:46.115Z</time>
      </trkpt>
      <trkpt lat="44.0488" lon="7.42477">
        <ele>2589</ele>
        <time>2019-07-20T06:30:14.115Z</time>
      </trkpt>
      <trkpt lat="44.04883" lon="7.42492">
        <ele>2587</ele>
        <time>2019-07-20T06:30:38.115Z</time>
      </trkpt>
      <trkpt lat="44.04886" lon="7.42506">
        <ele>2582</ele>
        <time>2019-07-20T06:31:02.115Z</time>
      </trkpt>
      <trkpt lat="44.04897" lon="7.42494">
        <ele>2582</ele>
        <time>2019-07-20T06:31:22.115Z</time>
      </trkpt>
      <trkpt lat="44.04906" lon="7.42492">
        <ele>2582</ele>
        <time>2019-07-20T06:31:38.115Z</time>
      </trkpt>
      <trkpt lat="44.04908" lon="7.425">
        <ele>2581</ele>
        <time>2019-07-20T06:31:46.115Z</time>
      </trkpt>
      <trkpt lat="44.04912" lon="7.42519">
        <ele>2580</ele>
        <time>2019-07-20T06:31:58.115Z</time>
      </trkpt>
      <trkpt lat="44.04914" lon="7.42535">
        <ele>2578</ele>
        <time>2019-07-20T06:32:06.115Z</time>
      </trkpt>
      <trkpt lat="44.04914" lon="7.42547">
        <ele>2578</ele>
        <time>2019-07-20T06:32:14.115Z</time>
      </trkpt>
      <trkpt lat="44.04914" lon="7.42561">
        <ele>2578</ele>
        <time>2019-07-20T06:32:22.115Z</time>
      </trkpt>
      <trkpt lat="44.04916" lon="7.42567">
        <ele>2578</ele>
        <time>2019-07-20T06:32:38.115Z</time>
      </trkpt>
      <trkpt lat="44.04916" lon="7.42557">
        <ele>2578</ele>
        <time>2019-07-20T06:33:22.115Z</time>
      </trkpt>
      <trkpt lat="44.04915" lon="7.42544">
        <ele>2578</ele>
        <time>2019-07-20T06:33:30.115Z</time>
      </trkpt>
      <trkpt lat="44.04914" lon="7.4253">
        <ele>2579</ele>
        <time>2019-07-20T06:33:38.115Z</time>
      </trkpt>
      <trkpt lat="44.04913" lon="7.42516">
        <ele>2578</ele>
        <time>2019-07-20T06:33:46.115Z</time>
      </trkpt>
      <trkpt lat="44.04911" lon="7.42503">
        <ele>2579</ele>
        <time>2019-07-20T06:33:54.115Z</time>
      </trkpt>
      <trkpt lat="44.04909" lon="7.42491">
        <ele>2580</ele>
        <time>2019-07-20T06:34:06.115Z</time>
      </trkpt>
      <trkpt lat="44.04904" lon="7.42483">
        <ele>2582</ele>
        <time>2019-07-20T06:34:22.115Z</time>
      </trkpt>
      <trkpt lat="44.04902" lon="7.42472">
        <ele>2583</ele>
        <time>2019-07-20T06:34:30.115Z</time>
      </trkpt>
      <trkpt lat="44.04902" lon="7.4246">
        <ele>2585</ele>
        <time>2019-07-20T06:34:46.115Z</time>
      </trkpt>
      <trkpt lat="44.04904" lon="7.42453">
        <ele>2587</ele>
        <time>2019-07-20T06:34:54.115Z</time>
      </trkpt>
      <trkpt lat="44.049" lon="7.42441">
        <ele>2591</ele>
        <time>2019-07-20T06:35:34.115Z</time>
      </trkpt>
      <trkpt lat="44.04905" lon="7.42428">
        <ele>2595</ele>
        <time>2019-07-20T06:36:04.115Z</time>
      </trkpt>
      <trkpt lat="44.04904" lon="7.42416">
        <ele>2600</ele>
        <time>2019-07-20T06:36:55.115Z</time>
      </trkpt>
      <trkpt lat="44.04896" lon="7.42408">
        <ele>2604</ele>
        <time>2019-07-20T06:37:15.115Z</time>
      </trkpt>
      <trkpt lat="44.04901" lon="7.42398">
        <ele>2610</ele>
        <time>2019-07-20T06:38:15.115Z</time>
      </trkpt>
      <trkpt lat="44.04907" lon="7.42388">
        <ele>2620</ele>
        <time>2019-07-20T06:39:24.115Z</time>
      </trkpt>
      <trkpt lat="44.04911" lon="7.4238">
        <ele>2626</ele>
        <time>2019-07-20T06:40:11.115Z</time>
      </trkpt>
      <trkpt lat="44.04905" lon="7.42373">
        <ele>2629</ele>
        <time>2019-07-20T06:40:23.115Z</time>
      </trkpt>
      <trkpt lat="44.04906" lon="7.42364">
        <ele>2634</ele>
        <time>2019-07-20T06:41:10.115Z</time>
      </trkpt>
      <trkpt lat="44.04915" lon="7.42356">
        <ele>2639</ele>
        <time>2019-07-20T06:41:57.115Z</time>
      </trkpt>
      <trkpt lat="44.04908" lon="7.42346">
        <ele>2644</ele>
        <time>2019-07-20T06:42:29.115Z</time>
      </trkpt>
      <trkpt lat="44.04905" lon="7.42335">
        <ele>2650</ele>
        <time>2019-07-20T06:43:22.115Z</time>
      </trkpt>
      <trkpt lat="44.0491" lon="7.42325">
        <ele>2657</ele>
        <time>2019-07-20T06:44:15.115Z</time>
      </trkpt>
      <trkpt lat="44.04904" lon="7.42325">
        <ele>2659</ele>
        <time>2019-07-20T06:44:38.115Z</time>
      </trkpt>
      <trkpt lat="44.04906" lon="7.42316">
        <ele>2664</ele>
        <time>2019-07-20T06:45:08.115Z</time>
      </trkpt>
      <trkpt lat="44.04906" lon="7.4231">
        <ele>2668</ele>
        <time>2019-07-20T06:46:06.115Z</time>
      </trkpt>
      <trkpt lat="44.04906" lon="7.42303">
        <ele>2669</ele>
        <time>2019-07-20T06:46:17.115Z</time>
      </trkpt>
      <trkpt lat="44.04905" lon="7.42298">
        <ele>2671</ele>
        <time>2019-07-20T06:46:30.115Z</time>
      </trkpt>
      <trkpt lat="44.04906" lon="7.42292">
        <ele>2674</ele>
        <time>2019-07-20T06:47:00.115Z</time>
      </trkpt>
      <trkpt lat="44.04911" lon="7.42291">
        <ele>2675</ele>
        <time>2019-07-20T06:47:09.115Z</time>
      </trkpt>
      <trkpt lat="44.04908" lon="7.42286">
        <ele>2679</ele>
        <time>2019-07-20T06:47:25.115Z</time>
      </trkpt>
      <trkpt lat="44.04905" lon="7.4228">
        <ele>2680</ele>
        <time>2019-07-20T06:47:33.115Z</time>
      </trkpt>
      <trkpt lat="44.04895" lon="7.42275">
        <ele>2681</ele>
        <time>2019-07-20T06:47:55.115Z</time>
      </trkpt>
      <trkpt lat="44.04887" lon="7.42278">
        <ele>2675.4780773161</ele>
        <time>2019-07-20T06:48:07.115Z</time>
      </trkpt>
      <trkpt lat="44.04881" lon="7.42269">
        <ele>2675</ele>
        <time>2019-07-20T06:48:19.115Z</time>
      </trkpt>
      <trkpt lat="44.04872" lon="7.42264">
        <ele>2669</ele>
        <time>2019-07-20T06:48:31.115Z</time>
      </trkpt>
      <trkpt lat="44.04865" lon="7.42273">
        <ele>2662.42188</ele>
        <time>2019-07-20T06:48:47.115Z</time>
      </trkpt>
      <trkpt lat="44.04859" lon="7.42284">
        <ele>2661</ele>
        <time>2019-07-20T06:48:56.115Z</time>
      </trkpt>
      <trkpt lat="44.04851" lon="7.42279">
        <ele>2653</ele>
        <time>2019-07-20T06:49:14.115Z</time>
      </trkpt>
      <trkpt lat="44.04841" lon="7.42278">
        <ele>2647</ele>
        <time>2019-07-20T06:49:30.115Z</time>
      </trkpt>
      <trkpt lat="44.04837" lon="7.42271">
        <ele>2642</ele>
        <time>2019-07-20T06:49:38.115Z</time>
      </trkpt>
      <trkpt lat="44.0483" lon="7.42267">
        <ele>2639</ele>
        <time>2019-07-20T06:49:47.115Z</time>
      </trkpt>
      <trkpt lat="44.04822" lon="7.42282">
        <ele>2631.4734540841</ele>
        <time>2019-07-20T06:50:03.115Z</time>
      </trkpt>
      <trkpt lat="44.04819" lon="7.42296">
        <ele>2630</ele>
        <time>2019-07-20T06:50:11.115Z</time>
      </trkpt>
      <trkpt lat="44.04812" lon="7.42287">
        <ele>2624</ele>
        <time>2019-07-20T06:50:24.115Z</time>
      </trkpt>
      <trkpt lat="44.04803" lon="7.42278">
        <ele>2618.5611195654</ele>
        <time>2019-07-20T06:50:32.115Z</time>
      </trkpt>
      <trkpt lat="44.04793" lon="7.42282">
        <ele>2610</ele>
        <time>2019-07-20T06:50:49.115Z</time>
      </trkpt>
      <trkpt lat="44.04786" lon="7.42271">
        <ele>2605.0380953542</ele>
        <time>2019-07-20T06:51:02.115Z</time>
      </trkpt>
      <trkpt lat="44.04779" lon="7.42257">
        <ele>2603</ele>
        <time>2019-07-20T06:51:11.115Z</time>
      </trkpt>
      <trkpt lat="44.04775" lon="7.42244">
        <ele>2597</ele>
        <time>2019-07-20T06:51:19.115Z</time>
      </trkpt>
      <trkpt lat="44.04772" lon="7.42233">
        <ele>2596</ele>
        <time>2019-07-20T06:51:27.115Z</time>
      </trkpt>
      <trkpt lat="44.04766" lon="7.42227">
        <ele>2592</ele>
        <time>2019-07-20T06:51:40.115Z</time>
      </trkpt>
      <trkpt lat="44.04755" lon="7.42216">
        <ele>2587</ele>
        <time>2019-07-20T06:51:53.115Z</time>
      </trkpt>
      <trkpt lat="44.0475" lon="7.42206">
        <ele>2582.3543973456</ele>
        <time>2019-07-20T06:52:01.115Z</time>
      </trkpt>
      <trkpt lat="44.04739" lon="7.42193">
        <ele>2579</ele>
        <time>2019-07-20T06:52:09.115Z</time>
      </trkpt>
      <trkpt lat="44.04726" lon="7.4218">
        <ele>2576.5885466667</ele>
        <time>2019-07-20T06:52:17.115Z</time>
      </trkpt>
      <trkpt lat="44.04716" lon="7.42174">
        <ele>2575</ele>
        <time>2019-07-20T06:52:25.115Z</time>
      </trkpt>
      <trkpt lat="44.04701" lon="7.42166">
        <ele>2571.7500035555</ele>
        <time>2019-07-20T06:52:33.115Z</time>
      </trkpt>
      <trkpt lat="44.04679" lon="7.42155">
        <ele>2567</ele>
        <time>2019-07-20T06:52:45.115Z</time>
      </trkpt>
      <trkpt lat="44.04661" lon="7.4215">
        <ele>2566</ele>
        <time>2019-07-20T06:52:53.115Z</time>
      </trkpt>
      <trkpt lat="44.0465" lon="7.42138">
        <ele>2564</ele>
        <time>2019-07-20T06:53:01.115Z</time>
      </trkpt>
      <trkpt lat="44.04648" lon="7.42124">
        <ele>2564</ele>
        <time>2019-07-20T06:53:09.115Z</time>
      </trkpt>
      <trkpt lat="44.0464" lon="7.42111">
        <ele>2564</ele>
        <time>2019-07-20T06:53:17.115Z</time>
      </trkpt>
      <trkpt lat="44.0463" lon="7.42101">
        <ele>2565</ele>
        <time>2019-07-20T06:53:29.115Z</time>
      </trkpt>
      <trkpt lat="44.04622" lon="7.42097">
        <ele>2563</ele>
        <time>2019-07-20T06:53:37.115Z</time>
      </trkpt>
      <trkpt lat="44.04614" lon="7.42088">
        <ele>2563</ele>
        <time>2019-07-20T06:53:49.115Z</time>
      </trkpt>
      <trkpt lat="44.04601" lon="7.42084">
        <ele>2562</ele>
        <time>2019-07-20T06:54:05.115Z</time>
      </trkpt>
      <trkpt lat="44.04587" lon="7.42081">
        <ele>2562</ele>
        <time>2019-07-20T06:54:13.115Z</time>
      </trkpt>
      <trkpt lat="44.04567" lon="7.42078">
        <ele>2560</ele>
        <time>2019-07-20T06:54:22.115Z</time>
      </trkpt>
      <trkpt lat="44.04553" lon="7.42077">
        <ele>2560</ele>
        <time>2019-07-20T06:54:30.115Z</time>
      </trkpt>
      <trkpt lat="44.04544" lon="7.42082">
        <ele>2556</ele>
        <time>2019-07-20T06:54:38.115Z</time>
      </trkpt>
      <trkpt lat="44.04528" lon="7.4208">
        <ele>2553</ele>
        <time>2019-07-20T06:54:50.115Z</time>
      </trkpt>
      <trkpt lat="44.04521" lon="7.42081">
        <ele>2553</ele>
        <time>2019-07-20T06:54:55.115Z</time>
      </trkpt>
      <trkpt lat="44.04509" lon="7.42085">
        <ele>2552</ele>
        <time>2019-07-20T06:55:04.115Z</time>
      </trkpt>
      <trkpt lat="44.04496" lon="7.42088">
        <ele>2551.4263194061</ele>
        <time>2019-07-20T06:55:13.115Z</time>
      </trkpt>
      <trkpt lat="44.04482" lon="7.42092">
        <ele>2551</ele>
        <time>2019-07-20T06:55:22.115Z</time>
      </trkpt>
      <trkpt lat="44.04468" lon="7.42092">
        <ele>2549</ele>
        <time>2019-07-20T06:55:34.115Z</time>
      </trkpt>
      <trkpt lat="44.04467" lon="7.42084">
        <ele>2549</ele>
        <time>2019-07-20T06:55:42.115Z</time>
      </trkpt>
      <trkpt lat="44.04464" lon="7.42074">
        <ele>2550</ele>
        <time>2019-07-20T06:55:50.115Z</time>
      </trkpt>
      <trkpt lat="44.04456" lon="7.42065">
        <ele>2551</ele>
        <time>2019-07-20T06:56:03.115Z</time>
      </trkpt>
      <trkpt lat="44.04447" lon="7.42061">
        <ele>2552.1382935265</ele>
        <time>2019-07-20T06:56:11.115Z</time>
      </trkpt>
      <trkpt lat="44.04437" lon="7.42052">
        <ele>2553</ele>
        <time>2019-07-20T06:56:20.115Z</time>
      </trkpt>
      <trkpt lat="44.04428" lon="7.42046">
        <ele>2552</ele>
        <time>2019-07-20T06:56:29.115Z</time>
      </trkpt>
      <trkpt lat="44.04424" lon="7.42037">
        <ele>2551</ele>
        <time>2019-07-20T06:56:37.115Z</time>
      </trkpt>
      <trkpt lat="44.04408" lon="7.42038">
        <ele>2546</ele>
        <time>2019-07-20T06:56:50.115Z</time>
      </trkpt>
      <trkpt lat="44.04398" lon="7.42043">
        <ele>2541.3651896277</ele>
        <time>2019-07-20T06:57:02.115Z</time>
      </trkpt>
      <trkpt lat="44.04387" lon="7.42045">
        <ele>2540</ele>
        <time>2019-07-20T06:57:10.115Z</time>
      </trkpt>
      <trkpt lat="44.04377" lon="7.42055">
        <ele>2538.9889065878</ele>
        <time>2019-07-20T06:57:22.115Z</time>
      </trkpt>
      <trkpt lat="44.04369" lon="7.42056">
        <ele>2538</ele>
        <time>2019-07-20T06:57:34.115Z</time>
      </trkpt>
      <trkpt lat="44.04358" lon="7.42062">
        <ele>2535</ele>
        <time>2019-07-20T06:57:51.115Z</time>
      </trkpt>
      <trkpt lat="44.04346" lon="7.42066">
        <ele>2534</ele>
        <time>2019-07-20T06:58:07.115Z</time>
      </trkpt>
      <trkpt lat="44.0434" lon="7.42069">
        <ele>2534</ele>
        <time>2019-07-20T06:58:15.115Z</time>
      </trkpt>
      <trkpt lat="44.04328" lon="7.42073">
        <ele>2529</ele>
        <time>2019-07-20T06:58:27.115Z</time>
      </trkpt>
      <trkpt lat="44.0432" lon="7.42077">
        <ele>2529</ele>
        <time>2019-07-20T06:58:35.115Z</time>
      </trkpt>
      <trkpt lat="44.04315" lon="7.42081">
        <ele>2529</ele>
        <time>2019-07-20T06:58:40.115Z</time>
      </trkpt>
      <trkpt lat="44.0431" lon="7.42087">
        <ele>2523</ele>
        <time>2019-07-20T06:58:48.115Z</time>
      </trkpt>
      <trkpt lat="44.04303" lon="7.4209">
        <ele>2519</ele>
        <time>2019-07-20T06:58:56.115Z</time>
      </trkpt>
      <trkpt lat="44.04297" lon="7.42095">
        <ele>2517</ele>
        <time>2019-07-20T06:59:04.115Z</time>
      </trkpt>
      <trkpt lat="44.04287" lon="7.42105">
        <ele>2514</ele>
        <time>2019-07-20T06:59:16.115Z</time>
      </trkpt>
      <trkpt lat="44.04276" lon="7.42113">
        <ele>2509.8526388122</ele>
        <time>2019-07-20T06:59:28.115Z</time>
      </trkpt>
      <trkpt lat="44.04268" lon="7.42122">
        <ele>2506</ele>
        <time>2019-07-20T06:59:37.115Z</time>
      </trkpt>
      <trkpt lat="44.04258" lon="7.42131">
        <ele>2498.4590984198</ele>
        <time>2019-07-20T06:59:46.115Z</time>
      </trkpt>
      <trkpt lat="44.04246" lon="7.42137">
        <ele>2493.4132675052</ele>
        <time>2019-07-20T06:59:54.115Z</time>
      </trkpt>
      <trkpt lat="44.04233" lon="7.42131">
        <ele>2489.435008</ele>
        <time>2019-07-20T07:00:10.115Z</time>
      </trkpt>
      <trkpt lat="44.04224" lon="7.4213">
        <ele>2487</ele>
        <time>2019-07-20T07:00:22.115Z</time>
      </trkpt>
      <trkpt lat="44.04215" lon="7.42129">
        <ele>2486</ele>
        <time>2019-07-20T07:00:34.115Z</time>
      </trkpt>
      <trkpt lat="44.04205" lon="7.42127">
        <ele>2485</ele>
        <time>2019-07-20T07:00:42.115Z</time>
      </trkpt>
      <trkpt lat="44.04197" lon="7.42131">
        <ele>2485</ele>
        <time>2019-07-20T07:00:50.115Z</time>
      </trkpt>
      <trkpt lat="44.04179" lon="7.42134">
        <ele>2484</ele>
        <time>2019-07-20T07:00:58.115Z</time>
      </trkpt>
      <trkpt lat="44.04159" lon="7.42125">
        <ele>2476</ele>
        <time>2019-07-20T07:01:10.115Z</time>
      </trkpt>
      <trkpt lat="44.04146" lon="7.42122">
        <ele>2475</ele>
        <time>2019-07-20T07:01:18.115Z</time>
      </trkpt>
      <trkpt lat="44.04133" lon="7.4212">
        <ele>2471</ele>
        <time>2019-07-20T07:01:31.115Z</time>
      </trkpt>
      <trkpt lat="44.04134" lon="7.42099">
        <ele>2467</ele>
        <time>2019-07-20T07:01:39.115Z</time>
      </trkpt>
      <trkpt lat="44.04141" lon="7.42076">
        <ele>2464.0100097281</ele>
        <time>2019-07-20T07:01:47.115Z</time>
      </trkpt>
      <trkpt lat="44.0413" lon="7.42081">
        <ele>2461</ele>
        <time>2019-07-20T07:01:55.115Z</time>
      </trkpt>
      <trkpt lat="44.04116" lon="7.42087">
        <ele>2455</ele>
        <time>2019-07-20T07:02:03.115Z</time>
      </trkpt>
      <trkpt lat="44.04116" lon="7.42074">
        <ele>2451</ele>
        <time>2019-07-20T07:02:11.115Z</time>
      </trkpt>
      <trkpt lat="44.04101" lon="7.42076">
        <ele>2448</ele>
        <time>2019-07-20T07:02:19.115Z</time>
      </trkpt>
      <trkpt lat="44.04092" lon="7.42077">
        <ele>2443.8666723556</ele>
        <time>2019-07-20T07:02:27.115Z</time>
      </trkpt>
      <trkpt lat="44.04091" lon="7.42102">
        <ele>2441</ele>
        <time>2019-07-20T07:02:36.115Z</time>
      </trkpt>
      <trkpt lat="44.04085" lon="7.42119">
        <ele>2437</ele>
        <time>2019-07-20T07:02:45.115Z</time>
      </trkpt>
      <trkpt lat="44.04076" lon="7.42136">
        <ele>2433</ele>
        <time>2019-07-20T07:02:54.115Z</time>
      </trkpt>
      <trkpt lat="44.04063" lon="7.42155">
        <ele>2430</ele>
        <time>2019-07-20T07:03:03.115Z</time>
      </trkpt>
      <trkpt lat="44.04047" lon="7.42166">
        <ele>2427</ele>
        <time>2019-07-20T07:03:12.115Z</time>
      </trkpt>
      <trkpt lat="44.04027" lon="7.42186">
        <ele>2416.4944462617</ele>
        <time>2019-07-20T07:03:25.115Z</time>
      </trkpt>
      <trkpt lat="44.04018" lon="7.42195">
        <ele>2412.4944532939</ele>
        <time>2019-07-20T07:03:34.115Z</time>
      </trkpt>
      <trkpt lat="44.04005" lon="7.42207">
        <ele>2407.9888925234</ele>
        <time>2019-07-20T07:03:43.115Z</time>
      </trkpt>
      <trkpt lat="44.0399" lon="7.42208">
        <ele>2402</ele>
        <time>2019-07-20T07:03:56.115Z</time>
      </trkpt>
      <trkpt lat="44.03992" lon="7.42197">
        <ele>2401</ele>
        <time>2019-07-20T07:04:04.115Z</time>
      </trkpt>
      <trkpt lat="44.03992" lon="7.42183">
        <ele>2398</ele>
        <time>2019-07-20T07:04:12.115Z</time>
      </trkpt>
      <trkpt lat="44.03995" lon="7.42161">
        <ele>2397</ele>
        <time>2019-07-20T07:04:20.115Z</time>
      </trkpt>
      <trkpt lat="44.03987" lon="7.42173">
        <ele>2391</ele>
        <time>2019-07-20T07:04:28.115Z</time>
      </trkpt>
      <trkpt lat="44.03972" lon="7.42193">
        <ele>2386.4626169342</ele>
        <time>2019-07-20T07:04:36.115Z</time>
      </trkpt>
      <trkpt lat="44.03954" lon="7.42204">
        <ele>2383.4722313086</ele>
        <time>2019-07-20T07:04:44.115Z</time>
      </trkpt>
      <trkpt lat="44.03938" lon="7.42214">
        <ele>2382</ele>
        <time>2019-07-20T07:04:52.115Z</time>
      </trkpt>
      <trkpt lat="44.03932" lon="7.4222">
        <ele>2380</ele>
        <time>2019-07-20T07:05:00.115Z</time>
      </trkpt>
      <trkpt lat="44.03925" lon="7.42229">
        <ele>2376</ele>
        <time>2019-07-20T07:05:09.115Z</time>
      </trkpt>
      <trkpt lat="44.03918" lon="7.4224">
        <ele>2371.5050048641</ele>
        <time>2019-07-20T07:05:17.115Z</time>
      </trkpt>
      <trkpt lat="44.03912" lon="7.42251">
        <ele>2366.5055609284</ele>
        <time>2019-07-20T07:05:25.115Z</time>
      </trkpt>
      <trkpt lat="44.03906" lon="7.4226">
        <ele>2364</ele>
        <time>2019-07-20T07:05:33.115Z</time>
      </trkpt>
      <trkpt lat="44.03896" lon="7.42266">
        <ele>2360.636377741</ele>
        <time>2019-07-20T07:05:41.115Z</time>
      </trkpt>
      <trkpt lat="44.03887" lon="7.42276">
        <ele>2353.4108939751</ele>
        <time>2019-07-20T07:05:49.115Z</time>
      </trkpt>
      <trkpt lat="44.03877" lon="7.42282">
        <ele>2349.4050048</ele>
        <time>2019-07-20T07:05:57.115Z</time>
      </trkpt>
      <trkpt lat="44.03871" lon="7.42298">
        <ele>2344</ele>
        <time>2019-07-20T07:06:05.115Z</time>
      </trkpt>
      <trkpt lat="44.03866" lon="7.42322">
        <ele>2340</ele>
        <time>2019-07-20T07:06:13.115Z</time>
      </trkpt>
      <trkpt lat="44.03851" lon="7.42312">
        <ele>2336</ele>
        <time>2019-07-20T07:06:29.115Z</time>
      </trkpt>
      <trkpt lat="44.03846" lon="7.42294">
        <ele>2332</ele>
        <time>2019-07-20T07:06:38.115Z</time>
      </trkpt>
      <trkpt lat="44.03833" lon="7.42323">
        <ele>2327</ele>
        <time>2019-07-20T07:06:50.115Z</time>
      </trkpt>
      <trkpt lat="44.03827" lon="7.42349">
        <ele>2325</ele>
        <time>2019-07-20T07:06:58.115Z</time>
      </trkpt>
      <trkpt lat="44.0382" lon="7.42348">
        <ele>2322</ele>
        <time>2019-07-20T07:07:06.115Z</time>
      </trkpt>
      <trkpt lat="44.03815" lon="7.42323">
        <ele>2320</ele>
        <time>2019-07-20T07:07:14.115Z</time>
      </trkpt>
      <trkpt lat="44.03809" lon="7.42301">
        <ele>2316</ele>
        <time>2019-07-20T07:07:22.115Z</time>
      </trkpt>
      <trkpt lat="44.03807" lon="7.4228">
        <ele>2312</ele>
        <time>2019-07-20T07:07:30.115Z</time>
      </trkpt>
      <trkpt lat="44.03805" lon="7.42261">
        <ele>2308</ele>
        <time>2019-07-20T07:07:38.115Z</time>
      </trkpt>
      <trkpt lat="44.038" lon="7.42261">
        <ele>2305</ele>
        <time>2019-07-20T07:07:46.115Z</time>
      </trkpt>
      <trkpt lat="44.0379" lon="7.42256">
        <ele>2300</ele>
        <time>2019-07-20T07:07:54.115Z</time>
      </trkpt>
      <trkpt lat="44.0378" lon="7.42257">
        <ele>2294.4675974211</ele>
        <time>2019-07-20T07:08:02.115Z</time>
      </trkpt>
      <trkpt lat="44.03768" lon="7.4227">
        <ele>2289</ele>
        <time>2019-07-20T07:08:10.115Z</time>
      </trkpt>
      <trkpt lat="44.03757" lon="7.42289">
        <ele>2288</ele>
        <time>2019-07-20T07:08:18.115Z</time>
      </trkpt>
      <trkpt lat="44.03743" lon="7.4231">
        <ele>2283</ele>
        <time>2019-07-20T07:08:26.115Z</time>
      </trkpt>
      <trkpt lat="44.03732" lon="7.42331">
        <ele>2280</ele>
        <time>2019-07-20T07:08:34.115Z</time>
      </trkpt>
      <trkpt lat="44.03721" lon="7.42329">
        <ele>2278</ele>
        <time>2019-07-20T07:08:42.115Z</time>
      </trkpt>
      <trkpt lat="44.03708" lon="7.42305">
        <ele>2269.4590984198</ele>
        <time>2019-07-20T07:08:54.115Z</time>
      </trkpt>
      <trkpt lat="44.03698" lon="7.42311">
        <ele>2265.110016</ele>
        <time>2019-07-20T07:09:02.115Z</time>
      </trkpt>
      <trkpt lat="44.03683" lon="7.42311">
        <ele>2259</ele>
        <time>2019-07-20T07:09:11.115Z</time>
      </trkpt>
      <trkpt lat="44.0367" lon="7.42321">
        <ele>2254</ele>
        <time>2019-07-20T07:09:19.115Z</time>
      </trkpt>
      <trkpt lat="44.03657" lon="7.42316">
        <ele>2249</ele>
        <time>2019-07-20T07:09:27.115Z</time>
      </trkpt>
      <trkpt lat="44.03643" lon="7.42315">
        <ele>2243.4050048</ele>
        <time>2019-07-20T07:09:35.115Z</time>
      </trkpt>
      <trkpt lat="44.03629" lon="7.42311">
        <ele>2238.8181888705</ele>
        <time>2019-07-20T07:09:43.115Z</time>
      </trkpt>
      <trkpt lat="44.03611" lon="7.42312">
        <ele>2233.5891060249</ele>
        <time>2019-07-20T07:09:51.115Z</time>
      </trkpt>
      <trkpt lat="44.03588" lon="7.42315">
        <ele>2229</ele>
        <time>2019-07-20T07:09:59.115Z</time>
      </trkpt>
      <trkpt lat="44.03566" lon="7.4231">
        <ele>2227</ele>
        <time>2019-07-20T07:10:07.115Z</time>
      </trkpt>
      <trkpt lat="44.03544" lon="7.42302">
        <ele>2227</ele>
        <time>2019-07-20T07:10:15.115Z</time>
      </trkpt>
      <trkpt lat="44.03524" lon="7.42295">
        <ele>2226</ele>
        <time>2019-07-20T07:10:23.115Z</time>
      </trkpt>
      <trkpt lat="44.03505" lon="7.42292">
        <ele>2225</ele>
        <time>2019-07-20T07:10:31.115Z</time>
      </trkpt>
      <trkpt lat="44.03485" lon="7.42288">
        <ele>2225</ele>
        <time>2019-07-20T07:10:39.115Z</time>
      </trkpt>
      <trkpt lat="44.03468" lon="7.42284">
        <ele>2225</ele>
        <time>2019-07-20T07:10:47.115Z</time>
      </trkpt>
      <trkpt lat="44.0345" lon="7.42287">
        <ele>2225</ele>
        <time>2019-07-20T07:10:55.115Z</time>
      </trkpt>
      <trkpt lat="44.03432" lon="7.42283">
        <ele>2219</ele>
        <time>2019-07-20T07:11:03.115Z</time>
      </trkpt>
      <trkpt lat="44.03415" lon="7.42272">
        <ele>2216</ele>
        <time>2019-07-20T07:11:11.115Z</time>
      </trkpt>
      <trkpt lat="44.03398" lon="7.42269">
        <ele>2211.4090944353</ele>
        <time>2019-07-20T07:11:19.115Z</time>
      </trkpt>
      <trkpt lat="44.03382" lon="7.42274">
        <ele>2208</ele>
        <time>2019-07-20T07:11:27.115Z</time>
      </trkpt>
      <trkpt lat="44.03367" lon="7.42279">
        <ele>2207</ele>
        <time>2019-07-20T07:11:35.115Z</time>
      </trkpt>
      <trkpt lat="44.03353" lon="7.42287">
        <ele>2202</ele>
        <time>2019-07-20T07:11:43.115Z</time>
      </trkpt>
      <trkpt lat="44.0334" lon="7.42288">
        <ele>2195</ele>
        <time>2019-07-20T07:11:51.115Z</time>
      </trkpt>
      <trkpt lat="44.03324" lon="7.42289">
        <ele>2186.8217879502</ele>
        <time>2019-07-20T07:12:03.115Z</time>
      </trkpt>
      <trkpt lat="44.03312" lon="7.4229">
        <ele>2182</ele>
        <time>2019-07-20T07:12:11.115Z</time>
      </trkpt>
      <trkpt lat="44.03298" lon="7.42289">
        <ele>2175</ele>
        <time>2019-07-20T07:12:23.115Z</time>
      </trkpt>
      <trkpt lat="44.03289" lon="7.42284">
        <ele>2169.4090944353</ele>
        <time>2019-07-20T07:12:31.115Z</time>
      </trkpt>
      <trkpt lat="44.03278" lon="7.42284">
        <ele>2163.8217879502</ele>
        <time>2019-07-20T07:12:39.115Z</time>
      </trkpt>
      <trkpt lat="44.03266" lon="7.4229">
        <ele>2157.4050048</ele>
        <time>2019-07-20T07:12:47.115Z</time>
      </trkpt>
      <trkpt lat="44.03255" lon="7.42296">
        <ele>2153.7873341548</ele>
        <time>2019-07-20T07:12:55.115Z</time>
      </trkpt>
      <trkpt lat="44.03232" lon="7.42289">
        <ele>2140.4090944353</ele>
        <time>2019-07-20T07:13:13.115Z</time>
      </trkpt>
      <trkpt lat="44.0322" lon="7.42289">
        <ele>2134.4108939751</ele>
        <time>2019-07-20T07:13:21.115Z</time>
      </trkpt>
      <trkpt lat="44.03205" lon="7.42296">
        <ele>2130.4050048</ele>
        <time>2019-07-20T07:13:29.115Z</time>
      </trkpt>
      <trkpt lat="44.03182" lon="7.42302">
        <ele>2125.4050048</ele>
        <time>2019-07-20T07:13:41.115Z</time>
      </trkpt>
      <trkpt lat="44.03168" lon="7.42295">
        <ele>2122</ele>
        <time>2019-07-20T07:13:49.115Z</time>
      </trkpt>
      <trkpt lat="44.03167" lon="7.42308">
        <ele>2120.4050048</ele>
        <time>2019-07-20T07:13:58.115Z</time>
      </trkpt>
      <trkpt lat="44.03172" lon="7.42323">
        <ele>2119</ele>
        <time>2019-07-20T07:14:10.115Z</time>
      </trkpt>
      <trkpt lat="44.03175" lon="7.42334">
        <ele>2115</ele>
        <time>2019-07-20T07:14:18.115Z</time>
      </trkpt>
      <trkpt lat="44.03188" lon="7.42345">
        <ele>2110.6200192</ele>
        <time>2019-07-20T07:14:26.115Z</time>
      </trkpt>
      <trkpt lat="44.03189" lon="7.42371">
        <ele>2106</ele>
        <time>2019-07-20T07:14:34.115Z</time>
      </trkpt>
      <trkpt lat="44.03194" lon="7.42398">
        <ele>2105</ele>
        <time>2019-07-20T07:14:42.115Z</time>
      </trkpt>
      <trkpt lat="44.03199" lon="7.42425">
        <ele>2105</ele>
        <time>2019-07-20T07:14:50.115Z</time>
      </trkpt>
      <trkpt lat="44.03206" lon="7.42454">
        <ele>2102</ele>
        <time>2019-07-20T07:14:58.115Z</time>
      </trkpt>
      <trkpt lat="44.03206" lon="7.42486">
        <ele>2099</ele>
        <time>2019-07-20T07:15:06.115Z</time>
      </trkpt>
      <trkpt lat="44.03205" lon="7.42495">
        <ele>2098</ele>
        <time>2019-07-20T07:15:14.115Z</time>
      </trkpt>
      <trkpt lat="44.03215" lon="7.4253">
        <ele>2098</ele>
        <time>2019-07-20T07:15:44.115Z</time>
      </trkpt>
      <trkpt lat="44.03221" lon="7.42557">
        <ele>2098</ele>
        <time>2019-07-20T07:15:51.115Z</time>
      </trkpt>
      <trkpt lat="44.03228" lon="7.42573">
        <ele>2095.9090048</ele>
        <time>2019-07-20T07:15:56.217Z</time>
      </trkpt>
      <trkpt lat="44.03243" lon="7.42584">
        <ele>2093</ele>
        <time>2019-07-20T07:16:02.115Z</time>
      </trkpt>
      <trkpt lat="44.03257" lon="7.42587">
        <ele>2093</ele>
        <time>2019-07-20T07:16:07.115Z</time>
      </trkpt>
      <trkpt lat="44.03274" lon="7.42593">
        <ele>2093</ele>
        <time>2019-07-20T07:16:15.113Z</time>
      </trkpt>
      <trkpt lat="44.03287" lon="7.42599">
        <ele>2093</ele>
        <time>2019-07-20T07:16:23.115Z</time>
      </trkpt>
      <trkpt lat="44.03298" lon="7.42602">
        <ele>2093</ele>
        <time>2019-07-20T07:16:30.110Z</time>
      </trkpt>
      <trkpt lat="44.03321" lon="7.42601">
        <ele>2093</ele>
        <time>2019-07-20T07:16:38.115Z</time>
      </trkpt>
      <trkpt lat="44.03336" lon="7.42596">
        <ele>2093</ele>
        <time>2019-07-20T07:16:43.115Z</time>
      </trkpt>
      <trkpt lat="44.03346" lon="7.42588">
        <ele>2093</ele>
        <time>2019-07-20T07:16:48.216Z</time>
      </trkpt>
      <trkpt lat="44.03366" lon="7.42585">
        <ele>2091.4203622524</ele>
        <time>2019-07-20T07:16:56.115Z</time>
      </trkpt>
      <trkpt lat="44.03389" lon="7.42583">
        <ele>2087</ele>
        <time>2019-07-20T07:17:03.115Z</time>
      </trkpt>
      <trkpt lat="44.0341" lon="7.42587">
        <ele>2087</ele>
        <time>2019-07-20T07:17:10.115Z</time>
      </trkpt>
      <trkpt lat="44.03428" lon="7.4259">
        <ele>2085</ele>
        <time>2019-07-20T07:17:17.110Z</time>
      </trkpt>
      <trkpt lat="44.03449" lon="7.42595">
        <ele>2081</ele>
        <time>2019-07-20T07:17:26.811Z</time>
      </trkpt>
      <trkpt lat="44.03472" lon="7.42605">
        <ele>2078</ele>
        <time>2019-07-20T07:17:33.115Z</time>
      </trkpt>
      <trkpt lat="44.0348" lon="7.42608">
        <ele>2077.5949952</ele>
        <time>2019-07-20T07:17:41.115Z</time>
      </trkpt>
      <trkpt lat="44.035" lon="7.4262">
        <ele>2078</ele>
        <time>2019-07-20T07:17:48.120Z</time>
      </trkpt>
      <trkpt lat="44.03519" lon="7.42638">
        <ele>2077.2989952</ele>
        <time>2019-07-20T07:17:56.221Z</time>
      </trkpt>
      <trkpt lat="44.03535" lon="7.42658">
        <ele>2076</ele>
        <time>2019-07-20T07:18:04.115Z</time>
      </trkpt>
      <trkpt lat="44.03549" lon="7.4267">
        <ele>2076</ele>
        <time>2019-07-20T07:18:12.115Z</time>
      </trkpt>
      <trkpt lat="44.03559" lon="7.42672">
        <ele>2076</ele>
        <time>2019-07-20T07:18:19.114Z</time>
      </trkpt>
      <trkpt lat="44.03569" lon="7.42668">
        <ele>2081</ele>
        <time>2019-07-20T07:18:37.115Z</time>
      </trkpt>
      <trkpt lat="44.03581" lon="7.42672">
        <ele>2081</ele>
        <time>2019-07-20T07:18:47.118Z</time>
      </trkpt>
      <trkpt lat="44.03601" lon="7.42679">
        <ele>2082</ele>
        <time>2019-07-20T07:18:54.116Z</time>
      </trkpt>
      <trkpt lat="44.0361" lon="7.42685">
        <ele>2085</ele>
        <time>2019-07-20T07:19:17.108Z</time>
      </trkpt>
      <trkpt lat="44.03619" lon="7.4268">
        <ele>2087</ele>
        <time>2019-07-20T07:19:24.115Z</time>
      </trkpt>
      <trkpt lat="44.03626" lon="7.42684">
        <ele>2087</ele>
        <time>2019-07-20T07:19:30.115Z</time>
      </trkpt>
      <trkpt lat="44.03631" lon="7.42686">
        <ele>2089.5949952</ele>
        <time>2019-07-20T07:19:36.115Z</time>
      </trkpt>
      <trkpt lat="44.03637" lon="7.42687">
        <ele>2090</ele>
        <time>2019-07-20T07:19:42.115Z</time>
      </trkpt>
      <trkpt lat="44.03646" lon="7.42684">
        <ele>2091.1859968</ele>
        <time>2019-07-20T07:19:51.113Z</time>
      </trkpt>
      <trkpt lat="44.03657" lon="7.42685">
        <ele>2095</ele>
        <time>2019-07-20T07:20:07.115Z</time>
      </trkpt>
      <trkpt lat="44.03665" lon="7.42689">
        <ele>2097</ele>
        <time>2019-07-20T07:20:14.115Z</time>
      </trkpt>
      <trkpt lat="44.03675" lon="7.42693">
        <ele>2098</ele>
        <time>2019-07-20T07:20:24.115Z</time>
      </trkpt>
      <trkpt lat="44.03683" lon="7.427">
        <ele>2100</ele>
        <time>2019-07-20T07:20:33.115Z</time>
      </trkpt>
      <trkpt lat="44.03692" lon="7.42698">
        <ele>2104</ele>
        <time>2019-07-20T07:20:42.115Z</time>
      </trkpt>
      <trkpt lat="44.03696" lon="7.42704">
        <ele>2104</ele>
        <time>2019-07-20T07:20:50.115Z</time>
      </trkpt>
      <trkpt lat="44.03703" lon="7.42713">
        <ele>2105</ele>
        <time>2019-07-20T07:21:00.115Z</time>
      </trkpt>
      <trkpt lat="44.03705" lon="7.42725">
        <ele>2108.5949952</ele>
        <time>2019-07-20T07:21:11.115Z</time>
      </trkpt>
      <trkpt lat="44.03711" lon="7.42729">
        <ele>2109</ele>
        <time>2019-07-20T07:21:16.115Z</time>
      </trkpt>
      <trkpt lat="44.0372" lon="7.42735">
        <ele>2109</ele>
        <time>2019-07-20T07:21:22.115Z</time>
      </trkpt>
      <trkpt lat="44.03728" lon="7.42743">
        <ele>2109</ele>
        <time>2019-07-20T07:21:30.115Z</time>
      </trkpt>
      <trkpt lat="44.03735" lon="7.42754">
        <ele>2112</ele>
        <time>2019-07-20T07:21:39.115Z</time>
      </trkpt>
      <trkpt lat="44.0374" lon="7.42762">
        <ele>2113.5949952</ele>
        <time>2019-07-20T07:21:46.115Z</time>
      </trkpt>
      <trkpt lat="44.03749" lon="7.42772">
        <ele>2114</ele>
        <time>2019-07-20T07:21:54.115Z</time>
      </trkpt>
      <trkpt lat="44.0376" lon="7.42783">
        <ele>2117</ele>
        <time>2019-07-20T07:22:05.115Z</time>
      </trkpt>
      <trkpt lat="44.03768" lon="7.4279">
        <ele>2119</ele>
        <time>2019-07-20T07:22:13.115Z</time>
      </trkpt>
      <trkpt lat="44.03774" lon="7.42797">
        <ele>2120</ele>
        <time>2019-07-20T07:22:19.115Z</time>
      </trkpt>
      <trkpt lat="44.0378" lon="7.42803">
        <ele>2121</ele>
        <time>2019-07-20T07:22:24.115Z</time>
      </trkpt>
      <trkpt lat="44.03786" lon="7.4281">
        <ele>2122</ele>
        <time>2019-07-20T07:22:30.115Z</time>
      </trkpt>
      <trkpt lat="44.03793" lon="7.42819">
        <ele>2122</ele>
        <time>2019-07-20T07:22:38.115Z</time>
      </trkpt>
      <trkpt lat="44.03801" lon="7.42827">
        <ele>2127</ele>
        <time>2019-07-20T07:22:48.115Z</time>
      </trkpt>
      <trkpt lat="44.03808" lon="7.42834">
        <ele>2130.5949952</ele>
        <time>2019-07-20T07:23:01.115Z</time>
      </trkpt>
      <trkpt lat="44.03813" lon="7.42838">
        <ele>2132</ele>
        <time>2019-07-20T07:23:08.115Z</time>
      </trkpt>
      <trkpt lat="44.03817" lon="7.42841">
        <ele>2134.1899904</ele>
        <time>2019-07-20T07:23:16.115Z</time>
      </trkpt>
      <trkpt lat="44.03821" lon="7.42845">
        <ele>2136.1899904</ele>
        <time>2019-07-20T07:23:21.115Z</time>
      </trkpt>
      <trkpt lat="44.03824" lon="7.4285">
        <ele>2137</ele>
        <time>2019-07-20T07:23:26.115Z</time>
      </trkpt>
      <trkpt lat="44.03829" lon="7.42854">
        <ele>2138.1899904</ele>
        <time>2019-07-20T07:23:31.115Z</time>
      </trkpt>
      <trkpt lat="44.03833" lon="7.42856">
        <ele>2140.1818111295</ele>
        <time>2019-07-20T07:23:36.115Z</time>
      </trkpt>
      <trkpt lat="44.03838" lon="7.42859">
        <ele>2141</ele>
        <time>2019-07-20T07:23:41.115Z</time>
      </trkpt>
      <trkpt lat="44.03843" lon="7.42865">
        <ele>2142</ele>
        <time>2019-07-20T07:23:47.115Z</time>
      </trkpt>
      <trkpt lat="44.03848" lon="7.42869">
        <ele>2143</ele>
        <time>2019-07-20T07:23:52.115Z</time>
      </trkpt>
      <trkpt lat="44.03861" lon="7.42877">
        <ele>2145</ele>
        <time>2019-07-20T07:24:04.118Z</time>
      </trkpt>
      <trkpt lat="44.03871" lon="7.42882">
        <ele>2146</ele>
        <time>2019-07-20T07:24:12.111Z</time>
      </trkpt>
      <trkpt lat="44.03889" lon="7.42888">
        <ele>2147</ele>
        <time>2019-07-20T07:24:26.115Z</time>
      </trkpt>
      <trkpt lat="44.03898" lon="7.42896">
        <ele>2149.5949952</ele>
        <time>2019-07-20T07:24:36.115Z</time>
      </trkpt>
      <trkpt lat="44.03903" lon="7.42908">
        <ele>2153</ele>
        <time>2019-07-20T07:24:47.115Z</time>
      </trkpt>
      <trkpt lat="44.03907" lon="7.4292">
        <ele>2153</ele>
        <time>2019-07-20T07:24:55.124Z</time>
      </trkpt>
      <trkpt lat="44.03907" lon="7.42936">
        <ele>2154</ele>
        <time>2019-07-20T07:25:03.115Z</time>
      </trkpt>
      <trkpt lat="44.039" lon="7.42947">
        <ele>2156</ele>
        <time>2019-07-20T07:25:13.115Z</time>
      </trkpt>
      <trkpt lat="44.03893" lon="7.42958">
        <ele>2158</ele>
        <time>2019-07-20T07:25:24.115Z</time>
      </trkpt>
      <trkpt lat="44.03897" lon="7.42945">
        <ele>2161</ele>
        <time>2019-07-20T07:25:37.115Z</time>
      </trkpt>
      <trkpt lat="44.03902" lon="7.4294">
        <ele>2162</ele>
        <time>2019-07-20T07:25:43.115Z</time>
      </trkpt>
      <trkpt lat="44.03914" lon="7.42936">
        <ele>2163.7970048</ele>
        <time>2019-07-20T07:25:51.119Z</time>
      </trkpt>
      <trkpt lat="44.03926" lon="7.42938">
        <ele>2167</ele>
        <time>2019-07-20T07:25:59.115Z</time>
      </trkpt>
      <trkpt lat="44.0393" lon="7.42934">
        <ele>2170</ele>
        <time>2019-07-20T07:26:07.115Z</time>
      </trkpt>
      <trkpt lat="44.03941" lon="7.4293">
        <ele>2175</ele>
        <time>2019-07-20T07:26:29.115Z</time>
      </trkpt>
      <trkpt lat="44.03949" lon="7.4292">
        <ele>2178</ele>
        <time>2019-07-20T07:26:43.115Z</time>
      </trkpt>
      <trkpt lat="44.03955" lon="7.42908">
        <ele>2178</ele>
        <time>2019-07-20T07:26:58.110Z</time>
      </trkpt>
      <trkpt lat="44.03965" lon="7.42904">
        <ele>2183</ele>
        <time>2019-07-20T07:27:14.115Z</time>
      </trkpt>
      <trkpt lat="44.03973" lon="7.42896">
        <ele>2188</ele>
        <time>2019-07-20T07:27:34.115Z</time>
      </trkpt>
      <trkpt lat="44.03982" lon="7.42888">
        <ele>2193</ele>
        <time>2019-07-20T07:27:49.115Z</time>
      </trkpt>
      <trkpt lat="44.03993" lon="7.42883">
        <ele>2194</ele>
        <time>2019-07-20T07:27:59.115Z</time>
      </trkpt>
      <trkpt lat="44.04" lon="7.42872">
        <ele>2197</ele>
        <time>2019-07-20T07:28:13.115Z</time>
      </trkpt>
      <trkpt lat="44.04008" lon="7.42863">
        <ele>2203</ele>
        <time>2019-07-20T07:28:38.116Z</time>
      </trkpt>
      <trkpt lat="44.04016" lon="7.42873">
        <ele>2207</ele>
        <time>2019-07-20T07:28:55.115Z</time>
      </trkpt>
      <trkpt lat="44.04028" lon="7.42879">
        <ele>2209</ele>
        <time>2019-07-20T07:29:03.115Z</time>
      </trkpt>
      <trkpt lat="44.04036" lon="7.42887">
        <ele>2211</ele>
        <time>2019-07-20T07:29:15.115Z</time>
      </trkpt>
      <trkpt lat="44.04032" lon="7.429">
        <ele>2214</ele>
        <time>2019-07-20T07:29:27.115Z</time>
      </trkpt>
      <trkpt lat="44.04039" lon="7.4291">
        <ele>2221</ele>
        <time>2019-07-20T07:29:55.116Z</time>
      </trkpt>
      <trkpt lat="44.0405" lon="7.42916">
        <ele>2223</ele>
        <time>2019-07-20T07:30:03.115Z</time>
      </trkpt>
      <trkpt lat="44.0406" lon="7.42913">
        <ele>2227</ele>
        <time>2019-07-20T07:30:17.115Z</time>
      </trkpt>
      <trkpt lat="44.04069" lon="7.42917">
        <ele>2230</ele>
        <time>2019-07-20T07:30:29.116Z</time>
      </trkpt>
      <trkpt lat="44.04077" lon="7.42904">
        <ele>2234</ele>
        <time>2019-07-20T07:30:46.111Z</time>
      </trkpt>
      <trkpt lat="44.04083" lon="7.42894">
        <ele>2236</ele>
        <time>2019-07-20T07:30:54.114Z</time>
      </trkpt>
      <trkpt lat="44.04093" lon="7.42888">
        <ele>2237</ele>
        <time>2019-07-20T07:31:04.115Z</time>
      </trkpt>
      <trkpt lat="44.04102" lon="7.42881">
        <ele>2238</ele>
        <time>2019-07-20T07:31:14.118Z</time>
      </trkpt>
      <trkpt lat="44.04112" lon="7.4288">
        <ele>2239.0818157488</ele>
        <time>2019-07-20T07:31:21.115Z</time>
      </trkpt>
      <trkpt lat="44.04106" lon="7.42893">
        <ele>2242.1899904</ele>
        <time>2019-07-20T07:31:31.115Z</time>
      </trkpt>
      <trkpt lat="44.04099" lon="7.42904">
        <ele>2244</ele>
        <time>2019-07-20T07:31:41.115Z</time>
      </trkpt>
      <trkpt lat="44.04109" lon="7.42907">
        <ele>2245</ele>
        <time>2019-07-20T07:31:52.122Z</time>
      </trkpt>
      <trkpt lat="44.04123" lon="7.42903">
        <ele>2251</ele>
        <time>2019-07-20T07:32:08.115Z</time>
      </trkpt>
      <trkpt lat="44.04133" lon="7.42909">
        <ele>2254</ele>
        <time>2019-07-20T07:32:25.121Z</time>
      </trkpt>
      <trkpt lat="44.04143" lon="7.42915">
        <ele>2260</ele>
        <time>2019-07-20T07:32:49.116Z</time>
      </trkpt>
      <trkpt lat="44.04146" lon="7.429">
        <ele>2264.1899904</ele>
        <time>2019-07-20T07:33:06.115Z</time>
      </trkpt>
      <trkpt lat="44.04157" lon="7.429">
        <ele>2266</ele>
        <time>2019-07-20T07:33:19.116Z</time>
      </trkpt>
      <trkpt lat="44.04166" lon="7.42911">
        <ele>2266</ele>
        <time>2019-07-20T07:33:29.115Z</time>
      </trkpt>
      <trkpt lat="44.04176" lon="7.42918">
        <ele>2268</ele>
        <time>2019-07-20T07:33:35.116Z</time>
      </trkpt>
      <trkpt lat="44.04187" lon="7.42923">
        <ele>2273</ele>
        <time>2019-07-20T07:33:42.109Z</time>
      </trkpt>
      <trkpt lat="44.04199" lon="7.42951">
        <ele>2273.5891060249</ele>
        <time>2019-07-20T07:34:06.115Z</time>
      </trkpt>
      <trkpt lat="44.04204" lon="7.42966">
        <ele>2274</ele>
        <time>2019-07-20T07:34:20.115Z</time>
      </trkpt>
      <trkpt lat="44.04214" lon="7.42968">
        <ele>2277</ele>
        <time>2019-07-20T07:34:30.115Z</time>
      </trkpt>
      <trkpt lat="44.04225" lon="7.42971">
        <ele>2275</ele>
        <time>2019-07-20T07:34:36.115Z</time>
      </trkpt>
      <trkpt lat="44.04238" lon="7.42986">
        <ele>2278</ele>
        <time>2019-07-20T07:35:03.115Z</time>
      </trkpt>
      <trkpt lat="44.04243" lon="7.42999">
        <ele>2278</ele>
        <time>2019-07-20T07:35:10.115Z</time>
      </trkpt>
      <trkpt lat="44.04256" lon="7.43015">
        <ele>2284</ele>
        <time>2019-07-20T07:35:29.115Z</time>
      </trkpt>
      <trkpt lat="44.0426" lon="7.43029">
        <ele>2288.5949952</ele>
        <time>2019-07-20T07:35:51.115Z</time>
      </trkpt>
      <trkpt lat="44.04269" lon="7.43037">
        <ele>2292</ele>
        <time>2019-07-20T07:36:03.115Z</time>
      </trkpt>
      <trkpt lat="44.04269" lon="7.43052">
        <ele>2295.1899904</ele>
        <time>2019-07-20T07:36:16.115Z</time>
      </trkpt>
      <trkpt lat="44.04282" lon="7.43076">
        <ele>2301</ele>
        <time>2019-07-20T07:36:39.115Z</time>
      </trkpt>
      <trkpt lat="44.04292" lon="7.43081">
        <ele>2305</ele>
        <time>2019-07-20T07:36:54.113Z</time>
      </trkpt>
      <trkpt lat="44.04303" lon="7.43082">
        <ele>2306</ele>
        <time>2019-07-20T07:37:04.110Z</time>
      </trkpt>
      <trkpt lat="44.04313" lon="7.43083">
        <ele>2308</ele>
        <time>2019-07-20T07:37:12.208Z</time>
      </trkpt>
      <trkpt lat="44.04318" lon="7.43095">
        <ele>2310</ele>
        <time>2019-07-20T07:37:22.115Z</time>
      </trkpt>
      <trkpt lat="44.04324" lon="7.43107">
        <ele>2312</ele>
        <time>2019-07-20T07:37:34.119Z</time>
      </trkpt>
      <trkpt lat="44.04333" lon="7.43101">
        <ele>2317</ele>
        <time>2019-07-20T07:37:53.115Z</time>
      </trkpt>
      <trkpt lat="44.04345" lon="7.43101">
        <ele>2318</ele>
        <time>2019-07-20T07:38:09.115Z</time>
      </trkpt>
      <trkpt lat="44.04355" lon="7.43104">
        <ele>2322</ele>
        <time>2019-07-20T07:38:17.108Z</time>
      </trkpt>
      <trkpt lat="44.04367" lon="7.43106">
        <ele>2323</ele>
        <time>2019-07-20T07:38:25.109Z</time>
      </trkpt>
      <trkpt lat="44.04374" lon="7.43096">
        <ele>2323</ele>
        <time>2019-07-20T07:38:30.111Z</time>
      </trkpt>
      <trkpt lat="44.04384" lon="7.43095">
        <ele>2323</ele>
        <time>2019-07-20T07:38:37.118Z</time>
      </trkpt>
      <trkpt lat="44.04394" lon="7.43087">
        <ele>2326</ele>
        <time>2019-07-20T07:38:44.119Z</time>
      </trkpt>
      <trkpt lat="44.04405" lon="7.43087">
        <ele>2330</ele>
        <time>2019-07-20T07:39:07.119Z</time>
      </trkpt>
      <trkpt lat="44.04418" lon="7.43095">
        <ele>2330</ele>
        <time>2019-07-20T07:39:21.116Z</time>
      </trkpt>
      <trkpt lat="44.04425" lon="7.43104">
        <ele>2330</ele>
        <time>2019-07-20T07:39:29.112Z</time>
      </trkpt>
      <trkpt lat="44.04445" lon="7.43102">
        <ele>2331</ele>
        <time>2019-07-20T07:39:46.115Z</time>
      </trkpt>
      <trkpt lat="44.04456" lon="7.43102">
        <ele>2333</ele>
        <time>2019-07-20T07:39:52.118Z</time>
      </trkpt>
      <trkpt lat="44.04467" lon="7.43108">
        <ele>2336</ele>
        <time>2019-07-20T07:40:04.112Z</time>
      </trkpt>
      <trkpt lat="44.04472" lon="7.43095">
        <ele>2339</ele>
        <time>2019-07-20T07:40:13.112Z</time>
      </trkpt>
      <trkpt lat="44.04484" lon="7.43091">
        <ele>2341.1649358018</ele>
        <time>2019-07-20T07:40:31.115Z</time>
      </trkpt>
      <trkpt lat="44.04493" lon="7.43088">
        <ele>2348</ele>
        <time>2019-07-20T07:40:46.106Z</time>
      </trkpt>
      <trkpt lat="44.04504" lon="7.43092">
        <ele>2351</ele>
        <time>2019-07-20T07:41:05.222Z</time>
      </trkpt>
      <trkpt lat="44.04513" lon="7.43097">
        <ele>2355</ele>
        <time>2019-07-20T07:41:18.215Z</time>
      </trkpt>
      <trkpt lat="44.04528" lon="7.43101">
        <ele>2357</ele>
        <time>2019-07-20T07:41:33.115Z</time>
      </trkpt>
      <trkpt lat="44.04536" lon="7.43111">
        <ele>2360</ele>
        <time>2019-07-20T07:41:48.118Z</time>
      </trkpt>
      <trkpt lat="44.04544" lon="7.43103">
        <ele>2361</ele>
        <time>2019-07-20T07:41:59.115Z</time>
      </trkpt>
      <trkpt lat="44.04555" lon="7.43098">
        <ele>2364</ele>
        <time>2019-07-20T07:42:09.117Z</time>
      </trkpt>
      <trkpt lat="44.04564" lon="7.4309">
        <ele>2365</ele>
        <time>2019-07-20T07:42:16.110Z</time>
      </trkpt>
      <trkpt lat="44.04574" lon="7.43082">
        <ele>2364.4089984</ele>
        <time>2019-07-20T07:42:21.111Z</time>
      </trkpt>
      <trkpt lat="44.04584" lon="7.43079">
        <ele>2364</ele>
        <time>2019-07-20T07:42:27.109Z</time>
      </trkpt>
      <trkpt lat="44.04596" lon="7.43085">
        <ele>2364</ele>
        <time>2019-07-20T07:42:55.115Z</time>
      </trkpt>
      <trkpt lat="44.04607" lon="7.43089">
        <ele>2368</ele>
        <time>2019-07-20T07:43:08.120Z</time>
      </trkpt>
      <trkpt lat="44.04627" lon="7.43084">
        <ele>2371.1553268961</ele>
        <time>2019-07-20T07:43:31.115Z</time>
      </trkpt>
      <trkpt lat="44.04637" lon="7.43087">
        <ele>2373</ele>
        <time>2019-07-20T07:43:47.118Z</time>
      </trkpt>
      <trkpt lat="44.04649" lon="7.43089">
        <ele>2374</ele>
        <time>2019-07-20T07:43:55.115Z</time>
      </trkpt>
      <trkpt lat="44.0466" lon="7.431">
        <ele>2383</ele>
        <time>2019-07-20T07:44:13.115Z</time>
      </trkpt>
      <trkpt lat="44.04679" lon="7.43107">
        <ele>2387</ele>
        <time>2019-07-20T07:44:34.115Z</time>
      </trkpt>
      <trkpt lat="44.04692" lon="7.43105">
        <ele>2389</ele>
        <time>2019-07-20T07:44:43.115Z</time>
      </trkpt>
      <trkpt lat="44.04702" lon="7.43099">
        <ele>2393</ele>
        <time>2019-07-20T07:44:58.123Z</time>
      </trkpt>
      <trkpt lat="44.04712" lon="7.43088">
        <ele>2395</ele>
        <time>2019-07-20T07:45:08.117Z</time>
      </trkpt>
      <trkpt lat="44.04722" lon="7.43083">
        <ele>2395</ele>
        <time>2019-07-20T07:45:17.122Z</time>
      </trkpt>
      <trkpt lat="44.04731" lon="7.43076">
        <ele>2397</ele>
        <time>2019-07-20T07:45:25.115Z</time>
      </trkpt>
      <trkpt lat="44.04738" lon="7.43087">
        <ele>2403</ele>
        <time>2019-07-20T07:45:42.115Z</time>
      </trkpt>
      <trkpt lat="44.0475" lon="7.43085">
        <ele>2409</ele>
        <time>2019-07-20T07:46:12.115Z</time>
      </trkpt>
      <trkpt lat="44.04763" lon="7.43096">
        <ele>2415</ele>
        <time>2019-07-20T07:46:42.115Z</time>
      </trkpt>
      <trkpt lat="44.04755" lon="7.43106">
        <ele>2419</ele>
        <time>2019-07-20T07:46:59.115Z</time>
      </trkpt>
      <trkpt lat="44.04745" lon="7.43093">
        <ele>2422.2100096</ele>
        <time>2019-07-20T07:47:16.125Z</time>
      </trkpt>
      <trkpt lat="44.04755" lon="7.43097">
        <ele>2424</ele>
        <time>2019-07-20T07:47:23.114Z</time>
      </trkpt>
      <trkpt lat="44.04764" lon="7.43103">
        <ele>2426</ele>
        <time>2019-07-20T07:47:32.115Z</time>
      </trkpt>
      <trkpt lat="44.04755" lon="7.43092">
        <ele>2433</ele>
        <time>2019-07-20T07:47:59.115Z</time>
      </trkpt>
      <trkpt lat="44.04753" lon="7.43079">
        <ele>2434</ele>
        <time>2019-07-20T07:48:05.112Z</time>
      </trkpt>
      <trkpt lat="44.04762" lon="7.4307">
        <ele>2438</ele>
        <time>2019-07-20T07:48:41.110Z</time>
      </trkpt>
      <trkpt lat="44.04768" lon="7.43059">
        <ele>2439</ele>
        <time>2019-07-20T07:48:52.116Z</time>
      </trkpt>
      <trkpt lat="44.04774" lon="7.43048">
        <ele>2439</ele>
        <time>2019-07-20T07:49:00.115Z</time>
      </trkpt>
      <trkpt lat="44.04779" lon="7.4304">
        <ele>2438</ele>
        <time>2019-07-20T07:49:07.115Z</time>
      </trkpt>
      <trkpt lat="44.04787" lon="7.43038">
        <ele>2436</ele>
        <time>2019-07-20T07:49:12.115Z</time>
      </trkpt>
      <trkpt lat="44.04805" lon="7.43038">
        <ele>2434</ele>
        <time>2019-07-20T07:49:20.113Z</time>
      </trkpt>
      <trkpt lat="44.04825" lon="7.43049">
        <ele>2431</ele>
        <time>2019-07-20T07:49:28.114Z</time>
      </trkpt>
      <trkpt lat="44.04844" lon="7.4306">
        <ele>2425</ele>
        <time>2019-07-20T07:49:38.116Z</time>
      </trkpt>
      <trkpt lat="44.04853" lon="7.43069">
        <ele>2421.4089984</ele>
        <time>2019-07-20T07:49:45.111Z</time>
      </trkpt>
      <trkpt lat="44.04862" lon="7.43074">
        <ele>2419</ele>
        <time>2019-07-20T07:49:53.116Z</time>
      </trkpt>
      <trkpt lat="44.04871" lon="7.43067">
        <ele>2420.7980032</ele>
        <time>2019-07-20T07:50:21.121Z</time>
      </trkpt>
      <trkpt lat="44.04882" lon="7.43067">
        <ele>2419.4029952</ele>
        <time>2019-07-20T07:50:26.117Z</time>
      </trkpt>
      <trkpt lat="44.04894" lon="7.43066">
        <ele>2417.816</ele>
        <time>2019-07-20T07:50:31.112Z</time>
      </trkpt>
      <trkpt lat="44.04906" lon="7.43066">
        <ele>2416.4050048</ele>
        <time>2019-07-20T07:50:36.115Z</time>
      </trkpt>
      <trkpt lat="44.04917" lon="7.43067">
        <ele>2415</ele>
        <time>2019-07-20T07:50:42.115Z</time>
      </trkpt>
      <trkpt lat="44.04925" lon="7.43079">
        <ele>2414</ele>
        <time>2019-07-20T07:50:47.111Z</time>
      </trkpt>
      <trkpt lat="44.04929" lon="7.43096">
        <ele>2412</ele>
        <time>2019-07-20T07:50:52.107Z</time>
      </trkpt>
      <trkpt lat="44.04941" lon="7.43124">
        <ele>2409</ele>
        <time>2019-07-20T07:51:00.114Z</time>
      </trkpt>
      <trkpt lat="44.04936" lon="7.43147">
        <ele>2403.4050048</ele>
        <time>2019-07-20T07:51:08.115Z</time>
      </trkpt>
      <trkpt lat="44.0493" lon="7.43175">
        <ele>2403</ele>
        <time>2019-07-20T07:51:15.112Z</time>
      </trkpt>
      <trkpt lat="44.04939" lon="7.432">
        <ele>2397.4060032</ele>
        <time>2019-07-20T07:51:22.114Z</time>
      </trkpt>
      <trkpt lat="44.04947" lon="7.43213">
        <ele>2395.4140032</ele>
        <time>2019-07-20T07:51:28.106Z</time>
      </trkpt>
      <trkpt lat="44.04951" lon="7.43242">
        <ele>2391.4119936</ele>
        <time>2019-07-20T07:51:36.108Z</time>
      </trkpt>
      <trkpt lat="44.04952" lon="7.43256">
        <ele>2389.4089984</ele>
        <time>2019-07-20T07:51:41.111Z</time>
      </trkpt>
      <trkpt lat="44.0495" lon="7.43273">
        <ele>2387</ele>
        <time>2019-07-20T07:51:47.113Z</time>
      </trkpt>
      <trkpt lat="44.04953" lon="7.43287">
        <ele>2383.414848047</ele>
        <time>2019-07-20T07:51:52.111Z</time>
      </trkpt>
      <trkpt lat="44.04967" lon="7.4331">
        <ele>2380.4009984</ele>
        <time>2019-07-20T07:52:01.119Z</time>
      </trkpt>
      <trkpt lat="44.04976" lon="7.43322">
        <ele>2380</ele>
        <time>2019-07-20T07:52:07.112Z</time>
      </trkpt>
      <trkpt lat="44.04982" lon="7.43335">
        <ele>2379</ele>
        <time>2019-07-20T07:52:14.107Z</time>
      </trkpt>
      <trkpt lat="44.04995" lon="7.43337">
        <ele>2376</ele>
        <time>2019-07-20T07:52:22.110Z</time>
      </trkpt>
      <trkpt lat="44.05012" lon="7.4334">
        <ele>2374</ele>
        <time>2019-07-20T07:52:28.113Z</time>
      </trkpt>
      <trkpt lat="44.05026" lon="7.43353">
        <ele>2372.4050048</ele>
        <time>2019-07-20T07:52:36.115Z</time>
      </trkpt>
      <trkpt lat="44.05016" lon="7.43377">
        <ele>2370</ele>
        <time>2019-07-20T07:52:44.112Z</time>
      </trkpt>
      <trkpt lat="44.05021" lon="7.43403">
        <ele>2368</ele>
        <time>2019-07-20T07:52:52.119Z</time>
      </trkpt>
      <trkpt lat="44.05023" lon="7.43424">
        <ele>2367</ele>
        <time>2019-07-20T07:53:00.113Z</time>
      </trkpt>
      <trkpt lat="44.05025" lon="7.43445">
        <ele>2364</ele>
        <time>2019-07-20T07:53:08.115Z</time>
      </trkpt>
      <trkpt lat="44.05025" lon="7.43467">
        <ele>2363</ele>
        <time>2019-07-20T07:53:16.118Z</time>
      </trkpt>
      <trkpt lat="44.05031" lon="7.43502">
        <ele>2358</ele>
        <time>2019-07-20T07:53:28.113Z</time>
      </trkpt>
      <trkpt lat="44.05035" lon="7.43518">
        <ele>2358</ele>
        <time>2019-07-20T07:53:38.115Z</time>
      </trkpt>
      <trkpt lat="44.05041" lon="7.43539">
        <ele>2355</ele>
        <time>2019-07-20T07:53:50.115Z</time>
      </trkpt>
      <trkpt lat="44.05049" lon="7.43548">
        <ele>2352</ele>
        <time>2019-07-20T07:53:57.115Z</time>
      </trkpt>
      <trkpt lat="44.05056" lon="7.4356">
        <ele>2348</ele>
        <time>2019-07-20T07:54:03.115Z</time>
      </trkpt>
      <trkpt lat="44.05054" lon="7.43577">
        <ele>2348</ele>
        <time>2019-07-20T07:54:10.108Z</time>
      </trkpt>
      <trkpt lat="44.05057" lon="7.43591">
        <ele>2343</ele>
        <time>2019-07-20T07:54:17.112Z</time>
      </trkpt>
      <trkpt lat="44.05069" lon="7.43596">
        <ele>2337</ele>
        <time>2019-07-20T07:54:42.115Z</time>
      </trkpt>
      <trkpt lat="44.05068" lon="7.43612">
        <ele>2336</ele>
        <time>2019-07-20T07:54:48.114Z</time>
      </trkpt>
      <trkpt lat="44.0508" lon="7.43619">
        <ele>2334</ele>
        <time>2019-07-20T07:54:55.115Z</time>
      </trkpt>
      <trkpt lat="44.05086" lon="7.4363">
        <ele>2331.8100096</ele>
        <time>2019-07-20T07:55:01.115Z</time>
      </trkpt>
      <trkpt lat="44.05096" lon="7.43639">
        <ele>2331</ele>
        <time>2019-07-20T07:55:06.113Z</time>
      </trkpt>
      <trkpt lat="44.05104" lon="7.4365">
        <ele>2330</ele>
        <time>2019-07-20T07:55:12.113Z</time>
      </trkpt>
      <trkpt lat="44.05105" lon="7.43665">
        <ele>2330</ele>
        <time>2019-07-20T07:55:18.114Z</time>
      </trkpt>
      <trkpt lat="44.05109" lon="7.43678">
        <ele>2325.2089856</ele>
        <time>2019-07-20T07:55:26.117Z</time>
      </trkpt>
      <trkpt lat="44.05113" lon="7.43692">
        <ele>2322</ele>
        <time>2019-07-20T07:55:34.116Z</time>
      </trkpt>
      <trkpt lat="44.05115" lon="7.43706">
        <ele>2319</ele>
        <time>2019-07-20T07:55:42.115Z</time>
      </trkpt>
      <trkpt lat="44.05124" lon="7.43714">
        <ele>2317</ele>
        <time>2019-07-20T07:55:47.111Z</time>
      </trkpt>
      <trkpt lat="44.05128" lon="7.43725">
        <ele>2315</ele>
        <time>2019-07-20T07:55:53.219Z</time>
      </trkpt>
      <trkpt lat="44.05136" lon="7.43735">
        <ele>2312</ele>
        <time>2019-07-20T07:56:03.116Z</time>
      </trkpt>
      <trkpt lat="44.05127" lon="7.43744">
        <ele>2310</ele>
        <time>2019-07-20T07:56:12.115Z</time>
      </trkpt>
      <trkpt lat="44.05126" lon="7.43759">
        <ele>2305</ele>
        <time>2019-07-20T07:56:29.117Z</time>
      </trkpt>
      <trkpt lat="44.05129" lon="7.43773">
        <ele>2302</ele>
        <time>2019-07-20T07:56:34.109Z</time>
      </trkpt>
      <trkpt lat="44.05132" lon="7.43789">
        <ele>2300.5949952</ele>
        <time>2019-07-20T07:56:40.115Z</time>
      </trkpt>
      <trkpt lat="44.05134" lon="7.43817">
        <ele>2301</ele>
        <time>2019-07-20T07:56:50.115Z</time>
      </trkpt>
      <trkpt lat="44.05132" lon="7.43834">
        <ele>2302</ele>
        <time>2019-07-20T07:56:57.113Z</time>
      </trkpt>
      <trkpt lat="44.05133" lon="7.43848">
        <ele>2300</ele>
        <time>2019-07-20T07:57:02.110Z</time>
      </trkpt>
      <trkpt lat="44.0514" lon="7.43875">
        <ele>2300</ele>
        <time>2019-07-20T07:57:10.111Z</time>
      </trkpt>
      <trkpt lat="44.05143" lon="7.43906">
        <ele>2297.1859968</ele>
        <time>2019-07-20T07:57:21.113Z</time>
      </trkpt>
      <trkpt lat="44.05136" lon="7.43921">
        <ele>2299</ele>
        <time>2019-07-20T07:57:32.113Z</time>
      </trkpt>
      <trkpt lat="44.05131" lon="7.43935">
        <ele>2299</ele>
        <time>2019-07-20T07:57:40.117Z</time>
      </trkpt>
      <trkpt lat="44.05124" lon="7.43947">
        <ele>2301</ele>
        <time>2019-07-20T07:57:47.113Z</time>
      </trkpt>
      <trkpt lat="44.05119" lon="7.4396">
        <ele>2301</ele>
        <time>2019-07-20T07:57:56.114Z</time>
      </trkpt>
      <trkpt lat="44.05123" lon="7.43974">
        <ele>2302</ele>
        <time>2019-07-20T07:58:04.112Z</time>
      </trkpt>
      <trkpt lat="44.05133" lon="7.43979">
        <ele>2303</ele>
        <time>2019-07-20T07:58:13.113Z</time>
      </trkpt>
      <trkpt lat="44.0514" lon="7.43992">
        <ele>2303</ele>
        <time>2019-07-20T07:58:18.107Z</time>
      </trkpt>
      <trkpt lat="44.05145" lon="7.44004">
        <ele>2303</ele>
        <time>2019-07-20T07:58:23.115Z</time>
      </trkpt>
      <trkpt lat="44.05151" lon="7.44031">
        <ele>2302</ele>
        <time>2019-07-20T07:58:32.110Z</time>
      </trkpt>
      <trkpt lat="44.05156" lon="7.44044">
        <ele>2298</ele>
        <time>2019-07-20T07:58:43.116Z</time>
      </trkpt>
      <trkpt lat="44.05161" lon="7.44057">
        <ele>2294</ele>
        <time>2019-07-20T07:58:49.115Z</time>
      </trkpt>
      <trkpt lat="44.05165" lon="7.44071">
        <ele>2294</ele>
        <time>2019-07-20T07:59:04.115Z</time>
      </trkpt>
      <trkpt lat="44.05167" lon="7.44086">
        <ele>2294</ele>
        <time>2019-07-20T07:59:14.112Z</time>
      </trkpt>
      <trkpt lat="44.05169" lon="7.44101">
        <ele>2294.5890048</ele>
        <time>2019-07-20T07:59:21.109Z</time>
      </trkpt>
      <trkpt lat="44.05172" lon="7.44114">
        <ele>2295</ele>
        <time>2019-07-20T07:59:26.117Z</time>
      </trkpt>
      <trkpt lat="44.05172" lon="7.4413">
        <ele>2295</ele>
        <time>2019-07-20T07:59:33.111Z</time>
      </trkpt>
      <trkpt lat="44.05169" lon="7.44143">
        <ele>2295</ele>
        <time>2019-07-20T07:59:38.115Z</time>
      </trkpt>
      <trkpt lat="44.05165" lon="7.44159">
        <ele>2292</ele>
        <time>2019-07-20T07:59:43.117Z</time>
      </trkpt>
      <trkpt lat="44.0517" lon="7.44172">
        <ele>2291</ele>
        <time>2019-07-20T07:59:48.115Z</time>
      </trkpt>
      <trkpt lat="44.05177" lon="7.44188">
        <ele>2290</ele>
        <time>2019-07-20T07:59:55.115Z</time>
      </trkpt>
      <trkpt lat="44.05177" lon="7.44217">
        <ele>2288.1800064</ele>
        <time>2019-07-20T08:00:06.110Z</time>
      </trkpt>
      <trkpt lat="44.05176" lon="7.44231">
        <ele>2289</ele>
        <time>2019-07-20T08:00:12.118Z</time>
      </trkpt>
      <trkpt lat="44.05173" lon="7.44245">
        <ele>2286</ele>
        <time>2019-07-20T08:00:20.115Z</time>
      </trkpt>
      <trkpt lat="44.05178" lon="7.44259">
        <ele>2284</ele>
        <time>2019-07-20T08:00:29.117Z</time>
      </trkpt>
      <trkpt lat="44.05182" lon="7.44272">
        <ele>2283</ele>
        <time>2019-07-20T08:00:34.110Z</time>
      </trkpt>
      <trkpt lat="44.05187" lon="7.44287">
        <ele>2282</ele>
        <time>2019-07-20T08:00:40.108Z</time>
      </trkpt>
      <trkpt lat="44.05197" lon="7.4429">
        <ele>2277</ele>
        <time>2019-07-20T08:00:47.113Z</time>
      </trkpt>
      <trkpt lat="44.05203" lon="7.44301">
        <ele>2276</ele>
        <time>2019-07-20T08:01:18.121Z</time>
      </trkpt>
      <trkpt lat="44.05203" lon="7.44312">
        <ele>2275</ele>
        <time>2019-07-20T08:01:25.108Z</time>
      </trkpt>
      <trkpt lat="44.05201" lon="7.44326">
        <ele>2272</ele>
        <time>2019-07-20T08:01:32.115Z</time>
      </trkpt>
      <trkpt lat="44.05203" lon="7.4434">
        <ele>2270</ele>
        <time>2019-07-20T08:01:39.115Z</time>
      </trkpt>
      <trkpt lat="44.05209" lon="7.44347">
        <ele>2268</ele>
        <time>2019-07-20T08:01:45.114Z</time>
      </trkpt>
      <trkpt lat="44.05213" lon="7.44362">
        <ele>2264</ele>
        <time>2019-07-20T08:01:52.113Z</time>
      </trkpt>
      <trkpt lat="44.0521" lon="7.44379">
        <ele>2262</ele>
        <time>2019-07-20T08:01:58.110Z</time>
      </trkpt>
      <trkpt lat="44.0521" lon="7.44407">
        <ele>2263</ele>
        <time>2019-07-20T08:02:08.106Z</time>
      </trkpt>
      <trkpt lat="44.05202" lon="7.44398">
        <ele>2265</ele>
        <time>2019-07-20T08:02:17.119Z</time>
      </trkpt>
      <trkpt lat="44.05194" lon="7.44407">
        <ele>2268</ele>
        <time>2019-07-20T08:02:32.109Z</time>
      </trkpt>
      <trkpt lat="44.05195" lon="7.44422">
        <ele>2269</ele>
        <time>2019-07-20T08:02:44.109Z</time>
      </trkpt>
      <trkpt lat="44.05191" lon="7.44435">
        <ele>2270.1782120498</ele>
        <time>2019-07-20T08:02:51.115Z</time>
      </trkpt>
      <trkpt lat="44.0518" lon="7.44437">
        <ele>2272</ele>
        <time>2019-07-20T08:02:57.116Z</time>
      </trkpt>
      <trkpt lat="44.05176" lon="7.4445">
        <ele>2279</ele>
        <time>2019-07-20T08:03:27.115Z</time>
      </trkpt>
      <trkpt lat="44.05181" lon="7.44467">
        <ele>2279</ele>
        <time>2019-07-20T08:03:36.115Z</time>
      </trkpt>
      <trkpt lat="44.0519" lon="7.44476">
        <ele>2279</ele>
        <time>2019-07-20T08:03:44.111Z</time>
      </trkpt>
      <trkpt lat="44.05198" lon="7.44485">
        <ele>2279</ele>
        <time>2019-07-20T08:03:49.114Z</time>
      </trkpt>
      <trkpt lat="44.05207" lon="7.44497">
        <ele>2278</ele>
        <time>2019-07-20T08:03:57.116Z</time>
      </trkpt>
      <trkpt lat="44.05215" lon="7.44505">
        <ele>2274</ele>
        <time>2019-07-20T08:04:02.112Z</time>
      </trkpt>
      <trkpt lat="44.05218" lon="7.44519">
        <ele>2274</ele>
        <time>2019-07-20T08:04:09.116Z</time>
      </trkpt>
      <trkpt lat="44.05222" lon="7.44533">
        <ele>2274</ele>
        <time>2019-07-20T08:04:15.108Z</time>
      </trkpt>
      <trkpt lat="44.05237" lon="7.44551">
        <ele>2274</ele>
        <time>2019-07-20T08:04:23.114Z</time>
      </trkpt>
      <trkpt lat="44.05246" lon="7.4456">
        <ele>2274</ele>
        <time>2019-07-20T08:04:30.107Z</time>
      </trkpt>
      <trkpt lat="44.05255" lon="7.44569">
        <ele>2273</ele>
        <time>2019-07-20T08:04:38.113Z</time>
      </trkpt>
      <trkpt lat="44.05262" lon="7.44596">
        <ele>2273</ele>
        <time>2019-07-20T08:04:48.114Z</time>
      </trkpt>
      <trkpt lat="44.05269" lon="7.44609">
        <ele>2272</ele>
        <time>2019-07-20T08:04:57.114Z</time>
      </trkpt>
      <trkpt lat="44.05273" lon="7.44622">
        <ele>2267</ele>
        <time>2019-07-20T08:05:03.115Z</time>
      </trkpt>
      <trkpt lat="44.05278" lon="7.4465">
        <ele>2264</ele>
        <time>2019-07-20T08:05:12.116Z</time>
      </trkpt>
      <trkpt lat="44.0528" lon="7.44665">
        <ele>2264</ele>
        <time>2019-07-20T08:05:17.111Z</time>
      </trkpt>
      <trkpt lat="44.05288" lon="7.44657">
        <ele>2262</ele>
        <time>2019-07-20T08:05:38.116Z</time>
      </trkpt>
      <trkpt lat="44.05299" lon="7.44653">
        <ele>2263.4050048</ele>
        <time>2019-07-20T08:05:46.115Z</time>
      </trkpt>
      <trkpt lat="44.05308" lon="7.44664">
        <ele>2262</ele>
        <time>2019-07-20T08:05:53.111Z</time>
      </trkpt>
      <trkpt lat="44.05316" lon="7.44673">
        <ele>2260.224</ele>
        <time>2019-07-20T08:06:01.112Z</time>
      </trkpt>
      <trkpt lat="44.05307" lon="7.44677">
        <ele>2260</ele>
        <time>2019-07-20T08:06:36.109Z</time>
      </trkpt>
      <trkpt lat="44.05303" lon="7.44664">
        <ele>2260</ele>
        <time>2019-07-20T08:07:03.115Z</time>
      </trkpt>
      <trkpt lat="44.05292" lon="7.44667">
        <ele>2260</ele>
        <time>2019-07-20T08:07:11.112Z</time>
      </trkpt>
      <trkpt lat="44.05285" lon="7.44677">
        <ele>2260</ele>
        <time>2019-07-20T08:07:18.107Z</time>
      </trkpt>
      <trkpt lat="44.05277" lon="7.44687">
        <ele>2259</ele>
        <time>2019-07-20T08:07:25.114Z</time>
      </trkpt>
      <trkpt lat="44.05273" lon="7.447">
        <ele>2257.8179968</ele>
        <time>2019-07-20T08:07:31.111Z</time>
      </trkpt>
      <trkpt lat="44.05272" lon="7.44718">
        <ele>2253.8059904</ele>
        <time>2019-07-20T08:07:41.117Z</time>
      </trkpt>
      <trkpt lat="44.05262" lon="7.44732">
        <ele>2249</ele>
        <time>2019-07-20T08:07:53.111Z</time>
      </trkpt>
      <trkpt lat="44.0527" lon="7.44742">
        <ele>2246</ele>
        <time>2019-07-20T08:08:09.113Z</time>
      </trkpt>
      <trkpt lat="44.0528" lon="7.44749">
        <ele>2241.1970048</ele>
        <time>2019-07-20T08:08:21.121Z</time>
      </trkpt>
      <trkpt lat="44.05289" lon="7.44759">
        <ele>2237</ele>
        <time>2019-07-20T08:08:33.113Z</time>
      </trkpt>
      <trkpt lat="44.05291" lon="7.44774">
        <ele>2234.2299904</ele>
        <time>2019-07-20T08:08:41.110Z</time>
      </trkpt>
      <trkpt lat="44.05298" lon="7.44791">
        <ele>2232</ele>
        <time>2019-07-20T08:08:49.111Z</time>
      </trkpt>
      <trkpt lat="44.0531" lon="7.44787">
        <ele>2227.816</ele>
        <time>2019-07-20T08:09:01.112Z</time>
      </trkpt>
      <trkpt lat="44.05322" lon="7.44782">
        <ele>2226</ele>
        <time>2019-07-20T08:09:09.114Z</time>
      </trkpt>
      <trkpt lat="44.05341" lon="7.44792">
        <ele>2222</ele>
        <time>2019-07-20T08:09:22.116Z</time>
      </trkpt>
      <trkpt lat="44.0535" lon="7.44809">
        <ele>2220</ele>
        <time>2019-07-20T08:09:34.117Z</time>
      </trkpt>
      <trkpt lat="44.05363" lon="7.44818">
        <ele>2217</ele>
        <time>2019-07-20T08:09:42.115Z</time>
      </trkpt>
      <trkpt lat="44.05376" lon="7.44826">
        <ele>2210</ele>
        <time>2019-07-20T08:09:57.115Z</time>
      </trkpt>
      <trkpt lat="44.05386" lon="7.44811">
        <ele>2204</ele>
        <time>2019-07-20T08:10:12.118Z</time>
      </trkpt>
      <trkpt lat="44.05386" lon="7.44826">
        <ele>2203</ele>
        <time>2019-07-20T08:10:20.112Z</time>
      </trkpt>
      <trkpt lat="44.05382" lon="7.44842">
        <ele>2201</ele>
        <time>2019-07-20T08:10:25.108Z</time>
      </trkpt>
      <trkpt lat="44.05379" lon="7.44855">
        <ele>2201</ele>
        <time>2019-07-20T08:10:33.105Z</time>
      </trkpt>
      <trkpt lat="44.05374" lon="7.4487">
        <ele>2201</ele>
        <time>2019-07-20T08:10:38.113Z</time>
      </trkpt>
      <trkpt lat="44.05369" lon="7.44883">
        <ele>2198</ele>
        <time>2019-07-20T08:10:43.115Z</time>
      </trkpt>
      <trkpt lat="44.05362" lon="7.44894">
        <ele>2196</ele>
        <time>2019-07-20T08:10:49.112Z</time>
      </trkpt>
      <trkpt lat="44.05355" lon="7.44908">
        <ele>2194</ele>
        <time>2019-07-20T08:10:54.109Z</time>
      </trkpt>
      <trkpt lat="44.05358" lon="7.44938">
        <ele>2191</ele>
        <time>2019-07-20T08:11:02.106Z</time>
      </trkpt>
      <trkpt lat="44.05363" lon="7.44969">
        <ele>2191</ele>
        <time>2019-07-20T08:11:10.110Z</time>
      </trkpt>
      <trkpt lat="44.05361" lon="7.44998">
        <ele>2191</ele>
        <time>2019-07-20T08:11:18.114Z</time>
      </trkpt>
      <trkpt lat="44.05362" lon="7.45017">
        <ele>2191</ele>
        <time>2019-07-20T08:11:24.115Z</time>
      </trkpt>
      <trkpt lat="44.05369" lon="7.45031">
        <ele>2191</ele>
        <time>2019-07-20T08:11:30.113Z</time>
      </trkpt>
      <trkpt lat="44.05376" lon="7.45044">
        <ele>2186</ele>
        <time>2019-07-20T08:11:37.119Z</time>
      </trkpt>
      <trkpt lat="44.05388" lon="7.45067">
        <ele>2185.5910016</ele>
        <time>2019-07-20T08:11:46.111Z</time>
      </trkpt>
      <trkpt lat="44.05388" lon="7.45083">
        <ele>2186.5939968</ele>
        <time>2019-07-20T08:11:51.114Z</time>
      </trkpt>
      <trkpt lat="44.05404" lon="7.45104">
        <ele>2186.4070016</ele>
        <time>2019-07-20T08:12:01.113Z</time>
      </trkpt>
      <trkpt lat="44.05413" lon="7.45129">
        <ele>2186</ele>
        <time>2019-07-20T08:12:09.110Z</time>
      </trkpt>
      <trkpt lat="44.05418" lon="7.45144">
        <ele>2186</ele>
        <time>2019-07-20T08:12:14.115Z</time>
      </trkpt>
      <trkpt lat="44.05429" lon="7.45147">
        <ele>2186</ele>
        <time>2019-07-20T08:12:20.115Z</time>
      </trkpt>
      <trkpt lat="44.0544" lon="7.45139">
        <ele>2186</ele>
        <time>2019-07-20T08:12:25.116Z</time>
      </trkpt>
      <trkpt lat="44.05456" lon="7.45118">
        <ele>2184</ele>
        <time>2019-07-20T08:12:33.115Z</time>
      </trkpt>
      <trkpt lat="44.05466" lon="7.45129">
        <ele>2182</ele>
        <time>2019-07-20T08:12:39.115Z</time>
      </trkpt>
      <trkpt lat="44.05476" lon="7.45137">
        <ele>2181</ele>
        <time>2019-07-20T08:12:45.115Z</time>
      </trkpt>
      <trkpt lat="44.05489" lon="7.4516">
        <ele>2181</ele>
        <time>2019-07-20T08:12:54.118Z</time>
      </trkpt>
      <trkpt lat="44.05509" lon="7.45168">
        <ele>2179.2150144</ele>
        <time>2019-07-20T08:13:01.115Z</time>
      </trkpt>
      <trkpt lat="44.05525" lon="7.45144">
        <ele>2179</ele>
        <time>2019-07-20T08:13:08.117Z</time>
      </trkpt>
      <trkpt lat="44.05545" lon="7.45136">
        <ele>2179</ele>
        <time>2019-07-20T08:13:16.116Z</time>
      </trkpt>
      <trkpt lat="44.05555" lon="7.45142">
        <ele>2181</ele>
        <time>2019-07-20T08:13:24.118Z</time>
      </trkpt>
      <trkpt lat="44.05553" lon="7.4516">
        <ele>2181</ele>
        <time>2019-07-20T08:13:29.116Z</time>
      </trkpt>
      <trkpt lat="44.05554" lon="7.45175">
        <ele>2179</ele>
        <time>2019-07-20T08:13:34.109Z</time>
      </trkpt>
      <trkpt lat="44.05559" lon="7.45187">
        <ele>2179</ele>
        <time>2019-07-20T08:13:40.109Z</time>
      </trkpt>
      <trkpt lat="44.05557" lon="7.45201">
        <ele>2174.6119808</ele>
        <time>2019-07-20T08:13:46.117Z</time>
      </trkpt>
      <trkpt lat="44.05567" lon="7.45208">
        <ele>2171.8140032</ele>
        <time>2019-07-20T08:13:51.113Z</time>
      </trkpt>
      <trkpt lat="44.05576" lon="7.45201">
        <ele>2168.4090944353</ele>
        <time>2019-07-20T08:13:57.115Z</time>
      </trkpt>
      <trkpt lat="44.05579" lon="7.45185">
        <ele>2166</ele>
        <time>2019-07-20T08:14:03.218Z</time>
      </trkpt>
      <trkpt lat="44.05581" lon="7.45156">
        <ele>2164</ele>
        <time>2019-07-20T08:14:10.117Z</time>
      </trkpt>
      <trkpt lat="44.05588" lon="7.45179">
        <ele>2158.8059904</ele>
        <time>2019-07-20T08:14:26.117Z</time>
      </trkpt>
      <trkpt lat="44.05614" lon="7.45205">
        <ele>2157</ele>
        <time>2019-07-20T08:14:38.117Z</time>
      </trkpt>
      <trkpt lat="44.05624" lon="7.45214">
        <ele>2157</ele>
        <time>2019-07-20T08:14:44.115Z</time>
      </trkpt>
      <trkpt lat="44.05631" lon="7.45202">
        <ele>2158</ele>
        <time>2019-07-20T08:14:55.114Z</time>
      </trkpt>
      <trkpt lat="44.05636" lon="7.4519">
        <ele>2158</ele>
        <time>2019-07-20T08:15:00.120Z</time>
      </trkpt>
      <trkpt lat="44.05647" lon="7.45192">
        <ele>2158</ele>
        <time>2019-07-20T08:15:10.111Z</time>
      </trkpt>
      <trkpt lat="44.05656" lon="7.45201">
        <ele>2154.4040064</ele>
        <time>2019-07-20T08:15:16.116Z</time>
      </trkpt>
      <trkpt lat="44.05665" lon="7.45201">
        <ele>2153</ele>
        <time>2019-07-20T08:15:24.113Z</time>
      </trkpt>
      <trkpt lat="44.05677" lon="7.45206">
        <ele>2151</ele>
        <time>2019-07-20T08:15:34.112Z</time>
      </trkpt>
      <trkpt lat="44.05689" lon="7.45194">
        <ele>2149</ele>
        <time>2019-07-20T08:15:45.115Z</time>
      </trkpt>
      <trkpt lat="44.05695" lon="7.45181">
        <ele>2149</ele>
        <time>2019-07-20T08:15:52.115Z</time>
      </trkpt>
      <trkpt lat="44.05694" lon="7.45167">
        <ele>2149</ele>
        <time>2019-07-20T08:15:57.113Z</time>
      </trkpt>
      <trkpt lat="44.05697" lon="7.45153">
        <ele>2146</ele>
        <time>2019-07-20T08:16:03.123Z</time>
      </trkpt>
      <trkpt lat="44.05708" lon="7.45154">
        <ele>2145</ele>
        <time>2019-07-20T08:16:10.116Z</time>
      </trkpt>
      <trkpt lat="44.05719" lon="7.45153">
        <ele>2140</ele>
        <time>2019-07-20T08:16:24.121Z</time>
      </trkpt>
      <trkpt lat="44.0573" lon="7.45155">
        <ele>2137.8446731039</ele>
        <time>2019-07-20T08:16:31.115Z</time>
      </trkpt>
      <trkpt lat="44.05737" lon="7.45162">
        <ele>2136</ele>
        <time>2019-07-20T08:17:07.221Z</time>
      </trkpt>
      <trkpt lat="44.0574" lon="7.45176">
        <ele>2135</ele>
        <time>2019-07-20T08:19:00.119Z</time>
      </trkpt>
      <trkpt lat="44.05738" lon="7.45192">
        <ele>2138.4050048</ele>
        <time>2019-07-20T08:19:12.115Z</time>
      </trkpt>
      <trkpt lat="44.05738" lon="7.45206">
        <ele>2137</ele>
        <time>2019-07-20T08:19:21.111Z</time>
      </trkpt>
      <trkpt lat="44.05737" lon="7.45222">
        <ele>2135.8100096</ele>
        <time>2019-07-20T08:19:26.115Z</time>
      </trkpt>
      <trkpt lat="44.05741" lon="7.45239">
        <ele>2134.4060032</ele>
        <time>2019-07-20T08:19:31.114Z</time>
      </trkpt>
      <trkpt lat="44.05747" lon="7.45271">
        <ele>2134</ele>
        <time>2019-07-20T08:19:41.115Z</time>
      </trkpt>
      <trkpt lat="44.05756" lon="7.45301">
        <ele>2134</ele>
        <time>2019-07-20T08:19:50.114Z</time>
      </trkpt>
      <trkpt lat="44.05756" lon="7.45318">
        <ele>2133</ele>
        <time>2019-07-20T08:19:59.115Z</time>
      </trkpt>
      <trkpt lat="44.05761" lon="7.4533">
        <ele>2129</ele>
        <time>2019-07-20T08:20:10.119Z</time>
      </trkpt>
      <trkpt lat="44.0577" lon="7.4534">
        <ele>2129</ele>
        <time>2019-07-20T08:20:20.111Z</time>
      </trkpt>
      <trkpt lat="44.05777" lon="7.45353">
        <ele>2129</ele>
        <time>2019-07-20T08:20:29.115Z</time>
      </trkpt>
      <trkpt lat="44.05774" lon="7.45338">
        <ele>2129</ele>
        <time>2019-07-20T08:20:59.115Z</time>
      </trkpt>
      <trkpt lat="44.05775" lon="7.45352">
        <ele>2130</ele>
        <time>2019-07-20T08:21:08.110Z</time>
      </trkpt>
      <trkpt lat="44.05779" lon="7.45365">
        <ele>2130</ele>
        <time>2019-07-20T08:21:15.112Z</time>
      </trkpt>
      <trkpt lat="44.05787" lon="7.45373">
        <ele>2130</ele>
        <time>2019-07-20T08:21:20.218Z</time>
      </trkpt>
      <trkpt lat="44.05797" lon="7.45381">
        <ele>2129</ele>
        <time>2019-07-20T08:21:33.112Z</time>
      </trkpt>
      <trkpt lat="44.05805" lon="7.45391">
        <ele>2127.8280064</ele>
        <time>2019-07-20T08:21:41.106Z</time>
      </trkpt>
      <trkpt lat="44.05811" lon="7.45379">
        <ele>2126</ele>
        <time>2019-07-20T08:21:50.119Z</time>
      </trkpt>
      <trkpt lat="44.05822" lon="7.45382">
        <ele>2123</ele>
        <time>2019-07-20T08:21:58.011Z</time>
      </trkpt>
      <trkpt lat="44.0583" lon="7.45393">
        <ele>2121</ele>
        <time>2019-07-20T08:22:07.115Z</time>
      </trkpt>
      <trkpt lat="44.05832" lon="7.45408">
        <ele>2119</ele>
        <time>2019-07-20T08:22:15.110Z</time>
      </trkpt>
      <trkpt lat="44.05838" lon="7.45421">
        <ele>2119</ele>
        <time>2019-07-20T08:22:24.115Z</time>
      </trkpt>
      <trkpt lat="44.0585" lon="7.45427">
        <ele>2117</ele>
        <time>2019-07-20T08:22:33.115Z</time>
      </trkpt>
      <trkpt lat="44.05868" lon="7.45418">
        <ele>2119</ele>
        <time>2019-07-20T08:22:43.117Z</time>
      </trkpt>
      <trkpt lat="44.05873" lon="7.45431">
        <ele>2119</ele>
        <time>2019-07-20T08:22:50.113Z</time>
      </trkpt>
      <trkpt lat="44.05879" lon="7.45445">
        <ele>2121</ele>
        <time>2019-07-20T08:23:05.115Z</time>
      </trkpt>
      <trkpt lat="44.05877" lon="7.45459">
        <ele>2122</ele>
        <time>2019-07-20T08:23:12.118Z</time>
      </trkpt>
      <trkpt lat="44.0588" lon="7.45475">
        <ele>2122</ele>
        <time>2019-07-20T08:23:17.109Z</time>
      </trkpt>
      <trkpt lat="44.05879" lon="7.4549">
        <ele>2123</ele>
        <time>2019-07-20T08:23:29.111Z</time>
      </trkpt>
      <trkpt lat="44.05884" lon="7.45504">
        <ele>2124</ele>
        <time>2019-07-20T08:23:41.114Z</time>
      </trkpt>
      <trkpt lat="44.05895" lon="7.45496">
        <ele>2127</ele>
        <time>2019-07-20T08:23:54.118Z</time>
      </trkpt>
      <trkpt lat="44.05905" lon="7.45491">
        <ele>2131</ele>
        <time>2019-07-20T08:24:07.115Z</time>
      </trkpt>
      <trkpt lat="44.05915" lon="7.45495">
        <ele>2130</ele>
        <time>2019-07-20T08:24:14.115Z</time>
      </trkpt>
      <trkpt lat="44.0592" lon="7.45489">
        <ele>2130</ele>
        <time>2019-07-20T08:24:20.115Z</time>
      </trkpt>
      <trkpt lat="44.05925" lon="7.45478">
        <ele>2130</ele>
        <time>2019-07-20T08:24:29.115Z</time>
      </trkpt>
      <trkpt lat="44.05929" lon="7.45465">
        <ele>2133</ele>
        <time>2019-07-20T08:24:38.115Z</time>
      </trkpt>
      <trkpt lat="44.05932" lon="7.45452">
        <ele>2133</ele>
        <time>2019-07-20T08:24:48.115Z</time>
      </trkpt>
      <trkpt lat="44.05938" lon="7.45441">
        <ele>2134</ele>
        <time>2019-07-20T08:24:57.115Z</time>
      </trkpt>
      <trkpt lat="44.0594" lon="7.45434">
        <ele>2136</ele>
        <time>2019-07-20T08:25:02.115Z</time>
      </trkpt>
      <trkpt lat="44.05942" lon="7.4543">
        <ele>2138.1553268961</ele>
        <time>2019-07-20T08:25:11.115Z</time>
      </trkpt>
      <trkpt lat="44.0594" lon="7.45444">
        <ele>2138</ele>
        <time>2019-07-20T08:25:29.115Z</time>
      </trkpt>
      <trkpt lat="44.05935" lon="7.45458">
        <ele>2137</ele>
        <time>2019-07-20T08:25:36.115Z</time>
      </trkpt>
      <trkpt lat="44.05934" lon="7.45472">
        <ele>2136.4050048</ele>
        <time>2019-07-20T08:25:41.115Z</time>
      </trkpt>
      <trkpt lat="44.05932" lon="7.45486">
        <ele>2136</ele>
        <time>2019-07-20T08:25:51.115Z</time>
      </trkpt>
      <trkpt lat="44.05933" lon="7.45497">
        <ele>2135</ele>
        <time>2019-07-20T08:26:09.115Z</time>
      </trkpt>
      <trkpt lat="44.05935" lon="7.45508">
        <ele>2135</ele>
        <time>2019-07-20T08:26:18.115Z</time>
      </trkpt>
      <trkpt lat="44.05936" lon="7.45522">
        <ele>2138</ele>
        <time>2019-07-20T08:26:28.115Z</time>
      </trkpt>
      <trkpt lat="44.05937" lon="7.45533">
        <ele>2137</ele>
        <time>2019-07-20T08:26:35.115Z</time>
      </trkpt>
      <trkpt lat="44.05941" lon="7.4554">
        <ele>2137</ele>
        <time>2019-07-20T08:26:45.115Z</time>
      </trkpt>
      <trkpt lat="44.05943" lon="7.45549">
        <ele>2142</ele>
        <time>2019-07-20T08:26:54.115Z</time>
      </trkpt>
      <trkpt lat="44.05946" lon="7.45564">
        <ele>2142</ele>
        <time>2019-07-20T08:27:10.115Z</time>
      </trkpt>
      <trkpt lat="44.05949" lon="7.4557">
        <ele>2148.5824679009</ele>
        <time>2019-07-20T08:27:21.115Z</time>
      </trkpt>
      <trkpt lat="44.05954" lon="7.45569">
        <ele>2151</ele>
        <time>2019-07-20T08:27:28.115Z</time>
      </trkpt>
      <trkpt lat="44.05959" lon="7.45571">
        <ele>2153</ele>
        <time>2019-07-20T08:27:37.115Z</time>
      </trkpt>
      <trkpt lat="44.05963" lon="7.45574">
        <ele>2155</ele>
        <time>2019-07-20T08:27:42.115Z</time>
      </trkpt>
      <trkpt lat="44.05973" lon="7.45569">
        <ele>2159.435008</ele>
        <time>2019-07-20T08:28:00.115Z</time>
      </trkpt>
      <trkpt lat="44.05984" lon="7.45562">
        <ele>2164.0530918318</ele>
        <time>2019-07-20T08:28:17.115Z</time>
      </trkpt>
      <trkpt lat="44.05992" lon="7.45564">
        <ele>2169</ele>
        <time>2019-07-20T08:28:37.115Z</time>
      </trkpt>
      <trkpt lat="44.05991" lon="7.45575">
        <ele>2170</ele>
        <time>2019-07-20T08:28:46.115Z</time>
      </trkpt>
      <trkpt lat="44.05986" lon="7.45588">
        <ele>2172</ele>
        <time>2019-07-20T08:28:58.115Z</time>
      </trkpt>
      <trkpt lat="44.05995" lon="7.4559">
        <ele>2178</ele>
        <time>2019-07-20T08:29:19.115Z</time>
      </trkpt>
      <trkpt lat="44.06002" lon="7.4558">
        <ele>2179.5549413453</ele>
        <time>2019-07-20T08:29:27.115Z</time>
      </trkpt>
      <trkpt lat="44.06007" lon="7.45572">
        <ele>2182</ele>
        <time>2019-07-20T08:29:35.115Z</time>
      </trkpt>
      <trkpt lat="44.06016" lon="7.45558">
        <ele>2187</ele>
        <time>2019-07-20T08:29:48.115Z</time>
      </trkpt>
      <trkpt lat="44.06025" lon="7.45544">
        <ele>2186</ele>
        <time>2019-07-20T08:29:57.115Z</time>
      </trkpt>
      <trkpt lat="44.06032" lon="7.45528">
        <ele>2187</ele>
        <time>2019-07-20T08:30:09.115Z</time>
      </trkpt>
      <trkpt lat="44.06039" lon="7.4551">
        <ele>2189</ele>
        <time>2019-07-20T08:30:21.115Z</time>
      </trkpt>
      <trkpt lat="44.06047" lon="7.45501">
        <ele>2190</ele>
        <time>2019-07-20T08:30:30.115Z</time>
      </trkpt>
      <trkpt lat="44.06052" lon="7.4549">
        <ele>2192</ele>
        <time>2019-07-20T08:30:39.115Z</time>
      </trkpt>
      <trkpt lat="44.0606" lon="7.45471">
        <ele>2192</ele>
        <time>2019-07-20T08:30:52.115Z</time>
      </trkpt>
      <trkpt lat="44.06063" lon="7.45458">
        <ele>2193</ele>
        <time>2019-07-20T08:31:00.115Z</time>
      </trkpt>
      <trkpt lat="44.06071" lon="7.45438">
        <ele>2195.5409078744</ele>
        <time>2019-07-20T08:31:13.115Z</time>
      </trkpt>
      <trkpt lat="44.06074" lon="7.45429">
        <ele>2197</ele>
        <time>2019-07-20T08:31:21.115Z</time>
      </trkpt>
      <trkpt lat="44.06077" lon="7.45419">
        <ele>2199</ele>
        <time>2019-07-20T08:31:29.115Z</time>
      </trkpt>
      <trkpt lat="44.06086" lon="7.454">
        <ele>2201</ele>
        <time>2019-07-20T08:31:42.115Z</time>
      </trkpt>
      <trkpt lat="44.06091" lon="7.45386">
        <ele>2199</ele>
        <time>2019-07-20T08:31:51.115Z</time>
      </trkpt>
      <trkpt lat="44.06093" lon="7.45378">
        <ele>2199</ele>
        <time>2019-07-20T08:31:56.115Z</time>
      </trkpt>
      <trkpt lat="44.06098" lon="7.45367">
        <ele>2203</ele>
        <time>2019-07-20T08:32:05.115Z</time>
      </trkpt>
      <trkpt lat="44.061" lon="7.45361">
        <ele>2204</ele>
        <time>2019-07-20T08:32:10.115Z</time>
      </trkpt>
      <trkpt lat="44.06103" lon="7.45351">
        <ele>2205</ele>
        <time>2019-07-20T08:32:18.115Z</time>
      </trkpt>
      <trkpt lat="44.06112" lon="7.45335">
        <ele>2206</ele>
        <time>2019-07-20T08:32:31.115Z</time>
      </trkpt>
      <trkpt lat="44.06117" lon="7.45329">
        <ele>2209</ele>
        <time>2019-07-20T08:32:40.115Z</time>
      </trkpt>
      <trkpt lat="44.06121" lon="7.45321">
        <ele>2212</ele>
        <time>2019-07-20T08:32:48.115Z</time>
      </trkpt>
      <trkpt lat="44.06125" lon="7.45317">
        <ele>2213</ele>
        <time>2019-07-20T08:32:53.115Z</time>
      </trkpt>
      <trkpt lat="44.0613" lon="7.45313">
        <ele>2214</ele>
        <time>2019-07-20T08:33:01.115Z</time>
      </trkpt>
      <trkpt lat="44.06135" lon="7.45308">
        <ele>2217</ele>
        <time>2019-07-20T08:33:09.115Z</time>
      </trkpt>
      <trkpt lat="44.0614" lon="7.45303">
        <ele>2219</ele>
        <time>2019-07-20T08:33:18.115Z</time>
      </trkpt>
      <trkpt lat="44.06145" lon="7.45298">
        <ele>2222</ele>
        <time>2019-07-20T08:33:29.115Z</time>
      </trkpt>
      <trkpt lat="44.0615" lon="7.45293">
        <ele>2224</ele>
        <time>2019-07-20T08:33:37.115Z</time>
      </trkpt>
      <trkpt lat="44.06153" lon="7.45282">
        <ele>2226</ele>
        <time>2019-07-20T08:33:46.115Z</time>
      </trkpt>
      <trkpt lat="44.06157" lon="7.45274">
        <ele>2229</ele>
        <time>2019-07-20T08:33:53.115Z</time>
      </trkpt>
      <trkpt lat="44.06161" lon="7.45261">
        <ele>2230</ele>
        <time>2019-07-20T08:34:05.115Z</time>
      </trkpt>
      <trkpt lat="44.06166" lon="7.45249">
        <ele>2232</ele>
        <time>2019-07-20T08:34:18.115Z</time>
      </trkpt>
      <trkpt lat="44.06169" lon="7.45241">
        <ele>2234</ele>
        <time>2019-07-20T08:34:26.115Z</time>
      </trkpt>
      <trkpt lat="44.06173" lon="7.45254">
        <ele>2238</ele>
        <time>2019-07-20T08:34:47.115Z</time>
      </trkpt>
      <trkpt lat="44.06172" lon="7.45266">
        <ele>2238</ele>
        <time>2019-07-20T08:34:55.115Z</time>
      </trkpt>
      <trkpt lat="44.06174" lon="7.45284">
        <ele>2241</ele>
        <time>2019-07-20T08:35:07.115Z</time>
      </trkpt>
      <trkpt lat="44.06176" lon="7.45293">
        <ele>2242</ele>
        <time>2019-07-20T08:35:15.115Z</time>
      </trkpt>
      <trkpt lat="44.06181" lon="7.45296">
        <ele>2243.1899904</ele>
        <time>2019-07-20T08:35:31.115Z</time>
      </trkpt>
      <trkpt lat="44.06186" lon="7.45289">
        <ele>2245</ele>
        <time>2019-07-20T08:35:43.115Z</time>
      </trkpt>
      <trkpt lat="44.06189" lon="7.45273">
        <ele>2249</ele>
        <time>2019-07-20T08:35:59.115Z</time>
      </trkpt>
      <trkpt lat="44.06192" lon="7.45263">
        <ele>2251.5949952</ele>
        <time>2019-07-20T08:36:11.115Z</time>
      </trkpt>
      <trkpt lat="44.06195" lon="7.45279">
        <ele>2254</ele>
        <time>2019-07-20T08:36:27.115Z</time>
      </trkpt>
      <trkpt lat="44.06199" lon="7.45296">
        <ele>2255</ele>
        <time>2019-07-20T08:36:40.115Z</time>
      </trkpt>
      <trkpt lat="44.06197" lon="7.45313">
        <ele>2257</ele>
        <time>2019-07-20T08:36:52.115Z</time>
      </trkpt>
      <trkpt lat="44.06203" lon="7.45312">
        <ele>2258</ele>
        <time>2019-07-20T08:37:08.115Z</time>
      </trkpt>
      <trkpt lat="44.06209" lon="7.45299">
        <ele>2259</ele>
        <time>2019-07-20T08:37:20.115Z</time>
      </trkpt>
      <trkpt lat="44.06214" lon="7.45286">
        <ele>2263</ele>
        <time>2019-07-20T08:37:32.115Z</time>
      </trkpt>
      <trkpt lat="44.06217" lon="7.45269">
        <ele>2265</ele>
        <time>2019-07-20T08:37:44.115Z</time>
      </trkpt>
      <trkpt lat="44.06219" lon="7.45252">
        <ele>2267</ele>
        <time>2019-07-20T08:37:56.115Z</time>
      </trkpt>
      <trkpt lat="44.06228" lon="7.45257">
        <ele>2269.5949952</ele>
        <time>2019-07-20T08:38:16.115Z</time>
      </trkpt>
      <trkpt lat="44.06232" lon="7.45268">
        <ele>2271</ele>
        <time>2019-07-20T08:38:24.115Z</time>
      </trkpt>
      <trkpt lat="44.06235" lon="7.45285">
        <ele>2272</ele>
        <time>2019-07-20T08:38:36.115Z</time>
      </trkpt>
      <trkpt lat="44.06237" lon="7.453">
        <ele>2273</ele>
        <time>2019-07-20T08:38:48.115Z</time>
      </trkpt>
      <trkpt lat="44.06245" lon="7.45283">
        <ele>2276</ele>
        <time>2019-07-20T08:39:08.115Z</time>
      </trkpt>
      <trkpt lat="44.06249" lon="7.45265">
        <ele>2277</ele>
        <time>2019-07-20T08:39:20.115Z</time>
      </trkpt>
      <trkpt lat="44.06252" lon="7.45252">
        <ele>2280</ele>
        <time>2019-07-20T08:39:28.115Z</time>
      </trkpt>
      <trkpt lat="44.06253" lon="7.45242">
        <ele>2280</ele>
        <time>2019-07-20T08:39:36.115Z</time>
      </trkpt>
      <trkpt lat="44.0625" lon="7.45229">
        <ele>2284</ele>
        <time>2019-07-20T08:39:52.115Z</time>
      </trkpt>
      <trkpt lat="44.06247" lon="7.45214">
        <ele>2283</ele>
        <time>2019-07-20T08:40:20.115Z</time>
      </trkpt>
      <trkpt lat="44.06243" lon="7.45199">
        <ele>2284</ele>
        <time>2019-07-20T08:40:36.115Z</time>
      </trkpt>
      <trkpt lat="44.06247" lon="7.45184">
        <ele>2287</ele>
        <time>2019-07-20T08:40:52.115Z</time>
      </trkpt>
      <trkpt lat="44.06249" lon="7.45172">
        <ele>2287</ele>
        <time>2019-07-20T08:41:08.115Z</time>
      </trkpt>
      <trkpt lat="44.0626" lon="7.45172">
        <ele>2289</ele>
        <time>2019-07-20T08:41:32.115Z</time>
      </trkpt>
      <trkpt lat="44.06263" lon="7.45159">
        <ele>2294</ele>
        <time>2019-07-20T08:41:52.115Z</time>
      </trkpt>
      <trkpt lat="44.06266" lon="7.45144">
        <ele>2295</ele>
        <time>2019-07-20T08:42:08.115Z</time>
      </trkpt>
      <trkpt lat="44.0627" lon="7.45131">
        <ele>2297</ele>
        <time>2019-07-20T08:42:24.115Z</time>
      </trkpt>
      <trkpt lat="44.06272" lon="7.45117">
        <ele>2299</ele>
        <time>2019-07-20T08:42:36.115Z</time>
      </trkpt>
      <trkpt lat="44.06276" lon="7.45106">
        <ele>2301</ele>
        <time>2019-07-20T08:42:44.115Z</time>
      </trkpt>
      <trkpt lat="44.06279" lon="7.45095">
        <ele>2301</ele>
        <time>2019-07-20T08:42:52.115Z</time>
      </trkpt>
      <trkpt lat="44.06282" lon="7.45086">
        <ele>2301</ele>
        <time>2019-07-20T08:43:00.115Z</time>
      </trkpt>
      <trkpt lat="44.06285" lon="7.4508">
        <ele>2305</ele>
        <time>2019-07-20T08:43:08.115Z</time>
      </trkpt>
      <trkpt lat="44.0629" lon="7.45072">
        <ele>2309</ele>
        <time>2019-07-20T08:43:20.115Z</time>
      </trkpt>
      <trkpt lat="44.06295" lon="7.45085">
        <ele>2313</ele>
        <time>2019-07-20T08:43:40.115Z</time>
      </trkpt>
      <trkpt lat="44.06302" lon="7.45073">
        <ele>2316</ele>
        <time>2019-07-20T08:43:56.115Z</time>
      </trkpt>
      <trkpt lat="44.06306" lon="7.45057">
        <ele>2320</ele>
        <time>2019-07-20T08:44:08.115Z</time>
      </trkpt>
      <trkpt lat="44.06311" lon="7.45073">
        <ele>2327</ele>
        <time>2019-07-20T08:44:28.115Z</time>
      </trkpt>
      <trkpt lat="44.06313" lon="7.45082">
        <ele>2329.5909055647</ele>
        <time>2019-07-20T08:44:36.115Z</time>
      </trkpt>
      <trkpt lat="44.06317" lon="7.45076">
        <ele>2331</ele>
        <time>2019-07-20T08:44:44.115Z</time>
      </trkpt>
      <trkpt lat="44.06319" lon="7.45068">
        <ele>2332</ele>
        <time>2019-07-20T08:44:52.115Z</time>
      </trkpt>
      <trkpt lat="44.06327" lon="7.4508">
        <ele>2340</ele>
        <time>2019-07-20T08:45:20.115Z</time>
      </trkpt>
      <trkpt lat="44.06327" lon="7.45095">
        <ele>2341</ele>
        <time>2019-07-20T08:45:36.115Z</time>
      </trkpt>
      <trkpt lat="44.06336" lon="7.45088">
        <ele>2346</ele>
        <time>2019-07-20T08:45:52.115Z</time>
      </trkpt>
      <trkpt lat="44.06345" lon="7.45088">
        <ele>2354</ele>
        <time>2019-07-20T08:46:20.115Z</time>
      </trkpt>
      <trkpt lat="44.06351" lon="7.45101">
        <ele>2357</ele>
        <time>2019-07-20T08:46:40.115Z</time>
      </trkpt>
      <trkpt lat="44.06349" lon="7.45115">
        <ele>2362</ele>
        <time>2019-07-20T08:47:01.115Z</time>
      </trkpt>
      <trkpt lat="44.06357" lon="7.45125">
        <ele>2366</ele>
        <time>2019-07-20T08:47:34.115Z</time>
      </trkpt>
      <trkpt lat="44.06368" lon="7.45117">
        <ele>2373</ele>
        <time>2019-07-20T08:47:54.115Z</time>
      </trkpt>
      <trkpt lat="44.06373" lon="7.4513">
        <ele>2382</ele>
        <time>2019-07-20T08:48:14.115Z</time>
      </trkpt>
      <trkpt lat="44.06377" lon="7.45144">
        <ele>2384</ele>
        <time>2019-07-20T08:48:25.115Z</time>
      </trkpt>
      <trkpt lat="44.06385" lon="7.45154">
        <ele>2386</ele>
        <time>2019-07-20T08:48:37.115Z</time>
      </trkpt>
      <trkpt lat="44.06392" lon="7.45159">
        <ele>2390</ele>
        <time>2019-07-20T08:48:48.115Z</time>
      </trkpt>
      <trkpt lat="44.06398" lon="7.45147">
        <ele>2397.1290189386</ele>
        <time>2019-07-20T08:48:58.115Z</time>
      </trkpt>
      <trkpt lat="44.06406" lon="7.45137">
        <ele>2399</ele>
        <time>2019-07-20T08:49:09.115Z</time>
      </trkpt>
      <trkpt lat="44.06411" lon="7.45123">
        <ele>2399</ele>
        <time>2019-07-20T08:49:21.115Z</time>
      </trkpt>
      <trkpt lat="44.06413" lon="7.4511">
        <ele>2400</ele>
        <time>2019-07-20T08:49:35.115Z</time>
      </trkpt>
      <trkpt lat="44.06421" lon="7.45106">
        <ele>2404</ele>
        <time>2019-07-20T08:49:56.115Z</time>
      </trkpt>
      <trkpt lat="44.06418" lon="7.45096">
        <ele>2406</ele>
        <time>2019-07-20T08:50:07.115Z</time>
      </trkpt>
      <trkpt lat="44.06426" lon="7.45092">
        <ele>2409</ele>
        <time>2019-07-20T08:50:29.115Z</time>
      </trkpt>
      <trkpt lat="44.06425" lon="7.4508">
        <ele>2412</ele>
        <time>2019-07-20T08:50:55.115Z</time>
      </trkpt>
      <trkpt lat="44.06433" lon="7.45086">
        <ele>2418</ele>
        <time>2019-07-20T08:51:10.115Z</time>
      </trkpt>
      <trkpt lat="44.0644" lon="7.45084">
        <ele>2420</ele>
        <time>2019-07-20T08:51:30.115Z</time>
      </trkpt>
      <trkpt lat="44.06439" lon="7.4507">
        <ele>2420</ele>
        <time>2019-07-20T08:51:41.115Z</time>
      </trkpt>
      <trkpt lat="44.06434" lon="7.45056">
        <ele>2427</ele>
        <time>2019-07-20T08:51:54.115Z</time>
      </trkpt>
      <trkpt lat="44.06437" lon="7.45042">
        <ele>2431</ele>
        <time>2019-07-20T08:52:31.115Z</time>
      </trkpt>
      <trkpt lat="44.06444" lon="7.45036">
        <ele>2431</ele>
        <time>2019-07-20T08:52:52.115Z</time>
      </trkpt>
      <trkpt lat="44.06451" lon="7.45044">
        <ele>2431</ele>
        <time>2019-07-20T08:53:00.115Z</time>
      </trkpt>
      <trkpt lat="44.06461" lon="7.45055">
        <ele>2431</ele>
        <time>2019-07-20T08:53:12.115Z</time>
      </trkpt>
      <trkpt lat="44.0647" lon="7.45065">
        <ele>2432</ele>
        <time>2019-07-20T08:53:25.115Z</time>
      </trkpt>
      <trkpt lat="44.06481" lon="7.45074">
        <ele>2436</ele>
        <time>2019-07-20T08:53:39.115Z</time>
      </trkpt>
      <trkpt lat="44.0648" lon="7.4506">
        <ele>2442</ele>
        <time>2019-07-20T08:53:55.115Z</time>
      </trkpt>
      <trkpt lat="44.06477" lon="7.45042">
        <ele>2447</ele>
        <time>2019-07-20T08:54:09.115Z</time>
      </trkpt>
      <trkpt lat="44.06483" lon="7.45055">
        <ele>2447</ele>
        <time>2019-07-20T08:54:22.115Z</time>
      </trkpt>
      <trkpt lat="44.06491" lon="7.45065">
        <ele>2449</ele>
        <time>2019-07-20T08:54:39.115Z</time>
      </trkpt>
      <trkpt lat="44.06502" lon="7.45063">
        <ele>2451</ele>
        <time>2019-07-20T08:55:03.115Z</time>
      </trkpt>
      <trkpt lat="44.0651" lon="7.45071">
        <ele>2451</ele>
        <time>2019-07-20T08:55:17.115Z</time>
      </trkpt>
      <trkpt lat="44.06513" lon="7.45055">
        <ele>2455</ele>
        <time>2019-07-20T08:55:45.115Z</time>
      </trkpt>
      <trkpt lat="44.06508" lon="7.45038">
        <ele>2455.4308532367</ele>
        <time>2019-07-20T08:55:59.115Z</time>
      </trkpt>
      <trkpt lat="44.06514" lon="7.45029">
        <ele>2458.4655210464</ele>
        <time>2019-07-20T08:56:27.115Z</time>
      </trkpt>
      <trkpt lat="44.0652" lon="7.45034">
        <ele>2468</ele>
        <time>2019-07-20T08:57:07.115Z</time>
      </trkpt>
      <trkpt lat="44.06529" lon="7.45038">
        <ele>2469</ele>
        <time>2019-07-20T08:57:40.115Z</time>
      </trkpt>
      <trkpt lat="44.06534" lon="7.45031">
        <ele>2472</ele>
        <time>2019-07-20T08:57:59.115Z</time>
      </trkpt>
      <trkpt lat="44.06545" lon="7.45028">
        <ele>2476</ele>
        <time>2019-07-20T08:58:33.115Z</time>
      </trkpt>
      <trkpt lat="44.06554" lon="7.45016">
        <ele>2478</ele>
        <time>2019-07-20T08:58:46.115Z</time>
      </trkpt>
      <trkpt lat="44.06559" lon="7.45028">
        <ele>2481</ele>
        <time>2019-07-20T08:58:58.115Z</time>
      </trkpt>
      <trkpt lat="44.06564" lon="7.45034">
        <ele>2481</ele>
        <time>2019-07-20T08:59:07.115Z</time>
      </trkpt>
      <trkpt lat="44.06568" lon="7.45023">
        <ele>2482</ele>
        <time>2019-07-20T08:59:19.115Z</time>
      </trkpt>
      <trkpt lat="44.06575" lon="7.45021">
        <ele>2487</ele>
        <time>2019-07-20T08:59:40.115Z</time>
      </trkpt>
      <trkpt lat="44.06581" lon="7.45033">
        <ele>2494</ele>
        <time>2019-07-20T09:00:15.115Z</time>
      </trkpt>
      <trkpt lat="44.06588" lon="7.45022">
        <ele>2497</ele>
        <time>2019-07-20T09:00:32.115Z</time>
      </trkpt>
      <trkpt lat="44.0659" lon="7.45007">
        <ele>2501</ele>
        <time>2019-07-20T09:00:44.115Z</time>
      </trkpt>
      <trkpt lat="44.06598" lon="7.45017">
        <ele>2507</ele>
        <time>2019-07-20T09:01:10.115Z</time>
      </trkpt>
      <trkpt lat="44.06608" lon="7.45012">
        <ele>2510</ele>
        <time>2019-07-20T09:01:27.115Z</time>
      </trkpt>
      <trkpt lat="44.06615" lon="7.44998">
        <ele>2513</ele>
        <time>2019-07-20T09:01:43.115Z</time>
      </trkpt>
      <trkpt lat="44.0662" lon="7.45014">
        <ele>2518</ele>
        <time>2019-07-20T09:02:09.115Z</time>
      </trkpt>
      <trkpt lat="44.06629" lon="7.45017">
        <ele>2527</ele>
        <time>2019-07-20T09:02:24.115Z</time>
      </trkpt>
      <trkpt lat="44.06633" lon="7.45034">
        <ele>2537</ele>
        <time>2019-07-20T09:02:42.115Z</time>
      </trkpt>
      <trkpt lat="44.06632" lon="7.45049">
        <ele>2539</ele>
        <time>2019-07-20T09:02:54.115Z</time>
      </trkpt>
      <trkpt lat="44.06636" lon="7.45066">
        <ele>2546.8725388081</ele>
        <time>2019-07-20T09:03:10.115Z</time>
      </trkpt>
      <trkpt lat="44.06642" lon="7.4508">
        <ele>2552</ele>
        <time>2019-07-20T09:03:26.115Z</time>
      </trkpt>
      <trkpt lat="44.06647" lon="7.45096">
        <ele>2552.5949952</ele>
        <time>2019-07-20T09:03:42.115Z</time>
      </trkpt>
      <trkpt lat="44.06657" lon="7.45092">
        <ele>2557</ele>
        <time>2019-07-20T09:04:02.115Z</time>
      </trkpt>
      <trkpt lat="44.06668" lon="7.4509">
        <ele>2561</ele>
        <time>2019-07-20T09:04:34.115Z</time>
      </trkpt>
      <trkpt lat="44.06675" lon="7.45079">
        <ele>2561</ele>
        <time>2019-07-20T09:04:46.115Z</time>
      </trkpt>
      <trkpt lat="44.06683" lon="7.45067">
        <ele>2568</ele>
        <time>2019-07-20T09:05:02.115Z</time>
      </trkpt>
      <trkpt lat="44.06683" lon="7.45082">
        <ele>2569</ele>
        <time>2019-07-20T09:05:18.115Z</time>
      </trkpt>
      <trkpt lat="44.06683" lon="7.45095">
        <ele>2571</ele>
        <time>2019-07-20T09:05:30.115Z</time>
      </trkpt>
      <trkpt lat="44.06693" lon="7.45093">
        <ele>2578</ele>
        <time>2019-07-20T09:05:58.115Z</time>
      </trkpt>
      <trkpt lat="44.06705" lon="7.45095">
        <ele>2586</ele>
        <time>2019-07-20T09:06:34.115Z</time>
      </trkpt>
      <trkpt lat="44.0671" lon="7.45109">
        <ele>2591</ele>
        <time>2019-07-20T09:07:02.115Z</time>
      </trkpt>
      <trkpt lat="44.06711" lon="7.45127">
        <ele>2594</ele>
        <time>2019-07-20T09:07:18.115Z</time>
      </trkpt>
      <trkpt lat="44.0672" lon="7.45118">
        <ele>2595</ele>
        <time>2019-07-20T09:07:30.115Z</time>
      </trkpt>
      <trkpt lat="44.06725" lon="7.45107">
        <ele>2598</ele>
        <time>2019-07-20T09:07:42.115Z</time>
      </trkpt>
      <trkpt lat="44.06732" lon="7.45118">
        <ele>2602</ele>
        <time>2019-07-20T09:08:06.115Z</time>
      </trkpt>
      <trkpt lat="44.06734" lon="7.45135">
        <ele>2607</ele>
        <time>2019-07-20T09:08:22.115Z</time>
      </trkpt>
      <trkpt lat="44.0674" lon="7.45149">
        <ele>2610</ele>
        <time>2019-07-20T09:08:38.115Z</time>
      </trkpt>
      <trkpt lat="44.06748" lon="7.45137">
        <ele>2611</ele>
        <time>2019-07-20T09:08:58.115Z</time>
      </trkpt>
      <trkpt lat="44.06755" lon="7.45126">
        <ele>2615</ele>
        <time>2019-07-20T09:09:14.115Z</time>
      </trkpt>
      <trkpt lat="44.06763" lon="7.45112">
        <ele>2614</ele>
        <time>2019-07-20T09:09:26.115Z</time>
      </trkpt>
      <trkpt lat="44.06768" lon="7.45125">
        <ele>2615</ele>
        <time>2019-07-20T09:09:50.115Z</time>
      </trkpt>
      <trkpt lat="44.06777" lon="7.45136">
        <ele>2628</ele>
        <time>2019-07-20T09:10:11.115Z</time>
      </trkpt>
      <trkpt lat="44.06779" lon="7.45154">
        <ele>2630.5691467633</ele>
        <time>2019-07-20T09:10:31.115Z</time>
      </trkpt>
      <trkpt lat="44.06779" lon="7.4517">
        <ele>2632</ele>
        <time>2019-07-20T09:10:49.115Z</time>
      </trkpt>
      <trkpt lat="44.06784" lon="7.45184">
        <ele>2636</ele>
        <time>2019-07-20T09:11:07.115Z</time>
      </trkpt>
      <trkpt lat="44.06794" lon="7.45193">
        <ele>2641.5173856907</ele>
        <time>2019-07-20T09:11:32.115Z</time>
      </trkpt>
      <trkpt lat="44.06792" lon="7.45209">
        <ele>2645</ele>
        <time>2019-07-20T09:11:52.115Z</time>
      </trkpt>
      <trkpt lat="44.06798" lon="7.45222">
        <ele>2649</ele>
        <time>2019-07-20T09:12:21.115Z</time>
      </trkpt>
      <trkpt lat="44.06805" lon="7.45214">
        <ele>2651</ele>
        <time>2019-07-20T09:12:34.115Z</time>
      </trkpt>
      <trkpt lat="44.06809" lon="7.45218">
        <ele>2652</ele>
        <time>2019-07-20T09:12:50.115Z</time>
      </trkpt>
      <trkpt lat="44.06811" lon="7.45228">
        <ele>2658</ele>
        <time>2019-07-20T09:13:06.115Z</time>
      </trkpt>
      <trkpt lat="44.06818" lon="7.45232">
        <ele>2663</ele>
        <time>2019-07-20T09:13:26.115Z</time>
      </trkpt>
      <trkpt lat="44.06823" lon="7.45241">
        <ele>2670</ele>
        <time>2019-07-20T09:13:47.115Z</time>
      </trkpt>
      <trkpt lat="44.06823" lon="7.45249">
        <ele>2674</ele>
        <time>2019-07-20T09:13:59.115Z</time>
      </trkpt>
      <trkpt lat="44.06828" lon="7.45251">
        <ele>2679</ele>
        <time>2019-07-20T09:14:16.115Z</time>
      </trkpt>
      <trkpt lat="44.06834" lon="7.45255">
        <ele>2685</ele>
        <time>2019-07-20T09:14:38.115Z</time>
      </trkpt>
      <trkpt lat="44.06837" lon="7.45262">
        <ele>2687</ele>
        <time>2019-07-20T09:14:50.115Z</time>
      </trkpt>
      <trkpt lat="44.06839" lon="7.45272">
        <ele>2689.530937834</ele>
        <time>2019-07-20T09:15:02.115Z</time>
      </trkpt>
      <trkpt lat="44.0684" lon="7.45282">
        <ele>2691</ele>
        <time>2019-07-20T09:15:10.115Z</time>
      </trkpt>
      <trkpt lat="44.06842" lon="7.45293">
        <ele>2693</ele>
        <time>2019-07-20T09:15:22.115Z</time>
      </trkpt>
      <trkpt lat="44.06843" lon="7.45303">
        <ele>2693</ele>
        <time>2019-07-20T09:15:30.115Z</time>
      </trkpt>
      <trkpt lat="44.06845" lon="7.4531">
        <ele>2696</ele>
        <time>2019-07-20T09:15:38.115Z</time>
      </trkpt>
      <trkpt lat="44.06846" lon="7.45318">
        <ele>2698</ele>
        <time>2019-07-20T09:15:46.115Z</time>
      </trkpt>
      <trkpt lat="44.06848" lon="7.45328">
        <ele>2699</ele>
        <time>2019-07-20T09:15:58.115Z</time>
      </trkpt>
      <trkpt lat="44.0685" lon="7.45334">
        <ele>2701</ele>
        <time>2019-07-20T09:16:06.115Z</time>
      </trkpt>
      <trkpt lat="44.06853" lon="7.45349">
        <ele>2709.5949952</ele>
        <time>2019-07-20T09:16:22.115Z</time>
      </trkpt>
      <trkpt lat="44.06857" lon="7.45356">
        <ele>2714.5949952</ele>
        <time>2019-07-20T09:16:30.115Z</time>
      </trkpt>
      <trkpt lat="44.06861" lon="7.4536">
        <ele>2717.5949952</ele>
        <time>2019-07-20T09:16:38.115Z</time>
      </trkpt>
      <trkpt lat="44.06867" lon="7.45374">
        <ele>2724</ele>
        <time>2019-07-20T09:16:54.115Z</time>
      </trkpt>
      <trkpt lat="44.06873" lon="7.45377">
        <ele>2726</ele>
        <time>2019-07-20T09:17:06.115Z</time>
      </trkpt>
      <trkpt lat="44.06877" lon="7.45382">
        <ele>2730</ele>
        <time>2019-07-20T09:17:31.115Z</time>
      </trkpt>
      <trkpt lat="44.06881" lon="7.45385">
        <ele>2730</ele>
        <time>2019-07-20T09:17:40.115Z</time>
      </trkpt>
      <trkpt lat="44.06886" lon="7.45386">
        <ele>2732</ele>
        <time>2019-07-20T09:17:48.115Z</time>
      </trkpt>
      <trkpt lat="44.06893" lon="7.45394">
        <ele>2734</ele>
        <time>2019-07-20T09:18:00.115Z</time>
      </trkpt>
      <trkpt lat="44.06897" lon="7.45388">
        <ele>2738</ele>
        <time>2019-07-20T09:18:12.115Z</time>
      </trkpt>
      <trkpt lat="44.06904" lon="7.45386">
        <ele>2742</ele>
        <time>2019-07-20T09:18:28.115Z</time>
      </trkpt>
      <trkpt lat="44.06906" lon="7.45378">
        <ele>2744</ele>
        <time>2019-07-20T09:18:40.115Z</time>
      </trkpt>
      <trkpt lat="44.06909" lon="7.4537">
        <ele>2747.5949952</ele>
        <time>2019-07-20T09:18:56.115Z</time>
      </trkpt>
      <trkpt lat="44.06909" lon="7.4536">
        <ele>2748</ele>
        <time>2019-07-20T09:19:08.115Z</time>
      </trkpt>
      <trkpt lat="44.06914" lon="7.45363">
        <ele>2751</ele>
        <time>2019-07-20T09:19:24.115Z</time>
      </trkpt>
      <trkpt lat="44.0692" lon="7.45355">
        <ele>2757</ele>
        <time>2019-07-20T09:19:48.115Z</time>
      </trkpt>
      <trkpt lat="44.06919" lon="7.45344">
        <ele>2758</ele>
        <time>2019-07-20T09:20:00.115Z</time>
      </trkpt>
      <trkpt lat="44.06919" lon="7.45337">
        <ele>2759</ele>
        <time>2019-07-20T09:20:08.115Z</time>
      </trkpt>
      <trkpt lat="44.06925" lon="7.45335">
        <ele>2763</ele>
        <time>2019-07-20T09:20:24.115Z</time>
      </trkpt>
      <trkpt lat="44.06926" lon="7.45328">
        <ele>2767.5949952</ele>
        <time>2019-07-20T09:20:36.115Z</time>
      </trkpt>
      <trkpt lat="44.06927" lon="7.4532">
        <ele>2772</ele>
        <time>2019-07-20T09:20:52.115Z</time>
      </trkpt>
      <trkpt lat="44.0693" lon="7.45313">
        <ele>2776</ele>
        <time>2019-07-20T09:21:08.115Z</time>
      </trkpt>
      <trkpt lat="44.06932" lon="7.45308">
        <ele>2777.1899904</ele>
        <time>2019-07-20T09:21:16.115Z</time>
      </trkpt>
      <trkpt lat="44.06935" lon="7.45305">
        <ele>2782</ele>
        <time>2019-07-20T09:21:28.115Z</time>
      </trkpt>
      <trkpt lat="44.06936" lon="7.453">
        <ele>2783.5949952</ele>
        <time>2019-07-20T09:21:36.115Z</time>
      </trkpt>
      <trkpt lat="44.06936" lon="7.45294">
        <ele>2785</ele>
        <time>2019-07-20T09:21:44.115Z</time>
      </trkpt>
      <trkpt lat="44.06938" lon="7.45289">
        <ele>2786</ele>
        <time>2019-07-20T09:21:56.115Z</time>
      </trkpt>
      <trkpt lat="44.06942" lon="7.45288">
        <ele>2789</ele>
        <time>2019-07-20T09:22:08.115Z</time>
      </trkpt>
      <trkpt lat="44.06943" lon="7.4528">
        <ele>2791</ele>
        <time>2019-07-20T09:22:16.115Z</time>
      </trkpt>
      <trkpt lat="44.06945" lon="7.45272">
        <ele>2789</ele>
        <time>2019-07-20T09:22:25.115Z</time>
      </trkpt>
      <trkpt lat="44.06948" lon="7.45272">
        <ele>2789</ele>
        <time>2019-07-20T09:22:33.115Z</time>
      </trkpt>
      <trkpt lat="44.0695" lon="7.45265">
        <ele>2792</ele>
        <time>2019-07-20T09:22:45.115Z</time>
      </trkpt>
      <trkpt lat="44.06955" lon="7.45261">
        <ele>2795</ele>
        <time>2019-07-20T09:22:57.115Z</time>
      </trkpt>
      <trkpt lat="44.06957" lon="7.45254">
        <ele>2797</ele>
        <time>2019-07-20T09:23:09.115Z</time>
      </trkpt>
      <trkpt lat="44.0696" lon="7.45247">
        <ele>2797</ele>
        <time>2019-07-20T09:23:21.115Z</time>
      </trkpt>
      <trkpt lat="44.06965" lon="7.45241">
        <ele>2801</ele>
        <time>2019-07-20T09:23:33.115Z</time>
      </trkpt>
      <trkpt lat="44.06967" lon="7.45236">
        <ele>2804</ele>
        <time>2019-07-20T09:23:45.115Z</time>
      </trkpt>
      <trkpt lat="44.06972" lon="7.45233">
        <ele>2805</ele>
        <time>2019-07-20T09:23:53.115Z</time>
      </trkpt>
      <trkpt lat="44.06977" lon="7.45227">
        <ele>2807</ele>
        <time>2019-07-20T09:24:05.115Z</time>
      </trkpt>
      <trkpt lat="44.06981" lon="7.45223">
        <ele>2809</ele>
        <time>2019-07-20T09:24:13.115Z</time>
      </trkpt>
      <trkpt lat="44.06984" lon="7.45222">
        <ele>2809.5949952</ele>
        <time>2019-07-20T09:24:21.115Z</time>
      </trkpt>
      <trkpt lat="44.06989" lon="7.45223">
        <ele>2810</ele>
        <time>2019-07-20T09:24:29.115Z</time>
      </trkpt>
      <trkpt lat="44.06995" lon="7.4522">
        <ele>2813</ele>
        <time>2019-07-20T09:24:37.115Z</time>
      </trkpt>
      <trkpt lat="44.07004" lon="7.45219">
        <ele>2816</ele>
        <time>2019-07-20T09:24:49.115Z</time>
      </trkpt>
      <trkpt lat="44.0701" lon="7.45217">
        <ele>2816</ele>
        <time>2019-07-20T09:24:57.115Z</time>
      </trkpt>
      <trkpt lat="44.07017" lon="7.45218">
        <ele>2816</ele>
        <time>2019-07-20T09:25:05.115Z</time>
      </trkpt>
      <trkpt lat="44.07023" lon="7.45213">
        <ele>2817</ele>
        <time>2019-07-20T09:25:13.115Z</time>
      </trkpt>
      <trkpt lat="44.07031" lon="7.45207">
        <ele>2817.5891060249</ele>
        <time>2019-07-20T09:25:21.115Z</time>
      </trkpt>
      <trkpt lat="44.07045" lon="7.45205">
        <ele>2818</ele>
        <time>2019-07-20T09:25:33.115Z</time>
      </trkpt>
      <trkpt lat="44.07055" lon="7.45206">
        <ele>2819</ele>
        <time>2019-07-20T09:25:41.115Z</time>
      </trkpt>
      <trkpt lat="44.07062" lon="7.45202">
        <ele>2822.5949952</ele>
        <time>2019-07-20T09:25:53.115Z</time>
      </trkpt>
      <trkpt lat="44.07064" lon="7.45192">
        <ele>2823.4090944353</ele>
        <time>2019-07-20T09:26:01.115Z</time>
      </trkpt>
      <trkpt lat="44.07074" lon="7.45186">
        <ele>2825.5909055647</ele>
        <time>2019-07-20T09:26:13.115Z</time>
      </trkpt>
      <trkpt lat="44.07079" lon="7.45174">
        <ele>2826</ele>
        <time>2019-07-20T09:26:25.115Z</time>
      </trkpt>
      <trkpt lat="44.07084" lon="7.45165">
        <ele>2827</ele>
        <time>2019-07-20T09:26:33.115Z</time>
      </trkpt>
      <trkpt lat="44.07091" lon="7.45159">
        <ele>2826.4050048</ele>
        <time>2019-07-20T09:26:41.115Z</time>
      </trkpt>
      <trkpt lat="44.07097" lon="7.45156">
        <ele>2827</ele>
        <time>2019-07-20T09:26:49.115Z</time>
      </trkpt>
      <trkpt lat="44.07103" lon="7.45148">
        <ele>2827</ele>
        <time>2019-07-20T09:26:58.115Z</time>
      </trkpt>
      <trkpt lat="44.07111" lon="7.45144">
        <ele>2828</ele>
        <time>2019-07-20T09:27:06.115Z</time>
      </trkpt>
      <trkpt lat="44.07115" lon="7.45135">
        <ele>2828</ele>
        <time>2019-07-20T09:27:14.115Z</time>
      </trkpt>
      <trkpt lat="44.07118" lon="7.45124">
        <ele>2828</ele>
        <time>2019-07-20T09:27:22.115Z</time>
      </trkpt>
      <trkpt lat="44.07126" lon="7.45117">
        <ele>2828</ele>
        <time>2019-07-20T09:27:30.115Z</time>
      </trkpt>
      <trkpt lat="44.07134" lon="7.45113">
        <ele>2824</ele>
        <time>2019-07-20T09:27:38.115Z</time>
      </trkpt>
      <trkpt lat="44.07144" lon="7.45111">
        <ele>2824</ele>
        <time>2019-07-20T09:27:46.115Z</time>
      </trkpt>
      <trkpt lat="44.07152" lon="7.45105">
        <ele>2825</ele>
        <time>2019-07-20T09:27:54.115Z</time>
      </trkpt>
      <trkpt lat="44.07158" lon="7.451">
        <ele>2825</ele>
        <time>2019-07-20T09:28:00.115Z</time>
      </trkpt>
      <trkpt lat="44.07168" lon="7.45086">
        <ele>2824.5265459159</ele>
        <time>2019-07-20T09:28:12.115Z</time>
      </trkpt>
      <trkpt lat="44.07173" lon="7.45076">
        <ele>2825</ele>
        <time>2019-07-20T09:28:20.115Z</time>
      </trkpt>
      <trkpt lat="44.07179" lon="7.45063">
        <ele>2826</ele>
        <time>2019-07-20T09:28:32.115Z</time>
      </trkpt>
      <trkpt lat="44.07184" lon="7.45056">
        <ele>2826</ele>
        <time>2019-07-20T09:28:41.115Z</time>
      </trkpt>
      <trkpt lat="44.07188" lon="7.45052">
        <ele>2828</ele>
        <time>2019-07-20T09:28:57.115Z</time>
      </trkpt>
      <trkpt lat="44.07193" lon="7.45044">
        <ele>2831.7921358818</ele>
        <time>2019-07-20T09:29:13.115Z</time>
      </trkpt>
      <trkpt lat="44.07196" lon="7.45041">
        <ele>2834</ele>
        <time>2019-07-20T09:29:21.115Z</time>
      </trkpt>
      <trkpt lat="44.07199" lon="7.45039">
        <ele>2834</ele>
        <time>2019-07-20T09:29:30.115Z</time>
      </trkpt>
      <trkpt lat="44.07202" lon="7.4503">
        <ele>2840</ele>
        <time>2019-07-20T09:29:44.115Z</time>
      </trkpt>
      <trkpt lat="44.07207" lon="7.45027">
        <ele>2844</ele>
        <time>2019-07-20T09:30:00.115Z</time>
      </trkpt>
      <trkpt lat="44.07211" lon="7.45029">
        <ele>2845</ele>
        <time>2019-07-20T09:30:17.115Z</time>
      </trkpt>
      <trkpt lat="44.07215" lon="7.45026">
        <ele>2845</ele>
        <time>2019-07-20T09:30:30.115Z</time>
      </trkpt>
      <trkpt lat="44.07222" lon="7.45022">
        <ele>2849.5721107692</ele>
        <time>2019-07-20T09:30:46.115Z</time>
      </trkpt>
      <trkpt lat="44.07227" lon="7.45021">
        <ele>2852</ele>
        <time>2019-07-20T09:30:58.115Z</time>
      </trkpt>
      <trkpt lat="44.07232" lon="7.45022">
        <ele>2853</ele>
        <time>2019-07-20T09:31:11.115Z</time>
      </trkpt>
      <trkpt lat="44.07237" lon="7.45021">
        <ele>2855</ele>
        <time>2019-07-20T09:31:19.115Z</time>
      </trkpt>
      <trkpt lat="44.07241" lon="7.45025">
        <ele>2858</ele>
        <time>2019-07-20T09:31:28.115Z</time>
      </trkpt>
      <trkpt lat="44.07244" lon="7.4503">
        <ele>2858</ele>
        <time>2019-07-20T09:31:36.115Z</time>
      </trkpt>
      <trkpt lat="44.07249" lon="7.45033">
        <ele>2860.5949952</ele>
        <time>2019-07-20T09:31:44.115Z</time>
      </trkpt>
      <trkpt lat="44.07257" lon="7.45032">
        <ele>2862</ele>
        <time>2019-07-20T09:31:52.115Z</time>
      </trkpt>
      <trkpt lat="44.07266" lon="7.45033">
        <ele>2862</ele>
        <time>2019-07-20T09:32:00.115Z</time>
      </trkpt>
      <trkpt lat="44.07274" lon="7.45033">
        <ele>2860</ele>
        <time>2019-07-20T09:32:08.115Z</time>
      </trkpt>
      <trkpt lat="44.07281" lon="7.45029">
        <ele>2860.5867324948</ele>
        <time>2019-07-20T09:32:16.115Z</time>
      </trkpt>
      <trkpt lat="44.07287" lon="7.45036">
        <ele>2862</ele>
        <time>2019-07-20T09:32:29.115Z</time>
      </trkpt>
      <trkpt lat="44.07293" lon="7.4504">
        <ele>2866</ele>
        <time>2019-07-20T09:32:37.115Z</time>
      </trkpt>
      <trkpt lat="44.07297" lon="7.45037">
        <ele>2866</ele>
        <time>2019-07-20T09:32:49.115Z</time>
      </trkpt>
      <trkpt lat="44.07293" lon="7.45038">
        <ele>2872</ele>
        <time>2019-07-20T09:39:10.115Z</time>
      </trkpt>
      <trkpt lat="44.07282" lon="7.45033">
        <ele>2871</ele>
        <time>2019-07-20T09:39:18.115Z</time>
      </trkpt>
      <trkpt lat="44.07281" lon="7.45024">
        <ele>2869</ele>
        <time>2019-07-20T09:39:23.115Z</time>
      </trkpt>
      <trkpt lat="44.07289" lon="7.45007">
        <ele>2866.2525962972</ele>
        <time>2019-07-20T09:39:32.115Z</time>
      </trkpt>
      <trkpt lat="44.07296" lon="7.45008">
        <ele>2864.3317941479</ele>
        <time>2019-07-20T09:40:12.115Z</time>
      </trkpt>
      <trkpt lat="44.07302" lon="7.45008">
        <ele>2863</ele>
        <time>2019-07-20T09:40:17.115Z</time>
      </trkpt>
      <trkpt lat="44.07317" lon="7.45011">
        <ele>2856</ele>
        <time>2019-07-20T09:40:26.115Z</time>
      </trkpt>
      <trkpt lat="44.07335" lon="7.45022">
        <ele>2855</ele>
        <time>2019-07-20T09:40:35.115Z</time>
      </trkpt>
      <trkpt lat="44.07349" lon="7.45035">
        <ele>2854</ele>
        <time>2019-07-20T09:40:44.115Z</time>
      </trkpt>
      <trkpt lat="44.07353" lon="7.45029">
        <ele>2850</ele>
        <time>2019-07-20T09:40:56.115Z</time>
      </trkpt>
      <trkpt lat="44.0735" lon="7.45022">
        <ele>2847</ele>
        <time>2019-07-20T09:41:05.115Z</time>
      </trkpt>
      <trkpt lat="44.07354" lon="7.45018">
        <ele>2844</ele>
        <time>2019-07-20T09:41:13.115Z</time>
      </trkpt>
      <trkpt lat="44.07367" lon="7.45023">
        <ele>2836.5833249674</ele>
        <time>2019-07-20T09:41:26.115Z</time>
      </trkpt>
      <trkpt lat="44.07375" lon="7.45027">
        <ele>2835</ele>
        <time>2019-07-20T09:41:38.115Z</time>
      </trkpt>
      <trkpt lat="44.07385" lon="7.45026">
        <ele>2834</ele>
        <time>2019-07-20T09:41:50.115Z</time>
      </trkpt>
      <trkpt lat="44.07392" lon="7.45019">
        <ele>2829</ele>
        <time>2019-07-20T09:42:02.115Z</time>
      </trkpt>
      <trkpt lat="44.07404" lon="7.45004">
        <ele>2826</ele>
        <time>2019-07-20T09:42:10.115Z</time>
      </trkpt>
      <trkpt lat="44.07419" lon="7.44998">
        <ele>2825</ele>
        <time>2019-07-20T09:42:22.115Z</time>
      </trkpt>
      <trkpt lat="44.07412" lon="7.45008">
        <ele>2824</ele>
        <time>2019-07-20T09:42:31.115Z</time>
      </trkpt>
      <trkpt lat="44.07407" lon="7.45013">
        <ele>2824</ele>
        <time>2019-07-20T09:42:36.115Z</time>
      </trkpt>
      <trkpt lat="44.074" lon="7.45025">
        <ele>2824</ele>
        <time>2019-07-20T09:42:45.115Z</time>
      </trkpt>
      <trkpt lat="44.07409" lon="7.45029">
        <ele>2820</ele>
        <time>2019-07-20T09:42:58.115Z</time>
      </trkpt>
      <trkpt lat="44.07417" lon="7.45024">
        <ele>2816.42188</ele>
        <time>2019-07-20T09:43:06.115Z</time>
      </trkpt>
      <trkpt lat="44.07428" lon="7.4502">
        <ele>2814</ele>
        <time>2019-07-20T09:43:15.115Z</time>
      </trkpt>
      <trkpt lat="44.07428" lon="7.45036">
        <ele>2806</ele>
        <time>2019-07-20T09:43:45.115Z</time>
      </trkpt>
      <trkpt lat="44.07436" lon="7.45046">
        <ele>2797</ele>
        <time>2019-07-20T09:44:35.115Z</time>
      </trkpt>
      <trkpt lat="44.07449" lon="7.45042">
        <ele>2793</ele>
        <time>2019-07-20T09:44:52.115Z</time>
      </trkpt>
      <trkpt lat="44.07463" lon="7.45041">
        <ele>2788</ele>
        <time>2019-07-20T09:45:00.115Z</time>
      </trkpt>
      <trkpt lat="44.07474" lon="7.45029">
        <ele>2787</ele>
        <time>2019-07-20T09:45:09.115Z</time>
      </trkpt>
      <trkpt lat="44.0748" lon="7.45016">
        <ele>2786</ele>
        <time>2019-07-20T09:45:18.115Z</time>
      </trkpt>
      <trkpt lat="44.07479" lon="7.45007">
        <ele>2792</ele>
        <time>2019-07-20T09:45:46.115Z</time>
      </trkpt>
      <trkpt lat="44.07477" lon="7.44999">
        <ele>2792</ele>
        <time>2019-07-20T09:45:54.115Z</time>
      </trkpt>
      <trkpt lat="44.07483" lon="7.44985">
        <ele>2794</ele>
        <time>2019-07-20T09:46:06.115Z</time>
      </trkpt>
      <trkpt lat="44.07498" lon="7.44988">
        <ele>2794</ele>
        <time>2019-07-20T09:46:18.115Z</time>
      </trkpt>
      <trkpt lat="44.0751" lon="7.4499">
        <ele>2795</ele>
        <time>2019-07-20T09:46:26.115Z</time>
      </trkpt>
      <trkpt lat="44.07515" lon="7.44989">
        <ele>2794.4655210464</ele>
        <time>2019-07-20T09:46:31.115Z</time>
      </trkpt>
      <trkpt lat="44.07523" lon="7.44978">
        <ele>2794</ele>
        <time>2019-07-20T09:46:39.115Z</time>
      </trkpt>
      <trkpt lat="44.07535" lon="7.44948">
        <ele>2789</ele>
        <time>2019-07-20T09:46:51.115Z</time>
      </trkpt>
      <trkpt lat="44.07543" lon="7.44933">
        <ele>2786</ele>
        <time>2019-07-20T09:46:59.115Z</time>
      </trkpt>
      <trkpt lat="44.07555" lon="7.44942">
        <ele>2786</ele>
        <time>2019-07-20T09:47:07.115Z</time>
      </trkpt>
      <trkpt lat="44.07559" lon="7.44947">
        <ele>2784.9561429117</ele>
        <time>2019-07-20T09:47:12.115Z</time>
      </trkpt>
      <trkpt lat="44.07573" lon="7.44945">
        <ele>2780</ele>
        <time>2019-07-20T09:47:24.115Z</time>
      </trkpt>
      <trkpt lat="44.0758" lon="7.44931">
        <ele>2776.4308591037</ele>
        <time>2019-07-20T09:47:32.115Z</time>
      </trkpt>
      <trkpt lat="44.07583" lon="7.44924">
        <ele>2775</ele>
        <time>2019-07-20T09:48:30.115Z</time>
      </trkpt>
      <trkpt lat="44.07584" lon="7.44911">
        <ele>2771</ele>
        <time>2019-07-20T09:48:46.115Z</time>
      </trkpt>
      <trkpt lat="44.07584" lon="7.44899">
        <ele>2763</ele>
        <time>2019-07-20T09:49:03.115Z</time>
      </trkpt>
      <trkpt lat="44.07586" lon="7.44886">
        <ele>2761.4514657818</ele>
        <time>2019-07-20T09:49:11.115Z</time>
      </trkpt>
      <trkpt lat="44.07589" lon="7.44876">
        <ele>2758</ele>
        <time>2019-07-20T09:49:19.115Z</time>
      </trkpt>
      <trkpt lat="44.07578" lon="7.4488">
        <ele>2753</ele>
        <time>2019-07-20T09:49:35.115Z</time>
      </trkpt>
      <trkpt lat="44.07582" lon="7.4486">
        <ele>2748.066053229</ele>
        <time>2019-07-20T09:49:47.115Z</time>
      </trkpt>
      <trkpt lat="44.0758" lon="7.44845">
        <ele>2743.5549491511</ele>
        <time>2019-07-20T09:49:55.115Z</time>
      </trkpt>
      <trkpt lat="44.0759" lon="7.44839">
        <ele>2740</ele>
        <time>2019-07-20T09:50:03.115Z</time>
      </trkpt>
      <trkpt lat="44.07599" lon="7.4483">
        <ele>2738</ele>
        <time>2019-07-20T09:50:12.115Z</time>
      </trkpt>
      <trkpt lat="44.07591" lon="7.44821">
        <ele>2729</ele>
        <time>2019-07-20T09:50:35.115Z</time>
      </trkpt>
      <trkpt lat="44.0759" lon="7.44804">
        <ele>2722</ele>
        <time>2019-07-20T09:50:54.115Z</time>
      </trkpt>
      <trkpt lat="44.07581" lon="7.44797">
        <ele>2715</ele>
        <time>2019-07-20T09:51:39.115Z</time>
      </trkpt>
      <trkpt lat="44.07582" lon="7.4478">
        <ele>2708</ele>
        <time>2019-07-20T09:51:56.115Z</time>
      </trkpt>
      <trkpt lat="44.07585" lon="7.44765">
        <ele>2707</ele>
        <time>2019-07-20T09:52:05.115Z</time>
      </trkpt>
      <trkpt lat="44.07602" lon="7.44763">
        <ele>2708</ele>
        <time>2019-07-20T09:52:18.115Z</time>
      </trkpt>
      <trkpt lat="44.07614" lon="7.44765">
        <ele>2707</ele>
        <time>2019-07-20T09:52:26.115Z</time>
      </trkpt>
      <trkpt lat="44.07619" lon="7.44777">
        <ele>2712</ele>
        <time>2019-07-20T09:52:56.115Z</time>
      </trkpt>
      <trkpt lat="44.07629" lon="7.44773">
        <ele>2719</ele>
        <time>2019-07-20T09:53:21.115Z</time>
      </trkpt>
      <trkpt lat="44.07633" lon="7.44762">
        <ele>2725</ele>
        <time>2019-07-20T09:54:06.115Z</time>
      </trkpt>
      <trkpt lat="44.07643" lon="7.44755">
        <ele>2720.8350641982</ele>
        <time>2019-07-20T09:54:26.115Z</time>
      </trkpt>
      <trkpt lat="44.07648" lon="7.44737">
        <ele>2715</ele>
        <time>2019-07-20T09:54:38.115Z</time>
      </trkpt>
      <trkpt lat="44.07651" lon="7.44724">
        <ele>2715.4090944353</ele>
        <time>2019-07-20T09:54:46.115Z</time>
      </trkpt>
      <trkpt lat="44.07655" lon="7.44711">
        <ele>2715</ele>
        <time>2019-07-20T09:54:54.115Z</time>
      </trkpt>
      <trkpt lat="44.07659" lon="7.44694">
        <ele>2715</ele>
        <time>2019-07-20T09:55:06.115Z</time>
      </trkpt>
      <trkpt lat="44.07668" lon="7.4468">
        <ele>2716</ele>
        <time>2019-07-20T09:55:55.115Z</time>
      </trkpt>
      <trkpt lat="44.07673" lon="7.4467">
        <ele>2721</ele>
        <time>2019-07-20T09:56:15.115Z</time>
      </trkpt>
      <trkpt lat="44.07676" lon="7.44681">
        <ele>2726</ele>
        <time>2019-07-20T09:56:39.115Z</time>
      </trkpt>
      <trkpt lat="44.07681" lon="7.44671">
        <ele>2729</ele>
        <time>2019-07-20T09:57:03.115Z</time>
      </trkpt>
      <trkpt lat="44.07687" lon="7.44658">
        <ele>2733</ele>
        <time>2019-07-20T09:57:19.115Z</time>
      </trkpt>
      <trkpt lat="44.07695" lon="7.44651">
        <ele>2735.586727097</ele>
        <time>2019-07-20T09:57:31.115Z</time>
      </trkpt>
      <trkpt lat="44.07703" lon="7.44636">
        <ele>2737</ele>
        <time>2019-07-20T09:57:43.115Z</time>
      </trkpt>
      <trkpt lat="44.07702" lon="7.44624">
        <ele>2738</ele>
        <time>2019-07-20T09:57:56.115Z</time>
      </trkpt>
      <trkpt lat="44.07712" lon="7.4462">
        <ele>2738</ele>
        <time>2019-07-20T09:58:17.115Z</time>
      </trkpt>
      <trkpt lat="44.07722" lon="7.44612">
        <ele>2738</ele>
        <time>2019-07-20T09:58:30.115Z</time>
      </trkpt>
      <trkpt lat="44.07731" lon="7.44603">
        <ele>2743.57812</ele>
        <time>2019-07-20T09:58:43.115Z</time>
      </trkpt>
      <trkpt lat="44.07745" lon="7.44594">
        <ele>2744</ele>
        <time>2019-07-20T09:58:52.115Z</time>
      </trkpt>
      <trkpt lat="44.07755" lon="7.44591">
        <ele>2744</ele>
        <time>2019-07-20T09:59:00.115Z</time>
      </trkpt>
      <trkpt lat="44.07761" lon="7.44577">
        <ele>2740</ele>
        <time>2019-07-20T09:59:08.115Z</time>
      </trkpt>
      <trkpt lat="44.07774" lon="7.44565">
        <ele>2733.4490785185</ele>
        <time>2019-07-20T09:59:21.115Z</time>
      </trkpt>
      <trkpt lat="44.07791" lon="7.44563">
        <ele>2735.4560441106</ele>
        <time>2019-07-20T09:59:30.115Z</time>
      </trkpt>
      <trkpt lat="44.078" lon="7.44548">
        <ele>2734</ele>
        <time>2019-07-20T09:59:38.115Z</time>
      </trkpt>
      <trkpt lat="44.07813" lon="7.44529">
        <ele>2733</ele>
        <time>2019-07-20T09:59:46.115Z</time>
      </trkpt>
      <trkpt lat="44.07826" lon="7.44509">
        <ele>2729</ele>
        <time>2019-07-20T09:59:54.115Z</time>
      </trkpt>
      <trkpt lat="44.07847" lon="7.4448">
        <ele>2727</ele>
        <time>2019-07-20T10:00:06.115Z</time>
      </trkpt>
      <trkpt lat="44.07865" lon="7.44471">
        <ele>2726</ele>
        <time>2019-07-20T10:00:14.115Z</time>
      </trkpt>
      <trkpt lat="44.07877" lon="7.44474">
        <ele>2726</ele>
        <time>2019-07-20T10:00:19.115Z</time>
      </trkpt>
      <trkpt lat="44.07892" lon="7.44477">
        <ele>2725</ele>
        <time>2019-07-20T10:00:27.115Z</time>
      </trkpt>
      <trkpt lat="44.07903" lon="7.44478">
        <ele>2724</ele>
        <time>2019-07-20T10:00:35.115Z</time>
      </trkpt>
      <trkpt lat="44.07918" lon="7.44481">
        <ele>2723</ele>
        <time>2019-07-20T10:01:11.115Z</time>
      </trkpt>
      <trkpt lat="44.07942" lon="7.44483">
        <ele>2720</ele>
        <time>2019-07-20T10:01:20.115Z</time>
      </trkpt>
      <trkpt lat="44.07964" lon="7.44477">
        <ele>2716</ele>
        <time>2019-07-20T10:01:28.115Z</time>
      </trkpt>
      <trkpt lat="44.07986" lon="7.44469">
        <ele>2715</ele>
        <time>2019-07-20T10:01:36.115Z</time>
      </trkpt>
      <trkpt lat="44.08004" lon="7.44455">
        <ele>2715</ele>
        <time>2019-07-20T10:01:44.115Z</time>
      </trkpt>
      <trkpt lat="44.08019" lon="7.44421">
        <ele>2715</ele>
        <time>2019-07-20T10:01:56.115Z</time>
      </trkpt>
      <trkpt lat="44.08024" lon="7.44398">
        <ele>2716</ele>
        <time>2019-07-20T10:02:04.115Z</time>
      </trkpt>
      <trkpt lat="44.08031" lon="7.44386">
        <ele>2719</ele>
        <time>2019-07-20T10:02:16.115Z</time>
      </trkpt>
      <trkpt lat="44.08037" lon="7.44374">
        <ele>2720</ele>
        <time>2019-07-20T10:02:28.115Z</time>
      </trkpt>
      <trkpt lat="44.08046" lon="7.44369">
        <ele>2725</ele>
        <time>2019-07-20T10:02:44.115Z</time>
      </trkpt>
      <trkpt lat="44.08054" lon="7.44364">
        <ele>2727</ele>
        <time>2019-07-20T10:02:57.115Z</time>
      </trkpt>
      <trkpt lat="44.08058" lon="7.44355">
        <ele>2727</ele>
        <time>2019-07-20T10:03:05.115Z</time>
      </trkpt>
      <trkpt lat="44.08061" lon="7.4434">
        <ele>2727</ele>
        <time>2019-07-20T10:03:13.115Z</time>
      </trkpt>
      <trkpt lat="44.08065" lon="7.44328">
        <ele>2723.4108939751</ele>
        <time>2019-07-20T10:03:21.115Z</time>
      </trkpt>
      <trkpt lat="44.08068" lon="7.44311">
        <ele>2720</ele>
        <time>2019-07-20T10:03:29.115Z</time>
      </trkpt>
      <trkpt lat="44.08074" lon="7.4429">
        <ele>2717</ele>
        <time>2019-07-20T10:03:41.115Z</time>
      </trkpt>
      <trkpt lat="44.0808" lon="7.44279">
        <ele>2717</ele>
        <time>2019-07-20T10:03:49.115Z</time>
      </trkpt>
      <trkpt lat="44.08083" lon="7.44262">
        <ele>2711</ele>
        <time>2019-07-20T10:03:57.115Z</time>
      </trkpt>
      <trkpt lat="44.08089" lon="7.44253">
        <ele>2707</ele>
        <time>2019-07-20T10:04:17.115Z</time>
      </trkpt>
      <trkpt lat="44.08093" lon="7.44236">
        <ele>2706</ele>
        <time>2019-07-20T10:04:29.115Z</time>
      </trkpt>
      <trkpt lat="44.08096" lon="7.44222">
        <ele>2700</ele>
        <time>2019-07-20T10:04:37.115Z</time>
      </trkpt>
      <trkpt lat="44.08094" lon="7.44208">
        <ele>2691.4090944353</ele>
        <time>2019-07-20T10:04:49.115Z</time>
      </trkpt>
      <trkpt lat="44.08098" lon="7.4419">
        <ele>2686.4108939751</ele>
        <time>2019-07-20T10:04:57.115Z</time>
      </trkpt>
      <trkpt lat="44.08102" lon="7.44168">
        <ele>2680.5949952</ele>
        <time>2019-07-20T10:05:05.115Z</time>
      </trkpt>
      <trkpt lat="44.08109" lon="7.44147">
        <ele>2678</ele>
        <time>2019-07-20T10:05:13.115Z</time>
      </trkpt>
      <trkpt lat="44.08103" lon="7.44136">
        <ele>2674</ele>
        <time>2019-07-20T10:05:25.115Z</time>
      </trkpt>
      <trkpt lat="44.08114" lon="7.44118">
        <ele>2667.4108939751</ele>
        <time>2019-07-20T10:05:33.115Z</time>
      </trkpt>
      <trkpt lat="44.081" lon="7.44109">
        <ele>2664</ele>
        <time>2019-07-20T10:05:45.115Z</time>
      </trkpt>
      <trkpt lat="44.08107" lon="7.44095">
        <ele>2661</ele>
        <time>2019-07-20T10:05:53.115Z</time>
      </trkpt>
      <trkpt lat="44.0809" lon="7.44089">
        <ele>2653.4050048</ele>
        <time>2019-07-20T10:06:05.115Z</time>
      </trkpt>
      <trkpt lat="44.08077" lon="7.44087">
        <ele>2650</ele>
        <time>2019-07-20T10:06:13.115Z</time>
      </trkpt>
      <trkpt lat="44.08065" lon="7.44084">
        <ele>2646.6435759004</ele>
        <time>2019-07-20T10:06:21.115Z</time>
      </trkpt>
      <trkpt lat="44.08061" lon="7.44067">
        <ele>2644</ele>
        <time>2019-07-20T10:06:29.115Z</time>
      </trkpt>
      <trkpt lat="44.08076" lon="7.44056">
        <ele>2640</ele>
        <time>2019-07-20T10:06:37.115Z</time>
      </trkpt>
      <trkpt lat="44.08064" lon="7.44043">
        <ele>2633</ele>
        <time>2019-07-20T10:06:49.115Z</time>
      </trkpt>
      <trkpt lat="44.0807" lon="7.44033">
        <ele>2629</ele>
        <time>2019-07-20T10:06:57.115Z</time>
      </trkpt>
      <trkpt lat="44.08072" lon="7.44019">
        <ele>2623</ele>
        <time>2019-07-20T10:07:13.115Z</time>
      </trkpt>
      <trkpt lat="44.08079" lon="7.44009">
        <ele>2618</ele>
        <time>2019-07-20T10:07:30.115Z</time>
      </trkpt>
      <trkpt lat="44.0808" lon="7.4399">
        <ele>2603</ele>
        <time>2019-07-20T10:08:12.115Z</time>
      </trkpt>
      <trkpt lat="44.08093" lon="7.43993">
        <ele>2597</ele>
        <time>2019-07-20T10:08:24.115Z</time>
      </trkpt>
      <trkpt lat="44.08096" lon="7.4398">
        <ele>2591</ele>
        <time>2019-07-20T10:08:45.115Z</time>
      </trkpt>
      <trkpt lat="44.08096" lon="7.43964">
        <ele>2584.0833385621</ele>
        <time>2019-07-20T10:09:01.115Z</time>
      </trkpt>
      <trkpt lat="44.08089" lon="7.43947">
        <ele>2580</ele>
        <time>2019-07-20T10:09:15.115Z</time>
      </trkpt>
      <trkpt lat="44.08084" lon="7.43931">
        <ele>2574</ele>
        <time>2019-07-20T10:09:22.115Z</time>
      </trkpt>
      <trkpt lat="44.08079" lon="7.43917">
        <ele>2569.4050048</ele>
        <time>2019-07-20T10:09:30.115Z</time>
      </trkpt>
      <trkpt lat="44.08071" lon="7.43909">
        <ele>2565</ele>
        <time>2019-07-20T10:09:50.115Z</time>
      </trkpt>
      <trkpt lat="44.0807" lon="7.43894">
        <ele>2562</ele>
        <time>2019-07-20T10:09:58.115Z</time>
      </trkpt>
      <trkpt lat="44.08071" lon="7.43884">
        <ele>2559</ele>
        <time>2019-07-20T10:10:14.115Z</time>
      </trkpt>
      <trkpt lat="44.08081" lon="7.43892">
        <ele>2558</ele>
        <time>2019-07-20T10:11:06.115Z</time>
      </trkpt>
      <trkpt lat="44.08095" lon="7.43894">
        <ele>2553</ele>
        <time>2019-07-20T10:11:18.115Z</time>
      </trkpt>
      <trkpt lat="44.0811" lon="7.43894">
        <ele>2549.8181888705</ele>
        <time>2019-07-20T10:11:26.115Z</time>
      </trkpt>
      <trkpt lat="44.08125" lon="7.43895">
        <ele>2544</ele>
        <time>2019-07-20T10:11:34.115Z</time>
      </trkpt>
      <trkpt lat="44.08138" lon="7.43895">
        <ele>2540.4050048</ele>
        <time>2019-07-20T10:11:42.115Z</time>
      </trkpt>
      <trkpt lat="44.08152" lon="7.43897">
        <ele>2533.8100096</ele>
        <time>2019-07-20T10:11:54.115Z</time>
      </trkpt>
      <trkpt lat="44.08157" lon="7.43881">
        <ele>2525.4108939751</ele>
        <time>2019-07-20T10:12:10.115Z</time>
      </trkpt>
      <trkpt lat="44.08156" lon="7.43864">
        <ele>2523</ele>
        <time>2019-07-20T10:12:19.115Z</time>
      </trkpt>
      <trkpt lat="44.08152" lon="7.43844">
        <ele>2520</ele>
        <time>2019-07-20T10:12:26.115Z</time>
      </trkpt>
      <trkpt lat="44.08149" lon="7.43829">
        <ele>2516</ele>
        <time>2019-07-20T10:12:34.115Z</time>
      </trkpt>
      <trkpt lat="44.08166" lon="7.43833">
        <ele>2512.4011308971</ele>
        <time>2019-07-20T10:12:42.115Z</time>
      </trkpt>
      <trkpt lat="44.08177" lon="7.43834">
        <ele>2506.4687542857</ele>
        <time>2019-07-20T10:12:50.115Z</time>
      </trkpt>
      <trkpt lat="44.0819" lon="7.43839">
        <ele>2504.3623937245</ele>
        <time>2019-07-20T10:12:58.115Z</time>
      </trkpt>
      <trkpt lat="44.08204" lon="7.43846">
        <ele>2498</ele>
        <time>2019-07-20T10:13:06.115Z</time>
      </trkpt>
      <trkpt lat="44.08209" lon="7.43834">
        <ele>2492</ele>
        <time>2019-07-20T10:13:18.115Z</time>
      </trkpt>
      <trkpt lat="44.08207" lon="7.43813">
        <ele>2490</ele>
        <time>2019-07-20T10:13:26.115Z</time>
      </trkpt>
      <trkpt lat="44.0821" lon="7.43798">
        <ele>2484.9181968396</ele>
        <time>2019-07-20T10:13:34.115Z</time>
      </trkpt>
      <trkpt lat="44.08204" lon="7.43778">
        <ele>2480.4263194061</ele>
        <time>2019-07-20T10:13:42.115Z</time>
      </trkpt>
      <trkpt lat="44.08222" lon="7.43789">
        <ele>2478.0111218569</ele>
        <time>2019-07-20T10:13:50.115Z</time>
      </trkpt>
      <trkpt lat="44.08239" lon="7.43818">
        <ele>2473.4590984198</ele>
        <time>2019-07-20T10:14:02.115Z</time>
      </trkpt>
      <trkpt lat="44.0825" lon="7.43825">
        <ele>2470.4550016</ele>
        <time>2019-07-20T10:14:10.115Z</time>
      </trkpt>
      <trkpt lat="44.08272" lon="7.43827">
        <ele>2467</ele>
        <time>2019-07-20T10:14:22.115Z</time>
      </trkpt>
      <trkpt lat="44.08286" lon="7.43824">
        <ele>2464</ele>
        <time>2019-07-20T10:14:30.115Z</time>
      </trkpt>
      <trkpt lat="44.08294" lon="7.4382">
        <ele>2460</ele>
        <time>2019-07-20T10:14:40.115Z</time>
      </trkpt>
      <trkpt lat="44.083" lon="7.43818">
        <ele>2455.84376</ele>
        <time>2019-07-20T10:14:45.115Z</time>
      </trkpt>
      <trkpt lat="44.08306" lon="7.43819">
        <ele>2453</ele>
        <time>2019-07-20T10:14:57.115Z</time>
      </trkpt>
      <trkpt lat="44.08319" lon="7.43815">
        <ele>2449</ele>
        <time>2019-07-20T10:15:06.115Z</time>
      </trkpt>
      <trkpt lat="44.08326" lon="7.43817">
        <ele>2447</ele>
        <time>2019-07-20T10:15:11.115Z</time>
      </trkpt>
      <trkpt lat="44.08335" lon="7.43821">
        <ele>2444</ele>
        <time>2019-07-20T10:15:20.115Z</time>
      </trkpt>
      <trkpt lat="44.08342" lon="7.43822">
        <ele>2440</ele>
        <time>2019-07-20T10:15:58.115Z</time>
      </trkpt>
      <trkpt lat="44.08344" lon="7.43802">
        <ele>2438</ele>
        <time>2019-07-20T10:16:10.115Z</time>
      </trkpt>
      <trkpt lat="44.0836" lon="7.43789">
        <ele>2435</ele>
        <time>2019-07-20T10:16:23.115Z</time>
      </trkpt>
      <trkpt lat="44.08368" lon="7.43773">
        <ele>2436</ele>
        <time>2019-07-20T10:16:31.115Z</time>
      </trkpt>
      <trkpt lat="44.08379" lon="7.43758">
        <ele>2436</ele>
        <time>2019-07-20T10:16:39.115Z</time>
      </trkpt>
      <trkpt lat="44.08391" lon="7.43753">
        <ele>2436</ele>
        <time>2019-07-20T10:16:47.115Z</time>
      </trkpt>
      <trkpt lat="44.08401" lon="7.43749">
        <ele>2436</ele>
        <time>2019-07-20T10:16:55.115Z</time>
      </trkpt>
      <trkpt lat="44.08405" lon="7.43735">
        <ele>2432.4050048</ele>
        <time>2019-07-20T10:17:07.115Z</time>
      </trkpt>
      <trkpt lat="44.08417" lon="7.43743">
        <ele>2428</ele>
        <time>2019-07-20T10:17:20.115Z</time>
      </trkpt>
      <trkpt lat="44.08427" lon="7.43749">
        <ele>2424.9375085714</ele>
        <time>2019-07-20T10:17:28.115Z</time>
      </trkpt>
      <trkpt lat="44.08436" lon="7.43757">
        <ele>2423</ele>
        <time>2019-07-20T10:17:36.115Z</time>
      </trkpt>
      <trkpt lat="44.08448" lon="7.43764">
        <ele>2419</ele>
        <time>2019-07-20T10:17:48.115Z</time>
      </trkpt>
      <trkpt lat="44.08454" lon="7.43776">
        <ele>2419</ele>
        <time>2019-07-20T10:18:00.115Z</time>
      </trkpt>
      <trkpt lat="44.08461" lon="7.43796">
        <ele>2416</ele>
        <time>2019-07-20T10:18:08.115Z</time>
      </trkpt>
      <trkpt lat="44.08469" lon="7.4382">
        <ele>2414.5227317686</ele>
        <time>2019-07-20T10:18:16.115Z</time>
      </trkpt>
      <trkpt lat="44.08476" lon="7.43839">
        <ele>2414</ele>
        <time>2019-07-20T10:18:24.115Z</time>
      </trkpt>
      <trkpt lat="44.08481" lon="7.43855">
        <ele>2413</ele>
        <time>2019-07-20T10:18:34.115Z</time>
      </trkpt>
      <trkpt lat="44.0849" lon="7.4387">
        <ele>2412</ele>
        <time>2019-07-20T10:18:43.115Z</time>
      </trkpt>
      <trkpt lat="44.08505" lon="7.43876">
        <ele>2411</ele>
        <time>2019-07-20T10:18:52.115Z</time>
      </trkpt>
      <trkpt lat="44.08517" lon="7.43872">
        <ele>2411</ele>
        <time>2019-07-20T10:18:57.115Z</time>
      </trkpt>
      <trkpt lat="44.08532" lon="7.43879">
        <ele>2406</ele>
        <time>2019-07-20T10:19:06.115Z</time>
      </trkpt>
      <trkpt lat="44.08546" lon="7.4389">
        <ele>2403</ele>
        <time>2019-07-20T10:19:15.115Z</time>
      </trkpt>
      <trkpt lat="44.08561" lon="7.4391">
        <ele>2401</ele>
        <time>2019-07-20T10:19:24.115Z</time>
      </trkpt>
      <trkpt lat="44.08578" lon="7.43919">
        <ele>2399</ele>
        <time>2019-07-20T10:19:36.115Z</time>
      </trkpt>
      <trkpt lat="44.08589" lon="7.43918">
        <ele>2398</ele>
        <time>2019-07-20T10:19:41.115Z</time>
      </trkpt>
      <trkpt lat="44.08604" lon="7.43913">
        <ele>2393</ele>
        <time>2019-07-20T10:19:49.115Z</time>
      </trkpt>
      <trkpt lat="44.08621" lon="7.43919">
        <ele>2392</ele>
        <time>2019-07-20T10:19:57.115Z</time>
      </trkpt>
      <trkpt lat="44.0863" lon="7.43924">
        <ele>2392</ele>
        <time>2019-07-20T10:20:06.115Z</time>
      </trkpt>
      <trkpt lat="44.08645" lon="7.43923">
        <ele>2390</ele>
        <time>2019-07-20T10:20:20.115Z</time>
      </trkpt>
      <trkpt lat="44.08663" lon="7.43916">
        <ele>2385</ele>
        <time>2019-07-20T10:20:29.115Z</time>
      </trkpt>
      <trkpt lat="44.08681" lon="7.43915">
        <ele>2384</ele>
        <time>2019-07-20T10:20:38.115Z</time>
      </trkpt>
      <trkpt lat="44.08699" lon="7.43919">
        <ele>2383</ele>
        <time>2019-07-20T10:20:47.115Z</time>
      </trkpt>
      <trkpt lat="44.08715" lon="7.4393">
        <ele>2381.5285806585</ele>
        <time>2019-07-20T10:20:56.115Z</time>
      </trkpt>
      <trkpt lat="44.08729" lon="7.43935">
        <ele>2377</ele>
        <time>2019-07-20T10:21:05.115Z</time>
      </trkpt>
      <trkpt lat="44.08744" lon="7.43946">
        <ele>2375</ele>
        <time>2019-07-20T10:21:13.115Z</time>
      </trkpt>
      <trkpt lat="44.08758" lon="7.43953">
        <ele>2374</ele>
        <time>2019-07-20T10:21:21.115Z</time>
      </trkpt>
      <trkpt lat="44.08776" lon="7.4396">
        <ele>2373</ele>
        <time>2019-07-20T10:21:30.115Z</time>
      </trkpt>
      <trkpt lat="44.08797" lon="7.43963">
        <ele>2373</ele>
        <time>2019-07-20T10:21:39.115Z</time>
      </trkpt>
      <trkpt lat="44.08809" lon="7.43968">
        <ele>2373</ele>
        <time>2019-07-20T10:21:48.115Z</time>
      </trkpt>
      <trkpt lat="44.08827" lon="7.43979">
        <ele>2370</ele>
        <time>2019-07-20T10:21:56.115Z</time>
      </trkpt>
      <trkpt lat="44.08843" lon="7.43991">
        <ele>2369</ele>
        <time>2019-07-20T10:22:05.115Z</time>
      </trkpt>
      <trkpt lat="44.08858" lon="7.43996">
        <ele>2370</ele>
        <time>2019-07-20T10:22:13.115Z</time>
      </trkpt>
      <trkpt lat="44.08871" lon="7.43988">
        <ele>2370</ele>
        <time>2019-07-20T10:22:21.115Z</time>
      </trkpt>
      <trkpt lat="44.08885" lon="7.43987">
        <ele>2370</ele>
        <time>2019-07-20T10:22:29.115Z</time>
      </trkpt>
      <trkpt lat="44.08895" lon="7.43986">
        <ele>2370</ele>
        <time>2019-07-20T10:22:41.115Z</time>
      </trkpt>
      <trkpt lat="44.08908" lon="7.43982">
        <ele>2373</ele>
        <time>2019-07-20T10:22:54.115Z</time>
      </trkpt>
      <trkpt lat="44.08919" lon="7.43984">
        <ele>2373</ele>
        <time>2019-07-20T10:23:03.115Z</time>
      </trkpt>
      <trkpt lat="44.08933" lon="7.43983">
        <ele>2373</ele>
        <time>2019-07-20T10:23:15.115Z</time>
      </trkpt>
      <trkpt lat="44.08943" lon="7.43992">
        <ele>2374</ele>
        <time>2019-07-20T10:23:24.115Z</time>
      </trkpt>
      <trkpt lat="44.08953" lon="7.44001">
        <ele>2374</ele>
        <time>2019-07-20T10:23:33.115Z</time>
      </trkpt>
      <trkpt lat="44.08964" lon="7.43996">
        <ele>2374</ele>
        <time>2019-07-20T10:23:41.115Z</time>
      </trkpt>
      <trkpt lat="44.08973" lon="7.43988">
        <ele>2374</ele>
        <time>2019-07-20T10:23:49.115Z</time>
      </trkpt>
      <trkpt lat="44.08984" lon="7.43982">
        <ele>2373</ele>
        <time>2019-07-20T10:23:57.115Z</time>
      </trkpt>
      <trkpt lat="44.08994" lon="7.43983">
        <ele>2373</ele>
        <time>2019-07-20T10:24:05.115Z</time>
      </trkpt>
      <trkpt lat="44.09003" lon="7.43988">
        <ele>2375</ele>
        <time>2019-07-20T10:24:13.115Z</time>
      </trkpt>
      <trkpt lat="44.09008" lon="7.44001">
        <ele>2375.4050048</ele>
        <time>2019-07-20T10:24:21.115Z</time>
      </trkpt>
      <trkpt lat="44.09011" lon="7.44017">
        <ele>2375</ele>
        <time>2019-07-20T10:24:29.115Z</time>
      </trkpt>
      <trkpt lat="44.09013" lon="7.43994">
        <ele>2372.2150144</ele>
        <time>2019-07-20T10:24:41.115Z</time>
      </trkpt>
      <trkpt lat="44.09023" lon="7.43985">
        <ele>2367</ele>
        <time>2019-07-20T10:24:57.115Z</time>
      </trkpt>
      <trkpt lat="44.09036" lon="7.43991">
        <ele>2365</ele>
        <time>2019-07-20T10:25:07.115Z</time>
      </trkpt>
      <trkpt lat="44.09052" lon="7.44006">
        <ele>2362</ele>
        <time>2019-07-20T10:25:16.115Z</time>
      </trkpt>
      <trkpt lat="44.09061" lon="7.4402">
        <ele>2362</ele>
        <time>2019-07-20T10:25:28.115Z</time>
      </trkpt>
      <trkpt lat="44.09069" lon="7.44032">
        <ele>2363</ele>
        <time>2019-07-20T10:25:45.115Z</time>
      </trkpt>
      <trkpt lat="44.09085" lon="7.44045">
        <ele>2362</ele>
        <time>2019-07-20T10:25:54.115Z</time>
      </trkpt>
      <trkpt lat="44.09101" lon="7.44051">
        <ele>2362</ele>
        <time>2019-07-20T10:26:02.115Z</time>
      </trkpt>
      <trkpt lat="44.09114" lon="7.44063">
        <ele>2362</ele>
        <time>2019-07-20T10:26:10.115Z</time>
      </trkpt>
      <trkpt lat="44.09126" lon="7.44074">
        <ele>2362</ele>
        <time>2019-07-20T10:26:18.115Z</time>
      </trkpt>
      <trkpt lat="44.09132" lon="7.44087">
        <ele>2364</ele>
        <time>2019-07-20T10:26:34.115Z</time>
      </trkpt>
      <trkpt lat="44.09145" lon="7.44082">
        <ele>2363</ele>
        <time>2019-07-20T10:26:46.115Z</time>
      </trkpt>
      <trkpt lat="44.09161" lon="7.44084">
        <ele>2361</ele>
        <time>2019-07-20T10:26:54.115Z</time>
      </trkpt>
      <trkpt lat="44.0918" lon="7.4409">
        <ele>2362</ele>
        <time>2019-07-20T10:27:03.115Z</time>
      </trkpt>
      <trkpt lat="44.09197" lon="7.44099">
        <ele>2362</ele>
        <time>2019-07-20T10:27:12.115Z</time>
      </trkpt>
      <trkpt lat="44.09212" lon="7.44099">
        <ele>2362</ele>
        <time>2019-07-20T10:27:21.115Z</time>
      </trkpt>
      <trkpt lat="44.09228" lon="7.44101">
        <ele>2360</ele>
        <time>2019-07-20T10:27:30.115Z</time>
      </trkpt>
      <trkpt lat="44.09244" lon="7.44104">
        <ele>2361</ele>
        <time>2019-07-20T10:27:39.115Z</time>
      </trkpt>
      <trkpt lat="44.0926" lon="7.44111">
        <ele>2362</ele>
        <time>2019-07-20T10:27:48.115Z</time>
      </trkpt>
      <trkpt lat="44.09273" lon="7.44124">
        <ele>2363</ele>
        <time>2019-07-20T10:27:57.115Z</time>
      </trkpt>
      <trkpt lat="44.09281" lon="7.44135">
        <ele>2363</ele>
        <time>2019-07-20T10:28:06.115Z</time>
      </trkpt>
      <trkpt lat="44.09291" lon="7.44139">
        <ele>2364</ele>
        <time>2019-07-20T10:28:15.115Z</time>
      </trkpt>
      <trkpt lat="44.09303" lon="7.44145">
        <ele>2365</ele>
        <time>2019-07-20T10:28:27.115Z</time>
      </trkpt>
      <trkpt lat="44.09311" lon="7.44162">
        <ele>2367</ele>
        <time>2019-07-20T10:28:40.115Z</time>
      </trkpt>
      <trkpt lat="44.09321" lon="7.4417">
        <ele>2368</ele>
        <time>2019-07-20T10:28:49.115Z</time>
      </trkpt>
      <trkpt lat="44.09334" lon="7.44173">
        <ele>2371</ele>
        <time>2019-07-20T10:29:05.115Z</time>
      </trkpt>
      <trkpt lat="44.09346" lon="7.44179">
        <ele>2374</ele>
        <time>2019-07-20T10:29:17.115Z</time>
      </trkpt>
      <trkpt lat="44.09361" lon="7.44178">
        <ele>2373</ele>
        <time>2019-07-20T10:29:29.115Z</time>
      </trkpt>
      <trkpt lat="44.09375" lon="7.44175">
        <ele>2374</ele>
        <time>2019-07-20T10:29:37.115Z</time>
      </trkpt>
      <trkpt lat="44.09383" lon="7.44182">
        <ele>2374</ele>
        <time>2019-07-20T10:29:45.115Z</time>
      </trkpt>
      <trkpt lat="44.09395" lon="7.44184">
        <ele>2377</ele>
        <time>2019-07-20T10:29:58.115Z</time>
      </trkpt>
      <trkpt lat="44.09405" lon="7.44185">
        <ele>2376</ele>
        <time>2019-07-20T10:30:06.115Z</time>
      </trkpt>
      <trkpt lat="44.09419" lon="7.4418">
        <ele>2379</ele>
        <time>2019-07-20T10:30:19.115Z</time>
      </trkpt>
      <trkpt lat="44.09427" lon="7.44172">
        <ele>2379</ele>
        <time>2019-07-20T10:30:27.115Z</time>
      </trkpt>
      <trkpt lat="44.09441" lon="7.44165">
        <ele>2378.5095268862</ele>
        <time>2019-07-20T10:30:39.115Z</time>
      </trkpt>
      <trkpt lat="44.09454" lon="7.44164">
        <ele>2372</ele>
        <time>2019-07-20T10:30:48.115Z</time>
      </trkpt>
      <trkpt lat="44.0947" lon="7.44161">
        <ele>2373</ele>
        <time>2019-07-20T10:31:01.115Z</time>
      </trkpt>
      <trkpt lat="44.0948" lon="7.44152">
        <ele>2372</ele>
        <time>2019-07-20T10:31:10.115Z</time>
      </trkpt>
      <trkpt lat="44.09497" lon="7.44146">
        <ele>2371</ele>
        <time>2019-07-20T10:31:19.115Z</time>
      </trkpt>
      <trkpt lat="44.09513" lon="7.44134">
        <ele>2371</ele>
        <time>2019-07-20T10:31:28.115Z</time>
      </trkpt>
      <trkpt lat="44.09531" lon="7.44127">
        <ele>2370</ele>
        <time>2019-07-20T10:31:37.115Z</time>
      </trkpt>
      <trkpt lat="44.09545" lon="7.44115">
        <ele>2370</ele>
        <time>2019-07-20T10:31:46.115Z</time>
      </trkpt>
      <trkpt lat="44.09562" lon="7.44117">
        <ele>2369</ele>
        <time>2019-07-20T10:31:55.115Z</time>
      </trkpt>
      <trkpt lat="44.09577" lon="7.44113">
        <ele>2366</ele>
        <time>2019-07-20T10:32:04.115Z</time>
      </trkpt>
      <trkpt lat="44.0959" lon="7.44101">
        <ele>2364.8617064735</ele>
        <time>2019-07-20T10:32:13.115Z</time>
      </trkpt>
      <trkpt lat="44.09605" lon="7.44092">
        <ele>2362</ele>
        <time>2019-07-20T10:32:22.115Z</time>
      </trkpt>
      <trkpt lat="44.09621" lon="7.44086">
        <ele>2360</ele>
        <time>2019-07-20T10:32:31.115Z</time>
      </trkpt>
      <trkpt lat="44.09626" lon="7.44071">
        <ele>2361</ele>
        <time>2019-07-20T10:32:44.115Z</time>
      </trkpt>
      <trkpt lat="44.09632" lon="7.44055">
        <ele>2362</ele>
        <time>2019-07-20T10:32:56.115Z</time>
      </trkpt>
      <trkpt lat="44.0964" lon="7.44046">
        <ele>2363</ele>
        <time>2019-07-20T10:33:04.115Z</time>
      </trkpt>
      <trkpt lat="44.0965" lon="7.4404">
        <ele>2363</ele>
        <time>2019-07-20T10:33:12.115Z</time>
      </trkpt>
      <trkpt lat="44.0966" lon="7.44038">
        <ele>2364</ele>
        <time>2019-07-20T10:33:24.115Z</time>
      </trkpt>
      <trkpt lat="44.09669" lon="7.44026">
        <ele>2366</ele>
        <time>2019-07-20T10:33:36.115Z</time>
      </trkpt>
      <trkpt lat="44.0968" lon="7.44017">
        <ele>2367</ele>
        <time>2019-07-20T10:33:48.115Z</time>
      </trkpt>
      <trkpt lat="44.09689" lon="7.44006">
        <ele>2364.8446731039</ele>
        <time>2019-07-20T10:34:01.115Z</time>
      </trkpt>
      <trkpt lat="44.0969" lon="7.43988">
        <ele>2364</ele>
        <time>2019-07-20T10:34:09.115Z</time>
      </trkpt>
      <trkpt lat="44.09699" lon="7.43971">
        <ele>2359</ele>
        <time>2019-07-20T10:34:17.115Z</time>
      </trkpt>
      <trkpt lat="44.0971" lon="7.43963">
        <ele>2358</ele>
        <time>2019-07-20T10:34:25.115Z</time>
      </trkpt>
      <trkpt lat="44.09722" lon="7.43954">
        <ele>2356</ele>
        <time>2019-07-20T10:34:35.115Z</time>
      </trkpt>
      <trkpt lat="44.09731" lon="7.43947">
        <ele>2355</ele>
        <time>2019-07-20T10:34:40.115Z</time>
      </trkpt>
      <trkpt lat="44.09738" lon="7.43941">
        <ele>2352</ele>
        <time>2019-07-20T10:34:48.115Z</time>
      </trkpt>
      <trkpt lat="44.09722" lon="7.43939">
        <ele>2349.9469081682</ele>
        <time>2019-07-20T10:35:12.115Z</time>
      </trkpt>
      <trkpt lat="44.09713" lon="7.43929">
        <ele>2344</ele>
        <time>2019-07-20T10:35:28.115Z</time>
      </trkpt>
      <trkpt lat="44.09729" lon="7.43917">
        <ele>2342</ele>
        <time>2019-07-20T10:35:41.115Z</time>
      </trkpt>
      <trkpt lat="44.09739" lon="7.43911">
        <ele>2338</ele>
        <time>2019-07-20T10:35:50.115Z</time>
      </trkpt>
      <trkpt lat="44.0975" lon="7.43908">
        <ele>2336</ele>
        <time>2019-07-20T10:36:00.115Z</time>
      </trkpt>
      <trkpt lat="44.09761" lon="7.4391">
        <ele>2334.577663448</ele>
        <time>2019-07-20T10:36:21.115Z</time>
      </trkpt>
      <trkpt lat="44.09775" lon="7.43923">
        <ele>2335</ele>
        <time>2019-07-20T10:36:29.115Z</time>
      </trkpt>
      <trkpt lat="44.09789" lon="7.43927">
        <ele>2335</ele>
        <time>2019-07-20T10:36:37.115Z</time>
      </trkpt>
      <trkpt lat="44.09805" lon="7.43934">
        <ele>2332.4175320991</ele>
        <time>2019-07-20T10:36:46.115Z</time>
      </trkpt>
      <trkpt lat="44.09821" lon="7.43941">
        <ele>2330</ele>
        <time>2019-07-20T10:36:55.115Z</time>
      </trkpt>
      <trkpt lat="44.09833" lon="7.43943">
        <ele>2326</ele>
        <time>2019-07-20T10:37:04.115Z</time>
      </trkpt>
      <trkpt lat="44.09844" lon="7.43949">
        <ele>2323</ele>
        <time>2019-07-20T10:37:13.115Z</time>
      </trkpt>
      <trkpt lat="44.09859" lon="7.43954">
        <ele>2320.8181888705</ele>
        <time>2019-07-20T10:37:21.115Z</time>
      </trkpt>
      <trkpt lat="44.09872" lon="7.43962">
        <ele>2319</ele>
        <time>2019-07-20T10:37:29.115Z</time>
      </trkpt>
      <trkpt lat="44.09892" lon="7.43973">
        <ele>2318</ele>
        <time>2019-07-20T10:37:37.115Z</time>
      </trkpt>
      <trkpt lat="44.09901" lon="7.4398">
        <ele>2318</ele>
        <time>2019-07-20T10:37:45.115Z</time>
      </trkpt>
      <trkpt lat="44.09905" lon="7.43997">
        <ele>2321.1899904</ele>
        <time>2019-07-20T10:38:01.115Z</time>
      </trkpt>
      <trkpt lat="44.09913" lon="7.44005">
        <ele>2322</ele>
        <time>2019-07-20T10:38:09.115Z</time>
      </trkpt>
      <trkpt lat="44.09924" lon="7.44017">
        <ele>2323</ele>
        <time>2019-07-20T10:38:17.115Z</time>
      </trkpt>
      <trkpt lat="44.09935" lon="7.44029">
        <ele>2323</ele>
        <time>2019-07-20T10:38:26.115Z</time>
      </trkpt>
      <trkpt lat="44.09933" lon="7.44045">
        <ele>2321</ele>
        <time>2019-07-20T10:39:00.115Z</time>
      </trkpt>
      <trkpt lat="44.09926" lon="7.44069">
        <ele>2320</ele>
        <time>2019-07-20T10:39:09.115Z</time>
      </trkpt>
      <trkpt lat="44.0992" lon="7.44088">
        <ele>2318</ele>
        <time>2019-07-20T10:39:17.115Z</time>
      </trkpt>
      <trkpt lat="44.09912" lon="7.44101">
        <ele>2315</ele>
        <time>2019-07-20T10:39:25.115Z</time>
      </trkpt>
      <trkpt lat="44.09911" lon="7.44119">
        <ele>2312.4500085334</ele>
        <time>2019-07-20T10:39:33.115Z</time>
      </trkpt>
      <trkpt lat="44.09914" lon="7.4414">
        <ele>2311</ele>
        <time>2019-07-20T10:39:41.115Z</time>
      </trkpt>
      <trkpt lat="44.09918" lon="7.44159">
        <ele>2309</ele>
        <time>2019-07-20T10:39:49.115Z</time>
      </trkpt>
      <trkpt lat="44.09923" lon="7.44175">
        <ele>2306.898157037</ele>
        <time>2019-07-20T10:39:57.115Z</time>
      </trkpt>
      <trkpt lat="44.09933" lon="7.44188">
        <ele>2305</ele>
        <time>2019-07-20T10:40:06.115Z</time>
      </trkpt>
      <trkpt lat="44.09944" lon="7.44207">
        <ele>2301</ele>
        <time>2019-07-20T10:40:14.115Z</time>
      </trkpt>
      <trkpt lat="44.09942" lon="7.44226">
        <ele>2299</ele>
        <time>2019-07-20T10:40:22.115Z</time>
      </trkpt>
      <trkpt lat="44.09948" lon="7.44239">
        <ele>2299</ele>
        <time>2019-07-20T10:40:27.115Z</time>
      </trkpt>
      <trkpt lat="44.09964" lon="7.44256">
        <ele>2298</ele>
        <time>2019-07-20T10:40:36.115Z</time>
      </trkpt>
      <trkpt lat="44.09976" lon="7.44269">
        <ele>2298</ele>
        <time>2019-07-20T10:40:45.115Z</time>
      </trkpt>
      <trkpt lat="44.09996" lon="7.44275">
        <ele>2298</ele>
        <time>2019-07-20T10:40:54.115Z</time>
      </trkpt>
      <trkpt lat="44.10014" lon="7.44287">
        <ele>2295</ele>
        <time>2019-07-20T10:41:03.115Z</time>
      </trkpt>
      <trkpt lat="44.10025" lon="7.44294">
        <ele>2295</ele>
        <time>2019-07-20T10:41:11.115Z</time>
      </trkpt>
      <trkpt lat="44.10032" lon="7.44303">
        <ele>2295</ele>
        <time>2019-07-20T10:41:19.115Z</time>
      </trkpt>
      <trkpt lat="44.10042" lon="7.4431">
        <ele>2297</ele>
        <time>2019-07-20T10:41:28.115Z</time>
      </trkpt>
      <trkpt lat="44.10054" lon="7.44308">
        <ele>2299</ele>
        <time>2019-07-20T10:41:40.115Z</time>
      </trkpt>
      <trkpt lat="44.10062" lon="7.4432">
        <ele>2300.5344789536</ele>
        <time>2019-07-20T10:41:52.115Z</time>
      </trkpt>
      <trkpt lat="44.10073" lon="7.44323">
        <ele>2301</ele>
        <time>2019-07-20T10:42:00.115Z</time>
      </trkpt>
      <trkpt lat="44.10086" lon="7.44333">
        <ele>2300</ele>
        <time>2019-07-20T10:42:09.115Z</time>
      </trkpt>
      <trkpt lat="44.10098" lon="7.44331">
        <ele>2300</ele>
        <time>2019-07-20T10:42:21.115Z</time>
      </trkpt>
      <trkpt lat="44.10109" lon="7.44328">
        <ele>2299</ele>
        <time>2019-07-20T10:42:29.115Z</time>
      </trkpt>
      <trkpt lat="44.10127" lon="7.44347">
        <ele>2293.4734540841</ele>
        <time>2019-07-20T10:42:41.115Z</time>
      </trkpt>
      <trkpt lat="44.10139" lon="7.44352">
        <ele>2293</ele>
        <time>2019-07-20T10:42:49.115Z</time>
      </trkpt>
      <trkpt lat="44.10157" lon="7.44353">
        <ele>2293</ele>
        <time>2019-07-20T10:42:57.115Z</time>
      </trkpt>
      <trkpt lat="44.10167" lon="7.44358">
        <ele>2292</ele>
        <time>2019-07-20T10:43:05.115Z</time>
      </trkpt>
      <trkpt lat="44.10177" lon="7.44369">
        <ele>2294</ele>
        <time>2019-07-20T10:43:17.115Z</time>
      </trkpt>
      <trkpt lat="44.10192" lon="7.44374">
        <ele>2297</ele>
        <time>2019-07-20T10:43:25.115Z</time>
      </trkpt>
      <trkpt lat="44.10208" lon="7.44373">
        <ele>2298</ele>
        <time>2019-07-20T10:43:33.115Z</time>
      </trkpt>
      <trkpt lat="44.10219" lon="7.44362">
        <ele>2298</ele>
        <time>2019-07-20T10:43:41.115Z</time>
      </trkpt>
      <trkpt lat="44.10229" lon="7.44357">
        <ele>2301</ele>
        <time>2019-07-20T10:43:53.115Z</time>
      </trkpt>
      <trkpt lat="44.10235" lon="7.44344">
        <ele>2304</ele>
        <time>2019-07-20T10:44:05.115Z</time>
      </trkpt>
      <trkpt lat="44.10245" lon="7.44338">
        <ele>2303</ele>
        <time>2019-07-20T10:44:13.115Z</time>
      </trkpt>
      <trkpt lat="44.10259" lon="7.44334">
        <ele>2303</ele>
        <time>2019-07-20T10:44:21.115Z</time>
      </trkpt>
      <trkpt lat="44.10276" lon="7.44324">
        <ele>2302</ele>
        <time>2019-07-20T10:44:30.115Z</time>
      </trkpt>
      <trkpt lat="44.10287" lon="7.44322">
        <ele>2302</ele>
        <time>2019-07-20T10:44:35.115Z</time>
      </trkpt>
      <trkpt lat="44.10299" lon="7.44319">
        <ele>2302</ele>
        <time>2019-07-20T10:44:43.115Z</time>
      </trkpt>
      <trkpt lat="44.1031" lon="7.44316">
        <ele>2301</ele>
        <time>2019-07-20T10:44:51.115Z</time>
      </trkpt>
      <trkpt lat="44.10319" lon="7.44304">
        <ele>2298</ele>
        <time>2019-07-20T10:44:59.115Z</time>
      </trkpt>
      <trkpt lat="44.10319" lon="7.44282">
        <ele>2297</ele>
        <time>2019-07-20T10:45:07.115Z</time>
      </trkpt>
      <trkpt lat="44.10319" lon="7.44259">
        <ele>2295</ele>
        <time>2019-07-20T10:45:16.115Z</time>
      </trkpt>
      <trkpt lat="44.10322" lon="7.44235">
        <ele>2291</ele>
        <time>2019-07-20T10:45:25.115Z</time>
      </trkpt>
      <trkpt lat="44.10328" lon="7.44214">
        <ele>2291</ele>
        <time>2019-07-20T10:45:34.115Z</time>
      </trkpt>
      <trkpt lat="44.10345" lon="7.44195">
        <ele>2292</ele>
        <time>2019-07-20T10:45:46.115Z</time>
      </trkpt>
      <trkpt lat="44.10358" lon="7.44194">
        <ele>2291</ele>
        <time>2019-07-20T10:45:54.115Z</time>
      </trkpt>
      <trkpt lat="44.10369" lon="7.4419">
        <ele>2291</ele>
        <time>2019-07-20T10:46:02.115Z</time>
      </trkpt>
      <trkpt lat="44.10381" lon="7.44195">
        <ele>2291</ele>
        <time>2019-07-20T10:46:10.115Z</time>
      </trkpt>
      <trkpt lat="44.10391" lon="7.44195">
        <ele>2291</ele>
        <time>2019-07-20T10:46:18.115Z</time>
      </trkpt>
      <trkpt lat="44.10401" lon="7.442">
        <ele>2290</ele>
        <time>2019-07-20T10:46:26.115Z</time>
      </trkpt>
      <trkpt lat="44.10411" lon="7.44214">
        <ele>2290</ele>
        <time>2019-07-20T10:46:35.115Z</time>
      </trkpt>
      <trkpt lat="44.10408" lon="7.44199">
        <ele>2288.9666775703</ele>
        <time>2019-07-20T10:46:52.115Z</time>
      </trkpt>
      <trkpt lat="44.10401" lon="7.44187">
        <ele>2285</ele>
        <time>2019-07-20T10:47:01.115Z</time>
      </trkpt>
      <trkpt lat="44.10398" lon="7.44174">
        <ele>2282</ele>
        <time>2019-07-20T10:47:14.115Z</time>
      </trkpt>
      <trkpt lat="44.10394" lon="7.44161">
        <ele>2280</ele>
        <time>2019-07-20T10:47:22.115Z</time>
      </trkpt>
      <trkpt lat="44.10387" lon="7.44151">
        <ele>2279</ele>
        <time>2019-07-20T10:47:30.115Z</time>
      </trkpt>
      <trkpt lat="44.10379" lon="7.44142">
        <ele>2280</ele>
        <time>2019-07-20T10:47:42.115Z</time>
      </trkpt>
      <trkpt lat="44.10373" lon="7.44123">
        <ele>2281</ele>
        <time>2019-07-20T10:47:54.115Z</time>
      </trkpt>
      <trkpt lat="44.10379" lon="7.44112">
        <ele>2281</ele>
        <time>2019-07-20T10:48:03.115Z</time>
      </trkpt>
      <trkpt lat="44.10389" lon="7.44115">
        <ele>2282</ele>
        <time>2019-07-20T10:48:15.115Z</time>
      </trkpt>
      <trkpt lat="44.10391" lon="7.44097">
        <ele>2282</ele>
        <time>2019-07-20T10:48:28.115Z</time>
      </trkpt>
      <trkpt lat="44.10397" lon="7.44088">
        <ele>2284</ele>
        <time>2019-07-20T10:48:36.115Z</time>
      </trkpt>
      <trkpt lat="44.10399" lon="7.44075">
        <ele>2284</ele>
        <time>2019-07-20T10:48:44.115Z</time>
      </trkpt>
      <trkpt lat="44.10398" lon="7.44061">
        <ele>2286</ele>
        <time>2019-07-20T10:48:53.115Z</time>
      </trkpt>
      <trkpt lat="44.104" lon="7.44046">
        <ele>2287.5736805939</ele>
        <time>2019-07-20T10:49:02.115Z</time>
      </trkpt>
      <trkpt lat="44.10404" lon="7.44031">
        <ele>2288</ele>
        <time>2019-07-20T10:49:11.115Z</time>
      </trkpt>
      <trkpt lat="44.10403" lon="7.44011">
        <ele>2287</ele>
        <time>2019-07-20T10:49:20.115Z</time>
      </trkpt>
      <trkpt lat="44.10403" lon="7.43998">
        <ele>2286</ele>
        <time>2019-07-20T10:49:28.115Z</time>
      </trkpt>
      <trkpt lat="44.10398" lon="7.43987">
        <ele>2286</ele>
        <time>2019-07-20T10:49:40.115Z</time>
      </trkpt>
      <trkpt lat="44.10393" lon="7.43974">
        <ele>2287.5219285442</ele>
        <time>2019-07-20T10:49:52.115Z</time>
      </trkpt>
      <trkpt lat="44.10388" lon="7.43953">
        <ele>2289</ele>
        <time>2019-07-20T10:50:05.115Z</time>
      </trkpt>
      <trkpt lat="44.10385" lon="7.43935">
        <ele>2290</ele>
        <time>2019-07-20T10:50:15.115Z</time>
      </trkpt>
      <trkpt lat="44.10386" lon="7.43926">
        <ele>2290</ele>
        <time>2019-07-20T10:50:20.115Z</time>
      </trkpt>
      <trkpt lat="44.10392" lon="7.43912">
        <ele>2290</ele>
        <time>2019-07-20T10:50:29.115Z</time>
      </trkpt>
      <trkpt lat="44.10397" lon="7.43903">
        <ele>2292</ele>
        <time>2019-07-20T10:50:37.115Z</time>
      </trkpt>
      <trkpt lat="44.10397" lon="7.43887">
        <ele>2292</ele>
        <time>2019-07-20T10:50:49.115Z</time>
      </trkpt>
      <trkpt lat="44.10399" lon="7.43875">
        <ele>2294.5891060249</ele>
        <time>2019-07-20T10:51:01.115Z</time>
      </trkpt>
      <trkpt lat="44.104" lon="7.43861">
        <ele>2298</ele>
        <time>2019-07-20T10:51:18.115Z</time>
      </trkpt>
      <trkpt lat="44.10407" lon="7.43853">
        <ele>2301</ele>
        <time>2019-07-20T10:51:34.115Z</time>
      </trkpt>
      <trkpt lat="44.10416" lon="7.43845">
        <ele>2306</ele>
        <time>2019-07-20T10:51:54.115Z</time>
      </trkpt>
      <trkpt lat="44.10427" lon="7.4384">
        <ele>2310</ele>
        <time>2019-07-20T10:52:14.115Z</time>
      </trkpt>
      <trkpt lat="44.10437" lon="7.43834">
        <ele>2315</ele>
        <time>2019-07-20T10:52:34.115Z</time>
      </trkpt>
      <trkpt lat="44.1044" lon="7.43825">
        <ele>2320</ele>
        <time>2019-07-20T10:53:10.115Z</time>
      </trkpt>
      <trkpt lat="44.10437" lon="7.43809">
        <ele>2322</ele>
        <time>2019-07-20T10:53:50.115Z</time>
      </trkpt>
      <trkpt lat="44.10434" lon="7.43797">
        <ele>2327</ele>
        <time>2019-07-20T10:54:02.115Z</time>
      </trkpt>
      <trkpt lat="44.10444" lon="7.43799">
        <ele>2332</ele>
        <time>2019-07-20T10:54:22.115Z</time>
      </trkpt>
      <trkpt lat="44.10455" lon="7.438">
        <ele>2334</ele>
        <time>2019-07-20T10:54:38.115Z</time>
      </trkpt>
      <trkpt lat="44.10457" lon="7.43786">
        <ele>2341</ele>
        <time>2019-07-20T10:55:02.115Z</time>
      </trkpt>
      <trkpt lat="44.1045" lon="7.43773">
        <ele>2344</ele>
        <time>2019-07-20T10:55:18.115Z</time>
      </trkpt>
      <trkpt lat="44.10453" lon="7.4376">
        <ele>2351.577663448</ele>
        <time>2019-07-20T10:55:46.115Z</time>
      </trkpt>
      <trkpt lat="44.10448" lon="7.43748">
        <ele>2358</ele>
        <time>2019-07-20T10:56:10.115Z</time>
      </trkpt>
      <trkpt lat="44.10459" lon="7.43743">
        <ele>2363</ele>
        <time>2019-07-20T10:56:39.115Z</time>
      </trkpt>
      <trkpt lat="44.10469" lon="7.4374">
        <ele>2367</ele>
        <time>2019-07-20T10:56:55.115Z</time>
      </trkpt>
      <trkpt lat="44.10479" lon="7.4373">
        <ele>2373</ele>
        <time>2019-07-20T10:57:24.115Z</time>
      </trkpt>
      <trkpt lat="44.10476" lon="7.43716">
        <ele>2380.1899904</ele>
        <time>2019-07-20T10:57:52.115Z</time>
      </trkpt>
      <trkpt lat="44.10473" lon="7.43704">
        <ele>2387</ele>
        <time>2019-07-20T10:58:28.115Z</time>
      </trkpt>
      <trkpt lat="44.10473" lon="7.43691">
        <ele>2394</ele>
        <time>2019-07-20T10:59:01.115Z</time>
      </trkpt>
      <trkpt lat="44.10463" lon="7.43686">
        <ele>2399</ele>
        <time>2019-07-20T10:59:22.115Z</time>
      </trkpt>
      <trkpt lat="44.10467" lon="7.43683">
        <ele>2402</ele>
        <time>2019-07-20T11:00:07.115Z</time>
      </trkpt>
      <trkpt lat="44.10468" lon="7.43669">
        <ele>2407</ele>
        <time>2019-07-20T11:00:44.115Z</time>
      </trkpt>
      <trkpt lat="44.10478" lon="7.43665">
        <ele>2411</ele>
        <time>2019-07-20T11:01:05.115Z</time>
      </trkpt>
      <trkpt lat="44.1049" lon="7.43659">
        <ele>2416</ele>
        <time>2019-07-20T11:01:29.115Z</time>
      </trkpt>
      <trkpt lat="44.105" lon="7.43657">
        <ele>2422</ele>
        <time>2019-07-20T11:01:53.115Z</time>
      </trkpt>
      <trkpt lat="44.10508" lon="7.43658">
        <ele>2425</ele>
        <time>2019-07-20T11:02:05.115Z</time>
      </trkpt>
      <trkpt lat="44.10522" lon="7.43657">
        <ele>2429</ele>
        <time>2019-07-20T11:02:29.115Z</time>
      </trkpt>
      <trkpt lat="44.10533" lon="7.4366">
        <ele>2431</ele>
        <time>2019-07-20T11:02:41.115Z</time>
      </trkpt>
      <trkpt lat="44.10542" lon="7.43657">
        <ele>2432</ele>
        <time>2019-07-20T11:02:49.115Z</time>
      </trkpt>
      <trkpt lat="44.10549" lon="7.43654">
        <ele>2432</ele>
        <time>2019-07-20T11:02:57.115Z</time>
      </trkpt>
      <trkpt lat="44.10561" lon="7.43654">
        <ele>2437</ele>
        <time>2019-07-20T11:03:17.115Z</time>
      </trkpt>
      <trkpt lat="44.10569" lon="7.43653">
        <ele>2439</ele>
        <time>2019-07-20T11:03:29.115Z</time>
      </trkpt>
      <trkpt lat="44.10573" lon="7.43646">
        <ele>2441</ele>
        <time>2019-07-20T11:03:37.115Z</time>
      </trkpt>
      <trkpt lat="44.10579" lon="7.43639">
        <ele>2441</ele>
        <time>2019-07-20T11:03:45.115Z</time>
      </trkpt>
      <trkpt lat="44.10583" lon="7.43632">
        <ele>2442</ele>
        <time>2019-07-20T11:03:53.115Z</time>
      </trkpt>
      <trkpt lat="44.10593" lon="7.43626">
        <ele>2445</ele>
        <time>2019-07-20T11:04:09.115Z</time>
      </trkpt>
      <trkpt lat="44.10604" lon="7.43619">
        <ele>2445</ele>
        <time>2019-07-20T11:04:25.115Z</time>
      </trkpt>
      <trkpt lat="44.10614" lon="7.43615">
        <ele>2448.4729698563</ele>
        <time>2019-07-20T11:04:41.115Z</time>
      </trkpt>
      <trkpt lat="44.10624" lon="7.43615">
        <ele>2451</ele>
        <time>2019-07-20T11:04:54.115Z</time>
      </trkpt>
      <trkpt lat="44.10633" lon="7.43614">
        <ele>2452</ele>
        <time>2019-07-20T11:05:07.115Z</time>
      </trkpt>
      <trkpt lat="44.10642" lon="7.4361">
        <ele>2456</ele>
        <time>2019-07-20T11:05:35.115Z</time>
      </trkpt>
      <trkpt lat="44.10651" lon="7.4361">
        <ele>2456</ele>
        <time>2019-07-20T11:05:47.115Z</time>
      </trkpt>
      <trkpt lat="44.10658" lon="7.43607">
        <ele>2457</ele>
        <time>2019-07-20T11:05:55.115Z</time>
      </trkpt>
      <trkpt lat="44.10667" lon="7.43603">
        <ele>2457</ele>
        <time>2019-07-20T11:06:07.115Z</time>
      </trkpt>
      <trkpt lat="44.10675" lon="7.43597">
        <ele>2460</ele>
        <time>2019-07-20T11:06:19.115Z</time>
      </trkpt>
      <trkpt lat="44.10686" lon="7.43597">
        <ele>2462</ele>
        <time>2019-07-20T11:06:31.115Z</time>
      </trkpt>
      <trkpt lat="44.10693" lon="7.43587">
        <ele>2464</ele>
        <time>2019-07-20T11:06:43.115Z</time>
      </trkpt>
      <trkpt lat="44.10706" lon="7.43583">
        <ele>2468</ele>
        <time>2019-07-20T11:06:59.115Z</time>
      </trkpt>
      <trkpt lat="44.10712" lon="7.43581">
        <ele>2466</ele>
        <time>2019-07-20T11:07:07.115Z</time>
      </trkpt>
      <trkpt lat="44.1072" lon="7.43573">
        <ele>2472</ele>
        <time>2019-07-20T11:07:31.115Z</time>
      </trkpt>
      <trkpt lat="44.10726" lon="7.43565">
        <ele>2476</ele>
        <time>2019-07-20T11:07:48.115Z</time>
      </trkpt>
      <trkpt lat="44.10732" lon="7.43549">
        <ele>2479</ele>
        <time>2019-07-20T11:08:12.115Z</time>
      </trkpt>
      <trkpt lat="44.10738" lon="7.43546">
        <ele>2482</ele>
        <time>2019-07-20T11:08:24.115Z</time>
      </trkpt>
      <trkpt lat="44.10745" lon="7.43535">
        <ele>2489</ele>
        <time>2019-07-20T11:08:53.115Z</time>
      </trkpt>
      <trkpt lat="44.10755" lon="7.43533">
        <ele>2489</ele>
        <time>2019-07-20T11:09:09.115Z</time>
      </trkpt>
      <trkpt lat="44.10767" lon="7.43532">
        <ele>2489</ele>
        <time>2019-07-20T11:09:22.115Z</time>
      </trkpt>
      <trkpt lat="44.10778" lon="7.43528">
        <ele>2489</ele>
        <time>2019-07-20T11:09:38.115Z</time>
      </trkpt>
      <trkpt lat="44.10787" lon="7.43517">
        <ele>2491</ele>
        <time>2019-07-20T11:09:58.115Z</time>
      </trkpt>
      <trkpt lat="44.10782" lon="7.43508">
        <ele>2496</ele>
        <time>2019-07-20T11:10:18.115Z</time>
      </trkpt>
      <trkpt lat="44.1079" lon="7.435">
        <ele>2499.1263035921</ele>
        <time>2019-07-20T11:10:38.115Z</time>
      </trkpt>
      <trkpt lat="44.10799" lon="7.43492">
        <ele>2504</ele>
        <time>2019-07-20T11:11:06.115Z</time>
      </trkpt>
      <trkpt lat="44.1081" lon="7.43491">
        <ele>2507</ele>
        <time>2019-07-20T11:11:22.115Z</time>
      </trkpt>
      <trkpt lat="44.10824" lon="7.43486">
        <ele>2509</ele>
        <time>2019-07-20T11:11:38.115Z</time>
      </trkpt>
      <trkpt lat="44.10834" lon="7.43481">
        <ele>2510</ele>
        <time>2019-07-20T11:11:50.115Z</time>
      </trkpt>
      <trkpt lat="44.10843" lon="7.43476">
        <ele>2513</ele>
        <time>2019-07-20T11:12:10.115Z</time>
      </trkpt>
      <trkpt lat="44.10846" lon="7.43463">
        <ele>2521</ele>
        <time>2019-07-20T11:12:38.115Z</time>
      </trkpt>
      <trkpt lat="44.10858" lon="7.43459">
        <ele>2523</ele>
        <time>2019-07-20T11:12:58.115Z</time>
      </trkpt>
      <trkpt lat="44.10867" lon="7.43451">
        <ele>2527</ele>
        <time>2019-07-20T11:13:14.115Z</time>
      </trkpt>
      <trkpt lat="44.10877" lon="7.43448">
        <ele>2529</ele>
        <time>2019-07-20T11:13:26.115Z</time>
      </trkpt>
      <trkpt lat="44.10883" lon="7.43437">
        <ele>2534</ele>
        <time>2019-07-20T11:13:46.115Z</time>
      </trkpt>
      <trkpt lat="44.10891" lon="7.43435">
        <ele>2538</ele>
        <time>2019-07-20T11:14:02.115Z</time>
      </trkpt>
      <trkpt lat="44.10899" lon="7.4343">
        <ele>2539</ele>
        <time>2019-07-20T11:14:14.115Z</time>
      </trkpt>
      <trkpt lat="44.10908" lon="7.43419">
        <ele>2545</ele>
        <time>2019-07-20T11:14:39.115Z</time>
      </trkpt>
      <trkpt lat="44.1092" lon="7.43413">
        <ele>2550</ele>
        <time>2019-07-20T11:14:59.115Z</time>
      </trkpt>
      <trkpt lat="44.1093" lon="7.43407">
        <ele>2554</ele>
        <time>2019-07-20T11:15:19.115Z</time>
      </trkpt>
      <trkpt lat="44.10939" lon="7.434">
        <ele>2558</ele>
        <time>2019-07-20T11:15:39.115Z</time>
      </trkpt>
      <trkpt lat="44.10948" lon="7.43393">
        <ele>2561.1782120498</ele>
        <time>2019-07-20T11:15:51.115Z</time>
      </trkpt>
      <trkpt lat="44.10959" lon="7.43391">
        <ele>2565</ele>
        <time>2019-07-20T11:16:07.115Z</time>
      </trkpt>
      <trkpt lat="44.10966" lon="7.4338">
        <ele>2568</ele>
        <time>2019-07-20T11:16:23.115Z</time>
      </trkpt>
      <trkpt lat="44.10975" lon="7.43371">
        <ele>2573</ele>
        <time>2019-07-20T11:16:47.115Z</time>
      </trkpt>
      <trkpt lat="44.10983" lon="7.43361">
        <ele>2577</ele>
        <time>2019-07-20T11:17:07.115Z</time>
      </trkpt>
      <trkpt lat="44.10992" lon="7.43352">
        <ele>2579</ele>
        <time>2019-07-20T11:17:23.115Z</time>
      </trkpt>
      <trkpt lat="44.11002" lon="7.43346">
        <ele>2583</ele>
        <time>2019-07-20T11:17:47.115Z</time>
      </trkpt>
      <trkpt lat="44.11009" lon="7.43335">
        <ele>2589.5949952</ele>
        <time>2019-07-20T11:18:11.115Z</time>
      </trkpt>
      <trkpt lat="44.11018" lon="7.43327">
        <ele>2592</ele>
        <time>2019-07-20T11:18:27.115Z</time>
      </trkpt>
      <trkpt lat="44.11029" lon="7.4332">
        <ele>2597.1782120498</ele>
        <time>2019-07-20T11:18:51.115Z</time>
      </trkpt>
      <trkpt lat="44.11038" lon="7.43311">
        <ele>2599</ele>
        <time>2019-07-20T11:19:03.115Z</time>
      </trkpt>
      <trkpt lat="44.11041" lon="7.43298">
        <ele>2603</ele>
        <time>2019-07-20T11:19:27.115Z</time>
      </trkpt>
      <trkpt lat="44.11051" lon="7.43292">
        <ele>2605</ele>
        <time>2019-07-20T11:19:49.115Z</time>
      </trkpt>
      <trkpt lat="44.11062" lon="7.43287">
        <ele>2604</ele>
        <time>2019-07-20T11:20:37.115Z</time>
      </trkpt>
      <trkpt lat="44.11072" lon="7.4328">
        <ele>2608</ele>
        <time>2019-07-20T11:20:53.115Z</time>
      </trkpt>
      <trkpt lat="44.11078" lon="7.43268">
        <ele>2611</ele>
        <time>2019-07-20T11:21:09.115Z</time>
      </trkpt>
      <trkpt lat="44.11088" lon="7.43258">
        <ele>2613</ele>
        <time>2019-07-20T11:21:29.115Z</time>
      </trkpt>
      <trkpt lat="44.11098" lon="7.43249">
        <ele>2617</ele>
        <time>2019-07-20T11:21:45.115Z</time>
      </trkpt>
      <trkpt lat="44.11107" lon="7.43241">
        <ele>2618</ele>
        <time>2019-07-20T11:21:57.115Z</time>
      </trkpt>
      <trkpt lat="44.11115" lon="7.43228">
        <ele>2621</ele>
        <time>2019-07-20T11:22:13.115Z</time>
      </trkpt>
      <trkpt lat="44.11118" lon="7.4322">
        <ele>2622</ele>
        <time>2019-07-20T11:22:41.115Z</time>
      </trkpt>
      <trkpt lat="44.11112" lon="7.43218">
        <ele>2626</ele>
        <time>2019-07-20T11:23:17.115Z</time>
      </trkpt>
      <trkpt lat="44.11102" lon="7.43217">
        <ele>2629</ele>
        <time>2019-07-20T11:24:45.115Z</time>
      </trkpt>
      <trkpt lat="44.11094" lon="7.43208">
        <ele>2633</ele>
        <time>2019-07-20T11:25:13.115Z</time>
      </trkpt>
      <trkpt lat="44.11093" lon="7.43194">
        <ele>2634</ele>
        <time>2019-07-20T11:25:41.115Z</time>
      </trkpt>
      <trkpt lat="44.11097" lon="7.43179">
        <ele>2634</ele>
        <time>2019-07-20T11:25:53.115Z</time>
      </trkpt>
      <trkpt lat="44.11101" lon="7.43162">
        <ele>2635</ele>
        <time>2019-07-20T11:26:09.115Z</time>
      </trkpt>
      <trkpt lat="44.11103" lon="7.43146">
        <ele>2641</ele>
        <time>2019-07-20T11:27:10.115Z</time>
      </trkpt>
      <trkpt lat="44.11104" lon="7.4313">
        <ele>2645</ele>
        <time>2019-07-20T11:27:35.115Z</time>
      </trkpt>
      <trkpt lat="44.11108" lon="7.43117">
        <ele>2651</ele>
        <time>2019-07-20T11:27:56.115Z</time>
      </trkpt>
      <trkpt lat="44.11108" lon="7.43103">
        <ele>2654</ele>
        <time>2019-07-20T11:28:20.115Z</time>
      </trkpt>
      <trkpt lat="44.11111" lon="7.43089">
        <ele>2663</ele>
        <time>2019-07-20T11:29:00.115Z</time>
      </trkpt>
      <trkpt lat="44.11114" lon="7.43079">
        <ele>2665</ele>
        <time>2019-07-20T11:29:16.115Z</time>
      </trkpt>
      <trkpt lat="44.11116" lon="7.43069">
        <ele>2668</ele>
        <time>2019-07-20T11:29:32.115Z</time>
      </trkpt>
      <trkpt lat="44.11119" lon="7.43056">
        <ele>2673</ele>
        <time>2019-07-20T11:29:53.115Z</time>
      </trkpt>
      <trkpt lat="44.11126" lon="7.43045">
        <ele>2674</ele>
        <time>2019-07-20T11:30:09.115Z</time>
      </trkpt>
      <trkpt lat="44.11133" lon="7.43032">
        <ele>2681</ele>
        <time>2019-07-20T11:30:34.115Z</time>
      </trkpt>
      <trkpt lat="44.11127" lon="7.43024">
        <ele>2683</ele>
        <time>2019-07-20T11:30:50.115Z</time>
      </trkpt>
      <trkpt lat="44.11126" lon="7.43008">
        <ele>2687.1899904</ele>
        <time>2019-07-20T11:31:06.115Z</time>
      </trkpt>
      <trkpt lat="44.11124" lon="7.42994">
        <ele>2691</ele>
        <time>2019-07-20T11:31:30.115Z</time>
      </trkpt>
      <trkpt lat="44.11125" lon="7.42979">
        <ele>2695</ele>
        <time>2019-07-20T11:31:50.115Z</time>
      </trkpt>
      <trkpt lat="44.11132" lon="7.42967">
        <ele>2700</ele>
        <time>2019-07-20T11:32:14.115Z</time>
      </trkpt>
      <trkpt lat="44.11139" lon="7.42954">
        <ele>2702</ele>
        <time>2019-07-20T11:32:34.115Z</time>
      </trkpt>
      <trkpt lat="44.1115" lon="7.42952">
        <ele>2706</ele>
        <time>2019-07-20T11:32:50.115Z</time>
      </trkpt>
      <trkpt lat="44.11158" lon="7.42949">
        <ele>2712</ele>
        <time>2019-07-20T11:33:15.115Z</time>
      </trkpt>
      <trkpt lat="44.11161" lon="7.42941">
        <ele>2713.5824679009</ele>
        <time>2019-07-20T11:33:31.115Z</time>
      </trkpt>
      <trkpt lat="44.11158" lon="7.42934">
        <ele>2718</ele>
        <time>2019-07-20T11:33:48.115Z</time>
      </trkpt>
      <trkpt lat="44.11152" lon="7.42928">
        <ele>2721</ele>
        <time>2019-07-20T11:34:05.115Z</time>
      </trkpt>
      <trkpt lat="44.11146" lon="7.42928">
        <ele>2722</ele>
        <time>2019-07-20T11:34:14.115Z</time>
      </trkpt>
      <trkpt lat="44.11135" lon="7.42925">
        <ele>2723</ele>
        <time>2019-07-20T11:34:26.115Z</time>
      </trkpt>
      <trkpt lat="44.11122" lon="7.42923">
        <ele>2723</ele>
        <time>2019-07-20T11:34:38.115Z</time>
      </trkpt>
      <trkpt lat="44.11113" lon="7.42914">
        <ele>2726</ele>
        <time>2019-07-20T11:34:54.115Z</time>
      </trkpt>
      <trkpt lat="44.11108" lon="7.42903">
        <ele>2730</ele>
        <time>2019-07-20T11:35:18.115Z</time>
      </trkpt>
      <trkpt lat="44.11106" lon="7.42891">
        <ele>2736</ele>
        <time>2019-07-20T11:36:00.115Z</time>
      </trkpt>
      <trkpt lat="44.11108" lon="7.42885">
        <ele>2741</ele>
        <time>2019-07-20T11:36:16.115Z</time>
      </trkpt>
      <trkpt lat="44.11116" lon="7.4289">
        <ele>2744</ele>
        <time>2019-07-20T11:36:44.115Z</time>
      </trkpt>
      <trkpt lat="44.11123" lon="7.42894">
        <ele>2749</ele>
        <time>2019-07-20T11:37:08.115Z</time>
      </trkpt>
      <trkpt lat="44.11129" lon="7.42895">
        <ele>2749</ele>
        <time>2019-07-20T11:37:28.115Z</time>
      </trkpt>
      <trkpt lat="44.11135" lon="7.42895">
        <ele>2751</ele>
        <time>2019-07-20T11:38:20.115Z</time>
      </trkpt>
      <trkpt lat="44.11143" lon="7.42897">
        <ele>2754</ele>
        <time>2019-07-20T11:39:03.115Z</time>
      </trkpt>
      <trkpt lat="44.11152" lon="7.42901">
        <ele>2756</ele>
        <time>2019-07-20T11:39:43.115Z</time>
      </trkpt>
      <trkpt lat="44.1116" lon="7.42902">
        <ele>2759</ele>
        <time>2019-07-20T11:40:04.115Z</time>
      </trkpt>
      <trkpt lat="44.11165" lon="7.42895">
        <ele>2761</ele>
        <time>2019-07-20T11:40:16.115Z</time>
      </trkpt>
      <trkpt lat="44.11159" lon="7.42882">
        <ele>2768</ele>
        <time>2019-07-20T11:40:48.115Z</time>
      </trkpt>
      <trkpt lat="44.11148" lon="7.4287">
        <ele>2772.5949952</ele>
        <time>2019-07-20T11:41:08.115Z</time>
      </trkpt>
      <trkpt lat="44.11144" lon="7.42863">
        <ele>2775</ele>
        <time>2019-07-20T11:41:20.115Z</time>
      </trkpt>
      <trkpt lat="44.11147" lon="7.42856">
        <ele>2777.5949952</ele>
        <time>2019-07-20T11:41:44.115Z</time>
      </trkpt>
      <trkpt lat="44.11149" lon="7.42848">
        <ele>2782</ele>
        <time>2019-07-20T11:42:00.115Z</time>
      </trkpt>
      <trkpt lat="44.11151" lon="7.42843">
        <ele>2784</ele>
        <time>2019-07-20T11:42:08.115Z</time>
      </trkpt>
      <trkpt lat="44.11154" lon="7.42837">
        <ele>2784</ele>
        <time>2019-07-20T11:42:20.115Z</time>
      </trkpt>
      <trkpt lat="44.11152" lon="7.42826">
        <ele>2788</ele>
        <time>2019-07-20T11:42:32.115Z</time>
      </trkpt>
      <trkpt lat="44.11146" lon="7.42819">
        <ele>2789</ele>
        <time>2019-07-20T11:42:44.115Z</time>
      </trkpt>
      <trkpt lat="44.11139" lon="7.42806">
        <ele>2790</ele>
        <time>2019-07-20T11:42:56.115Z</time>
      </trkpt>
      <trkpt lat="44.11131" lon="7.42799">
        <ele>2791</ele>
        <time>2019-07-20T11:43:08.115Z</time>
      </trkpt>
      <trkpt lat="44.11126" lon="7.42784">
        <ele>2792.553760185</ele>
        <time>2019-07-20T11:43:24.115Z</time>
      </trkpt>
      <trkpt lat="44.11122" lon="7.4278">
        <ele>2797</ele>
        <time>2019-07-20T11:43:52.115Z</time>
      </trkpt>
      <trkpt lat="44.11119" lon="7.42771">
        <ele>2796</ele>
        <time>2019-07-20T11:44:04.115Z</time>
      </trkpt>
      <trkpt lat="44.11118" lon="7.42761">
        <ele>2800.1818111295</ele>
        <time>2019-07-20T11:44:16.115Z</time>
      </trkpt>
      <trkpt lat="44.11121" lon="7.42751">
        <ele>2803</ele>
        <time>2019-07-20T11:44:32.115Z</time>
      </trkpt>
      <trkpt lat="44.11121" lon="7.42738">
        <ele>2807</ele>
        <time>2019-07-20T11:44:52.115Z</time>
      </trkpt>
      <trkpt lat="44.11121" lon="7.42731">
        <ele>2812</ele>
        <time>2019-07-20T11:45:04.115Z</time>
      </trkpt>
      <trkpt lat="44.11121" lon="7.42717">
        <ele>2812</ele>
        <time>2019-07-20T11:45:20.115Z</time>
      </trkpt>
      <trkpt lat="44.11126" lon="7.42703">
        <ele>2814</ele>
        <time>2019-07-20T11:45:36.115Z</time>
      </trkpt>
      <trkpt lat="44.11132" lon="7.42696">
        <ele>2817</ele>
        <time>2019-07-20T11:45:48.115Z</time>
      </trkpt>
      <trkpt lat="44.11135" lon="7.42689">
        <ele>2819.553760185</ele>
        <time>2019-07-20T11:45:56.115Z</time>
      </trkpt>
      <trkpt lat="44.11134" lon="7.42678">
        <ele>2820</ele>
        <time>2019-07-20T11:46:08.115Z</time>
      </trkpt>
      <trkpt lat="44.11137" lon="7.42668">
        <ele>2821</ele>
        <time>2019-07-20T11:46:20.115Z</time>
      </trkpt>
      <trkpt lat="44.11141" lon="7.42663">
        <ele>2825</ele>
        <time>2019-07-20T11:46:28.115Z</time>
      </trkpt>
      <trkpt lat="44.11141" lon="7.42655">
        <ele>2827</ele>
        <time>2019-07-20T11:47:32.115Z</time>
      </trkpt>
      <trkpt lat="44.11137" lon="7.42643">
        <ele>2826</ele>
        <time>2019-07-20T11:47:44.115Z</time>
      </trkpt>
      <trkpt lat="44.11137" lon="7.42637">
        <ele>2825</ele>
        <time>2019-07-20T11:47:56.115Z</time>
      </trkpt>
      <trkpt lat="44.11138" lon="7.4263">
        <ele>2823</ele>
        <time>2019-07-20T11:48:04.115Z</time>
      </trkpt>
      <trkpt lat="44.11145" lon="7.42621">
        <ele>2822.8921655979</ele>
        <time>2019-07-20T11:48:21.115Z</time>
      </trkpt>
      <trkpt lat="44.11146" lon="7.42613">
        <ele>2822</ele>
        <time>2019-07-20T11:48:26.115Z</time>
      </trkpt>
      <trkpt lat="44.11142" lon="7.42601">
        <ele>2818</ele>
        <time>2019-07-20T11:48:38.115Z</time>
      </trkpt>
      <trkpt lat="44.11136" lon="7.42593">
        <ele>2817</ele>
        <time>2019-07-20T11:48:46.115Z</time>
      </trkpt>
      <trkpt lat="44.1113" lon="7.42584">
        <ele>2816</ele>
        <time>2019-07-20T11:48:54.115Z</time>
      </trkpt>
      <trkpt lat="44.11129" lon="7.42582">
        <ele>2815.4541312415</ele>
        <time>2019-07-20T11:49:02.115Z</time>
      </trkpt>
      <trkpt lat="44.11127" lon="7.42581">
        <ele>2816</ele>
        <time>2019-07-20T11:49:35.115Z</time>
      </trkpt>
      <trkpt lat="44.11127" lon="7.42575">
        <ele>2815</ele>
        <time>2019-07-20T11:49:47.115Z</time>
      </trkpt>
      <trkpt lat="44.11123" lon="7.42568">
        <ele>2813</ele>
        <time>2019-07-20T11:49:56.115Z</time>
      </trkpt>
      <trkpt lat="44.11129" lon="7.42558">
        <ele>2810</ele>
        <time>2019-07-20T11:50:08.115Z</time>
      </trkpt>
      <trkpt lat="44.1113" lon="7.42551">
        <ele>2808.446082799</ele>
        <time>2019-07-20T11:50:16.115Z</time>
      </trkpt>
      <trkpt lat="44.11125" lon="7.42546">
        <ele>2805</ele>
        <time>2019-07-20T11:50:24.115Z</time>
      </trkpt>
      <trkpt lat="44.11113" lon="7.42543">
        <ele>2802.4655210464</ele>
        <time>2019-07-20T11:50:36.115Z</time>
      </trkpt>
      <trkpt lat="44.11106" lon="7.42534">
        <ele>2801</ele>
        <time>2019-07-20T11:50:56.115Z</time>
      </trkpt>
      <trkpt lat="44.11099" lon="7.42534">
        <ele>2800</ele>
        <time>2019-07-20T11:51:04.115Z</time>
      </trkpt>
      <trkpt lat="44.11093" lon="7.42532">
        <ele>2799</ele>
        <time>2019-07-20T11:51:16.115Z</time>
      </trkpt>
      <trkpt lat="44.11082" lon="7.42522">
        <ele>2790.5360416979</ele>
        <time>2019-07-20T11:51:32.115Z</time>
      </trkpt>
      <trkpt lat="44.11075" lon="7.42507">
        <ele>2787.5190476771</ele>
        <time>2019-07-20T11:51:42.115Z</time>
      </trkpt>
      <trkpt lat="44.1107" lon="7.42495">
        <ele>2785</ele>
        <time>2019-07-20T11:51:51.115Z</time>
      </trkpt>
      <trkpt lat="44.11062" lon="7.42491">
        <ele>2780</ele>
        <time>2019-07-20T11:52:03.115Z</time>
      </trkpt>
      <trkpt lat="44.11066" lon="7.42476">
        <ele>2777</ele>
        <time>2019-07-20T11:52:23.115Z</time>
      </trkpt>
      <trkpt lat="44.1106" lon="7.42472">
        <ele>2774</ele>
        <time>2019-07-20T11:52:35.115Z</time>
      </trkpt>
      <trkpt lat="44.11058" lon="7.42455">
        <ele>2766</ele>
        <time>2019-07-20T11:53:35.115Z</time>
      </trkpt>
      <trkpt lat="44.11059" lon="7.42447">
        <ele>2761</ele>
        <time>2019-07-20T11:53:47.115Z</time>
      </trkpt>
      <trkpt lat="44.11054" lon="7.42441">
        <ele>2758</ele>
        <time>2019-07-20T11:53:59.115Z</time>
      </trkpt>
      <trkpt lat="44.11051" lon="7.42427">
        <ele>2754</ele>
        <time>2019-07-20T11:54:23.115Z</time>
      </trkpt>
      <trkpt lat="44.11057" lon="7.4241">
        <ele>2749</ele>
        <time>2019-07-20T11:54:31.115Z</time>
      </trkpt>
      <trkpt lat="44.11053" lon="7.42395">
        <ele>2742.4734540841</ele>
        <time>2019-07-20T11:54:39.115Z</time>
      </trkpt>
      <trkpt lat="44.11046" lon="7.42384">
        <ele>2737</ele>
        <time>2019-07-20T11:54:47.115Z</time>
      </trkpt>
      <trkpt lat="44.11039" lon="7.42367">
        <ele>2731</ele>
        <time>2019-07-20T11:54:59.115Z</time>
      </trkpt>
      <trkpt lat="44.11039" lon="7.42357">
        <ele>2726.4175320991</ele>
        <time>2019-07-20T11:55:11.115Z</time>
      </trkpt>
      <trkpt lat="44.11038" lon="7.42343">
        <ele>2725</ele>
        <time>2019-07-20T11:55:31.115Z</time>
      </trkpt>
      <trkpt lat="44.11035" lon="7.42326">
        <ele>2723.8878627653</ele>
        <time>2019-07-20T11:55:39.115Z</time>
      </trkpt>
      <trkpt lat="44.11034" lon="7.4231">
        <ele>2719.533711097</ele>
        <time>2019-07-20T11:55:48.115Z</time>
      </trkpt>
      <trkpt lat="44.11038" lon="7.42297">
        <ele>2718</ele>
        <time>2019-07-20T11:55:56.115Z</time>
      </trkpt>
      <trkpt lat="44.11039" lon="7.42283">
        <ele>2715</ele>
        <time>2019-07-20T11:56:04.115Z</time>
      </trkpt>
      <trkpt lat="44.11037" lon="7.42267">
        <ele>2713</ele>
        <time>2019-07-20T11:56:13.115Z</time>
      </trkpt>
      <trkpt lat="44.11036" lon="7.42255">
        <ele>2713</ele>
        <time>2019-07-20T11:56:21.115Z</time>
      </trkpt>
      <trkpt lat="44.11034" lon="7.42245">
        <ele>2707</ele>
        <time>2019-07-20T11:56:33.115Z</time>
      </trkpt>
      <trkpt lat="44.11033" lon="7.4223">
        <ele>2702.6666708497</ele>
        <time>2019-07-20T11:57:01.115Z</time>
      </trkpt>
      <trkpt lat="44.11033" lon="7.4222">
        <ele>2701</ele>
        <time>2019-07-20T11:57:09.115Z</time>
      </trkpt>
      <trkpt lat="44.11025" lon="7.42185">
        <ele>2693.5245146636</ele>
        <time>2019-07-20T11:57:21.115Z</time>
      </trkpt>
      <trkpt lat="44.11017" lon="7.42166">
        <ele>2691</ele>
        <time>2019-07-20T11:57:29.115Z</time>
      </trkpt>
      <trkpt lat="44.11011" lon="7.42146">
        <ele>2690</ele>
        <time>2019-07-20T11:57:37.115Z</time>
      </trkpt>
      <trkpt lat="44.11007" lon="7.42129">
        <ele>2689</ele>
        <time>2019-07-20T11:57:45.115Z</time>
      </trkpt>
      <trkpt lat="44.11" lon="7.42118">
        <ele>2689</ele>
        <time>2019-07-20T11:57:50.115Z</time>
      </trkpt>
      <trkpt lat="44.10983" lon="7.4211">
        <ele>2683</ele>
        <time>2019-07-20T11:57:59.115Z</time>
      </trkpt>
      <trkpt lat="44.10971" lon="7.42108">
        <ele>2681</ele>
        <time>2019-07-20T11:58:07.115Z</time>
      </trkpt>
      <trkpt lat="44.10957" lon="7.42104">
        <ele>2678</ele>
        <time>2019-07-20T11:58:16.115Z</time>
      </trkpt>
      <trkpt lat="44.10942" lon="7.42095">
        <ele>2671</ele>
        <time>2019-07-20T11:58:24.115Z</time>
      </trkpt>
      <trkpt lat="44.10928" lon="7.42089">
        <ele>2667</ele>
        <time>2019-07-20T11:58:32.115Z</time>
      </trkpt>
      <trkpt lat="44.10922" lon="7.42081">
        <ele>2665</ele>
        <time>2019-07-20T11:58:44.115Z</time>
      </trkpt>
      <trkpt lat="44.10915" lon="7.42084">
        <ele>2665</ele>
        <time>2019-07-20T11:58:52.115Z</time>
      </trkpt>
      <trkpt lat="44.1091" lon="7.42074">
        <ele>2664</ele>
        <time>2019-07-20T11:59:08.115Z</time>
      </trkpt>
      <trkpt lat="44.10906" lon="7.42066">
        <ele>2665</ele>
        <time>2019-07-20T11:59:16.115Z</time>
      </trkpt>
      <trkpt lat="44.10896" lon="7.42051">
        <ele>2666</ele>
        <time>2019-07-20T11:59:32.115Z</time>
      </trkpt>
      <trkpt lat="44.10892" lon="7.42041">
        <ele>2666</ele>
        <time>2019-07-20T11:59:40.115Z</time>
      </trkpt>
      <trkpt lat="44.1089" lon="7.42034">
        <ele>2666</ele>
        <time>2019-07-20T11:59:48.115Z</time>
      </trkpt>
      <trkpt lat="44.10883" lon="7.42027">
        <ele>2665</ele>
        <time>2019-07-20T12:00:00.115Z</time>
      </trkpt>
      <trkpt lat="44.10881" lon="7.42018">
        <ele>2659</ele>
        <time>2019-07-20T12:00:08.115Z</time>
      </trkpt>
      <trkpt lat="44.10876" lon="7.42008">
        <ele>2655.8100096</ele>
        <time>2019-07-20T12:00:16.115Z</time>
      </trkpt>
      <trkpt lat="44.10872" lon="7.42002">
        <ele>2654</ele>
        <time>2019-07-20T12:00:32.115Z</time>
      </trkpt>
      <trkpt lat="44.10872" lon="7.41997">
        <ele>2653</ele>
        <time>2019-07-20T12:00:49.115Z</time>
      </trkpt>
      <trkpt lat="44.10867" lon="7.41982">
        <ele>2649</ele>
        <time>2019-07-20T12:00:57.115Z</time>
      </trkpt>
      <trkpt lat="44.10867" lon="7.4197">
        <ele>2649</ele>
        <time>2019-07-20T12:01:09.115Z</time>
      </trkpt>
      <trkpt lat="44.10866" lon="7.41957">
        <ele>2652</ele>
        <time>2019-07-20T12:01:38.115Z</time>
      </trkpt>
      <trkpt lat="44.10862" lon="7.41944">
        <ele>2653</ele>
        <time>2019-07-20T12:01:46.115Z</time>
      </trkpt>
      <trkpt lat="44.1086" lon="7.41935">
        <ele>2653</ele>
        <time>2019-07-20T12:01:54.115Z</time>
      </trkpt>
      <trkpt lat="44.10859" lon="7.41925">
        <ele>2653</ele>
        <time>2019-07-20T12:02:06.115Z</time>
      </trkpt>
      <trkpt lat="44.10858" lon="7.41915">
        <ele>2653</ele>
        <time>2019-07-20T12:02:14.115Z</time>
      </trkpt>
      <trkpt lat="44.10858" lon="7.419">
        <ele>2652</ele>
        <time>2019-07-20T12:02:26.115Z</time>
      </trkpt>
      <trkpt lat="44.10857" lon="7.41888">
        <ele>2649</ele>
        <time>2019-07-20T12:02:38.115Z</time>
      </trkpt>
      <trkpt lat="44.10861" lon="7.41882">
        <ele>2649</ele>
        <time>2019-07-20T12:02:50.115Z</time>
      </trkpt>
      <trkpt lat="44.1087" lon="7.41883">
        <ele>2651</ele>
        <time>2019-07-20T12:03:06.115Z</time>
      </trkpt>
      <trkpt lat="44.10879" lon="7.41875">
        <ele>2650</ele>
        <time>2019-07-20T12:03:18.115Z</time>
      </trkpt>
      <trkpt lat="44.10878" lon="7.41862">
        <ele>2650</ele>
        <time>2019-07-20T12:03:26.115Z</time>
      </trkpt>
      <trkpt lat="44.1088" lon="7.41846">
        <ele>2650</ele>
        <time>2019-07-20T12:03:38.115Z</time>
      </trkpt>
      <trkpt lat="44.10879" lon="7.41829">
        <ele>2650</ele>
        <time>2019-07-20T12:03:51.115Z</time>
      </trkpt>
      <trkpt lat="44.10878" lon="7.41817">
        <ele>2650</ele>
        <time>2019-07-20T12:03:59.115Z</time>
      </trkpt>
      <trkpt lat="44.10877" lon="7.41807">
        <ele>2649</ele>
        <time>2019-07-20T12:04:07.115Z</time>
      </trkpt>
      <trkpt lat="44.10874" lon="7.41795">
        <ele>2650</ele>
        <time>2019-07-20T12:04:19.115Z</time>
      </trkpt>
      <trkpt lat="44.10869" lon="7.41785">
        <ele>2650</ele>
        <time>2019-07-20T12:04:27.115Z</time>
      </trkpt>
      <trkpt lat="44.10866" lon="7.41774">
        <ele>2649</ele>
        <time>2019-07-20T12:04:35.115Z</time>
      </trkpt>
      <trkpt lat="44.10866" lon="7.41762">
        <ele>2649</ele>
        <time>2019-07-20T12:04:43.115Z</time>
      </trkpt>
      <trkpt lat="44.10865" lon="7.41747">
        <ele>2648</ele>
        <time>2019-07-20T12:05:00.115Z</time>
      </trkpt>
      <trkpt lat="44.10867" lon="7.41731">
        <ele>2645</ele>
        <time>2019-07-20T12:05:15.115Z</time>
      </trkpt>
      <trkpt lat="44.10869" lon="7.41722">
        <ele>2643</ele>
        <time>2019-07-20T12:05:23.115Z</time>
      </trkpt>
      <trkpt lat="44.10872" lon="7.41705">
        <ele>2641</ele>
        <time>2019-07-20T12:05:35.115Z</time>
      </trkpt>
      <trkpt lat="44.10877" lon="7.41695">
        <ele>2639</ele>
        <time>2019-07-20T12:05:43.115Z</time>
      </trkpt>
      <trkpt lat="44.1088" lon="7.41687">
        <ele>2639</ele>
        <time>2019-07-20T12:05:51.115Z</time>
      </trkpt>
      <trkpt lat="44.10882" lon="7.41679">
        <ele>2640</ele>
        <time>2019-07-20T12:06:00.115Z</time>
      </trkpt>
      <trkpt lat="44.10886" lon="7.41669">
        <ele>2638</ele>
        <time>2019-07-20T12:06:08.115Z</time>
      </trkpt>
      <trkpt lat="44.10891" lon="7.41657">
        <ele>2636</ele>
        <time>2019-07-20T12:06:20.115Z</time>
      </trkpt>
      <trkpt lat="44.10893" lon="7.41646">
        <ele>2633</ele>
        <time>2019-07-20T12:06:32.115Z</time>
      </trkpt>
      <trkpt lat="44.10892" lon="7.41631">
        <ele>2631</ele>
        <time>2019-07-20T12:06:44.115Z</time>
      </trkpt>
      <trkpt lat="44.10898" lon="7.4162">
        <ele>2627</ele>
        <time>2019-07-20T12:06:52.115Z</time>
      </trkpt>
      <trkpt lat="44.10894" lon="7.41609">
        <ele>2623</ele>
        <time>2019-07-20T12:07:08.115Z</time>
      </trkpt>
      <trkpt lat="44.10886" lon="7.41602">
        <ele>2619</ele>
        <time>2019-07-20T12:07:24.115Z</time>
      </trkpt>
      <trkpt lat="44.10885" lon="7.41593">
        <ele>2615</ele>
        <time>2019-07-20T12:07:33.115Z</time>
      </trkpt>
      <trkpt lat="44.10882" lon="7.41583">
        <ele>2612</ele>
        <time>2019-07-20T12:07:45.115Z</time>
      </trkpt>
      <trkpt lat="44.10874" lon="7.41582">
        <ele>2606</ele>
        <time>2019-07-20T12:07:57.115Z</time>
      </trkpt>
      <trkpt lat="44.10872" lon="7.4157">
        <ele>2604</ele>
        <time>2019-07-20T12:08:05.115Z</time>
      </trkpt>
      <trkpt lat="44.10864" lon="7.41561">
        <ele>2601</ele>
        <time>2019-07-20T12:08:17.115Z</time>
      </trkpt>
      <trkpt lat="44.10868" lon="7.41552">
        <ele>2601</ele>
        <time>2019-07-20T12:08:33.115Z</time>
      </trkpt>
      <trkpt lat="44.10873" lon="7.41543">
        <ele>2601</ele>
        <time>2019-07-20T12:09:39.115Z</time>
      </trkpt>
      <trkpt lat="44.10871" lon="7.41539">
        <ele>2600</ele>
        <time>2019-07-20T12:09:51.115Z</time>
      </trkpt>
      <trkpt lat="44.10871" lon="7.4153">
        <ele>2595</ele>
        <time>2019-07-20T12:09:59.115Z</time>
      </trkpt>
      <trkpt lat="44.10876" lon="7.41519">
        <ele>2594</ele>
        <time>2019-07-20T12:10:07.115Z</time>
      </trkpt>
      <trkpt lat="44.10883" lon="7.4151">
        <ele>2593</ele>
        <time>2019-07-20T12:10:15.115Z</time>
      </trkpt>
      <trkpt lat="44.10887" lon="7.41494">
        <ele>2589</ele>
        <time>2019-07-20T12:10:27.115Z</time>
      </trkpt>
      <trkpt lat="44.10887" lon="7.41486">
        <ele>2588</ele>
        <time>2019-07-20T12:11:18.115Z</time>
      </trkpt>
      <trkpt lat="44.10889" lon="7.41478">
        <ele>2587</ele>
        <time>2019-07-20T12:11:30.115Z</time>
      </trkpt>
      <trkpt lat="44.1089" lon="7.41472">
        <ele>2583</ele>
        <time>2019-07-20T12:11:38.115Z</time>
      </trkpt>
      <trkpt lat="44.10888" lon="7.41465">
        <ele>2580.8333500653</ele>
        <time>2019-07-20T12:11:46.115Z</time>
      </trkpt>
      <trkpt lat="44.1089" lon="7.41456">
        <ele>2577</ele>
        <time>2019-07-20T12:11:58.115Z</time>
      </trkpt>
      <trkpt lat="44.10891" lon="7.41447">
        <ele>2572.8333500653</ele>
        <time>2019-07-20T12:12:18.115Z</time>
      </trkpt>
      <trkpt lat="44.10895" lon="7.41434">
        <ele>2566</ele>
        <time>2019-07-20T12:12:46.115Z</time>
      </trkpt>
      <trkpt lat="44.10889" lon="7.41421">
        <ele>2557.9375085714</ele>
        <time>2019-07-20T12:13:06.115Z</time>
      </trkpt>
      <trkpt lat="44.10886" lon="7.41407">
        <ele>2552.3806981818</ele>
        <time>2019-07-20T12:13:26.115Z</time>
      </trkpt>
      <trkpt lat="44.10875" lon="7.41405">
        <ele>2543</ele>
        <time>2019-07-20T12:13:54.115Z</time>
      </trkpt>
      <trkpt lat="44.10865" lon="7.41398">
        <ele>2533.8100096</ele>
        <time>2019-07-20T12:14:26.115Z</time>
      </trkpt>
      <trkpt lat="44.10862" lon="7.41384">
        <ele>2527</ele>
        <time>2019-07-20T12:14:42.115Z</time>
      </trkpt>
      <trkpt lat="44.10856" lon="7.4137">
        <ele>2518.4602327273</ele>
        <time>2019-07-20T12:15:10.115Z</time>
      </trkpt>
      <trkpt lat="44.10846" lon="7.41363">
        <ele>2510</ele>
        <time>2019-07-20T12:15:38.115Z</time>
      </trkpt>
      <trkpt lat="44.10836" lon="7.41357">
        <ele>2504</ele>
        <time>2019-07-20T12:15:54.115Z</time>
      </trkpt>
      <trkpt lat="44.10824" lon="7.41356">
        <ele>2495</ele>
        <time>2019-07-20T12:16:18.115Z</time>
      </trkpt>
      <trkpt lat="44.10816" lon="7.41348">
        <ele>2492</ele>
        <time>2019-07-20T12:16:30.115Z</time>
      </trkpt>
      <trkpt lat="44.10814" lon="7.41357">
        <ele>2488</ele>
        <time>2019-07-20T12:16:42.115Z</time>
      </trkpt>
      <trkpt lat="44.10805" lon="7.41363">
        <ele>2483</ele>
        <time>2019-07-20T12:16:58.115Z</time>
      </trkpt>
      <trkpt lat="44.10794" lon="7.41366">
        <ele>2475</ele>
        <time>2019-07-20T12:17:18.115Z</time>
      </trkpt>
      <trkpt lat="44.10786" lon="7.41356">
        <ele>2469</ele>
        <time>2019-07-20T12:17:35.115Z</time>
      </trkpt>
      <trkpt lat="44.10775" lon="7.41349">
        <ele>2462.4734540841</ele>
        <time>2019-07-20T12:17:51.115Z</time>
      </trkpt>
      <trkpt lat="44.10765" lon="7.41346">
        <ele>2455.4175320991</ele>
        <time>2019-07-20T12:18:07.115Z</time>
      </trkpt>
      <trkpt lat="44.1076" lon="7.41332">
        <ele>2451</ele>
        <time>2019-07-20T12:18:19.115Z</time>
      </trkpt>
      <trkpt lat="44.10751" lon="7.41327">
        <ele>2443.422336552</ele>
        <time>2019-07-20T12:18:37.115Z</time>
      </trkpt>
      <trkpt lat="44.10739" lon="7.41332">
        <ele>2439</ele>
        <time>2019-07-20T12:18:53.115Z</time>
      </trkpt>
      <trkpt lat="44.10732" lon="7.41319">
        <ele>2433.8446731039</ele>
        <time>2019-07-20T12:19:06.115Z</time>
      </trkpt>
      <trkpt lat="44.10725" lon="7.41307">
        <ele>2427</ele>
        <time>2019-07-20T12:19:22.115Z</time>
      </trkpt>
      <trkpt lat="44.10714" lon="7.413">
        <ele>2419.9469081682</ele>
        <time>2019-07-20T12:19:51.115Z</time>
      </trkpt>
      <trkpt lat="44.10703" lon="7.41298">
        <ele>2412</ele>
        <time>2019-07-20T12:20:07.115Z</time>
      </trkpt>
      <trkpt lat="44.10699" lon="7.41287">
        <ele>2409.5343213533</ele>
        <time>2019-07-20T12:20:27.115Z</time>
      </trkpt>
      <trkpt lat="44.1069" lon="7.41288">
        <ele>2404</ele>
        <time>2019-07-20T12:20:43.115Z</time>
      </trkpt>
      <trkpt lat="44.10679" lon="7.41293">
        <ele>2397</ele>
        <time>2019-07-20T12:21:03.115Z</time>
      </trkpt>
      <trkpt lat="44.10669" lon="7.41302">
        <ele>2394</ele>
        <time>2019-07-20T12:21:19.115Z</time>
      </trkpt>
      <trkpt lat="44.10658" lon="7.41307">
        <ele>2389.422336552</ele>
        <time>2019-07-20T12:21:31.115Z</time>
      </trkpt>
      <trkpt lat="44.10648" lon="7.41312">
        <ele>2387</ele>
        <time>2019-07-20T12:21:43.115Z</time>
      </trkpt>
      <trkpt lat="44.10639" lon="7.41308">
        <ele>2386</ele>
        <time>2019-07-20T12:21:55.115Z</time>
      </trkpt>
      <trkpt lat="44.10632" lon="7.413">
        <ele>2388</ele>
        <time>2019-07-20T12:22:07.115Z</time>
      </trkpt>
      <trkpt lat="44.10625" lon="7.41296">
        <ele>2389</ele>
        <time>2019-07-20T12:22:15.115Z</time>
      </trkpt>
      <trkpt lat="44.1062" lon="7.41291">
        <ele>2389</ele>
        <time>2019-07-20T12:22:23.115Z</time>
      </trkpt>
      <trkpt lat="44.10621" lon="7.41273">
        <ele>2388</ele>
        <time>2019-07-20T12:22:39.115Z</time>
      </trkpt>
      <trkpt lat="44.10622" lon="7.41258">
        <ele>2383</ele>
        <time>2019-07-20T12:23:03.115Z</time>
      </trkpt>
      <trkpt lat="44.10615" lon="7.41251">
        <ele>2382</ele>
        <time>2019-07-20T12:23:15.115Z</time>
      </trkpt>
      <trkpt lat="44.106" lon="7.41252">
        <ele>2382</ele>
        <time>2019-07-20T12:23:27.115Z</time>
      </trkpt>
      <trkpt lat="44.10587" lon="7.41253">
        <ele>2374.5542711424</ele>
        <time>2019-07-20T12:23:41.115Z</time>
      </trkpt>
      <trkpt lat="44.10575" lon="7.41252">
        <ele>2373</ele>
        <time>2019-07-20T12:23:49.115Z</time>
      </trkpt>
      <trkpt lat="44.10567" lon="7.41236">
        <ele>2369</ele>
        <time>2019-07-20T12:23:57.115Z</time>
      </trkpt>
      <trkpt lat="44.10561" lon="7.41219">
        <ele>2368</ele>
        <time>2019-07-20T12:24:05.115Z</time>
      </trkpt>
      <trkpt lat="44.10558" lon="7.41203">
        <ele>2366</ele>
        <time>2019-07-20T12:24:13.115Z</time>
      </trkpt>
      <trkpt lat="44.10553" lon="7.41191">
        <ele>2363.2272833058</ele>
        <time>2019-07-20T12:24:21.115Z</time>
      </trkpt>
      <trkpt lat="44.10554" lon="7.41175">
        <ele>2361</ele>
        <time>2019-07-20T12:24:29.115Z</time>
      </trkpt>
      <trkpt lat="44.10544" lon="7.41171">
        <ele>2358</ele>
        <time>2019-07-20T12:24:45.115Z</time>
      </trkpt>
      <trkpt lat="44.10543" lon="7.41161">
        <ele>2359</ele>
        <time>2019-07-20T12:24:53.115Z</time>
      </trkpt>
      <trkpt lat="44.10539" lon="7.41148">
        <ele>2357</ele>
        <time>2019-07-20T12:25:09.115Z</time>
      </trkpt>
      <trkpt lat="44.1054" lon="7.41132">
        <ele>2354.8181888705</ele>
        <time>2019-07-20T12:25:21.115Z</time>
      </trkpt>
      <trkpt lat="44.10542" lon="7.41115">
        <ele>2349</ele>
        <time>2019-07-20T12:25:33.115Z</time>
      </trkpt>
      <trkpt lat="44.10546" lon="7.41103">
        <ele>2347</ele>
        <time>2019-07-20T12:25:45.115Z</time>
      </trkpt>
      <trkpt lat="44.10552" lon="7.41089">
        <ele>2345.8100096</ele>
        <time>2019-07-20T12:26:01.115Z</time>
      </trkpt>
      <trkpt lat="44.10549" lon="7.41065">
        <ele>2344</ele>
        <time>2019-07-20T12:26:13.115Z</time>
      </trkpt>
      <trkpt lat="44.10544" lon="7.41041">
        <ele>2341</ele>
        <time>2019-07-20T12:26:25.115Z</time>
      </trkpt>
      <trkpt lat="44.10543" lon="7.41022">
        <ele>2339</ele>
        <time>2019-07-20T12:26:33.115Z</time>
      </trkpt>
      <trkpt lat="44.10542" lon="7.41005">
        <ele>2337.4108939751</ele>
        <time>2019-07-20T12:26:41.115Z</time>
      </trkpt>
      <trkpt lat="44.10537" lon="7.40978">
        <ele>2336</ele>
        <time>2019-07-20T12:26:53.115Z</time>
      </trkpt>
      <trkpt lat="44.10535" lon="7.40961">
        <ele>2332.4300288</ele>
        <time>2019-07-20T12:27:01.115Z</time>
      </trkpt>
      <trkpt lat="44.10533" lon="7.40937">
        <ele>2329</ele>
        <time>2019-07-20T12:27:09.115Z</time>
      </trkpt>
      <trkpt lat="44.1053" lon="7.40913">
        <ele>2328</ele>
        <time>2019-07-20T12:27:17.115Z</time>
      </trkpt>
      <trkpt lat="44.10528" lon="7.40901">
        <ele>2329</ele>
        <time>2019-07-20T12:27:49.115Z</time>
      </trkpt>
      <trkpt lat="44.10528" lon="7.40883">
        <ele>2324.4300288</ele>
        <time>2019-07-20T12:28:01.115Z</time>
      </trkpt>
      <trkpt lat="44.10529" lon="7.40868">
        <ele>2319.4090944353</ele>
        <time>2019-07-20T12:28:09.115Z</time>
      </trkpt>
      <trkpt lat="44.10528" lon="7.40852">
        <ele>2317</ele>
        <time>2019-07-20T12:28:17.115Z</time>
      </trkpt>
      <trkpt lat="44.10525" lon="7.40834">
        <ele>2316</ele>
        <time>2019-07-20T12:28:25.115Z</time>
      </trkpt>
      <trkpt lat="44.10522" lon="7.40814">
        <ele>2312</ele>
        <time>2019-07-20T12:28:33.115Z</time>
      </trkpt>
      <trkpt lat="44.10519" lon="7.40794">
        <ele>2309.2326819253</ele>
        <time>2019-07-20T12:28:41.115Z</time>
      </trkpt>
      <trkpt lat="44.10515" lon="7.40772">
        <ele>2307</ele>
        <time>2019-07-20T12:28:49.115Z</time>
      </trkpt>
      <trkpt lat="44.1051" lon="7.40751">
        <ele>2305</ele>
        <time>2019-07-20T12:28:57.115Z</time>
      </trkpt>
      <trkpt lat="44.10505" lon="7.40732">
        <ele>2300</ele>
        <time>2019-07-20T12:29:05.115Z</time>
      </trkpt>
      <trkpt lat="44.10501" lon="7.40714">
        <ele>2298</ele>
        <time>2019-07-20T12:29:13.115Z</time>
      </trkpt>
      <trkpt lat="44.10494" lon="7.40699">
        <ele>2296.2272833058</ele>
        <time>2019-07-20T12:29:21.115Z</time>
      </trkpt>
      <trkpt lat="44.10489" lon="7.4068">
        <ele>2295</ele>
        <time>2019-07-20T12:29:29.115Z</time>
      </trkpt>
      <trkpt lat="44.10487" lon="7.40664">
        <ele>2292</ele>
        <time>2019-07-20T12:29:37.115Z</time>
      </trkpt>
      <trkpt lat="44.10482" lon="7.40652">
        <ele>2290</ele>
        <time>2019-07-20T12:29:45.115Z</time>
      </trkpt>
      <trkpt lat="44.10476" lon="7.40638">
        <ele>2287</ele>
        <time>2019-07-20T12:29:53.115Z</time>
      </trkpt>
      <trkpt lat="44.10472" lon="7.4061">
        <ele>2280</ele>
        <time>2019-07-20T12:30:05.115Z</time>
      </trkpt>
      <trkpt lat="44.10471" lon="7.40594">
        <ele>2279</ele>
        <time>2019-07-20T12:30:13.115Z</time>
      </trkpt>
      <trkpt lat="44.10471" lon="7.40578">
        <ele>2275.2272833058</ele>
        <time>2019-07-20T12:30:21.115Z</time>
      </trkpt>
      <trkpt lat="44.10473" lon="7.4057">
        <ele>2273</ele>
        <time>2019-07-20T12:30:29.115Z</time>
      </trkpt>
      <trkpt lat="44.1047" lon="7.40555">
        <ele>2270</ele>
        <time>2019-07-20T12:30:37.115Z</time>
      </trkpt>
      <trkpt lat="44.1046" lon="7.40547">
        <ele>2267</ele>
        <time>2019-07-20T12:30:49.115Z</time>
      </trkpt>
      <trkpt lat="44.10449" lon="7.40536">
        <ele>2261.6200192</ele>
        <time>2019-07-20T12:31:01.115Z</time>
      </trkpt>
      <trkpt lat="44.10445" lon="7.40519">
        <ele>2258.4090944353</ele>
        <time>2019-07-20T12:31:09.115Z</time>
      </trkpt>
      <trkpt lat="44.10443" lon="7.40498">
        <ele>2257</ele>
        <time>2019-07-20T12:31:17.115Z</time>
      </trkpt>
      <trkpt lat="44.10438" lon="7.40475">
        <ele>2256</ele>
        <time>2019-07-20T12:31:25.115Z</time>
      </trkpt>
      <trkpt lat="44.10437" lon="7.40459">
        <ele>2256</ele>
        <time>2019-07-20T12:31:33.115Z</time>
      </trkpt>
      <trkpt lat="44.10435" lon="7.40447">
        <ele>2255</ele>
        <time>2019-07-20T12:31:45.115Z</time>
      </trkpt>
      <trkpt lat="44.1043" lon="7.40438">
        <ele>2255</ele>
        <time>2019-07-20T12:31:53.115Z</time>
      </trkpt>
      <trkpt lat="44.10422" lon="7.40421">
        <ele>2254.4050048</ele>
        <time>2019-07-20T12:32:01.115Z</time>
      </trkpt>
      <trkpt lat="44.1042" lon="7.40397">
        <ele>2253</ele>
        <time>2019-07-20T12:32:09.115Z</time>
      </trkpt>
      <trkpt lat="44.10415" lon="7.40373">
        <ele>2253</ele>
        <time>2019-07-20T12:32:17.115Z</time>
      </trkpt>
      <trkpt lat="44.10409" lon="7.40357">
        <ele>2252</ele>
        <time>2019-07-20T12:32:25.115Z</time>
      </trkpt>
      <trkpt lat="44.10403" lon="7.40348">
        <ele>2249</ele>
        <time>2019-07-20T12:33:09.115Z</time>
      </trkpt>
      <trkpt lat="44.10405" lon="7.40334">
        <ele>2249</ele>
        <time>2019-07-20T12:33:17.115Z</time>
      </trkpt>
      <trkpt lat="44.10409" lon="7.40321">
        <ele>2249</ele>
        <time>2019-07-20T12:33:25.115Z</time>
      </trkpt>
      <trkpt lat="44.10408" lon="7.40307">
        <ele>2249</ele>
        <time>2019-07-20T12:33:33.115Z</time>
      </trkpt>
      <trkpt lat="44.10406" lon="7.4029">
        <ele>2248.4108939751</ele>
        <time>2019-07-20T12:33:41.115Z</time>
      </trkpt>
      <trkpt lat="44.10397" lon="7.4027">
        <ele>2248</ele>
        <time>2019-07-20T12:33:49.115Z</time>
      </trkpt>
      <trkpt lat="44.10388" lon="7.40253">
        <ele>2248</ele>
        <time>2019-07-20T12:33:57.115Z</time>
      </trkpt>
      <trkpt lat="44.10386" lon="7.40241">
        <ele>2246</ele>
        <time>2019-07-20T12:34:09.115Z</time>
      </trkpt>
      <trkpt lat="44.10386" lon="7.40233">
        <ele>2244</ele>
        <time>2019-07-20T12:35:57.115Z</time>
      </trkpt>
      <trkpt lat="44.10387" lon="7.40249">
        <ele>2244</ele>
        <time>2019-07-20T12:36:47.115Z</time>
      </trkpt>
      <trkpt lat="44.10394" lon="7.40261">
        <ele>2243</ele>
        <time>2019-07-20T12:36:59.115Z</time>
      </trkpt>
      <trkpt lat="44.10403" lon="7.40281">
        <ele>2245</ele>
        <time>2019-07-20T12:37:12.115Z</time>
      </trkpt>
      <trkpt lat="44.10409" lon="7.40294">
        <ele>2245</ele>
        <time>2019-07-20T12:37:21.115Z</time>
      </trkpt>
      <trkpt lat="44.10412" lon="7.4031">
        <ele>2244</ele>
        <time>2019-07-20T12:37:30.115Z</time>
      </trkpt>
      <trkpt lat="44.10421" lon="7.40318">
        <ele>2245.0530918318</ele>
        <time>2019-07-20T12:37:42.115Z</time>
      </trkpt>
      <trkpt lat="44.10433" lon="7.40326">
        <ele>2248</ele>
        <time>2019-07-20T12:37:55.115Z</time>
      </trkpt>
      <trkpt lat="44.10443" lon="7.40332">
        <ele>2251</ele>
        <time>2019-07-20T12:38:07.115Z</time>
      </trkpt>
      <trkpt lat="44.1045" lon="7.40324">
        <ele>2253</ele>
        <time>2019-07-20T12:38:16.115Z</time>
      </trkpt>
      <trkpt lat="44.10454" lon="7.40311">
        <ele>2255</ele>
        <time>2019-07-20T12:38:28.115Z</time>
      </trkpt>
      <trkpt lat="44.10457" lon="7.40299">
        <ele>2256</ele>
        <time>2019-07-20T12:38:37.115Z</time>
      </trkpt>
      <trkpt lat="44.10457" lon="7.40287">
        <ele>2256</ele>
        <time>2019-07-20T12:38:45.115Z</time>
      </trkpt>
      <trkpt lat="44.10462" lon="7.40271">
        <ele>2257</ele>
        <time>2019-07-20T12:38:58.115Z</time>
      </trkpt>
      <trkpt lat="44.10464" lon="7.40258">
        <ele>2256.4175320991</ele>
        <time>2019-07-20T12:39:06.115Z</time>
      </trkpt>
      <trkpt lat="44.1047" lon="7.40246">
        <ele>2255</ele>
        <time>2019-07-20T12:39:14.115Z</time>
      </trkpt>
      <trkpt lat="44.10472" lon="7.40236">
        <ele>2255</ele>
        <time>2019-07-20T12:39:26.115Z</time>
      </trkpt>
      <trkpt lat="44.10475" lon="7.40224">
        <ele>2255</ele>
        <time>2019-07-20T12:39:55.115Z</time>
      </trkpt>
      <trkpt lat="44.10474" lon="7.4021">
        <ele>2253</ele>
        <time>2019-07-20T12:40:04.115Z</time>
      </trkpt>
      <trkpt lat="44.10471" lon="7.40199">
        <ele>2254</ele>
        <time>2019-07-20T12:40:12.115Z</time>
      </trkpt>
      <trkpt lat="44.10471" lon="7.40186">
        <ele>2254</ele>
        <time>2019-07-20T12:40:20.115Z</time>
      </trkpt>
      <trkpt lat="44.10474" lon="7.40173">
        <ele>2254</ele>
        <time>2019-07-20T12:40:32.115Z</time>
      </trkpt>
      <trkpt lat="44.1047" lon="7.40161">
        <ele>2256</ele>
        <time>2019-07-20T12:40:44.115Z</time>
      </trkpt>
      <trkpt lat="44.10479" lon="7.40146">
        <ele>2256</ele>
        <time>2019-07-20T12:40:56.115Z</time>
      </trkpt>
      <trkpt lat="44.10479" lon="7.4013">
        <ele>2248.9469081682</ele>
        <time>2019-07-20T12:41:36.115Z</time>
      </trkpt>
      <trkpt lat="44.1048" lon="7.40112">
        <ele>2245</ele>
        <time>2019-07-20T12:41:48.115Z</time>
      </trkpt>
      <trkpt lat="44.10474" lon="7.40103">
        <ele>2241.4263194061</ele>
        <time>2019-07-20T12:41:57.115Z</time>
      </trkpt>
      <trkpt lat="44.10464" lon="7.4009">
        <ele>2238</ele>
        <time>2019-07-20T12:42:09.115Z</time>
      </trkpt>
      <trkpt lat="44.10456" lon="7.40077">
        <ele>2234</ele>
        <time>2019-07-20T12:42:17.115Z</time>
      </trkpt>
      <trkpt lat="44.10452" lon="7.40067">
        <ele>2233</ele>
        <time>2019-07-20T12:42:25.115Z</time>
      </trkpt>
      <trkpt lat="44.1045" lon="7.40054">
        <ele>2235</ele>
        <time>2019-07-20T12:42:34.115Z</time>
      </trkpt>
      <trkpt lat="44.10446" lon="7.40044">
        <ele>2234.4050048</ele>
        <time>2019-07-20T12:42:46.115Z</time>
      </trkpt>
      <trkpt lat="44.10446" lon="7.40045">
        <ele>2233.9998744594</ele>
        <time>2019-07-20T12:42:55.115Z</time>
      </trkpt>
      <trkpt lat="44.10451" lon="7.40047">
        <ele>2233.0005072278</ele>
        <time>2019-07-20T12:59:30.115Z</time>
      </trkpt>
      <trkpt lat="44.10445" lon="7.4005">
        <ele>2233</ele>
        <time>2019-07-20T12:59:34.113Z</time>
      </trkpt>
      <trkpt lat="44.1045" lon="7.40063">
        <ele>2231</ele>
        <time>2019-07-20T12:59:53.108Z</time>
      </trkpt>
      <trkpt lat="44.10462" lon="7.40065">
        <ele>2229.2150144</ele>
        <time>2019-07-20T13:00:01.115Z</time>
      </trkpt>
      <trkpt lat="44.1047" lon="7.40069">
        <ele>2228</ele>
        <time>2019-07-20T13:00:06.115Z</time>
      </trkpt>
      <trkpt lat="44.10474" lon="7.40059">
        <ele>2225</ele>
        <time>2019-07-20T13:00:12.115Z</time>
      </trkpt>
      <trkpt lat="44.10484" lon="7.40038">
        <ele>2219</ele>
        <time>2019-07-20T13:00:24.110Z</time>
      </trkpt>
      <trkpt lat="44.10491" lon="7.40047">
        <ele>2216</ele>
        <time>2019-07-20T13:00:30.115Z</time>
      </trkpt>
      <trkpt lat="44.10501" lon="7.40052">
        <ele>2211</ele>
        <time>2019-07-20T13:00:39.115Z</time>
      </trkpt>
      <trkpt lat="44.10512" lon="7.40052">
        <ele>2207.4070016</ele>
        <time>2019-07-20T13:00:47.113Z</time>
      </trkpt>
      <trkpt lat="44.1052" lon="7.40044">
        <ele>2206</ele>
        <time>2019-07-20T13:00:53.117Z</time>
      </trkpt>
      <trkpt lat="44.10512" lon="7.40028">
        <ele>2206</ele>
        <time>2019-07-20T13:00:58.115Z</time>
      </trkpt>
      <trkpt lat="44.10514" lon="7.40013">
        <ele>2205</ele>
        <time>2019-07-20T13:01:10.115Z</time>
      </trkpt>
      <trkpt lat="44.1051" lon="7.4">
        <ele>2205</ele>
        <time>2019-07-20T13:01:15.115Z</time>
      </trkpt>
      <trkpt lat="44.10503" lon="7.39987">
        <ele>2205</ele>
        <time>2019-07-20T13:01:20.115Z</time>
      </trkpt>
      <trkpt lat="44.105" lon="7.39971">
        <ele>2205</ele>
        <time>2019-07-20T13:01:25.115Z</time>
      </trkpt>
      <trkpt lat="44.105" lon="7.39955">
        <ele>2205</ele>
        <time>2019-07-20T13:01:30.115Z</time>
      </trkpt>
      <trkpt lat="44.10502" lon="7.39938">
        <ele>2203</ele>
        <time>2019-07-20T13:01:35.115Z</time>
      </trkpt>
      <trkpt lat="44.10503" lon="7.39924">
        <ele>2203</ele>
        <time>2019-07-20T13:01:40.115Z</time>
      </trkpt>
      <trkpt lat="44.10503" lon="7.39911">
        <ele>2203</ele>
        <time>2019-07-20T13:01:45.117Z</time>
      </trkpt>
      <trkpt lat="44.10503" lon="7.39896">
        <ele>2203</ele>
        <time>2019-07-20T13:01:51.121Z</time>
      </trkpt>
      <trkpt lat="44.10493" lon="7.39874">
        <ele>2203</ele>
        <time>2019-07-20T13:02:00.115Z</time>
      </trkpt>
      <trkpt lat="44.10488" lon="7.39861">
        <ele>2202</ele>
        <time>2019-07-20T13:02:08.115Z</time>
      </trkpt>
      <trkpt lat="44.10486" lon="7.39852">
        <ele>2202</ele>
        <time>2019-07-20T13:02:14.118Z</time>
      </trkpt>
      <trkpt lat="44.1048" lon="7.39842">
        <ele>2202</ele>
        <time>2019-07-20T13:02:20.112Z</time>
      </trkpt>
      <trkpt lat="44.10477" lon="7.3983">
        <ele>2203.1899904</ele>
        <time>2019-07-20T13:02:31.115Z</time>
      </trkpt>
      <trkpt lat="44.10477" lon="7.39822">
        <ele>2204</ele>
        <time>2019-07-20T13:02:36.115Z</time>
      </trkpt>
      <trkpt lat="44.10475" lon="7.39812">
        <ele>2205</ele>
        <time>2019-07-20T13:02:42.115Z</time>
      </trkpt>
      <trkpt lat="44.10473" lon="7.39797">
        <ele>2205</ele>
        <time>2019-07-20T13:02:50.118Z</time>
      </trkpt>
      <trkpt lat="44.10472" lon="7.39782">
        <ele>2205</ele>
        <time>2019-07-20T13:02:55.118Z</time>
      </trkpt>
      <trkpt lat="44.10471" lon="7.39769">
        <ele>2203.8100096</ele>
        <time>2019-07-20T13:03:01.115Z</time>
      </trkpt>
      <trkpt lat="44.10473" lon="7.39752">
        <ele>2204</ele>
        <time>2019-07-20T13:03:08.115Z</time>
      </trkpt>
      <trkpt lat="44.10461" lon="7.39737">
        <ele>2203</ele>
        <time>2019-07-20T13:03:23.109Z</time>
      </trkpt>
      <trkpt lat="44.10454" lon="7.39721">
        <ele>2203</ele>
        <time>2019-07-20T13:03:31.115Z</time>
      </trkpt>
      <trkpt lat="44.10451" lon="7.39703">
        <ele>2203</ele>
        <time>2019-07-20T13:03:39.115Z</time>
      </trkpt>
      <trkpt lat="44.10451" lon="7.39687">
        <ele>2204</ele>
        <time>2019-07-20T13:03:52.122Z</time>
      </trkpt>
      <trkpt lat="44.10445" lon="7.39673">
        <ele>2204</ele>
        <time>2019-07-20T13:04:00.115Z</time>
      </trkpt>
      <trkpt lat="44.10437" lon="7.39662">
        <ele>2204</ele>
        <time>2019-07-20T13:04:09.115Z</time>
      </trkpt>
      <trkpt lat="44.10427" lon="7.39652">
        <ele>2204</ele>
        <time>2019-07-20T13:04:17.112Z</time>
      </trkpt>
      <trkpt lat="44.10419" lon="7.39641">
        <ele>2205</ele>
        <time>2019-07-20T13:04:25.111Z</time>
      </trkpt>
      <trkpt lat="44.10408" lon="7.39632">
        <ele>2205</ele>
        <time>2019-07-20T13:04:33.114Z</time>
      </trkpt>
      <trkpt lat="44.10392" lon="7.39627">
        <ele>2204.4089984</ele>
        <time>2019-07-20T13:04:41.111Z</time>
      </trkpt>
      <trkpt lat="44.10378" lon="7.39621">
        <ele>2204</ele>
        <time>2019-07-20T13:04:49.120Z</time>
      </trkpt>
      <trkpt lat="44.10364" lon="7.39623">
        <ele>2204</ele>
        <time>2019-07-20T13:05:00.115Z</time>
      </trkpt>
      <trkpt lat="44.10354" lon="7.39627">
        <ele>2203</ele>
        <time>2019-07-20T13:05:08.115Z</time>
      </trkpt>
      <trkpt lat="44.1034" lon="7.39625">
        <ele>2203</ele>
        <time>2019-07-20T13:05:17.119Z</time>
      </trkpt>
      <trkpt lat="44.10327" lon="7.39622">
        <ele>2203</ele>
        <time>2019-07-20T13:05:25.121Z</time>
      </trkpt>
      <trkpt lat="44.10315" lon="7.3962">
        <ele>2203</ele>
        <time>2019-07-20T13:05:32.115Z</time>
      </trkpt>
      <trkpt lat="44.10305" lon="7.39613">
        <ele>2203</ele>
        <time>2019-07-20T13:05:40.115Z</time>
      </trkpt>
      <trkpt lat="44.10295" lon="7.39608">
        <ele>2202</ele>
        <time>2019-07-20T13:05:49.111Z</time>
      </trkpt>
      <trkpt lat="44.10279" lon="7.39605">
        <ele>2203</ele>
        <time>2019-07-20T13:06:00.115Z</time>
      </trkpt>
      <trkpt lat="44.10268" lon="7.39603">
        <ele>2200</ele>
        <time>2019-07-20T13:06:08.115Z</time>
      </trkpt>
      <trkpt lat="44.10257" lon="7.39607">
        <ele>2199</ele>
        <time>2019-07-20T13:06:17.115Z</time>
      </trkpt>
      <trkpt lat="44.10242" lon="7.39595">
        <ele>2197</ele>
        <time>2019-07-20T13:06:25.115Z</time>
      </trkpt>
      <trkpt lat="44.1023" lon="7.3959">
        <ele>2198</ele>
        <time>2019-07-20T13:06:33.120Z</time>
      </trkpt>
      <trkpt lat="44.10207" lon="7.39595">
        <ele>2198.6</ele>
        <time>2019-07-20T13:06:41.120Z</time>
      </trkpt>
      <trkpt lat="44.10194" lon="7.39601">
        <ele>2200</ele>
        <time>2019-07-20T13:06:53.112Z</time>
      </trkpt>
      <trkpt lat="44.10182" lon="7.39602">
        <ele>2200</ele>
        <time>2019-07-20T13:07:01.112Z</time>
      </trkpt>
      <trkpt lat="44.10166" lon="7.39615">
        <ele>2200</ele>
        <time>2019-07-20T13:07:09.107Z</time>
      </trkpt>
      <trkpt lat="44.10156" lon="7.39619">
        <ele>2204</ele>
        <time>2019-07-20T13:07:17.106Z</time>
      </trkpt>
      <trkpt lat="44.10161" lon="7.39605">
        <ele>2205</ele>
        <time>2019-07-20T13:07:41.112Z</time>
      </trkpt>
      <trkpt lat="44.10155" lon="7.39612">
        <ele>2204.4050048</ele>
        <time>2019-07-20T13:08:41.115Z</time>
      </trkpt>
      <trkpt lat="44.10149" lon="7.39613">
        <ele>2204</ele>
        <time>2019-07-20T13:08:47.115Z</time>
      </trkpt>
      <trkpt lat="44.1014" lon="7.39611">
        <ele>2205</ele>
        <time>2019-07-20T13:08:55.122Z</time>
      </trkpt>
      <trkpt lat="44.10122" lon="7.39612">
        <ele>2205</ele>
        <time>2019-07-20T13:09:04.115Z</time>
      </trkpt>
      <trkpt lat="44.10105" lon="7.39618">
        <ele>2205</ele>
        <time>2019-07-20T13:09:12.115Z</time>
      </trkpt>
      <trkpt lat="44.10087" lon="7.39632">
        <ele>2205</ele>
        <time>2019-07-20T13:09:22.121Z</time>
      </trkpt>
      <trkpt lat="44.10066" lon="7.39638">
        <ele>2203.8100096</ele>
        <time>2019-07-20T13:09:31.115Z</time>
      </trkpt>
      <trkpt lat="44.10055" lon="7.3964">
        <ele>2202.4050048</ele>
        <time>2019-07-20T13:09:36.115Z</time>
      </trkpt>
      <trkpt lat="44.10044" lon="7.39642">
        <ele>2200.8100096</ele>
        <time>2019-07-20T13:09:41.115Z</time>
      </trkpt>
      <trkpt lat="44.10026" lon="7.39639">
        <ele>2199</ele>
        <time>2019-07-20T13:09:49.115Z</time>
      </trkpt>
      <trkpt lat="44.10016" lon="7.39632">
        <ele>2197</ele>
        <time>2019-07-20T13:09:54.115Z</time>
      </trkpt>
      <trkpt lat="44.10006" lon="7.39642">
        <ele>2195</ele>
        <time>2019-07-20T13:09:59.115Z</time>
      </trkpt>
      <trkpt lat="44.09986" lon="7.39648">
        <ele>2194</ele>
        <time>2019-07-20T13:10:08.115Z</time>
      </trkpt>
      <trkpt lat="44.09967" lon="7.39646">
        <ele>2190</ele>
        <time>2019-07-20T13:10:17.122Z</time>
      </trkpt>
      <trkpt lat="44.09957" lon="7.39644">
        <ele>2188</ele>
        <time>2019-07-20T13:10:22.120Z</time>
      </trkpt>
      <trkpt lat="44.09947" lon="7.39652">
        <ele>2186</ele>
        <time>2019-07-20T13:10:28.115Z</time>
      </trkpt>
      <trkpt lat="44.09938" lon="7.39657">
        <ele>2185</ele>
        <time>2019-07-20T13:10:35.117Z</time>
      </trkpt>
      <trkpt lat="44.09945" lon="7.39668">
        <ele>2183</ele>
        <time>2019-07-20T13:10:45.108Z</time>
      </trkpt>
      <trkpt lat="44.09944" lon="7.39684">
        <ele>2178</ele>
        <time>2019-07-20T13:10:59.115Z</time>
      </trkpt>
      <trkpt lat="44.09933" lon="7.3969">
        <ele>2176</ele>
        <time>2019-07-20T13:11:10.115Z</time>
      </trkpt>
      <trkpt lat="44.09915" lon="7.39706">
        <ele>2171</ele>
        <time>2019-07-20T13:11:19.114Z</time>
      </trkpt>
      <trkpt lat="44.09896" lon="7.3971">
        <ele>2170</ele>
        <time>2019-07-20T13:11:25.108Z</time>
      </trkpt>
      <trkpt lat="44.09892" lon="7.39692">
        <ele>2169.4050048</ele>
        <time>2019-07-20T13:11:31.115Z</time>
      </trkpt>
      <trkpt lat="44.09888" lon="7.39664">
        <ele>2166.6435759004</ele>
        <time>2019-07-20T13:11:41.115Z</time>
      </trkpt>
      <trkpt lat="44.0988" lon="7.39641">
        <ele>2164</ele>
        <time>2019-07-20T13:11:50.116Z</time>
      </trkpt>
      <trkpt lat="44.0988" lon="7.39613">
        <ele>2160</ele>
        <time>2019-07-20T13:11:58.115Z</time>
      </trkpt>
      <trkpt lat="44.09884" lon="7.39601">
        <ele>2158</ele>
        <time>2019-07-20T13:12:03.115Z</time>
      </trkpt>
      <trkpt lat="44.09877" lon="7.39591">
        <ele>2158</ele>
        <time>2019-07-20T13:12:11.115Z</time>
      </trkpt>
      <trkpt lat="44.09874" lon="7.39577">
        <ele>2158</ele>
        <time>2019-07-20T13:12:19.115Z</time>
      </trkpt>
      <trkpt lat="44.09866" lon="7.39591">
        <ele>2154</ele>
        <time>2019-07-20T13:12:42.115Z</time>
      </trkpt>
      <trkpt lat="44.09854" lon="7.39584">
        <ele>2150</ele>
        <time>2019-07-20T13:12:55.111Z</time>
      </trkpt>
      <trkpt lat="44.09842" lon="7.39582">
        <ele>2145</ele>
        <time>2019-07-20T13:13:03.115Z</time>
      </trkpt>
      <trkpt lat="44.09829" lon="7.39566">
        <ele>2142.2150144</ele>
        <time>2019-07-20T13:13:11.115Z</time>
      </trkpt>
      <trkpt lat="44.09818" lon="7.39561">
        <ele>2142</ele>
        <time>2019-07-20T13:13:23.119Z</time>
      </trkpt>
      <trkpt lat="44.09806" lon="7.39567">
        <ele>2142</ele>
        <time>2019-07-20T13:13:30.115Z</time>
      </trkpt>
      <trkpt lat="44.098" lon="7.39551">
        <ele>2142</ele>
        <time>2019-07-20T13:13:39.116Z</time>
      </trkpt>
      <trkpt lat="44.09784" lon="7.3955">
        <ele>2141</ele>
        <time>2019-07-20T13:13:47.112Z</time>
      </trkpt>
      <trkpt lat="44.09768" lon="7.39543">
        <ele>2138</ele>
        <time>2019-07-20T13:13:55.117Z</time>
      </trkpt>
      <trkpt lat="44.09753" lon="7.39548">
        <ele>2136</ele>
        <time>2019-07-20T13:14:07.119Z</time>
      </trkpt>
      <trkpt lat="44.09742" lon="7.39556">
        <ele>2136</ele>
        <time>2019-07-20T13:14:15.114Z</time>
      </trkpt>
      <trkpt lat="44.09731" lon="7.39561">
        <ele>2134</ele>
        <time>2019-07-20T13:14:23.113Z</time>
      </trkpt>
      <trkpt lat="44.09713" lon="7.39563">
        <ele>2132.4089984</ele>
        <time>2019-07-20T13:14:31.111Z</time>
      </trkpt>
      <trkpt lat="44.09699" lon="7.39563">
        <ele>2132</ele>
        <time>2019-07-20T13:14:39.119Z</time>
      </trkpt>
      <trkpt lat="44.09677" lon="7.39571">
        <ele>2132</ele>
        <time>2019-07-20T13:14:51.122Z</time>
      </trkpt>
      <trkpt lat="44.09666" lon="7.39565">
        <ele>2132</ele>
        <time>2019-07-20T13:14:59.119Z</time>
      </trkpt>
      <trkpt lat="44.09642" lon="7.39563">
        <ele>2131</ele>
        <time>2019-07-20T13:15:07.116Z</time>
      </trkpt>
      <trkpt lat="44.09623" lon="7.39573">
        <ele>2131</ele>
        <time>2019-07-20T13:15:19.117Z</time>
      </trkpt>
      <trkpt lat="44.09622" lon="7.39557">
        <ele>2131</ele>
        <time>2019-07-20T13:15:31.106Z</time>
      </trkpt>
      <trkpt lat="44.09624" lon="7.39526">
        <ele>2131</ele>
        <time>2019-07-20T13:15:43.117Z</time>
      </trkpt>
      <trkpt lat="44.09611" lon="7.3953">
        <ele>2131</ele>
        <time>2019-07-20T13:15:51.116Z</time>
      </trkpt>
      <trkpt lat="44.09594" lon="7.39525">
        <ele>2131</ele>
        <time>2019-07-20T13:15:59.115Z</time>
      </trkpt>
      <trkpt lat="44.0958" lon="7.39528">
        <ele>2129</ele>
        <time>2019-07-20T13:16:06.216Z</time>
      </trkpt>
      <trkpt lat="44.09569" lon="7.39552">
        <ele>2130</ele>
        <time>2019-07-20T13:16:15.119Z</time>
      </trkpt>
      <trkpt lat="44.09561" lon="7.39573">
        <ele>2130</ele>
        <time>2019-07-20T13:16:23.121Z</time>
      </trkpt>
      <trkpt lat="44.09547" lon="7.39575">
        <ele>2130</ele>
        <time>2019-07-20T13:16:31.123Z</time>
      </trkpt>
      <trkpt lat="44.09527" lon="7.39568">
        <ele>2129</ele>
        <time>2019-07-20T13:16:43.108Z</time>
      </trkpt>
      <trkpt lat="44.09526" lon="7.39549">
        <ele>2131</ele>
        <time>2019-07-20T13:16:53.115Z</time>
      </trkpt>
      <trkpt lat="44.09517" lon="7.39543">
        <ele>2132</ele>
        <time>2019-07-20T13:17:09.108Z</time>
      </trkpt>
      <trkpt lat="44.09508" lon="7.39534">
        <ele>2133</ele>
        <time>2019-07-20T13:17:17.116Z</time>
      </trkpt>
      <trkpt lat="44.09499" lon="7.39538">
        <ele>2133</ele>
        <time>2019-07-20T13:17:27.115Z</time>
      </trkpt>
      <trkpt lat="44.09489" lon="7.3954">
        <ele>2134</ele>
        <time>2019-07-20T13:17:32.107Z</time>
      </trkpt>
      <trkpt lat="44.09469" lon="7.39538">
        <ele>2133</ele>
        <time>2019-07-20T13:17:42.113Z</time>
      </trkpt>
      <trkpt lat="44.09449" lon="7.39536">
        <ele>2133</ele>
        <time>2019-07-20T13:17:52.123Z</time>
      </trkpt>
      <trkpt lat="44.0944" lon="7.39532">
        <ele>2133</ele>
        <time>2019-07-20T13:18:03.118Z</time>
      </trkpt>
      <trkpt lat="44.09428" lon="7.39534">
        <ele>2133</ele>
        <time>2019-07-20T13:18:10.111Z</time>
      </trkpt>
      <trkpt lat="44.09418" lon="7.39535">
        <ele>2133</ele>
        <time>2019-07-20T13:18:15.109Z</time>
      </trkpt>
      <trkpt lat="44.09408" lon="7.39542">
        <ele>2132</ele>
        <time>2019-07-20T13:18:24.117Z</time>
      </trkpt>
      <trkpt lat="44.09398" lon="7.39535">
        <ele>2131</ele>
        <time>2019-07-20T13:18:32.115Z</time>
      </trkpt>
      <trkpt lat="44.09388" lon="7.39533">
        <ele>2129</ele>
        <time>2019-07-20T13:18:42.114Z</time>
      </trkpt>
      <trkpt lat="44.09379" lon="7.3953">
        <ele>2129</ele>
        <time>2019-07-20T13:18:47.115Z</time>
      </trkpt>
      <trkpt lat="44.09369" lon="7.39527">
        <ele>2129</ele>
        <time>2019-07-20T13:18:53.110Z</time>
      </trkpt>
      <trkpt lat="44.09359" lon="7.39524">
        <ele>2129</ele>
        <time>2019-07-20T13:19:01.114Z</time>
      </trkpt>
      <trkpt lat="44.09352" lon="7.39519">
        <ele>2129</ele>
        <time>2019-07-20T13:19:07.209Z</time>
      </trkpt>
      <trkpt lat="44.09343" lon="7.39518">
        <ele>2130</ele>
        <time>2019-07-20T13:19:16.115Z</time>
      </trkpt>
      <trkpt lat="44.09335" lon="7.39518">
        <ele>2129</ele>
        <time>2019-07-20T13:19:23.115Z</time>
      </trkpt>
      <trkpt lat="44.0932" lon="7.39527">
        <ele>2128</ele>
        <time>2019-07-20T13:19:33.115Z</time>
      </trkpt>
      <trkpt lat="44.09312" lon="7.39531">
        <ele>2128.592</ele>
        <time>2019-07-20T13:19:41.112Z</time>
      </trkpt>
      <trkpt lat="44.09302" lon="7.39533">
        <ele>2129</ele>
        <time>2019-07-20T13:19:49.107Z</time>
      </trkpt>
      <trkpt lat="44.09293" lon="7.39541">
        <ele>2132</ele>
        <time>2019-07-20T13:19:58.122Z</time>
      </trkpt>
      <trkpt lat="44.09284" lon="7.39535">
        <ele>2132</ele>
        <time>2019-07-20T13:20:08.112Z</time>
      </trkpt>
      <trkpt lat="44.09274" lon="7.39538">
        <ele>2134</ele>
        <time>2019-07-20T13:20:15.117Z</time>
      </trkpt>
      <trkpt lat="44.09264" lon="7.39542">
        <ele>2135</ele>
        <time>2019-07-20T13:20:23.106Z</time>
      </trkpt>
      <trkpt lat="44.09252" lon="7.39566">
        <ele>2132.8080128</ele>
        <time>2019-07-20T13:20:41.115Z</time>
      </trkpt>
      <trkpt lat="44.09244" lon="7.39578">
        <ele>2132</ele>
        <time>2019-07-20T13:20:46.110Z</time>
      </trkpt>
      <trkpt lat="44.09234" lon="7.39585">
        <ele>2133</ele>
        <time>2019-07-20T13:20:54.110Z</time>
      </trkpt>
      <trkpt lat="44.09219" lon="7.39589">
        <ele>2132</ele>
        <time>2019-07-20T13:21:18.109Z</time>
      </trkpt>
      <trkpt lat="44.09206" lon="7.39601">
        <ele>2129.3970048</ele>
        <time>2019-07-20T13:21:26.122Z</time>
      </trkpt>
      <trkpt lat="44.09199" lon="7.39612">
        <ele>2127</ele>
        <time>2019-07-20T13:21:34.108Z</time>
      </trkpt>
      <trkpt lat="44.09192" lon="7.39629">
        <ele>2120.4060032</ele>
        <time>2019-07-20T13:21:42.113Z</time>
      </trkpt>
      <trkpt lat="44.09182" lon="7.39639">
        <ele>2118</ele>
        <time>2019-07-20T13:21:50.114Z</time>
      </trkpt>
      <trkpt lat="44.09164" lon="7.39655">
        <ele>2115</ele>
        <time>2019-07-20T13:21:58.115Z</time>
      </trkpt>
      <trkpt lat="44.09159" lon="7.39671">
        <ele>2109</ele>
        <time>2019-07-20T13:22:14.113Z</time>
      </trkpt>
      <trkpt lat="44.09148" lon="7.39675">
        <ele>2105</ele>
        <time>2019-07-20T13:22:22.114Z</time>
      </trkpt>
      <trkpt lat="44.09127" lon="7.39673">
        <ele>2103</ele>
        <time>2019-07-20T13:22:34.112Z</time>
      </trkpt>
      <trkpt lat="44.09127" lon="7.39692">
        <ele>2098</ele>
        <time>2019-07-20T13:22:50.108Z</time>
      </trkpt>
      <trkpt lat="44.09122" lon="7.39709">
        <ele>2091</ele>
        <time>2019-07-20T13:23:05.115Z</time>
      </trkpt>
      <trkpt lat="44.0912" lon="7.39732">
        <ele>2084.2029952</ele>
        <time>2019-07-20T13:23:26.118Z</time>
      </trkpt>
      <trkpt lat="44.09119" lon="7.39748">
        <ele>2076.3980032</ele>
        <time>2019-07-20T13:23:46.121Z</time>
      </trkpt>
      <trkpt lat="44.09122" lon="7.39762">
        <ele>2068.408</ele>
        <time>2019-07-20T13:24:05.111Z</time>
      </trkpt>
      <trkpt lat="44.09106" lon="7.39765">
        <ele>2067</ele>
        <time>2019-07-20T13:24:20.115Z</time>
      </trkpt>
      <trkpt lat="44.09114" lon="7.39775">
        <ele>2058</ele>
        <time>2019-07-20T13:24:35.111Z</time>
      </trkpt>
      <trkpt lat="44.09107" lon="7.39786">
        <ele>2055.8199936</ele>
        <time>2019-07-20T13:24:41.109Z</time>
      </trkpt>
      <trkpt lat="44.09083" lon="7.39781">
        <ele>2054</ele>
        <time>2019-07-20T13:24:49.112Z</time>
      </trkpt>
      <trkpt lat="44.09087" lon="7.39796">
        <ele>2050</ele>
        <time>2019-07-20T13:25:03.115Z</time>
      </trkpt>
      <trkpt lat="44.09084" lon="7.39818">
        <ele>2045</ele>
        <time>2019-07-20T13:25:20.114Z</time>
      </trkpt>
      <trkpt lat="44.09077" lon="7.39842">
        <ele>2044</ele>
        <time>2019-07-20T13:25:30.116Z</time>
      </trkpt>
      <trkpt lat="44.09079" lon="7.39856">
        <ele>2042</ele>
        <time>2019-07-20T13:25:36.108Z</time>
      </trkpt>
      <trkpt lat="44.09091" lon="7.39861">
        <ele>2038.2329856</ele>
        <time>2019-07-20T13:25:46.108Z</time>
      </trkpt>
      <trkpt lat="44.0909" lon="7.39875">
        <ele>2035</ele>
        <time>2019-07-20T13:25:54.117Z</time>
      </trkpt>
      <trkpt lat="44.091" lon="7.39878">
        <ele>2032</ele>
        <time>2019-07-20T13:26:04.117Z</time>
      </trkpt>
      <trkpt lat="44.09109" lon="7.39885">
        <ele>2029</ele>
        <time>2019-07-20T13:26:13.119Z</time>
      </trkpt>
      <trkpt lat="44.09101" lon="7.39898">
        <ele>2029</ele>
        <time>2019-07-20T13:26:20.109Z</time>
      </trkpt>
      <trkpt lat="44.09089" lon="7.39923">
        <ele>2027</ele>
        <time>2019-07-20T13:26:28.115Z</time>
      </trkpt>
      <trkpt lat="44.09081" lon="7.3993">
        <ele>2025</ele>
        <time>2019-07-20T13:26:39.115Z</time>
      </trkpt>
      <trkpt lat="44.09072" lon="7.39924">
        <ele>2024</ele>
        <time>2019-07-20T13:26:47.115Z</time>
      </trkpt>
      <trkpt lat="44.09079" lon="7.39935">
        <ele>2022</ele>
        <time>2019-07-20T13:26:58.115Z</time>
      </trkpt>
      <trkpt lat="44.09077" lon="7.39947">
        <ele>2018</ele>
        <time>2019-07-20T13:27:09.115Z</time>
      </trkpt>
      <trkpt lat="44.09072" lon="7.39961">
        <ele>2018</ele>
        <time>2019-07-20T13:27:19.115Z</time>
      </trkpt>
      <trkpt lat="44.09064" lon="7.3997">
        <ele>2018</ele>
        <time>2019-07-20T13:27:24.115Z</time>
      </trkpt>
      <trkpt lat="44.09057" lon="7.39981">
        <ele>2020</ele>
        <time>2019-07-20T13:27:35.115Z</time>
      </trkpt>
      <trkpt lat="44.0905" lon="7.39992">
        <ele>2019.4040064</ele>
        <time>2019-07-20T13:27:41.115Z</time>
      </trkpt>
      <trkpt lat="44.09043" lon="7.40002">
        <ele>2019</ele>
        <time>2019-07-20T13:27:47.115Z</time>
      </trkpt>
      <trkpt lat="44.09034" lon="7.40012">
        <ele>2019</ele>
        <time>2019-07-20T13:27:53.115Z</time>
      </trkpt>
      <trkpt lat="44.09025" lon="7.40021">
        <ele>2019</ele>
        <time>2019-07-20T13:27:58.115Z</time>
      </trkpt>
      <trkpt lat="44.09017" lon="7.40034">
        <ele>2018</ele>
        <time>2019-07-20T13:28:04.115Z</time>
      </trkpt>
      <trkpt lat="44.09008" lon="7.40041">
        <ele>2018</ele>
        <time>2019-07-20T13:28:12.115Z</time>
      </trkpt>
      <trkpt lat="44.08999" lon="7.40049">
        <ele>2018</ele>
        <time>2019-07-20T13:28:19.115Z</time>
      </trkpt>
      <trkpt lat="44.08988" lon="7.40067">
        <ele>2019</ele>
        <time>2019-07-20T13:28:27.115Z</time>
      </trkpt>
      <trkpt lat="44.08977" lon="7.40085">
        <ele>2022</ele>
        <time>2019-07-20T13:28:35.115Z</time>
      </trkpt>
      <trkpt lat="44.08963" lon="7.40109">
        <ele>2022</ele>
        <time>2019-07-20T13:28:47.115Z</time>
      </trkpt>
      <trkpt lat="44.08945" lon="7.40115">
        <ele>2020</ele>
        <time>2019-07-20T13:28:59.115Z</time>
      </trkpt>
      <trkpt lat="44.08929" lon="7.40132">
        <ele>2014.8080128</ele>
        <time>2019-07-20T13:29:11.115Z</time>
      </trkpt>
      <trkpt lat="44.08922" lon="7.40119">
        <ele>2011</ele>
        <time>2019-07-20T13:29:23.115Z</time>
      </trkpt>
      <trkpt lat="44.08918" lon="7.40131">
        <ele>2008</ele>
        <time>2019-07-20T13:29:35.115Z</time>
      </trkpt>
      <trkpt lat="44.0891" lon="7.40125">
        <ele>2006</ele>
        <time>2019-07-20T13:29:43.115Z</time>
      </trkpt>
      <trkpt lat="44.08905" lon="7.40136">
        <ele>2003.6160256</ele>
        <time>2019-07-20T13:29:51.115Z</time>
      </trkpt>
      <trkpt lat="44.08894" lon="7.40138">
        <ele>1997</ele>
        <time>2019-07-20T13:30:03.115Z</time>
      </trkpt>
      <trkpt lat="44.08887" lon="7.40143">
        <ele>1994</ele>
        <time>2019-07-20T13:30:15.115Z</time>
      </trkpt>
      <trkpt lat="44.08877" lon="7.40145">
        <ele>1990</ele>
        <time>2019-07-20T13:30:27.115Z</time>
      </trkpt>
      <trkpt lat="44.0887" lon="7.40155">
        <ele>1986</ele>
        <time>2019-07-20T13:30:39.115Z</time>
      </trkpt>
      <trkpt lat="44.08863" lon="7.40167">
        <ele>1981</ele>
        <time>2019-07-20T13:30:55.115Z</time>
      </trkpt>
      <trkpt lat="44.08861" lon="7.40182">
        <ele>1976</ele>
        <time>2019-07-20T13:31:07.115Z</time>
      </trkpt>
      <trkpt lat="44.0885" lon="7.40178">
        <ele>1974</ele>
        <time>2019-07-20T13:31:19.115Z</time>
      </trkpt>
      <trkpt lat="44.08842" lon="7.40192">
        <ele>1968.4040064</ele>
        <time>2019-07-20T13:31:31.115Z</time>
      </trkpt>
      <trkpt lat="44.08833" lon="7.402">
        <ele>1967</ele>
        <time>2019-07-20T13:31:39.115Z</time>
      </trkpt>
      <trkpt lat="44.08824" lon="7.40215">
        <ele>1961</ele>
        <time>2019-07-20T13:31:55.115Z</time>
      </trkpt>
      <trkpt lat="44.08813" lon="7.40227">
        <ele>1956</ele>
        <time>2019-07-20T13:32:07.115Z</time>
      </trkpt>
      <trkpt lat="44.08806" lon="7.40216">
        <ele>1955</ele>
        <time>2019-07-20T13:32:19.115Z</time>
      </trkpt>
      <trkpt lat="44.08797" lon="7.40211">
        <ele>1948</ele>
        <time>2019-07-20T13:32:35.115Z</time>
      </trkpt>
      <trkpt lat="44.08798" lon="7.40195">
        <ele>1945</ele>
        <time>2019-07-20T13:32:43.115Z</time>
      </trkpt>
      <trkpt lat="44.0879" lon="7.40187">
        <ele>1940</ele>
        <time>2019-07-20T13:32:59.115Z</time>
      </trkpt>
      <trkpt lat="44.0878" lon="7.40192">
        <ele>1934.2150144</ele>
        <time>2019-07-20T13:33:11.115Z</time>
      </trkpt>
      <trkpt lat="44.08769" lon="7.40208">
        <ele>1931</ele>
        <time>2019-07-20T13:33:19.115Z</time>
      </trkpt>
      <trkpt lat="44.0876" lon="7.40223">
        <ele>1929</ele>
        <time>2019-07-20T13:33:27.115Z</time>
      </trkpt>
      <trkpt lat="44.08748" lon="7.40224">
        <ele>1925</ele>
        <time>2019-07-20T13:33:39.115Z</time>
      </trkpt>
      <trkpt lat="44.0874" lon="7.40237">
        <ele>1919.4050048</ele>
        <time>2019-07-20T13:33:51.115Z</time>
      </trkpt>
      <trkpt lat="44.08733" lon="7.40248">
        <ele>1918</ele>
        <time>2019-07-20T13:33:59.115Z</time>
      </trkpt>
      <trkpt lat="44.08728" lon="7.40234">
        <ele>1912</ele>
        <time>2019-07-20T13:34:07.115Z</time>
      </trkpt>
      <trkpt lat="44.08719" lon="7.40243">
        <ele>1911</ele>
        <time>2019-07-20T13:34:15.115Z</time>
      </trkpt>
      <trkpt lat="44.08705" lon="7.40238">
        <ele>1905</ele>
        <time>2019-07-20T13:34:27.115Z</time>
      </trkpt>
      <trkpt lat="44.08705" lon="7.4022">
        <ele>1901</ele>
        <time>2019-07-20T13:34:39.115Z</time>
      </trkpt>
      <trkpt lat="44.08705" lon="7.40236">
        <ele>1898.4050048</ele>
        <time>2019-07-20T13:34:51.115Z</time>
      </trkpt>
      <trkpt lat="44.08697" lon="7.40218">
        <ele>1892</ele>
        <time>2019-07-20T13:35:03.115Z</time>
      </trkpt>
      <trkpt lat="44.08687" lon="7.40209">
        <ele>1888</ele>
        <time>2019-07-20T13:35:19.115Z</time>
      </trkpt>
      <trkpt lat="44.08676" lon="7.40214">
        <ele>1884</ele>
        <time>2019-07-20T13:35:27.115Z</time>
      </trkpt>
      <trkpt lat="44.08668" lon="7.40227">
        <ele>1884</ele>
        <time>2019-07-20T13:35:35.115Z</time>
      </trkpt>
      <trkpt lat="44.08664" lon="7.40241">
        <ele>1882</ele>
        <time>2019-07-20T13:35:43.115Z</time>
      </trkpt>
      <trkpt lat="44.08657" lon="7.40255">
        <ele>1880.8100096</ele>
        <time>2019-07-20T13:35:51.115Z</time>
      </trkpt>
      <trkpt lat="44.08647" lon="7.4027">
        <ele>1879</ele>
        <time>2019-07-20T13:35:59.115Z</time>
      </trkpt>
      <trkpt lat="44.0864" lon="7.40283">
        <ele>1879</ele>
        <time>2019-07-20T13:36:07.115Z</time>
      </trkpt>
      <trkpt lat="44.08633" lon="7.40297">
        <ele>1879</ele>
        <time>2019-07-20T13:36:19.115Z</time>
      </trkpt>
      <trkpt lat="44.08621" lon="7.40303">
        <ele>1874.636377741</ele>
        <time>2019-07-20T13:36:31.115Z</time>
      </trkpt>
      <trkpt lat="44.08617" lon="7.4029">
        <ele>1870</ele>
        <time>2019-07-20T13:36:39.115Z</time>
      </trkpt>
      <trkpt lat="44.08604" lon="7.40301">
        <ele>1866</ele>
        <time>2019-07-20T13:36:54.115Z</time>
      </trkpt>
      <trkpt lat="44.08599" lon="7.40313">
        <ele>1864</ele>
        <time>2019-07-20T13:37:03.115Z</time>
      </trkpt>
      <trkpt lat="44.08589" lon="7.40321">
        <ele>1862.8100096</ele>
        <time>2019-07-20T13:37:11.115Z</time>
      </trkpt>
      <trkpt lat="44.08584" lon="7.40327">
        <ele>1862</ele>
        <time>2019-07-20T13:37:16.922Z</time>
      </trkpt>
      <trkpt lat="44.08572" lon="7.40327">
        <ele>1859</ele>
        <time>2019-07-20T13:37:23.109Z</time>
      </trkpt>
      <trkpt lat="44.08562" lon="7.40334">
        <ele>1857</ele>
        <time>2019-07-20T13:37:30.115Z</time>
      </trkpt>
      <trkpt lat="44.08551" lon="7.40333">
        <ele>1854</ele>
        <time>2019-07-20T13:37:40.115Z</time>
      </trkpt>
      <trkpt lat="44.08541" lon="7.40338">
        <ele>1852</ele>
        <time>2019-07-20T13:37:48.116Z</time>
      </trkpt>
      <trkpt lat="44.08532" lon="7.40347">
        <ele>1851</ele>
        <time>2019-07-20T13:37:56.219Z</time>
      </trkpt>
      <trkpt lat="44.08522" lon="7.40349">
        <ele>1846</ele>
        <time>2019-07-20T13:38:04.115Z</time>
      </trkpt>
      <trkpt lat="44.08517" lon="7.40341">
        <ele>1846</ele>
        <time>2019-07-20T13:38:10.115Z</time>
      </trkpt>
      <trkpt lat="44.08509" lon="7.40329">
        <ele>1845</ele>
        <time>2019-07-20T13:38:19.116Z</time>
      </trkpt>
      <trkpt lat="44.085" lon="7.40328">
        <ele>1839.6099968</ele>
        <time>2019-07-20T13:38:26.215Z</time>
      </trkpt>
      <trkpt lat="44.08498" lon="7.40314">
        <ele>1838</ele>
        <time>2019-07-20T13:38:32.115Z</time>
      </trkpt>
      <trkpt lat="44.08487" lon="7.40309">
        <ele>1835.4108939751</ele>
        <time>2019-07-20T13:38:41.115Z</time>
      </trkpt>
      <trkpt lat="44.0848" lon="7.40297">
        <ele>1833</ele>
        <time>2019-07-20T13:38:49.116Z</time>
      </trkpt>
      <trkpt lat="44.08476" lon="7.40285">
        <ele>1831</ele>
        <time>2019-07-20T13:39:00.115Z</time>
      </trkpt>
      <trkpt lat="44.08474" lon="7.4027">
        <ele>1826</ele>
        <time>2019-07-20T13:39:07.115Z</time>
      </trkpt>
      <trkpt lat="44.08464" lon="7.40267">
        <ele>1822.8019968</ele>
        <time>2019-07-20T13:39:16.119Z</time>
      </trkpt>
      <trkpt lat="44.08462" lon="7.40282">
        <ele>1817.4050048</ele>
        <time>2019-07-20T13:39:24.115Z</time>
      </trkpt>
      <trkpt lat="44.08452" lon="7.4028">
        <ele>1815</ele>
        <time>2019-07-20T13:39:36.115Z</time>
      </trkpt>
      <trkpt lat="44.08448" lon="7.40269">
        <ele>1814</ele>
        <time>2019-07-20T13:39:43.115Z</time>
      </trkpt>
      <trkpt lat="44.08444" lon="7.40255">
        <ele>1812</ele>
        <time>2019-07-20T13:39:59.115Z</time>
      </trkpt>
      <trkpt lat="44.08443" lon="7.40241">
        <ele>1807.1899904</ele>
        <time>2019-07-20T13:40:08.115Z</time>
      </trkpt>
      <trkpt lat="44.08439" lon="7.40232">
        <ele>1807</ele>
        <time>2019-07-20T13:40:17.114Z</time>
      </trkpt>
      <trkpt lat="44.08439" lon="7.40222">
        <ele>1806</ele>
        <time>2019-07-20T13:40:26.223Z</time>
      </trkpt>
      <trkpt lat="44.08435" lon="7.40231">
        <ele>1806</ele>
        <time>2019-07-20T13:40:46.119Z</time>
      </trkpt>
      <trkpt lat="44.0844" lon="7.40218">
        <ele>1805</ele>
        <time>2019-07-20T13:41:09.120Z</time>
      </trkpt>
      <trkpt lat="44.0843" lon="7.40222">
        <ele>1806</ele>
        <time>2019-07-20T13:41:24.114Z</time>
      </trkpt>
      <trkpt lat="44.0843" lon="7.40228">
        <ele>1806</ele>
        <time>2019-07-20T13:41:39.115Z</time>
      </trkpt>
      <trkpt lat="44.08442" lon="7.40222">
        <ele>1807</ele>
        <time>2019-07-20T13:42:15.115Z</time>
      </trkpt>
      <trkpt lat="44.08435" lon="7.40212">
        <ele>1807</ele>
        <time>2019-07-20T13:42:29.115Z</time>
      </trkpt>
      <trkpt lat="44.08425" lon="7.4022">
        <ele>1807</ele>
        <time>2019-07-20T13:42:40.115Z</time>
      </trkpt>
      <trkpt lat="44.08413" lon="7.40221">
        <ele>1806</ele>
        <time>2019-07-20T13:42:49.115Z</time>
      </trkpt>
      <trkpt lat="44.08404" lon="7.4023">
        <ele>1805</ele>
        <time>2019-07-20T13:42:55.111Z</time>
      </trkpt>
      <trkpt lat="44.08397" lon="7.4022">
        <ele>1802</ele>
        <time>2019-07-20T13:43:02.115Z</time>
      </trkpt>
      <trkpt lat="44.0839" lon="7.40211">
        <ele>1803</ele>
        <time>2019-07-20T13:43:11.115Z</time>
      </trkpt>
      <trkpt lat="44.08382" lon="7.40204">
        <ele>1803</ele>
        <time>2019-07-20T13:43:18.117Z</time>
      </trkpt>
      <trkpt lat="44.08369" lon="7.40202">
        <ele>1804</ele>
        <time>2019-07-20T13:43:23.115Z</time>
      </trkpt>
      <trkpt lat="44.08362" lon="7.40212">
        <ele>1802.8100096</ele>
        <time>2019-07-20T13:43:31.115Z</time>
      </trkpt>
      <trkpt lat="44.0835" lon="7.40212">
        <ele>1802</ele>
        <time>2019-07-20T13:43:38.115Z</time>
      </trkpt>
      <trkpt lat="44.08339" lon="7.40211">
        <ele>1799</ele>
        <time>2019-07-20T13:43:43.115Z</time>
      </trkpt>
      <trkpt lat="44.0832" lon="7.40221">
        <ele>1795</ele>
        <time>2019-07-20T13:43:53.109Z</time>
      </trkpt>
      <trkpt lat="44.08309" lon="7.4022">
        <ele>1794</ele>
        <time>2019-07-20T13:43:58.113Z</time>
      </trkpt>
      <trkpt lat="44.08296" lon="7.40218">
        <ele>1794</ele>
        <time>2019-07-20T13:44:04.115Z</time>
      </trkpt>
      <trkpt lat="44.08287" lon="7.40212">
        <ele>1792.8100096</ele>
        <time>2019-07-20T13:44:11.115Z</time>
      </trkpt>
      <trkpt lat="44.08278" lon="7.40207">
        <ele>1792</ele>
        <time>2019-07-20T13:44:17.115Z</time>
      </trkpt>
      <trkpt lat="44.08261" lon="7.40205">
        <ele>1790</ele>
        <time>2019-07-20T13:44:26.115Z</time>
      </trkpt>
      <trkpt lat="44.0825" lon="7.40204">
        <ele>1787</ele>
        <time>2019-07-20T13:44:32.115Z</time>
      </trkpt>
      <trkpt lat="44.0824" lon="7.40207">
        <ele>1785</ele>
        <time>2019-07-20T13:44:38.115Z</time>
      </trkpt>
      <trkpt lat="44.08219" lon="7.40202">
        <ele>1782</ele>
        <time>2019-07-20T13:44:48.115Z</time>
      </trkpt>
      <trkpt lat="44.08209" lon="7.40197">
        <ele>1781</ele>
        <time>2019-07-20T13:44:54.115Z</time>
      </trkpt>
      <trkpt lat="44.082" lon="7.40194">
        <ele>1781</ele>
        <time>2019-07-20T13:44:59.115Z</time>
      </trkpt>
      <trkpt lat="44.08191" lon="7.40194">
        <ele>1781</ele>
        <time>2019-07-20T13:45:04.115Z</time>
      </trkpt>
      <trkpt lat="44.08183" lon="7.4019">
        <ele>1781</ele>
        <time>2019-07-20T13:45:09.115Z</time>
      </trkpt>
      <trkpt lat="44.08172" lon="7.40195">
        <ele>1780</ele>
        <time>2019-07-20T13:45:19.115Z</time>
      </trkpt>
      <trkpt lat="44.08163" lon="7.40199">
        <ele>1775.2150144</ele>
        <time>2019-07-20T13:45:26.115Z</time>
      </trkpt>
      <trkpt lat="44.08152" lon="7.40197">
        <ele>1772.8100096</ele>
        <time>2019-07-20T13:45:31.115Z</time>
      </trkpt>
      <trkpt lat="44.08142" lon="7.40201">
        <ele>1769</ele>
        <time>2019-07-20T13:45:37.115Z</time>
      </trkpt>
      <trkpt lat="44.08132" lon="7.40207">
        <ele>1765.4050048</ele>
        <time>2019-07-20T13:45:43.115Z</time>
      </trkpt>
      <trkpt lat="44.08113" lon="7.40214">
        <ele>1763</ele>
        <time>2019-07-20T13:45:52.115Z</time>
      </trkpt>
      <trkpt lat="44.08104" lon="7.40219">
        <ele>1763</ele>
        <time>2019-07-20T13:45:57.115Z</time>
      </trkpt>
      <trkpt lat="44.08086" lon="7.40218">
        <ele>1760</ele>
        <time>2019-07-20T13:46:05.115Z</time>
      </trkpt>
      <trkpt lat="44.08071" lon="7.40229">
        <ele>1759</ele>
        <time>2019-07-20T13:46:13.115Z</time>
      </trkpt>
      <trkpt lat="44.08055" lon="7.40245">
        <ele>1757.8100096</ele>
        <time>2019-07-20T13:46:21.115Z</time>
      </trkpt>
      <trkpt lat="44.08043" lon="7.40248">
        <ele>1757</ele>
        <time>2019-07-20T13:46:26.115Z</time>
      </trkpt>
      <trkpt lat="44.0803" lon="7.40263">
        <ele>1753</ele>
        <time>2019-07-20T13:46:34.115Z</time>
      </trkpt>
      <trkpt lat="44.08017" lon="7.40274">
        <ele>1751</ele>
        <time>2019-07-20T13:46:40.115Z</time>
      </trkpt>
      <trkpt lat="44.08002" lon="7.40284">
        <ele>1750</ele>
        <time>2019-07-20T13:46:46.115Z</time>
      </trkpt>
      <trkpt lat="44.07985" lon="7.40285">
        <ele>1749</ele>
        <time>2019-07-20T13:46:53.115Z</time>
      </trkpt>
      <trkpt lat="44.0797" lon="7.40284">
        <ele>1749</ele>
        <time>2019-07-20T13:46:59.115Z</time>
      </trkpt>
      <trkpt lat="44.07955" lon="7.40291">
        <ele>1745.4050048</ele>
        <time>2019-07-20T13:47:06.115Z</time>
      </trkpt>
      <trkpt lat="44.07945" lon="7.40297">
        <ele>1744.4050048</ele>
        <time>2019-07-20T13:47:11.115Z</time>
      </trkpt>
      <trkpt lat="44.0793" lon="7.40301">
        <ele>1744</ele>
        <time>2019-07-20T13:47:17.115Z</time>
      </trkpt>
      <trkpt lat="44.07917" lon="7.4029">
        <ele>1742</ele>
        <time>2019-07-20T13:47:23.115Z</time>
      </trkpt>
      <trkpt lat="44.07904" lon="7.40287">
        <ele>1742</ele>
        <time>2019-07-20T13:47:28.115Z</time>
      </trkpt>
      <trkpt lat="44.07887" lon="7.40272">
        <ele>1738.4090944352</ele>
        <time>2019-07-20T13:47:36.115Z</time>
      </trkpt>
      <trkpt lat="44.0787" lon="7.4026">
        <ele>1739</ele>
        <time>2019-07-20T13:47:47.115Z</time>
      </trkpt>
      <trkpt lat="44.07863" lon="7.40265">
        <ele>1738</ele>
        <time>2019-07-20T13:47:53.115Z</time>
      </trkpt>
      <trkpt lat="44.07837" lon="7.40267">
        <ele>1733</ele>
        <time>2019-07-20T13:48:04.112Z</time>
      </trkpt>
      <trkpt lat="44.07826" lon="7.40266">
        <ele>1733</ele>
        <time>2019-07-20T13:48:09.116Z</time>
      </trkpt>
      <trkpt lat="44.07802" lon="7.40242">
        <ele>1729.816</ele>
        <time>2019-07-20T13:48:21.112Z</time>
      </trkpt>
      <trkpt lat="44.07788" lon="7.40223">
        <ele>1728</ele>
        <time>2019-07-20T13:48:32.115Z</time>
      </trkpt>
      <trkpt lat="44.07776" lon="7.40208">
        <ele>1727.4050048</ele>
        <time>2019-07-20T13:48:40.115Z</time>
      </trkpt>
      <trkpt lat="44.07756" lon="7.40195">
        <ele>1726</ele>
        <time>2019-07-20T13:48:49.114Z</time>
      </trkpt>
      <trkpt lat="44.07743" lon="7.40181">
        <ele>1725</ele>
        <time>2019-07-20T13:48:56.215Z</time>
      </trkpt>
      <trkpt lat="44.07728" lon="7.40172">
        <ele>1723</ele>
        <time>2019-07-20T13:49:04.115Z</time>
      </trkpt>
      <trkpt lat="44.07707" lon="7.40168">
        <ele>1723</ele>
        <time>2019-07-20T13:49:12.115Z</time>
      </trkpt>
      <trkpt lat="44.07682" lon="7.40167">
        <ele>1721.8179968</ele>
        <time>2019-07-20T13:49:21.111Z</time>
      </trkpt>
      <trkpt lat="44.07652" lon="7.40171">
        <ele>1720</ele>
        <time>2019-07-20T13:49:33.120Z</time>
      </trkpt>
      <trkpt lat="44.07631" lon="7.40175">
        <ele>1718.8199936</ele>
        <time>2019-07-20T13:49:41.110Z</time>
      </trkpt>
      <trkpt lat="44.07612" lon="7.40182">
        <ele>1718</ele>
        <time>2019-07-20T13:49:48.115Z</time>
      </trkpt>
      <trkpt lat="44.07582" lon="7.40187">
        <ele>1717</ele>
        <time>2019-07-20T13:49:59.115Z</time>
      </trkpt>
      <trkpt lat="44.07557" lon="7.40186">
        <ele>1716</ele>
        <time>2019-07-20T13:50:08.115Z</time>
      </trkpt>
      <trkpt lat="44.07534" lon="7.4018">
        <ele>1715</ele>
        <time>2019-07-20T13:50:15.114Z</time>
      </trkpt>
      <trkpt lat="44.07512" lon="7.40177">
        <ele>1714</ele>
        <time>2019-07-20T13:50:23.120Z</time>
      </trkpt>
      <trkpt lat="44.0749" lon="7.40177">
        <ele>1714</ele>
        <time>2019-07-20T13:50:30.117Z</time>
      </trkpt>
      <trkpt lat="44.07481" lon="7.40153">
        <ele>1714</ele>
        <time>2019-07-20T13:50:38.110Z</time>
      </trkpt>
      <trkpt lat="44.07469" lon="7.40146">
        <ele>1712</ele>
        <time>2019-07-20T13:50:43.114Z</time>
      </trkpt>
      <trkpt lat="44.07448" lon="7.40134">
        <ele>1710</ele>
        <time>2019-07-20T13:50:52.116Z</time>
      </trkpt>
      <trkpt lat="44.07434" lon="7.40113">
        <ele>1710</ele>
        <time>2019-07-20T13:50:59.119Z</time>
      </trkpt>
      <trkpt lat="44.07422" lon="7.40086">
        <ele>1707</ele>
        <time>2019-07-20T13:51:08.113Z</time>
      </trkpt>
      <trkpt lat="44.07411" lon="7.40078">
        <ele>1708</ele>
        <time>2019-07-20T13:51:13.111Z</time>
      </trkpt>
      <trkpt lat="44.07405" lon="7.40067">
        <ele>1708</ele>
        <time>2019-07-20T13:51:20.117Z</time>
      </trkpt>
      <trkpt lat="44.07416" lon="7.40068">
        <ele>1708</ele>
        <time>2019-07-20T13:51:30.113Z</time>
      </trkpt>
      <trkpt lat="44.07416" lon="7.40054">
        <ele>1707.8100096</ele>
        <time>2019-07-20T13:52:01.115Z</time>
      </trkpt>
      <trkpt lat="44.07413" lon="7.40037">
        <ele>1707</ele>
        <time>2019-07-20T13:52:08.114Z</time>
      </trkpt>
      <trkpt lat="44.07406" lon="7.40026">
        <ele>1707</ele>
        <time>2019-07-20T13:52:14.115Z</time>
      </trkpt>
      <trkpt lat="44.07401" lon="7.40012">
        <ele>1707</ele>
        <time>2019-07-20T13:52:26.110Z</time>
      </trkpt>
      <trkpt lat="44.07395" lon="7.39997">
        <ele>1707</ele>
        <time>2019-07-20T13:52:34.108Z</time>
      </trkpt>
      <trkpt lat="44.07387" lon="7.39989">
        <ele>1707</ele>
        <time>2019-07-20T13:52:46.115Z</time>
      </trkpt>
      <trkpt lat="44.07378" lon="7.39984">
        <ele>1706.4009984</ele>
        <time>2019-07-20T13:52:51.119Z</time>
      </trkpt>
      <trkpt lat="44.07362" lon="7.39979">
        <ele>1706</ele>
        <time>2019-07-20T13:52:58.115Z</time>
      </trkpt>
      <trkpt lat="44.07349" lon="7.39972">
        <ele>1702</ele>
        <time>2019-07-20T13:53:05.115Z</time>
      </trkpt>
      <trkpt lat="44.07336" lon="7.39968">
        <ele>1703</ele>
        <time>2019-07-20T13:53:10.115Z</time>
      </trkpt>
      <trkpt lat="44.07315" lon="7.3996">
        <ele>1703</ele>
        <time>2019-07-20T13:53:18.116Z</time>
      </trkpt>
      <trkpt lat="44.07295" lon="7.39968">
        <ele>1703</ele>
        <time>2019-07-20T13:53:27.115Z</time>
      </trkpt>
      <trkpt lat="44.07284" lon="7.39976">
        <ele>1702</ele>
        <time>2019-07-20T13:53:32.115Z</time>
      </trkpt>
      <trkpt lat="44.07268" lon="7.39979">
        <ele>1702</ele>
        <time>2019-07-20T13:53:39.115Z</time>
      </trkpt>
      <trkpt lat="44.07251" lon="7.39979">
        <ele>1702</ele>
        <time>2019-07-20T13:53:47.117Z</time>
      </trkpt>
      <trkpt lat="44.0724" lon="7.39981">
        <ele>1701</ele>
        <time>2019-07-20T13:53:53.121Z</time>
      </trkpt>
      <trkpt lat="44.07229" lon="7.39984">
        <ele>1701</ele>
        <time>2019-07-20T13:54:00.115Z</time>
      </trkpt>
      <trkpt lat="44.07218" lon="7.39984">
        <ele>1699</ele>
        <time>2019-07-20T13:54:06.107Z</time>
      </trkpt>
      <trkpt lat="44.07209" lon="7.39978">
        <ele>1699</ele>
        <time>2019-07-20T13:54:13.114Z</time>
      </trkpt>
      <trkpt lat="44.072" lon="7.39968">
        <ele>1698</ele>
        <time>2019-07-20T13:54:23.113Z</time>
      </trkpt>
      <trkpt lat="44.0719" lon="7.39959">
        <ele>1698</ele>
        <time>2019-07-20T13:54:28.107Z</time>
      </trkpt>
      <trkpt lat="44.0718" lon="7.39952">
        <ele>1698</ele>
        <time>2019-07-20T13:54:36.111Z</time>
      </trkpt>
      <trkpt lat="44.07173" lon="7.39941">
        <ele>1697</ele>
        <time>2019-07-20T13:54:42.115Z</time>
      </trkpt>
      <trkpt lat="44.07158" lon="7.39931">
        <ele>1697</ele>
        <time>2019-07-20T13:54:48.115Z</time>
      </trkpt>
      <trkpt lat="44.07138" lon="7.39924">
        <ele>1696</ele>
        <time>2019-07-20T13:54:57.115Z</time>
      </trkpt>
      <trkpt lat="44.07117" lon="7.39933">
        <ele>1694</ele>
        <time>2019-07-20T13:55:06.115Z</time>
      </trkpt>
      <trkpt lat="44.07093" lon="7.3993">
        <ele>1693</ele>
        <time>2019-07-20T13:55:15.116Z</time>
      </trkpt>
      <trkpt lat="44.07077" lon="7.39909">
        <ele>1691</ele>
        <time>2019-07-20T13:55:24.109Z</time>
      </trkpt>
      <trkpt lat="44.07059" lon="7.39885">
        <ele>1689</ele>
        <time>2019-07-20T13:55:32.123Z</time>
      </trkpt>
      <trkpt lat="44.07039" lon="7.39872">
        <ele>1689</ele>
        <time>2019-07-20T13:55:38.108Z</time>
      </trkpt>
      <trkpt lat="44.0703" lon="7.39866">
        <ele>1686</ele>
        <time>2019-07-20T13:55:43.117Z</time>
      </trkpt>
      <trkpt lat="44.07009" lon="7.39855">
        <ele>1682</ele>
        <time>2019-07-20T13:55:52.108Z</time>
      </trkpt>
      <trkpt lat="44.0699" lon="7.39837">
        <ele>1681</ele>
        <time>2019-07-20T13:56:00.113Z</time>
      </trkpt>
      <trkpt lat="44.0699" lon="7.39822">
        <ele>1679</ele>
        <time>2019-07-20T13:56:05.118Z</time>
      </trkpt>
      <trkpt lat="44.06991" lon="7.39794">
        <ele>1677</ele>
        <time>2019-07-20T13:56:13.113Z</time>
      </trkpt>
      <trkpt lat="44.06989" lon="7.39779">
        <ele>1677</ele>
        <time>2019-07-20T13:56:20.108Z</time>
      </trkpt>
      <trkpt lat="44.06981" lon="7.39764">
        <ele>1675</ele>
        <time>2019-07-20T13:56:27.113Z</time>
      </trkpt>
      <trkpt lat="44.06973" lon="7.39754">
        <ele>1672</ele>
        <time>2019-07-20T13:56:33.118Z</time>
      </trkpt>
      <trkpt lat="44.06958" lon="7.39732">
        <ele>1670</ele>
        <time>2019-07-20T13:56:40.121Z</time>
      </trkpt>
      <trkpt lat="44.06945" lon="7.39705">
        <ele>1670</ele>
        <time>2019-07-20T13:56:47.117Z</time>
      </trkpt>
      <trkpt lat="44.06935" lon="7.39679">
        <ele>1669</ele>
        <time>2019-07-20T13:56:56.117Z</time>
      </trkpt>
      <trkpt lat="44.06935" lon="7.39662">
        <ele>1666.6399872</ele>
        <time>2019-07-20T13:57:01.110Z</time>
      </trkpt>
      <trkpt lat="44.06921" lon="7.39636">
        <ele>1665</ele>
        <time>2019-07-20T13:57:09.111Z</time>
      </trkpt>
      <trkpt lat="44.06914" lon="7.39625">
        <ele>1663</ele>
        <time>2019-07-20T13:57:15.118Z</time>
      </trkpt>
      <trkpt lat="44.06905" lon="7.39613">
        <ele>1663</ele>
        <time>2019-07-20T13:57:20.121Z</time>
      </trkpt>
      <trkpt lat="44.06882" lon="7.39599">
        <ele>1662</ele>
        <time>2019-07-20T13:57:28.115Z</time>
      </trkpt>
      <trkpt lat="44.06866" lon="7.39585">
        <ele>1661</ele>
        <time>2019-07-20T13:57:35.115Z</time>
      </trkpt>
      <trkpt lat="44.06852" lon="7.39569">
        <ele>1659.2150144</ele>
        <time>2019-07-20T13:57:41.115Z</time>
      </trkpt>
      <trkpt lat="44.06837" lon="7.3955">
        <ele>1657</ele>
        <time>2019-07-20T13:57:49.114Z</time>
      </trkpt>
      <trkpt lat="44.06825" lon="7.39527">
        <ele>1654.3030016</ele>
        <time>2019-07-20T13:57:56.217Z</time>
      </trkpt>
      <trkpt lat="44.06819" lon="7.39503">
        <ele>1653</ele>
        <time>2019-07-20T13:58:03.115Z</time>
      </trkpt>
      <trkpt lat="44.06811" lon="7.3948">
        <ele>1653</ele>
        <time>2019-07-20T13:58:10.115Z</time>
      </trkpt>
      <trkpt lat="44.06803" lon="7.39462">
        <ele>1651</ele>
        <time>2019-07-20T13:58:16.121Z</time>
      </trkpt>
      <trkpt lat="44.06791" lon="7.3944">
        <ele>1649</ele>
        <time>2019-07-20T13:58:24.111Z</time>
      </trkpt>
      <trkpt lat="44.06766" lon="7.39421">
        <ele>1648</ele>
        <time>2019-07-20T13:58:32.121Z</time>
      </trkpt>
      <trkpt lat="44.06745" lon="7.39427">
        <ele>1647</ele>
        <time>2019-07-20T13:58:43.115Z</time>
      </trkpt>
      <trkpt lat="44.06724" lon="7.39415">
        <ele>1646</ele>
        <time>2019-07-20T13:58:52.108Z</time>
      </trkpt>
      <trkpt lat="44.06707" lon="7.39408">
        <ele>1646</ele>
        <time>2019-07-20T13:58:59.217Z</time>
      </trkpt>
      <trkpt lat="44.06693" lon="7.39408">
        <ele>1644</ele>
        <time>2019-07-20T13:59:07.115Z</time>
      </trkpt>
      <trkpt lat="44.06698" lon="7.39423">
        <ele>1642</ele>
        <time>2019-07-20T13:59:13.115Z</time>
      </trkpt>
      <trkpt lat="44.06717" lon="7.39437">
        <ele>1640</ele>
        <time>2019-07-20T13:59:22.115Z</time>
      </trkpt>
      <trkpt lat="44.06739" lon="7.39456">
        <ele>1640</ele>
        <time>2019-07-20T13:59:30.121Z</time>
      </trkpt>
      <trkpt lat="44.06751" lon="7.39479">
        <ele>1639</ele>
        <time>2019-07-20T13:59:36.118Z</time>
      </trkpt>
      <trkpt lat="44.06743" lon="7.39491">
        <ele>1637.2029952</ele>
        <time>2019-07-20T13:59:41.119Z</time>
      </trkpt>
      <trkpt lat="44.06706" lon="7.39483">
        <ele>1635</ele>
        <time>2019-07-20T13:59:48.115Z</time>
      </trkpt>
      <trkpt lat="44.06681" lon="7.39477">
        <ele>1634</ele>
        <time>2019-07-20T13:59:57.115Z</time>
      </trkpt>
      <trkpt lat="44.06654" lon="7.39476">
        <ele>1630</ele>
        <time>2019-07-20T14:00:08.115Z</time>
      </trkpt>
      <trkpt lat="44.0663" lon="7.39466">
        <ele>1629</ele>
        <time>2019-07-20T14:00:16.116Z</time>
      </trkpt>
      <trkpt lat="44.06606" lon="7.39466">
        <ele>1627</ele>
        <time>2019-07-20T14:00:24.114Z</time>
      </trkpt>
      <trkpt lat="44.06595" lon="7.39463">
        <ele>1625.8100096</ele>
        <time>2019-07-20T14:00:31.115Z</time>
      </trkpt>
      <trkpt lat="44.06575" lon="7.39458">
        <ele>1625</ele>
        <time>2019-07-20T14:00:39.115Z</time>
      </trkpt>
      <trkpt lat="44.06556" lon="7.39448">
        <ele>1624</ele>
        <time>2019-07-20T14:00:46.122Z</time>
      </trkpt>
      <trkpt lat="44.06538" lon="7.39431">
        <ele>1622</ele>
        <time>2019-07-20T14:00:53.115Z</time>
      </trkpt>
      <trkpt lat="44.06525" lon="7.39405">
        <ele>1622</ele>
        <time>2019-07-20T14:00:59.110Z</time>
      </trkpt>
      <trkpt lat="44.06524" lon="7.39388">
        <ele>1620</ele>
        <time>2019-07-20T14:01:04.113Z</time>
      </trkpt>
      <trkpt lat="44.06516" lon="7.39361">
        <ele>1620</ele>
        <time>2019-07-20T14:01:10.115Z</time>
      </trkpt>
      <trkpt lat="44.06508" lon="7.39334">
        <ele>1619</ele>
        <time>2019-07-20T14:01:17.107Z</time>
      </trkpt>
      <trkpt lat="44.06503" lon="7.3932">
        <ele>1618</ele>
        <time>2019-07-20T14:01:24.114Z</time>
      </trkpt>
      <trkpt lat="44.06493" lon="7.39311">
        <ele>1618</ele>
        <time>2019-07-20T14:01:29.122Z</time>
      </trkpt>
      <trkpt lat="44.06484" lon="7.39304">
        <ele>1617</ele>
        <time>2019-07-20T14:01:34.110Z</time>
      </trkpt>
      <trkpt lat="44.06479" lon="7.39292">
        <ele>1617</ele>
        <time>2019-07-20T14:01:39.112Z</time>
      </trkpt>
      <trkpt lat="44.06465" lon="7.3927">
        <ele>1616</ele>
        <time>2019-07-20T14:01:47.108Z</time>
      </trkpt>
      <trkpt lat="44.06457" lon="7.3926">
        <ele>1615</ele>
        <time>2019-07-20T14:01:52.110Z</time>
      </trkpt>
      <trkpt lat="44.06441" lon="7.39241">
        <ele>1615.5890048</ele>
        <time>2019-07-20T14:02:01.109Z</time>
      </trkpt>
      <trkpt lat="44.06431" lon="7.39236">
        <ele>1616</ele>
        <time>2019-07-20T14:02:12.116Z</time>
      </trkpt>
      <trkpt lat="44.06419" lon="7.39229">
        <ele>1616</ele>
        <time>2019-07-20T14:02:17.115Z</time>
      </trkpt>
      <trkpt lat="44.06409" lon="7.39223">
        <ele>1617</ele>
        <time>2019-07-20T14:02:22.115Z</time>
      </trkpt>
      <trkpt lat="44.06399" lon="7.39213">
        <ele>1617</ele>
        <time>2019-07-20T14:02:28.108Z</time>
      </trkpt>
      <trkpt lat="44.06381" lon="7.3919">
        <ele>1616</ele>
        <time>2019-07-20T14:02:35.112Z</time>
      </trkpt>
      <trkpt lat="44.06368" lon="7.39165">
        <ele>1614</ele>
        <time>2019-07-20T14:02:43.115Z</time>
      </trkpt>
      <trkpt lat="44.06354" lon="7.3914">
        <ele>1614</ele>
        <time>2019-07-20T14:02:50.110Z</time>
      </trkpt>
      <trkpt lat="44.06336" lon="7.39118">
        <ele>1612</ele>
        <time>2019-07-20T14:02:58.118Z</time>
      </trkpt>
      <trkpt lat="44.06327" lon="7.39106">
        <ele>1610</ele>
        <time>2019-07-20T14:03:04.112Z</time>
      </trkpt>
      <trkpt lat="44.06311" lon="7.39083">
        <ele>1610</ele>
        <time>2019-07-20T14:03:12.111Z</time>
      </trkpt>
      <trkpt lat="44.06295" lon="7.39057">
        <ele>1610</ele>
        <time>2019-07-20T14:03:22.122Z</time>
      </trkpt>
    </trkseg>
  </trk>
</gpx>